# Wetter Temperatur Luftdruck Luftfeuchtigkeit Sichtweite Windgeschwindigkeit Windrichtung Zeit
1 Clear 24 1012 40 10000 9.26 110 15:55 01.02.2023
2 Clear 28 1012 35 10000 8.75 120 13:20 01.02.2023
3 Clear 28 1011 34 10000 8.75 110 12:59 01.02.2023
4 Clear 30 1010 31 10000 8.75 110 11:57 01.02.2023
5 Clear 32 1009 30 10000 7.72 100 09:39 01.02.2023
6 Clear 25 1013 47 10000 9.77 90 03:18 01.02.2023
7 Clear 19 1012 67 10000 10.29 110 21:45 31.01.2023
8 Clear 19 1011 68 10000 6.69 120 20:20 31.01.2023
9 Clear 20 1011 67 10000 9.77 110 18:50 31.01.2023
10 Clear 23 1010 56 10000 12.86 110 16:20 31.01.2023
11 Clear 25 1010 46 10000 9.77 100 15:36 31.01.2023
12 Clear 26 1009 44 10000 9.77 100 15:18 31.01.2023
13 Clear 32 1006 29 10000 7.72 130 12:24 31.01.2023
14 Clear 33 1007 33 10000 9.77 170 11:20 31.01.2023
15 Clear 35 1007 24 10000 7.72 170 09:53 31.01.2023
16 Clear 34 1007 37 10000 8.23 180 08:59 31.01.2023
17 Clear 34 1007 35 10000 6.17 160 08:35 31.01.2023
18 Clear 33 1007 37 10000 5.14 180 05:39 31.01.2023
19 Clear 23 1009 56 10000 5.66 110 23:56 30.01.2023
20 Clear 23 1008 59 10000 5.14 110 22:51 30.01.2023
21 Clouds 23 1007 59 10000 3.6 110 22:30 30.01.2023
22 Clear 24 1007 59 10000 4.63 110 20:59 30.01.2023
23 Clear 25 1007 58 10000 6.17 100 20:27 30.01.2023
24 Clear 26 1007 55 10000 5.14 90 17:50 30.01.2023
25 Clear 27 1007 60 10000 6.69 120 16:32 30.01.2023
26 Clear 28 1006 58 10000 4.63 210 14:27 30.01.2023
27 Clear 30 1005 47 10000 5.66 230 12:26 30.01.2023
28 Clear 34 1005 27 10000 6.17 220 10:55 30.01.2023
29 Clouds 36 1007 24 10000 6.69 220 09:54 30.01.2023
30 Clear 37 1006 19 10000 7.72 220 08:48 30.01.2023
31 Clear 37 1007 21 10000 5.14 250 06:40 30.01.2023
32 Clear 29 1007 34 10000 5.14 60 01:38 30.01.2023
33 Clear 25 1008 44 10000 7.72 70 23:34 29.01.2023
34 Clear 24 1007 43 10000 9.77 80 22:37 29.01.2023
35 Clear 25 1007 42 10000 8.23 80 21:30 29.01.2023
36 Clouds 26 1007 40 10000 8.23 80 20:36 29.01.2023
37 Clouds 27 1007 39 10000 6.69 90 19:33 29.01.2023
38 Clouds 28 1007 36 10000 9.77 90 18:41 29.01.2023
39 Clear 29 1007 32 10000 9.26 100 17:28 29.01.2023
40 Clear 29 1007 36 10000 4.63 110 16:20 29.01.2023
41 Clear 30 1007 41 10000 4.12 190 14:21 29.01.2023
42 Clear 31 1008 36 10000 3.6 110 13:25 29.01.2023
43 Clear 33 1007 22 10000 5.14 140 12:39 29.01.2023
44 Clear 33 1007 32 10000 5.14 140 12:20 29.01.2023
45 Clear 33 1006 27 10000 5.14 110 11:42 29.01.2023
46 Clear 34 1005 31 10000 5.14 110 11:23 29.01.2023
47 Clear 36 1007 20 10000 2.57 70 08:55 29.01.2023
48 Clear 35 1008 22 10000 4.12 140 06:49 29.01.2023
49 Clear 21 1009 52 10000 6.69 60 00:19 29.01.2023
50 Clouds 19 1008 57 10000 6.17 100 21:49 28.01.2023
51 Clear 21 1007 50 10000 10.29 90 19:59 28.01.2023
52 Clear 21 1007 48 10000 10.29 90 19:27 28.01.2023
53 Clear 23 1007 38 10000 6.69 110 17:59 28.01.2023
54 Clear 22 1007 52 10000 4.63 190 16:57 28.01.2023
55 Clear 22 1007 53 10000 4.12 190 16:19 28.01.2023
56 Clear 22 1008 54 10000 5.14 170 15:37 28.01.2023
57 Clear 23 1007 51 10000 9.26 190 13:51 28.01.2023
58 Clear 24 1007 55 10000 7.72 200 12:45 28.01.2023
59 Clear 28 1005 42 10000 9.26 230 10:41 28.01.2023
60 Clear 28 1005 40 10000 8.23 230 10:20 28.01.2023
61 Clear 30 1008 37 10000 3.6 140 05:57 28.01.2023
62 Clear 21 1011 54 10000 7.2 100 01:32 28.01.2023
63 Clear 18 1011 59 10000 5.66 110 00:21 28.01.2023
64 Clear 18 1009 60 10000 5.66 100 20:35 27.01.2023
65 Clear 20 1008 60 10000 4.12 100 17:58 27.01.2023
66 Clear 19 1009 64 10000 2.57 130 17:21 27.01.2023
67 Clear 19 1009 63 10000 2.57 180 16:58 27.01.2023
68 Clear 20 1009 61 10000 3.6 170 16:21 27.01.2023
69 Clear 21 1009 62 10000 4.63 210 14:28 27.01.2023
70 Clear 21 1009 62 10000 4.63 200 13:44 27.01.2023
71 Clear 22 1008 60 10000 8.23 220 11:51 27.01.2023
72 Clear 26 1008 58 10000 9.26 220 08:35 27.01.2023
73 Clear 20 1009 62 10000 5.66 190 00:45 27.01.2023
74 Clear 17 1009 75 10000 6.17 180 22:45 26.01.2023
75 Clear 18 1008 70 10000 6.69 190 20:57 26.01.2023
76 Clear 18 1007 70 10000 7.72 190 20:30 26.01.2023
77 Clear 20 1008 70 10000 4.63 210 18:20 26.01.2023
78 Clear 20 1008 76 10000 3.6 180 16:57 26.01.2023
79 Clear 21 1008 76 10000 4.63 200 16:24 26.01.2023
80 Clear 21 1008 70 10000 5.14 200 15:43 26.01.2023
81 Clear 21 1008 71 10000 5.14 200 15:25 26.01.2023
82 Clear 22 1008 60 10000 6.17 220 13:56 26.01.2023
83 Clear 24 1008 51 10000 8.75 210 12:35 26.01.2023
84 Clear 27 1007 42 10000 9.26 220 10:59 26.01.2023
85 Clear 29 1007 39 10000 9.77 220 10:26 26.01.2023
86 Clear 29 1007 35 10000 8.75 220 09:42 26.01.2023
87 Clear 30 1007 35 10000 8.75 230 08:25 26.01.2023
88 Clear 19 1013 69 10000 7.72 70 23:58 25.01.2023
89 Clear 19 1013 71 10000 5.66 70 23:37 25.01.2023
90 Clear 19 1013 67 10000 8.75 70 21:54 25.01.2023
91 Clear 19 1013 65 10000 9.26 80 21:20 25.01.2023
92 Clear 23 1012 51 10000 8.23 100 18:31 25.01.2023
93 Clear 24 1012 44 10000 6.17 100 17:29 25.01.2023
94 Clear 23 1012 56 10000 4.12 170 15:40 25.01.2023
95 Clear 25 1011 56 10000 5.14 220 12:51 25.01.2023
96 Clear 29 1010 44 10000 6.69 230 10:46 25.01.2023
97 Clear 30 1011 42 10000 6.69 260 09:41 25.01.2023
98 Clear 31 1012 34 10000 3.6 150 06:57 25.01.2023
99 Clear 22 1013 60 10000 5.66 150 01:26 25.01.2023
100 Clear 19 1013 72 10000 4.63 180 23:56 24.01.2023
101 Clear 19 1011 70 10000 4.63 130 21:31 24.01.2023
102 Clear 20 1011 65 10000 5.14 110 20:19 24.01.2023
103 Clear 23 1010 58 10000 5.14 120 18:39 24.01.2023
104 Clear 24 1010 56 10000 5.14 130 17:20 24.01.2023
105 Clear 24 1009 60 10000 5.66 180 16:52 24.01.2023
106 Clear 24 1009 67 10000 5.14 200 15:21 24.01.2023
107 Clear 25 1008 66 10000 6.69 220 13:19 24.01.2023
108 Clear 27 1007 59 10000 8.75 210 11:20 24.01.2023
109 Clear 31 1008 44 10000 7.72 230 08:23 24.01.2023
110 Clear 31 1008 42 10000 8.23 230 07:51 24.01.2023
111 Clear 32 1008 41 10000 5.66 260 05:32 24.01.2023
112 Clear 26 1008 53 10000 3.6 170 01:37 24.01.2023
113 Rain 20 1008 88 1200 0.51 240 23:58 23.01.2023
114 Rain 19 1007 97 700 0 0 22:27 23.01.2023
115 Clouds 20 1007 94 10000 2.06 30 19:53 23.01.2023
116 Clear 21 1007 89 10000 3.6 30 18:26 23.01.2023
117 Clear 23 1007 86 10000 3.09 240 16:19 23.01.2023
118 Clear 23 1007 79 10000 3.09 260 14:45 23.01.2023
119 Clear 25 1007 66 10000 4.12 220 13:44 23.01.2023
120 Clear 26 1007 53 10000 4.63 240 12:54 23.01.2023
121 Clear 29 1006 38 10000 5.14 240 11:44 23.01.2023
122 Clear 32 1008 41 10000 7.2 230 08:49 23.01.2023
123 Clear 32 1007 46 10000 8.23 240 07:38 23.01.2023
124 Clear 20 1009 94 10000 2.06 40 23:31 22.01.2023
125 Clear 20 1008 92 10000 3.6 20 21:48 22.01.2023
126 Clear 21 1008 91 10000 3.09 10 20:53 22.01.2023
127 Clouds 21 1008 90 10000 2.57 30 19:53 22.01.2023
128 Clouds 22 1008 90 10000 3.09 20 19:20 22.01.2023
129 Clouds 22 1008 90 10000 3.09 40 18:18 22.01.2023
130 Mist 22 1008 89 10000 2.06 30 17:44 22.01.2023
131 Clouds 22 1008 90 10000 2.57 290 17:21 22.01.2023
132 Clear 23 1008 86 10000 2.57 210 14:55 22.01.2023
133 Clear 23 1007 83 10000 5.14 230 13:50 22.01.2023
134 Clear 25 1007 75 10000 4.12 250 12:54 22.01.2023
135 Clear 28 1006 56 10000 4.12 260 11:56 22.01.2023
136 Clear 29 1006 56 10000 5.66 270 09:55 22.01.2023
137 Clear 30 1008 53 10000 5.14 260 08:44 22.01.2023
138 Clear 32 1007 40 10000 5.66 350 02:54 22.01.2023
139 Clear 27 1007 42 10000 6.17 50 23:42 21.01.2023
140 Clear 27 1006 31 10000 5.66 50 22:47 21.01.2023
141 Clear 29 1005 26 10000 7.2 50 20:48 21.01.2023
142 Clear 26 1005 43 10000 3.09 10 18:49 21.01.2023
143 Clear 27 1005 41 10000 3.6 90 15:19 21.01.2023
144 Clouds 29 1004 35 10000 2.57 180 13:31 21.01.2023
145 Clear 31 1004 28 10000 4.12 230 12:43 21.01.2023
146 Clear 34 1006 19 10000 5.14 240 11:28 21.01.2023
147 Clear 35 1006 19 10000 4.12 250 10:46 21.01.2023
148 Rain 40 1006 13 10000 6.69 250 06:48 21.01.2023
149 Clear 28 1008 31 10000 8.23 80 00:27 21.01.2023
150 Clear 26 1007 32 10000 7.2 70 22:26 20.01.2023
151 Clear 27 1006 32 10000 7.2 70 21:35 20.01.2023
152 Clear 27 1006 32 10000 8.75 80 20:42 20.01.2023
153 Clear 27 1006 42 10000 5.66 80 18:23 20.01.2023
154 Clear 26 1007 52 10000 2.57 120 15:27 20.01.2023
155 Clear 28 1006 47 10000 3.6 190 14:33 20.01.2023
156 Clear 33 1006 31 10000 6.69 190 11:59 20.01.2023
157 Clear 35 1006 25 10000 7.72 240 08:59 20.01.2023
158 Clear 36 1007 21 10000 5.14 360 07:41 20.01.2023
159 Clear 29 1009 40 10000 5.14 60 02:33 20.01.2023
160 Clear 21 1009 57 10000 5.66 90 22:38 19.01.2023
161 Clear 22 1009 55 10000 5.66 80 21:59 19.01.2023
162 Clear 23 1009 51 10000 6.17 90 19:46 19.01.2023
163 Clear 24 1009 53 10000 5.66 110 18:57 19.01.2023
164 Clear 27 1008 47 10000 3.09 60 14:55 19.01.2023
165 Clear 33 1005 27 10000 6.69 100 10:44 19.01.2023
166 Clear 35 1006 24 10000 6.17 160 08:58 19.01.2023
167 Clouds 18 1012 56 10000 7.72 90 22:42 18.01.2023
168 Clear 19 1012 50 10000 7.72 90 20:36 18.01.2023
169 Clear 19 1011 49 10000 7.2 90 20:18 18.01.2023
170 Clear 20 1011 46 10000 12.35 90 19:35 18.01.2023
171 Clear 24 1011 33 10000 12.35 100 16:47 18.01.2023
172 Clear 26 1012 31 10000 4.12 150 14:21 18.01.2023
173 Clear 27 1013 37 10000 4.63 130 12:50 18.01.2023
174 Clear 32 1013 20 10000 6.17 120 10:29 18.01.2023
175 Clear 30 1015 24 10000 6.69 70 07:24 18.01.2023
176 Clear 20 1018 47 10000 11.32 80 01:25 18.01.2023
177 Clear 20 1018 47 10000 11.32 80 01:25 18.01.2023
178 Clear 16 1018 55 10000 14.4 90 22:21 17.01.2023
179 Clear 16 1018 54 10000 10.29 100 20:25 17.01.2023
180 Clear 17 1017 51 10000 10.29 100 18:59 17.01.2023
181 Clear 19 1017 47 10000 13.38 100 17:41 17.01.2023
182 Clear 22 1016 38 10000 6.17 120 15:28 17.01.2023
183 Clear 20 1016 57 10000 2.57 170 14:50 17.01.2023
184 Clear 21 1014 60 10000 3.95 171 13:33 17.01.2023
185 Clear 24 1015 46 10000 5.66 210 11:49 17.01.2023
186 Clear 25 1014 45 10000 8.23 220 10:34 17.01.2023
187 Clear 27 1014 34 10000 10.8 240 09:26 17.01.2023
188 Clear 28 1016 23 10000 5.14 190 07:34 17.01.2023
189 Clear 23 1018 36 10000 6.69 130 03:49 17.01.2023
190 Clear 17 1020 51 10000 6.69 130 00:49 17.01.2023
191 Clear 14 1018 58 10000 4.63 160 22:39 16.01.2023
192 Clear 14 1018 58 10000 4.63 150 21:44 16.01.2023
193 Clear 16 1017 53 10000 5.66 150 19:55 16.01.2023
194 Clear 17 1016 51 10000 6.17 130 19:18 16.01.2023
195 Clear 17 1016 50 10000 7.2 130 18:48 16.01.2023
196 Clear 17 1016 50 10000 7.2 140 18:18 16.01.2023
197 Clear 17 1015 50 10000 6.69 150 17:20 16.01.2023
198 Clear 19 1013 47 10000 10.29 190 14:19 16.01.2023
199 Clear 20 1012 53 10000 8.23 210 13:36 16.01.2023
200 Clear 23 1010 50 10000 10.29 210 10:25 16.01.2023
201 Clear 24 1009 50 10000 11.32 220 08:23 16.01.2023
202 Clear 17 1009 78 10000 7.72 200 22:49 15.01.2023
203 Clear 17 1008 75 10000 7.72 190 21:23 15.01.2023
204 Clear 17 1007 75 10000 8.75 190 20:31 15.01.2023
205 Clear 18 1006 74 10000 9.77 200 19:34 15.01.2023
206 Clear 20 1006 72 10000 7.2 200 17:25 15.01.2023
207 Clear 22 1007 61 10000 8.23 210 13:55 15.01.2023
208 Clear 24 1005 53 10000 7.72 210 12:23 15.01.2023
209 Clear 26 1005 44 10000 8.75 200 11:28 15.01.2023
210 Clear 27 1004 43 10000 8.75 230 10:24 15.01.2023
211 Clear 30 1006 35 10000 8.75 230 07:56 15.01.2023
212 Clear 17 1013 54 10000 7.72 100 23:39 14.01.2023
213 Clear 16 1013 56 10000 6.69 110 22:43 14.01.2023
214 Clear 17 1013 54 10000 6.17 110 21:36 14.01.2023
215 Clear 17 1013 54 10000 6.17 110 21:36 14.01.2023
216 Clear 17 1013 54 10000 6.17 110 21:18 14.01.2023
217 Clear 17 1013 52 10000 7.72 110 20:42 14.01.2023
218 Clear 17 1013 52 10000 7.72 110 20:22 14.01.2023
219 Clear 20 1013 45 10000 6.17 110 17:53 14.01.2023
220 Clear 23 1015 32 10000 8.23 110 15:38 14.01.2023
221 Clear 23 1015 31 10000 8.23 110 15:19 14.01.2023
222 Clear 25 1014 29 10000 5.66 120 14:19 14.01.2023
223 Clear 27 1014 23 10000 7.2 120 12:49 14.01.2023
224 Clear 30 1013 19 10000 7.72 110 10:49 14.01.2023
225 Clear 31 1014 17 10000 8.23 110 08:41 14.01.2023
226 Clear 22 1020 43 10000 10.29 120 02:35 14.01.2023
227 Clear 15 1021 65 10000 6.69 120 22:59 13.01.2023
228 Clear 15 1021 65 10000 8.23 130 22:41 13.01.2023
229 Clear 15 1020 66 10000 7.2 150 21:57 13.01.2023
230 Clear 17 1019 65 10000 5.66 130 20:33 13.01.2023
231 Clear 18 1018 68 10000 6.17 150 19:27 13.01.2023
232 Clear 21 1017 63 10000 7.2 160 16:58 13.01.2023
233 Clear 23 1016 60 10000 8.23 190 14:53 13.01.2023
234 Clear 23 1015 68 10000 8.75 210 12:24 13.01.2023
235 Clear 23 1015 68 10000 8.75 210 12:24 13.01.2023
236 Clear 25 1013 60 10000 9.26 210 10:41 13.01.2023
237 Clear 26 1013 59 10000 9.26 210 10:22 13.01.2023
238 Clear 26 1013 56 10000 10.8 220 09:41 13.01.2023
239 Clear 27 1013 53 10000 9.26 230 08:51 13.01.2023
240 Clear 27 1014 51 10000 9.26 230 06:56 13.01.2023
241 Clear 27 1015 53 10000 9.77 230 06:18 13.01.2023
242 Clear 23 1014 63 10000 7.72 190 01:42 13.01.2023
243 Clear 18 1013 86 10000 5.14 200 22:48 12.01.2023
244 Clear 18 1012 84 10000 5.66 190 21:49 12.01.2023
245 Clear 18 1011 84 10000 5.66 190 20:48 12.01.2023
246 Clear 20 1011 84 10000 3.09 200 18:26 12.01.2023
247 Clear 20 1012 81 10000 4.12 210 16:59 12.01.2023
248 Clear 21 1012 76 10000 6.17 210 14:55 12.01.2023
249 Rain 22 1012 75 10000 5.66 210 14:26 12.01.2023
250 Clear 22 1012 74 10000 5.14 220 13:49 12.01.2023
251 Clear 25 1010 51 10000 6.69 220 11:57 12.01.2023
252 Clear 27 1009 46 10000 7.72 230 10:24 12.01.2023
253 Clear 29 1011 42 10000 9.26 230 07:26 12.01.2023
254 Clear 21 1013 59 10000 4.12 120 00:31 12.01.2023
255 Clear 20 1013 65 10000 3.6 70 23:48 11.01.2023
256 Clear 18 1013 72 10000 4.63 80 23:30 11.01.2023
257 Clear 17 1012 78 10000 5.14 110 22:55 11.01.2023
258 Clear 17 1011 83 10000 1.03 320 21:21 11.01.2023
259 Clear 19 1011 82 10000 4.12 180 18:51 11.01.2023
260 Clear 19 1012 85 10000 3.09 220 17:31 11.01.2023
261 Clear 20 1013 79 10000 4.63 210 15:38 11.01.2023
262 Clear 21 1012 73 10000 6.17 220 13:56 11.01.2023
263 Clouds 21 1012 70 10000 7.2 200 12:27 11.01.2023
264 Clear 23 1011 61 10000 8.23 230 11:20 11.01.2023
265 Haze 25 1011 52 5000 8.23 240 08:43 11.01.2023
266 Haze 25 1011 51 5000 8.23 260 07:28 11.01.2023
267 Haze 26 1011 47 5000 7.2 240 05:55 11.01.2023
268 Clouds 20 1011 73 10000 5.14 200 22:54 10.01.2023
269 Clouds 20 1010 72 10000 5.14 200 22:18 10.01.2023
270 Clouds 20 1010 66 10000 5.14 210 20:56 10.01.2023
271 Clouds 20 1010 65 10000 4.63 240 19:51 10.01.2023
272 Clouds 21 1010 66 10000 5.66 220 18:48 10.01.2023
273 Clouds 21 1010 66 10000 5.66 220 18:48 10.01.2023
274 Clouds 21 1010 69 10000 5.66 240 17:59 10.01.2023
275 Clouds 21 1010 74 10000 6.69 230 16:54 10.01.2023
276 Clouds 21 1010 76 10000 7.2 230 15:33 10.01.2023
277 Clouds 21 1010 72 10000 8.23 230 14:35 10.01.2023
278 Clouds 22 1008 69 10000 8.23 230 12:31 10.01.2023
279 Clouds 25 1006 68 10000 8.23 240 09:43 10.01.2023
280 Clouds 26 1007 64 10000 9.26 250 08:37 10.01.2023
281 Clear 26 1007 64 10000 10.29 250 07:55 10.01.2023
282 Clear 32 1004 30 10000 6.17 240 04:59 10.01.2023
283 Clear 27 1003 40 10000 11.32 100 23:57 09.01.2023
284 Clear 27 1003 43 10000 4.63 80 21:55 09.01.2023
285 Clear 27 1003 48 10000 3.09 70 20:46 09.01.2023
286 Clear 25 1003 71 10000 4.12 140 19:41 09.01.2023
287 Rain 25 1004 69 10000 4.63 280 17:55 09.01.2023
288 Rain 26 1005 66 10000 6.69 250 17:31 09.01.2023
289 Rain 27 1004 58 10000 10.29 100 16:33 09.01.2023
290 Rain 26 1006 62 10000 7.72 30 15:30 09.01.2023
291 Rain 27 1005 54 10000 4.63 210 14:48 09.01.2023
292 Clear 27 1004 53 10000 6.17 200 13:50 09.01.2023
293 Clear 28 1004 48 10000 6.69 220 12:49 09.01.2023
294 Clear 29 1004 43 10000 8.23 220 11:45 09.01.2023
295 Clear 30 1004 41 10000 9.26 230 11:18 09.01.2023
296 Clear 35 1009 24 10000 4.12 140 06:49 09.01.2023
297 Clear 28 1011 41 10000 5.66 120 02:54 09.01.2023
298 Clear 22 1012 54 10000 10.29 110 00:43 09.01.2023
299 Clear 19 1012 59 10000 6.69 100 21:41 08.01.2023
300 Clear 19 1012 58 10000 6.69 100 21:20 08.01.2023
301 Clear 20 1011 58 10000 4.12 100 20:29 08.01.2023
302 Clear 20 1011 70 10000 3.09 130 17:53 08.01.2023
303 Clear 20 1012 73 10000 3.6 200 17:20 08.01.2023
304 Clear 21 1012 73 10000 4.63 200 15:43 08.01.2023
305 Clear 21 1012 73 10000 4.63 200 15:23 08.01.2023
306 Clear 22 1012 69 10000 5.14 210 13:57 08.01.2023
307 Clear 22 1011 67 10000 5.66 220 13:28 08.01.2023
308 Clear 23 1011 62 10000 7.2 220 12:19 08.01.2023
309 Clear 27 1009 48 10000 8.23 220 09:38 08.01.2023
310 Clear 28 1009 46 10000 8.75 240 08:45 08.01.2023
311 Clear 28 1010 45 10000 8.75 250 07:22 08.01.2023
312 Clear 18 1013 61 10000 3.6 120 23:40 07.01.2023
313 Clear 17 1013 67 10000 4.63 120 22:46 07.01.2023
314 Clear 17 1013 67 10000 3.6 120 22:20 07.01.2023
315 Clear 16 1012 74 10000 4.63 150 21:36 07.01.2023
316 Clear 17 1012 77 10000 4.12 180 20:29 07.01.2023
317 Clear 17 1012 74 10000 4.63 190 19:28 07.01.2023
318 Clear 17 1011 72 10000 4.63 180 18:21 07.01.2023
319 Clear 18 1011 72 10000 6.17 190 17:43 07.01.2023
320 Clear 19 1011 72 10000 5.66 190 16:54 07.01.2023
321 Clear 19 1011 75 10000 7.72 190 16:28 07.01.2023
322 Clear 20 1011 75 10000 8.23 190 15:40 07.01.2023
323 Clear 20 1011 74 10000 8.23 190 15:22 07.01.2023
324 Clear 20 1010 70 10000 5.66 200 13:59 07.01.2023
325 Clear 20 1010 69 10000 7.72 210 13:41 07.01.2023
326 Clear 21 1010 67 10000 8.23 210 12:58 07.01.2023
327 Clear 21 1009 64 10000 7.72 200 12:21 07.01.2023
328 Clear 24 1008 51 10000 9.26 220 10:28 07.01.2023
329 Clear 25 1008 48 10000 9.26 220 09:22 07.01.2023
330 Clear 25 1009 47 10000 9.77 240 07:59 07.01.2023
331 Clear 25 1010 45 10000 9.26 250 07:40 07.01.2023
332 Clear 25 1011 38 10000 5.14 170 05:49 07.01.2023
333 Clear 13 1012 73 10000 3.09 180 22:58 06.01.2023
334 Clear 13 1012 72 10000 3.6 190 22:21 06.01.2023
335 Clear 13 1012 72 10000 3.6 190 22:21 06.01.2023
336 Clear 14 1012 71 10000 4.63 180 21:44 06.01.2023
337 Clear 15 1011 70 10000 5.66 180 20:33 06.01.2023
338 Clear 15 1011 70 10000 6.17 180 19:54 06.01.2023
339 Clear 15 1010 69 10000 6.17 190 19:36 06.01.2023
340 Clear 15 1010 69 10000 6.17 190 19:18 06.01.2023
341 Clear 17 1010 66 10000 7.72 190 17:44 06.01.2023
342 Clear 18 1009 64 10000 8.75 190 16:52 06.01.2023
343 Clear 18 1009 63 10000 8.23 190 16:21 06.01.2023
344 Clear 19 1009 61 10000 10.29 190 15:51 06.01.2023
345 Clear 19 1008 60 10000 9.77 190 15:27 06.01.2023
346 Clear 21 1006 63 10000 7.72 210 13:31 06.01.2023
347 Clear 24 1005 60 10000 8.23 220 11:19 06.01.2023
348 Clear 25 1004 61 10000 9.26 220 09:56 06.01.2023
349 Clear 25 1004 59 10000 9.77 230 08:30 06.01.2023
350 Clear 32 1006 20 10000 8.23 240 03:40 06.01.2023
351 Clear 27 1003 26 10000 4.63 40 22:56 05.01.2023
352 Clear 27 1002 25 10000 5.66 40 21:55 05.01.2023
353 Clear 26 1003 25 10000 4.63 60 20:20 05.01.2023
354 Clear 27 1003 29 10000 5.14 60 17:28 05.01.2023
355 Clear 27 1003 32 10000 4.12 110 16:30 05.01.2023
356 Clear 27 1004 35 10000 3.6 100 15:48 05.01.2023
357 Clear 28 1004 33 10000 4.12 150 14:53 05.01.2023
358 Clear 32 1004 25 10000 4.63 210 12:49 05.01.2023
359 Clear 33 1003 23 10000 5.14 220 12:27 05.01.2023
360 Clear 38 1003 14 10000 5.66 250 09:55 05.01.2023
361 Clear 38 1005 13 10000 4.12 120 09:32 05.01.2023
362 Clear 37 1005 13 10000 5.66 140 07:21 05.01.2023
363 Clear 36 1005 14 10000 6.17 80 06:36 05.01.2023
364 Clear 24 1008 45 10000 10.29 70 00:25 05.01.2023
365 Clear 21 1007 55 10000 11.83 80 21:33 04.01.2023
366 Clear 21 1007 54 10000 11.83 80 20:58 04.01.2023
367 Clear 22 1007 51 10000 13.38 90 19:57 04.01.2023
368 Clear 22 1007 51 10000 13.89 90 19:33 04.01.2023
369 Clear 24 1007 46 10000 12.86 90 18:37 04.01.2023
370 Clear 28 1007 26 10000 9.77 100 16:32 04.01.2023
371 Clear 28 1007 24 10000 8.75 100 15:55 04.01.2023
372 Clear 28 1007 27 10000 3.09 170 14:39 04.01.2023
373 Clear 34 1008 17 10000 5.66 120 11:41 04.01.2023
374 Clear 34 1006 17 10000 5.66 120 11:20 04.01.2023
375 Clear 35 1008 15 10000 7.2 110 10:43 04.01.2023
376 Clear 35 1006 16 10000 7.2 110 10:22 04.01.2023
377 Clear 35 1007 16 10000 7.2 80 08:49 04.01.2023
378 Clear 27 1011 41 10000 9.26 100 02:53 04.01.2023
379 Clear 21 1011 57 10000 8.23 100 00:31 04.01.2023
380 Clear 19 1011 64 10000 8.23 90 23:34 03.01.2023
381 Clear 18 1011 68 10000 7.72 90 22:44 03.01.2023
382 Clear 18 1010 65 10000 9.26 100 20:53 03.01.2023
383 Clear 20 1010 60 10000 7.72 90 19:23 03.01.2023
384 Clear 23 1010 51 10000 7.72 110 17:36 03.01.2023
385 Clear 26 1010 42 10000 9.26 120 15:54 03.01.2023
386 Clear 29 1008 27 10000 4.63 130 13:53 03.01.2023
387 Clear 29 1008 25 10000 4.63 130 13:30 03.01.2023
388 Clear 30 1009 21 10000 5.14 120 12:57 03.01.2023
389 Clear 32 1009 20 10000 6.69 100 12:29 03.01.2023
390 Clear 34 1009 17 10000 7.72 100 10:32 03.01.2023
391 Clear 32 1010 24 10000 7.72 110 06:41 03.01.2023
392 Clear 29 1012 34 10000 9.26 80 04:18 03.01.2023
393 Clear 28 1012 36 10000 10.29 100 03:42 03.01.2023
394 Clear 23 1013 49 10000 10.29 90 01:39 03.01.2023
395 Clear 17 1013 67 10000 8.75 110 22:42 02.01.2023
396 Clear 17 1013 66 10000 8.75 110 22:18 02.01.2023
397 Clear 19 1012 58 10000 7.72 110 20:40 02.01.2023
398 Clear 20 1011 54 10000 8.75 100 19:44 02.01.2023
399 Clear 24 1011 39 10000 8.75 130 17:18 02.01.2023
400 Clear 27 1011 30 10000 6.69 150 15:19 02.01.2023
401 Clear 28 1009 21 10000 5.14 150 13:23 02.01.2023
402 Clear 32 1009 14 10000 7.72 120 11:41 02.01.2023
403 Clear 33 1008 14 10000 7.72 120 10:34 02.01.2023
404 Clear 32 1009 19 10000 6.17 150 07:33 02.01.2023
405 Clear 19 1015 55 10000 7.72 90 00:58 02.01.2023
406 Clear 16 1013 66 10000 8.23 110 22:20 01.01.2023
407 Clear 16 1013 64 10000 7.72 110 21:28 01.01.2023
408 Clear 17 1012 61 10000 8.75 110 20:47 01.01.2023
409 Clear 19 1011 57 10000 8.23 110 19:42 01.01.2023
410 Clear 21 1011 51 10000 7.72 120 17:56 01.01.2023
411 Clear 20 1010 60 10000 5.66 150 17:20 01.01.2023
412 Clear 19 1010 69 10000 4.12 170 16:32 01.01.2023
413 Clear 21 1011 65 10000 6.69 200 14:47 01.01.2023
414 Clear 21 1010 67 10000 5.66 200 13:37 01.01.2023
415 Clear 23 1009 63 10000 7.2 220 12:33 01.01.2023
416 Clear 24 1009 59 10000 7.72 230 11:36 01.01.2023
417 Clear 24 1009 59 10000 7.72 230 11:36 01.01.2023
418 Clear 25 1008 53 10000 8.75 210 10:23 01.01.2023
419 Clear 26 1010 47 10000 8.75 230 08:48 01.01.2023
420 Clear 26 1010 46 10000 9.26 230 08:18 01.01.2023
421 Clear 27 1010 44 10000 8.75 230 06:54 01.01.2023
422 Clear 19 1012 59 10000 4.12 140 00:44 01.01.2023
423 Clear 17 1013 66 10000 3.6 150 23:41 31.12.2022
424 Clear 16 1012 71 10000 3.6 180 22:31 31.12.2022
425 Clear 16 1011 71 10000 4.63 190 21:25 31.12.2022
426 Clear 16 1011 69 10000 5.14 180 20:43 31.12.2022
427 Clear 17 1010 66 10000 5.66 190 19:32 31.12.2022
428 Clear 17 1010 63 10000 7.2 190 18:40 31.12.2022
429 Clear 17 1010 62 10000 7.2 190 18:18 31.12.2022
430 Clear 18 1009 60 10000 7.2 190 17:43 31.12.2022
431 Clouds 19 1009 57 10000 5.66 180 16:38 31.12.2022
432 Clear 19 1009 56 10000 8.23 190 16:19 31.12.2022
433 Clear 20 1009 60 10000 6.69 210 14:36 31.12.2022
434 Clear 20 1009 64 10000 7.2 210 13:28 31.12.2022
435 Clear 21 1008 62 10000 8.75 210 12:39 31.12.2022
436 Clear 21 1008 62 10000 9.77 210 12:19 31.12.2022
437 Clear 22 1008 59 10000 9.77 200 11:45 31.12.2022
438 Clear 23 1007 55 10000 9.77 220 10:28 31.12.2022
439 Clear 24 1007 53 10000 9.77 220 09:52 31.12.2022
440 Clear 24 1007 53 10000 9.77 230 08:59 31.12.2022
441 Clear 26 1007 50 10000 9.26 240 06:52 31.12.2022
442 Clouds 19 1008 79 10000 6.69 200 00:35 31.12.2022
443 Clouds 18 1008 83 10000 7.2 180 23:40 30.12.2022
444 Clear 17 1007 87 10000 4.63 200 22:22 30.12.2022
445 Clear 17 1006 87 10000 5.14 190 21:41 30.12.2022
446 Clear 17 1006 87 10000 5.14 190 21:21 30.12.2022
447 Clouds 19 1005 85 10000 5.66 200 18:51 30.12.2022
448 Clouds 20 1005 85 10000 4.63 210 17:35 30.12.2022
449 Clouds 20 1006 85 10000 4.12 210 16:50 30.12.2022
450 Clouds 21 1007 85 10000 5.66 210 15:18 30.12.2022
451 Clouds 21 1006 82 10000 4.63 240 13:29 30.12.2022
452 Clear 28 1007 42 10000 7.2 230 08:39 30.12.2022
453 Clear 32 1008 27 10000 5.14 250 04:54 30.12.2022
454 Clear 28 1009 33 10000 1.54 20 02:28 30.12.2022
455 Clear 22 1008 53 10000 4.63 110 23:46 29.12.2022
456 Clear 16 1009 74 10000 4.12 100 22:28 29.12.2022
457 Clear 16 1008 75 10000 2.06 10 21:28 29.12.2022
458 Clear 17 1008 76 10000 1.54 110 20:53 29.12.2022
459 Clear 18 1009 73 10000 2.57 20 19:22 29.12.2022
460 Clear 19 1009 67 10000 2.57 180 17:53 29.12.2022
461 Clear 20 1009 64 10000 2.57 210 17:27 29.12.2022
462 Clear 20 1009 61 10000 3.6 220 16:54 29.12.2022
463 Clear 22 1010 50 10000 2.57 200 15:57 29.12.2022
464 Clear 25 1009 42 10000 6.17 200 13:42 29.12.2022
465 Clear 28 1009 28 10000 7.72 210 11:54 29.12.2022
466 Clear 31 1009 26 10000 8.75 210 10:19 29.12.2022
467 Clear 34 1011 16 10000 4.12 50 05:20 29.12.2022
468 Clear 19 1014 53 10000 6.69 90 23:29 28.12.2022
469 Clear 18 1013 56 10000 7.72 100 22:20 28.12.2022
470 Clear 19 1013 51 10000 6.17 90 21:20 28.12.2022
471 Clear 20 1013 48 10000 6.69 100 20:19 28.12.2022
472 Clear 18 1013 54 10000 2.06 20 18:31 28.12.2022
473 Clear 19 1014 70 10000 2.57 200 16:21 28.12.2022
474 Clear 22 1015 65 10000 4.63 200 13:59 28.12.2022
475 Clear 23 1015 58 10000 5.66 210 12:48 28.12.2022
476 Clear 26 1014 46 10000 6.69 220 11:33 28.12.2022
477 Clear 30 1015 30 10000 6.69 240 09:32 28.12.2022
478 Clear 31 1016 17 10000 5.66 90 07:42 28.12.2022
479 Clear 30 1017 19 10000 4.63 100 06:45 28.12.2022
480 Clear 18 1021 51 10000 6.69 80 00:57 28.12.2022
481 Clear 16 1020 60 10000 8.23 110 21:40 27.12.2022
482 Clear 17 1019 56 10000 7.2 100 19:51 27.12.2022
483 Clear 19 1018 51 10000 7.72 110 18:27 27.12.2022
484 Clear 19 1017 57 10000 4.63 170 16:59 27.12.2022
485 Clear 19 1017 63 10000 4.63 190 15:54 27.12.2022
486 Clear 21 1017 63 10000 4.63 210 14:23 27.12.2022
487 Clear 22 1016 56 10000 7.2 210 12:23 27.12.2022
488 Clear 25 1015 50 10000 9.26 220 09:47 27.12.2022
489 Clear 26 1015 46 10000 8.75 230 09:24 27.12.2022
490 Clear 26 1017 46 10000 8.75 230 08:47 27.12.2022
491 Clouds 25 1019 44 10000 6.69 210 04:54 27.12.2022
492 Clouds 16 1018 81 10000 2.06 60 23:29 26.12.2022
493 Clear 15 1016 84 10000 1.03 150 21:41 26.12.2022
494 Clear 16 1015 80 10000 3.09 170 20:43 26.12.2022
495 Clear 17 1014 80 10000 3.09 180 19:37 26.12.2022
496 Clear 17 1014 78 10000 4.63 200 18:41 26.12.2022
497 Clear 19 1013 75 10000 4.12 200 16:38 26.12.2022
498 Clear 19 1013 71 10000 6.17 200 14:49 26.12.2022
499 Clouds 20 1012 68 10000 8.23 210 12:53 26.12.2022
500 Clouds 25 1010 54 10000 9.26 230 09:27 26.12.2022
501 Clouds 20 1009 74 10000 3.6 200 00:25 26.12.2022
502 Clouds 18 1009 85 10000 4.12 160 23:38 25.12.2022
503 Clouds 17 1008 89 10000 3.6 180 22:39 25.12.2022
504 Clear 17 1008 89 10000 2.57 190 21:49 25.12.2022
505 Clear 18 1007 87 10000 3.09 180 19:23 25.12.2022
506 Clear 20 1008 83 10000 4.12 210 17:52 25.12.2022
507 Clouds 20 1007 84 10000 3.6 210 17:34 25.12.2022
508 Clear 21 1008 83 10000 4.12 230 16:19 25.12.2022
509 Clear 22 1007 76 10000 4.63 230 13:23 25.12.2022
510 Clear 25 1005 56 10000 6.69 240 10:59 25.12.2022
511 Clear 26 1007 48 10000 2.57 30 02:57 25.12.2022
512 Clear 18 1006 84 10000 3.09 130 22:29 24.12.2022
513 Rain 18 1005 90 10000 0 0 19:51 24.12.2022
514 Clear 20 1006 86 10000 4.12 200 16:47 24.12.2022
515 Clear 21 1006 81 10000 4.63 200 14:55 24.12.2022
516 Clear 22 1005 71 10000 6.69 210 13:30 24.12.2022
517 Rain 26 1005 53 10000 7.2 220 11:26 24.12.2022
518 Clear 28 1005 51 10000 6.69 220 10:22 24.12.2022
519 Clear 28 1004 52 10000 6.69 250 09:37 24.12.2022
520 Clear 31 1007 34 10000 7.2 240 06:56 24.12.2022
521 Clear 30 1008 33 10000 3.09 240 02:50 24.12.2022
522 Clear 24 1007 46 10000 5.14 80 23:47 23.12.2022
523 Clear 21 1007 60 10000 4.63 70 22:28 23.12.2022
524 Clear 21 1007 63 10000 4.12 80 20:41 23.12.2022
525 Clear 21 1007 68 10000 3.09 140 19:39 23.12.2022
526 Clear 21 1007 68 10000 3.09 140 19:21 23.12.2022
527 Clear 21 1007 72 10000 2.06 220 18:46 23.12.2022
528 Clear 21 1007 71 10000 3.09 220 18:20 23.12.2022
529 Clear 24 1007 64 10000 4.63 190 16:35 23.12.2022
530 Clear 25 1008 62 10000 5.14 200 15:37 23.12.2022
531 Clear 29 1007 40 10000 6.17 210 11:57 23.12.2022
532 Clear 34 1006 22 10000 5.66 220 09:37 23.12.2022
533 Clear 34 1009 16 10000 7.2 250 07:59 23.12.2022
534 Clear 35 1009 17 10000 7.2 250 06:52 23.12.2022
535 Clear 35 1009 15 10000 6.69 240 06:23 23.12.2022
536 Clear 23 1009 51 10000 6.17 70 23:23 22.12.2022
537 Clear 22 1009 55 10000 4.12 60 22:38 22.12.2022
538 Clear 23 1009 52 10000 5.66 110 21:20 22.12.2022
539 Clear 24 1008 44 10000 5.14 100 19:25 22.12.2022
540 Clear 24 1008 47 10000 2.57 210 18:40 22.12.2022
541 Clouds 24 1008 48 10000 3.6 190 17:23 22.12.2022
542 Clear 24 1008 46 10000 3.09 180 16:38 22.12.2022
543 Clear 25 1008 41 10000 5.14 190 15:33 22.12.2022
544 Clear 27 1008 37 10000 6.17 190 14:51 22.12.2022
545 Clear 28 1007 28 10000 5.14 200 13:33 22.12.2022
546 Clear 29 1007 28 10000 3.6 200 12:46 22.12.2022
547 Clear 33 1008 19 10000 7.72 240 10:44 22.12.2022
548 Clear 34 1008 18 10000 8.23 220 10:21 22.12.2022
549 Clear 35 1008 16 10000 7.72 260 09:20 22.12.2022
550 Clear 36 1008 17 10000 6.69 260 08:25 22.12.2022
551 Clear 34 1008 21 10000 4.63 40 05:27 22.12.2022
552 Clear 33 1008 23 10000 4.12 90 04:18 22.12.2022
553 Clear 20 1009 56 10000 6.17 110 22:57 21.12.2022
554 Clear 21 1009 53 10000 8.23 90 21:54 21.12.2022
555 Clear 21 1008 52 10000 8.75 100 21:21 21.12.2022
556 Clear 22 1008 51 10000 11.32 100 20:48 21.12.2022
557 Clear 23 1008 48 10000 11.83 100 19:58 21.12.2022
558 Clear 23 1007 47 10000 11.83 100 19:40 21.12.2022
559 Clear 23 1007 46 10000 11.83 100 19:21 21.12.2022
560 Clear 25 1007 42 10000 10.8 100 18:43 21.12.2022
561 Clear 26 1007 37 10000 11.32 90 17:35 21.12.2022
562 Clear 25 1008 49 10000 2.57 170 14:24 21.12.2022
563 Clouds 29 1007 35 10000 4.63 190 12:33 21.12.2022
564 Clear 30 1006 30 10000 5.14 240 11:41 21.12.2022
565 Clear 30 1006 30 10000 5.14 240 11:19 21.12.2022
566 Clear 33 1008 23 10000 6.69 250 08:51 21.12.2022
567 Clear 34 1009 19 10000 7.72 260 06:55 21.12.2022
568 Clear 24 1009 39 10000 7.2 70 00:32 21.12.2022
569 Clear 21 1008 43 10000 8.23 100 22:38 20.12.2022
570 Clear 22 1008 39 10000 7.2 80 20:58 20.12.2022
571 Clear 22 1008 37 10000 11.83 80 20:18 20.12.2022
572 Clear 24 1008 34 10000 6.69 100 18:49 20.12.2022
573 Clear 24 1008 33 10000 7.72 100 18:25 20.12.2022
574 Clear 25 1008 33 10000 10.29 100 17:51 20.12.2022
575 Clear 25 1008 34 10000 9.77 110 17:25 20.12.2022
576 Clear 27 1008 34 10000 7.72 110 16:20 20.12.2022
577 Clear 28 1008 32 10000 5.66 200 14:56 20.12.2022
578 Clear 28 1007 30 10000 6.69 190 14:36 20.12.2022
579 Clear 29 1007 26 10000 9.77 190 13:49 20.12.2022
580 Clouds 31 1008 21 10000 7.2 190 12:37 20.12.2022
581 Clear 32 1006 21 10000 9.77 200 11:55 20.12.2022
582 Clear 34 1005 19 10000 9.77 220 10:29 20.12.2022
583 Clear 37 1008 12 10000 7.72 230 07:28 20.12.2022
584 Clear 26 1009 31 10000 8.75 70 00:20 20.12.2022
585 Clear 23 1007 36 10000 6.17 70 22:29 19.12.2022
586 Clear 24 1007 33 10000 6.69 80 21:24 19.12.2022
587 Clear 25 1006 30 10000 7.72 90 19:41 19.12.2022
588 Clear 25 1006 29 10000 6.69 100 18:57 19.12.2022
589 Clear 26 1006 28 10000 6.69 90 17:38 19.12.2022
590 Clear 26 1006 32 10000 4.12 80 15:59 19.12.2022
591 Clear 30 1005 27 10000 6.17 180 12:47 19.12.2022
592 Clear 32 1004 22 10000 7.72 190 11:36 19.12.2022
593 Clear 36 1006 14 10000 4.63 90 07:50 19.12.2022
594 Clear 35 1005 14 10000 5.14 110 06:42 19.12.2022
595 Clear 26 1008 37 10000 7.2 50 00:50 19.12.2022
596 Clear 21 1007 51 10000 9.77 70 21:49 18.12.2022
597 Clear 22 1006 50 10000 10.29 80 21:27 18.12.2022
598 Clear 22 1006 48 10000 10.8 90 20:53 18.12.2022
599 Clear 23 1006 44 10000 10.29 90 19:43 18.12.2022
600 Clear 23 1006 42 10000 10.8 90 18:59 18.12.2022
601 Clear 24 1007 42 10000 8.23 100 17:52 18.12.2022
602 Clear 24 1007 45 10000 5.14 170 15:42 18.12.2022
603 Clear 24 1007 44 10000 5.14 170 15:24 18.12.2022
604 Clear 25 1007 41 10000 6.17 180 14:55 18.12.2022
605 Clear 26 1007 36 10000 6.69 180 13:28 18.12.2022
606 Clear 28 1006 35 10000 8.75 190 12:42 18.12.2022
607 Clear 29 1006 31 10000 7.72 210 11:49 18.12.2022
608 Clear 32 1007 21 10000 7.2 220 09:34 18.12.2022
609 Clear 33 1007 18 10000 4.12 100 08:46 18.12.2022
610 Clear 32 1007 22 10000 7.2 130 06:36 18.12.2022
611 Clear 32 1007 21 10000 7.2 130 06:18 18.12.2022
612 Clear 25 1010 45 10000 8.23 60 01:49 18.12.2022
613 Clear 20 1010 63 10000 10.29 90 22:57 17.12.2022
614 Clear 21 1009 59 10000 9.77 100 20:37 17.12.2022
615 Clear 22 1010 50 10000 7.72 90 17:21 17.12.2022
616 Clear 22 1010 50 10000 7.72 90 17:21 17.12.2022
617 Clear 22 1010 64 10000 4.63 200 15:19 17.12.2022
618 Clear 23 1009 56 10000 6.17 200 13:18 17.12.2022
619 Clear 26 1008 41 10000 8.75 230 11:18 17.12.2022
620 Clear 28 1008 38 10000 7.72 230 10:39 17.12.2022
621 Clear 29 1010 33 10000 8.23 230 08:36 17.12.2022
622 Clear 30 1009 28 10000 6.69 120 06:47 17.12.2022
623 Clear 18 1013 61 10000 13.38 90 00:32 17.12.2022
624 Clear 16 1013 66 10000 11.32 100 22:22 16.12.2022
625 Clear 17 1012 62 10000 12.35 100 20:26 16.12.2022
626 Clear 19 1012 53 10000 11.83 100 17:49 16.12.2022
627 Clear 23 1012 38 10000 9.77 110 15:19 16.12.2022
628 Clear 24 1011 32 10000 6.69 110 14:36 16.12.2022
629 Clear 27 1010 24 10000 6.17 120 12:22 16.12.2022
630 Clear 29 1010 22 10000 7.2 110 11:35 16.12.2022
631 Clear 30 1010 21 10000 6.69 110 09:39 16.12.2022
632 Clear 30 1011 26 10000 5.14 100 08:27 16.12.2022
633 Clear 30 1011 22 10000 4.63 100 07:54 16.12.2022
634 Clear 18 1014 62 10000 8.75 90 00:18 16.12.2022
635 Clear 16 1014 68 10000 7.2 90 22:33 15.12.2022
636 Clear 17 1013 65 10000 7.72 100 21:24 15.12.2022
637 Clear 18 1012 57 10000 9.26 110 19:41 15.12.2022
638 Clear 20 1011 56 10000 8.75 110 18:34 15.12.2022
639 Clear 22 1011 50 10000 9.77 100 17:27 15.12.2022
640 Clear 24 1011 42 10000 7.2 110 15:41 15.12.2022
641 Clear 25 1011 40 10000 5.14 110 14:37 15.12.2022
642 Clear 26 1009 36 10000 5.14 130 12:47 15.12.2022
643 Clear 29 1008 33 10000 5.66 110 10:40 15.12.2022
644 Clear 30 1009 27 10000 7.2 130 08:55 15.12.2022
645 Clear 30 1010 31 10000 6.69 120 07:57 15.12.2022
646 Clear 30 1009 32 10000 7.2 110 05:35 15.12.2022
647 Clear 17 1011 66 10000 9.77 90 21:45 14.12.2022
648 Clear 17 1011 65 10000 11.32 100 21:18 14.12.2022
649 Clouds 18 1011 63 10000 11.83 100 20:35 14.12.2022
650 Clear 18 1010 61 10000 12.35 100 19:28 14.12.2022
651 Clear 22 1010 50 10000 8.23 120 16:58 14.12.2022
652 Clear 23 1010 46 10000 8.75 110 15:58 14.12.2022
653 Clear 21 1010 67 10000 3.6 170 14:49 14.12.2022
654 Clear 23 1010 60 10000 4.12 230 12:49 14.12.2022
655 Clear 27 1009 47 10000 7.2 260 10:44 14.12.2022
656 Clear 28 1010 41 10000 6.69 260 09:38 14.12.2022
657 Clear 29 1011 30 10000 5.66 120 05:52 14.12.2022
658 Clear 16 1014 68 10000 6.69 110 21:52 13.12.2022
659 Clear 16 1014 67 10000 8.75 110 21:32 13.12.2022
660 Clear 16 1014 65 10000 6.69 110 20:47 13.12.2022
661 Clear 18 1013 50 10000 8.75 100 18:42 13.12.2022
662 Clear 19 1014 45 10000 10.8 100 16:22 13.12.2022
663 Clear 20 1014 46 10000 8.75 100 14:53 13.12.2022
664 Clear 21 1014 47 10000 7.2 110 12:44 13.12.2022
665 Clear 23 1013 47 10000 7.2 110 10:39 13.12.2022
666 Clear 22 1013 47 10000 7.72 100 09:45 13.12.2022
667 Clouds 20 1013 58 10000 11.32 110 07:51 13.12.2022
668 Clear 16 1015 59 10000 9.26 90 22:23 12.12.2022
669 Clear 16 1014 58 10000 9.26 100 21:39 12.12.2022
670 Clear 17 1013 53 10000 10.29 100 19:32 12.12.2022
671 Clear 19 1013 46 10000 14.92 100 17:34 12.12.2022
672 Clear 23 1012 29 10000 10.29 110 15:23 12.12.2022
673 Clear 26 1013 23 10000 6.17 110 12:44 12.12.2022
674 Clear 29 1012 21 10000 6.17 100 09:20 12.12.2022
675 Clear 27 1015 27 10000 8.75 100 05:44 12.12.2022
676 Clear 24 1017 34 10000 7.72 100 03:53 12.12.2022
677 Clear 15 1018 59 10000 11.83 90 23:21 11.12.2022
678 Clear 14 1017 61 10000 12.35 100 21:43 11.12.2022
679 Clear 16 1017 57 10000 12.35 100 20:26 11.12.2022
680 Clear 16 1017 55 10000 11.83 100 19:37 11.12.2022
681 Clear 18 1016 50 10000 12.35 100 18:24 11.12.2022
682 Clear 19 1016 45 10000 8.75 100 17:33 11.12.2022
683 Clear 19 1016 41 10000 9.26 110 16:52 11.12.2022
684 Clear 18 1016 62 10000 4.12 180 15:48 11.12.2022
685 Clear 19 1017 61 10000 5.14 190 14:50 11.12.2022
686 Clear 20 1016 62 10000 4.63 200 13:21 11.12.2022
687 Clear 21 1016 60 10000 6.17 220 12:40 11.12.2022
688 Clear 26 1015 34 10000 7.72 230 08:56 11.12.2022
689 Clouds 17 1021 58 10000 6.17 100 00:35 11.12.2022
690 Clouds 16 1021 62 10000 5.14 110 23:56 10.12.2022
691 Clear 14 1020 69 10000 6.17 110 22:33 10.12.2022
692 Clear 15 1019 65 10000 7.72 110 21:22 10.12.2022
693 Clear 15 1019 66 10000 5.14 100 20:39 10.12.2022
694 Clear 16 1019 63 10000 7.2 130 19:54 10.12.2022
695 Clear 17 1018 57 10000 5.66 190 16:59 10.12.2022
696 Clear 17 1018 56 10000 6.17 190 16:34 10.12.2022
697 Clear 18 1017 55 10000 6.69 190 15:39 10.12.2022
698 Clear 18 1017 57 10000 6.17 180 14:49 10.12.2022
699 Clear 19 1017 58 10000 6.69 210 12:54 10.12.2022
700 Clear 20 1016 54 10000 7.72 210 11:46 10.12.2022
701 Clear 22 1016 48 10000 8.75 230 10:43 10.12.2022
702 Clear 23 1015 43 10000 9.26 240 09:18 10.12.2022
703 Clear 24 1017 35 10000 9.26 220 07:20 10.12.2022
704 Clear 19 1018 52 10000 4.63 140 00:52 10.12.2022
705 Clear 15 1017 81 10000 3.6 190 23:19 09.12.2022
706 Clear 13 1017 89 10000 3.09 160 22:38 09.12.2022
707 Clear 13 1016 87 10000 2.57 190 21:24 09.12.2022
708 Clear 14 1016 86 10000 3.09 180 20:42 09.12.2022
709 Clear 16 1015 82 10000 4.63 190 18:59 09.12.2022
710 Clouds 17 1015 84 10000 6.17 190 17:53 09.12.2022
711 Clear 17 1014 85 10000 3.09 200 16:32 09.12.2022
712 Clouds 18 1014 81 10000 4.12 200 15:42 09.12.2022
713 Clouds 18 1014 80 10000 4.12 200 15:18 09.12.2022
714 Clear 21 1012 59 10000 7.72 220 11:32 09.12.2022
715 Clear 22 1011 54 10000 7.2 230 10:34 09.12.2022
716 Clear 23 1012 47 10000 7.72 240 08:36 09.12.2022
717 Clouds 21 1012 52 10000 4.12 200 03:19 09.12.2022
718 Clouds 18 1012 68 10000 3.09 200 00:25 09.12.2022
719 Clouds 17 1011 75 10000 5.66 180 21:54 08.12.2022
720 Clouds 17 1010 75 10000 5.66 210 20:21 08.12.2022
721 Clouds 18 1010 77 10000 5.66 200 17:32 08.12.2022
722 Clouds 19 1011 78 10000 5.66 230 14:52 08.12.2022
723 Clouds 19 1010 77 10000 5.66 230 14:24 08.12.2022
724 Clouds 21 1008 67 10000 6.69 220 11:18 08.12.2022
725 Clouds 23 1009 60 10000 7.2 230 09:45 08.12.2022
726 Clouds 24 1008 56 10000 7.72 250 09:20 08.12.2022
727 Clear 19 1004 51 10000 5.14 100 22:56 07.12.2022
728 Clear 19 1003 51 10000 8.23 110 22:19 07.12.2022
729 Clear 19 1003 49 10000 9.26 90 21:47 07.12.2022
730 Clouds 20 1003 54 10000 8.23 120 20:36 07.12.2022
731 Clear 20 1003 54 10000 8.75 170 18:42 07.12.2022
732 Clouds 22 1003 46 10000 7.72 210 16:21 07.12.2022
733 Clouds 22 1003 54 10000 10.29 180 14:30 07.12.2022
734 Clear 27 1003 43 10000 6.69 160 11:36 07.12.2022
735 Clear 31 1004 25 10000 6.69 120 10:36 07.12.2022
736 Clear 31 1004 25 10000 8.75 100 09:36 07.12.2022
737 Clouds 31 1005 26 10000 3.6 120 08:36 07.12.2022
738 Clear 27 1008 33 10000 8.23 110 05:27 07.12.2022
739 Clear 23 1012 44 10000 8.75 100 02:58 07.12.2022
740 Clear 15 1013 66 10000 13.89 90 22:35 06.12.2022
741 Clear 16 1012 65 10000 10.8 100 19:45 06.12.2022
742 Clear 19 1013 51 10000 9.77 120 17:30 06.12.2022
743 Clear 20 1013 45 10000 8.75 120 16:38 06.12.2022
744 Clear 21 1012 38 10000 4.63 140 15:38 06.12.2022
745 Clear 21 1012 46 10000 5.14 150 14:55 06.12.2022
746 Clear 20 1012 54 10000 5.14 130 14:23 06.12.2022
747 Clear 22 1011 55 10000 5.66 200 12:42 06.12.2022
748 Clear 23 1010 52 10000 6.69 210 11:59 06.12.2022
749 Clear 26 1011 42 10000 9.26 230 07:51 06.12.2022
750 Clear 26 1011 43 10000 9.26 230 07:51 06.12.2022
751 Clouds 22 1013 56 10000 6.69 130 03:26 06.12.2022
752 Clouds 20 1014 66 10000 6.69 140 00:50 06.12.2022
753 Clear 17 1013 79 10000 5.14 150 22:22 05.12.2022
754 Clouds 18 1012 76 10000 4.63 170 20:55 05.12.2022
755 Clear 18 1012 76 10000 4.12 160 20:23 05.12.2022
756 Clear 19 1011 74 10000 4.12 130 19:37 05.12.2022
757 Clear 20 1011 66 10000 5.14 140 16:56 05.12.2022
758 Clear 22 1011 62 10000 6.17 150 15:39 05.12.2022
759 Clear 22 1011 61 10000 6.17 170 14:56 05.12.2022
760 Clear 23 1010 57 10000 6.69 170 12:58 05.12.2022
761 Clear 24 1010 58 10000 7.2 150 12:38 05.12.2022
762 Clear 25 1009 58 10000 7.72 160 11:45 05.12.2022
763 Clear 25 1008 56 10000 8.23 230 09:32 05.12.2022
764 Clouds 20 1013 66 10000 4.63 130 00:19 05.12.2022
765 Clear 17 1012 74 10000 4.12 130 22:44 04.12.2022
766 Clear 17 1012 75 10000 4.12 130 22:20 04.12.2022
767 Clouds 17 1012 75 10000 6.69 120 21:39 04.12.2022
768 Clouds 17 1012 73 10000 5.66 130 20:26 04.12.2022
769 Clear 17 1012 72 10000 5.14 110 19:24 04.12.2022
770 Clear 18 1012 69 10000 5.66 120 18:37 04.12.2022
771 Clear 18 1012 71 10000 6.69 120 17:22 04.12.2022
772 Clear 19 1012 68 10000 7.2 120 16:37 04.12.2022
773 Clear 19 1012 67 10000 7.2 120 16:19 04.12.2022
774 Clear 20 1012 64 10000 7.2 130 15:31 04.12.2022
775 Clear 21 1012 59 10000 8.23 130 14:32 04.12.2022
776 Clear 24 1010 48 10000 8.75 150 12:52 04.12.2022
777 Clear 25 1010 46 10000 7.72 160 12:33 04.12.2022
778 Clear 27 1009 39 10000 9.26 150 11:35 04.12.2022
779 Clear 29 1009 34 10000 6.69 150 08:50 04.12.2022
780 Clouds 24 1013 49 10000 8.23 90 02:51 04.12.2022
781 Clouds 19 1014 64 10000 5.66 130 23:44 03.12.2022
782 Clouds 18 1013 67 10000 5.14 130 22:46 03.12.2022
783 Clouds 17 1012 70 10000 4.12 130 21:52 03.12.2022
784 Clouds 17 1012 70 10000 6.17 120 20:46 03.12.2022
785 Clear 19 1011 65 10000 6.69 130 18:41 03.12.2022
786 Clear 19 1011 62 10000 5.66 160 17:56 03.12.2022
787 Clear 22 1010 54 10000 8.75 140 15:52 03.12.2022
788 Clear 22 1009 72 10000 5.66 210 13:43 03.12.2022
789 Clear 23 1009 71 10000 5.14 220 12:51 03.12.2022
790 Clear 24 1008 63 10000 6.69 230 11:57 03.12.2022
791 Clear 27 1009 49 10000 8.23 230 08:38 03.12.2022
792 Clear 27 1010 45 10000 5.66 60 04:18 03.12.2022
793 Clear 18 1011 68 10000 3.6 150 00:20 03.12.2022
794 Clear 15 1010 86 10000 3.6 220 21:59 02.12.2022
795 Clear 15 1009 90 10000 3.6 190 19:50 02.12.2022
796 Clear 15 1009 90 10000 3.6 190 19:50 02.12.2022
797 Clear 17 1010 83 10000 4.63 200 16:38 02.12.2022
798 Clear 18 1010 80 10000 4.63 210 15:57 02.12.2022
799 Clear 18 1010 75 10000 5.14 210 14:36 02.12.2022
800 Clear 18 1010 75 10000 5.14 210 14:18 02.12.2022
801 Clear 20 1009 65 10000 6.69 230 11:57 02.12.2022
802 Clear 21 1008 54 10000 7.2 220 10:35 02.12.2022
803 Clear 23 1009 47 10000 6.69 240 07:50 02.12.2022
804 Clear 23 1009 47 10000 6.69 240 07:22 02.12.2022
805 Clouds 16 1009 82 10000 4.12 170 22:50 01.12.2022
806 Clouds 16 1008 81 10000 4.12 170 21:41 01.12.2022
807 Clouds 17 1007 78 10000 5.14 180 20:37 01.12.2022
808 Clouds 17 1007 80 10000 3.09 180 18:58 01.12.2022
809 Clouds 18 1008 76 10000 5.14 210 16:57 01.12.2022
810 Clouds 19 1009 72 10000 5.14 220 14:32 01.12.2022
811 Clouds 20 1007 67 10000 6.69 240 11:20 01.12.2022
812 Clouds 22 1007 63 10000 6.69 240 09:54 01.12.2022
813 Clouds 22 1007 62 10000 6.69 220 09:36 01.12.2022
814 Clouds 23 1008 66 10000 6.69 220 06:19 01.12.2022
815 Clouds 20 1006 74 10000 4.63 290 22:41 30.11.2022
816 Clouds 20 1006 75 10000 4.63 270 21:40 30.11.2022
817 Clouds 20 1006 74 10000 4.12 280 21:18 30.11.2022
818 Clouds 20 1005 74 10000 3.6 280 20:23 30.11.2022
819 Clouds 20 1006 76 10000 4.12 280 18:36 30.11.2022
820 Clouds 20 1006 75 10000 3.6 270 17:40 30.11.2022
821 Clouds 20 1007 76 10000 4.12 300 16:26 30.11.2022
822 Clouds 20 1008 77 10000 4.63 300 14:45 30.11.2022
823 Clouds 20 1007 76 10000 4.63 290 14:24 30.11.2022
824 Clouds 22 1005 73 10000 5.14 290 11:57 30.11.2022
825 Clear 25 1005 60 10000 6.69 320 09:21 30.11.2022
826 Clear 26 1005 58 10000 6.69 300 09:21 30.11.2022
827 Clear 27 1005 55 10000 7.2 290 07:59 30.11.2022
828 Clear 30 1004 49 10000 9.26 320 04:57 30.11.2022
829 Rain 26 1003 29 10000 6.17 50 23:26 29.11.2022
830 Rain 28 1002 22 10000 6.69 50 21:48 29.11.2022
831 Rain 28 1001 23 10000 9.26 70 20:50 29.11.2022
832 Clear 28 1002 23 10000 11.32 90 19:46 29.11.2022
833 Clear 29 1004 22 10000 7.2 80 17:52 29.11.2022
834 Clear 29 1003 21 10000 8.75 90 16:29 29.11.2022
835 Clear 29 1004 24 10000 5.14 140 14:51 29.11.2022
836 Clear 29 1004 28 10000 5.14 170 13:49 29.11.2022
837 Clear 33 1005 21 10000 5.14 160 12:36 29.11.2022
838 Clear 35 1005 16 10000 6.69 150 11:30 29.11.2022
839 Clear 36 1005 16 10000 4.12 170 10:23 29.11.2022
840 Clear 37 1006 15 10000 4.12 140 08:43 29.11.2022
841 Clear 35 1009 16 10000 3.6 60 06:34 29.11.2022
842 Clear 21 1012 50 10000 8.75 70 23:46 28.11.2022
843 Clear 20 1012 53 10000 9.77 80 23:21 28.11.2022
844 Clear 19 1011 54 10000 13.89 90 21:55 28.11.2022
845 Clear 19 1011 52 10000 11.83 90 21:36 28.11.2022
846 Clear 20 1011 49 10000 10.8 90 20:20 28.11.2022
847 Clear 21 1011 45 10000 7.72 80 18:40 28.11.2022
848 Clear 20 1012 50 10000 5.14 110 17:51 28.11.2022
849 Clear 17 1013 74 10000 2.06 250 16:59 28.11.2022
850 Clear 21 1013 62 10000 6.69 190 14:30 28.11.2022
851 Clear 21 1013 60 10000 7.72 190 13:52 28.11.2022
852 Clear 23 1012 55 10000 6.17 200 12:43 28.11.2022
853 Clear 28 1011 38 10000 6.69 210 10:29 28.11.2022
854 Clear 30 1013 23 10000 1.54 160 07:53 28.11.2022
855 Clear 27 1014 35 10000 5.66 110 04:45 28.11.2022
856 Clear 25 1015 39 10000 5.66 90 03:59 28.11.2022
857 Clear 24 1015 42 10000 6.69 100 03:19 28.11.2022
858 Clear 14 1017 67 10000 6.69 90 22:53 27.11.2022
859 Clear 14 1015 69 10000 5.14 100 21:43 27.11.2022
860 Clear 15 1015 65 10000 6.69 100 20:34 27.11.2022
861 Clear 18 1015 52 10000 7.2 110 17:56 27.11.2022
862 Clear 18 1015 70 10000 3.6 190 15:28 27.11.2022
863 Clear 20 1014 68 10000 7.2 220 12:41 27.11.2022
864 Clear 22 1013 57 10000 8.23 230 10:50 27.11.2022
865 Clear 25 1014 45 10000 7.2 230 08:35 27.11.2022
866 Clouds 18 1018 58 10000 7.72 90 00:49 27.11.2022
867 Clear 14 1017 75 10000 4.63 130 22:31 26.11.2022
868 Clear 14 1016 71 10000 6.17 120 20:51 26.11.2022
869 Clear 14 1016 71 10000 6.17 120 20:51 26.11.2022
870 Clear 16 1016 67 10000 5.66 130 19:26 26.11.2022
871 Clear 17 1015 61 10000 5.66 180 17:30 26.11.2022
872 Clear 17 1014 65 10000 5.66 190 15:47 26.11.2022
873 Clear 19 1014 62 10000 8.75 190 13:33 26.11.2022
874 Clear 21 1013 58 10000 8.75 220 11:37 26.11.2022
875 Clear 23 1013 49 10000 9.26 240 09:45 26.11.2022
876 Clear 23 1013 46 10000 9.77 220 09:21 26.11.2022
877 Clouds 25 1015 47 10000 5.66 210 05:37 26.11.2022
878 Clouds 11 1015 92 10000 0 0 21:43 25.11.2022
879 Clouds 11 1015 91 10000 0 0 21:21 25.11.2022
880 Clear 12 1015 90 10000 1.54 40 19:56 25.11.2022
881 Clear 14 1015 83 10000 3.09 180 16:46 25.11.2022
882 Clear 17 1014 70 10000 4.12 230 13:51 25.11.2022
883 Clouds 22 1013 53 10000 6.69 250 09:21 25.11.2022
884 Clouds 22 1013 53 10000 6.69 260 08:40 25.11.2022
885 Clouds 23 1013 57 10000 6.69 260 06:53 25.11.2022
886 Clouds 21 1013 66 10000 3.6 270 03:35 25.11.2022
887 Clouds 15 1013 87 10000 3.6 20 23:49 24.11.2022
888 Clouds 14 1013 89 10000 2.57 20 22:50 24.11.2022
889 Clouds 13 1012 89 10000 2.57 40 21:58 24.11.2022
890 Clouds 13 1012 89 10000 2.57 360 19:53 24.11.2022
891 Clear 14 1012 86 10000 2.57 50 18:18 24.11.2022
892 Clouds 14 1012 84 10000 0 0 17:38 24.11.2022
893 Clouds 14 1012 84 10000 0 0 17:19 24.11.2022
894 Clear 17 1012 72 10000 3.6 240 14:36 24.11.2022
895 Clouds 17 1011 68 10000 3.6 230 13:42 24.11.2022
896 Clear 20 1011 56 10000 4.12 230 11:53 24.11.2022
897 Clear 20 1011 56 10000 4.12 230 11:52 24.11.2022
898 Clear 21 1011 51 10000 5.66 260 10:33 24.11.2022
899 Clouds 23 1013 47 10000 5.66 270 06:25 24.11.2022
900 Clouds 20 1011 62 10000 6.17 270 00:48 24.11.2022
901 Clouds 19 1011 76 10000 4.12 230 23:32 23.11.2022
902 Clouds 18 1010 82 10000 3.6 250 21:55 23.11.2022
903 Clouds 18 1009 83 10000 4.12 230 21:19 23.11.2022
904 Clouds 18 1009 85 10000 4.63 240 19:57 23.11.2022
905 Clouds 18 1009 85 10000 4.12 240 18:57 23.11.2022
906 Clouds 18 1009 85 10000 4.63 230 18:20 23.11.2022
907 Clouds 19 1010 83 10000 4.12 260 15:55 23.11.2022
908 Clouds 20 1010 76 10000 4.63 260 13:25 23.11.2022
909 Clouds 20 1010 75 10000 4.63 270 12:48 23.11.2022
910 Clouds 20 1009 73 10000 5.14 270 11:51 23.11.2022
911 Clouds 22 1009 69 10000 5.14 270 10:48 23.11.2022
912 Clouds 22 1009 66 10000 5.66 270 10:18 23.11.2022
913 Clouds 23 1008 62 10000 6.69 290 09:40 23.11.2022
914 Clouds 23 1008 61 10000 6.69 290 09:21 23.11.2022
915 Clouds 24 1007 61 10000 6.69 270 08:36 23.11.2022
916 Clouds 25 1009 58 10000 8.75 320 05:20 23.11.2022
917 Clear 23 1009 64 10000 7.2 360 01:56 23.11.2022
918 Clouds 18 1009 74 10000 7.2 90 22:37 22.11.2022
919 Clouds 18 1009 76 10000 7.72 100 21:51 22.11.2022
920 Clouds 19 1008 77 10000 7.72 120 21:31 22.11.2022
921 Rain 19 1009 80 10000 5.66 110 20:44 22.11.2022
922 Thunderstorm 21 1009 65 10000 6.69 150 19:47 22.11.2022
923 Thunderstorm 22 1009 57 10000 7.72 250 17:54 22.11.2022
924 Clouds 23 1008 42 10000 5.14 60 16:48 22.11.2022
925 Clouds 25 1008 37 10000 7.2 120 14:43 22.11.2022
926 Rain 26 1009 36 10000 11.83 40 12:56 22.11.2022
927 Clear 29 1007 28 10000 11.83 40 09:41 22.11.2022
928 Rain 29 1009 25 10000 12.86 40 08:57 22.11.2022
929 Clear 33 1009 18 10000 4.63 100 06:45 22.11.2022
930 Clear 22 1015 40 10000 8.23 90 00:59 22.11.2022
931 Clear 17 1015 53 10000 7.2 60 22:57 21.11.2022
932 Clear 17 1015 53 10000 9.77 70 22:24 21.11.2022
933 Clear 17 1014 52 10000 10.29 80 21:32 21.11.2022
934 Clear 18 1014 49 10000 9.77 70 20:31 21.11.2022
935 Clear 19 1014 46 10000 9.77 90 19:39 21.11.2022
936 Clear 20 1014 43 10000 10.8 90 18:52 21.11.2022
937 Clear 21 1014 37 10000 10.8 90 17:32 21.11.2022
938 Clear 21 1015 39 10000 6.69 90 16:43 21.11.2022
939 Clear 18 1016 61 10000 2.57 70 15:58 21.11.2022
940 Clear 19 1017 68 10000 4.12 190 15:23 21.11.2022
941 Clear 20 1016 65 10000 6.17 180 13:53 21.11.2022
942 Clear 21 1016 63 10000 4.12 200 12:50 21.11.2022
943 Clear 28 1015 35 10000 6.17 250 09:35 21.11.2022
944 Clear 28 1016 27 10000 2.57 180 07:52 21.11.2022
945 Clear 17 1020 57 10000 11.32 80 00:36 21.11.2022
946 Clear 13 1018 68 10000 11.83 90 21:39 20.11.2022
947 Clear 14 1018 67 10000 11.32 90 20:47 20.11.2022
948 Clear 15 1018 65 10000 10.8 100 19:18 20.11.2022
949 Clear 15 1018 69 10000 5.14 110 17:24 20.11.2022
950 Clear 15 1018 75 10000 3.6 180 15:44 20.11.2022
951 Clear 16 1018 71 10000 4.63 190 14:58 20.11.2022
952 Clear 17 1018 71 10000 5.66 200 13:58 20.11.2022
953 Clear 17 1018 70 10000 6.17 200 13:31 20.11.2022
954 Clear 20 1016 61 10000 7.72 210 11:43 20.11.2022
955 Clear 21 1016 56 10000 7.72 210 10:57 20.11.2022
956 Clear 22 1016 51 10000 7.72 230 09:43 20.11.2022
957 Clear 22 1017 51 10000 8.23 240 08:52 20.11.2022
958 Clear 23 1017 48 10000 7.2 240 07:58 20.11.2022
959 Clear 23 1017 48 10000 7.72 260 07:22 20.11.2022
960 Clouds 17 1020 67 10000 3.6 130 01:26 20.11.2022
961 Clouds 16 1020 75 10000 3.09 130 00:45 20.11.2022
962 Clear 15 1019 81 10000 0 0 00:26 20.11.2022
963 Clear 13 1019 90 10000 1.54 30 23:56 19.11.2022
964 Clouds 11 1019 93 10000 2.06 10 23:26 19.11.2022
965 Clear 10 1019 94 10000 0 0 22:43 19.11.2022
966 Clear 10 1018 93 10000 0.51 170 21:39 19.11.2022
967 Clear 10 1018 93 10000 0.51 170 21:20 19.11.2022
968 Clear 10 1018 93 10000 2.06 150 20:40 19.11.2022
969 Clear 11 1017 93 10000 2.57 170 19:35 19.11.2022
970 Clear 12 1018 90 10000 2.06 190 17:43 19.11.2022
971 Clear 12 1018 90 10000 2.06 190 17:25 19.11.2022
972 Clear 13 1018 87 10000 3.09 200 16:35 19.11.2022
973 Clouds 15 1018 80 10000 5.66 210 14:40 19.11.2022
974 Clouds 16 1016 72 10000 5.66 210 12:42 19.11.2022
975 Clouds 18 1015 60 10000 6.69 240 11:19 19.11.2022
976 Clouds 20 1014 53 10000 8.23 230 09:44 19.11.2022
977 Clouds 20 1014 56 10000 7.72 220 07:52 19.11.2022
978 Rain 18 1016 70 10000 7.72 250 04:43 19.11.2022
979 Clouds 12 1016 86 10000 3.09 10 00:30 19.11.2022
980 Clouds 11 1016 96 10000 2.06 30 23:26 18.11.2022
981 Clear 9 1015 95 10000 2.57 80 22:18 18.11.2022
982 Clear 9 1014 96 10000 2.57 350 22:18 18.11.2022
983 Clear 9 1014 94 10000 1.54 90 21:34 18.11.2022
984 Clear 10 1014 94 10000 2.57 30 20:45 18.11.2022
985 Clear 10 1014 90 10000 3.09 120 19:47 18.11.2022
986 Clouds 11 1013 91 10000 3.6 340 18:57 18.11.2022
987 Clouds 10 1013 89 10000 2.57 30 17:45 18.11.2022
988 Clear 13 1013 68 10000 6.17 170 14:44 18.11.2022
989 Clouds 15 1010 55 10000 8.75 230 11:41 18.11.2022
990 Clouds 17 1008 49 10000 10.8 230 09:31 18.11.2022
991 Clouds 16 1007 56 10000 11.32 220 07:52 18.11.2022
992 Clouds 16 1007 61 10000 9.26 230 05:26 18.11.2022
993 Clouds 16 1007 61 10000 9.26 230 05:26 18.11.2022
994 Rain 12 1006 91 5000 5.66 190 01:42 18.11.2022
995 Clouds 12 1003 90 10000 5.66 250 22:28 17.11.2022
996 Rain 13 1002 91 10000 7.2 310 20:46 17.11.2022
997 Rain 13 1002 91 10000 3.09 280 19:51 17.11.2022
998 Rain 13 1003 92 10000 3.09 260 18:50 17.11.2022
999 Clouds 13 1004 87 10000 4.12 220 17:35 17.11.2022
1000 Clouds 13 1004 84 10000 6.69 270 16:54 17.11.2022
1001 Rain 14 1005 79 10000 6.69 230 15:20 17.11.2022
1002 Clouds 15 1004 82 10000 7.2 230 11:25 17.11.2022
1003 Clouds 17 1003 72 10000 7.72 220 09:53 17.11.2022
1004 Clouds 18 1003 69 10000 10.29 220 05:47 17.11.2022
1005 Rain 18 1003 72 10000 5.66 260 00:48 17.11.2022
1006 Clouds 15 1002 88 10000 2.57 290 22:31 16.11.2022
1007 Clouds 15 1001 85 10000 3.6 260 21:18 16.11.2022
1008 Rain 16 1001 82 10000 2.57 220 19:54 16.11.2022
1009 Clouds 16 1001 79 10000 3.09 230 18:46 16.11.2022
1010 Clear 17 1001 79 10000 3.09 280 17:34 16.11.2022
1011 Clouds 18 1002 73 10000 5.66 240 14:19 16.11.2022
1012 Clear 22 1001 57 10000 8.75 220 09:56 16.11.2022
1013 Clear 26 1001 43 10000 8.75 250 06:38 16.11.2022
1014 Clear 24 1005 29 10000 4.12 50 01:29 16.11.2022
1015 Clear 17 1006 42 10000 2.06 10 22:38 15.11.2022
1016 Clear 14 1006 66 10000 4.12 60 20:45 15.11.2022
1017 Clear 16 1006 64 10000 3.09 210 19:34 15.11.2022
1018 Clear 14 1008 77 10000 2.57 150 18:42 15.11.2022
1019 Clear 16 1008 70 10000 2.57 150 17:21 15.11.2022
1020 Clear 17 1009 65 10000 4.63 180 16:19 15.11.2022
1021 Clear 18 1010 60 10000 6.17 190 14:54 15.11.2022
1022 Clear 20 1011 51 10000 7.72 190 13:38 15.11.2022
1023 Clear 23 1010 40 10000 7.72 200 11:43 15.11.2022
1024 Clear 24 1010 37 10000 8.23 210 11:18 15.11.2022
1025 Clear 29 1012 21 10000 6.69 240 08:35 15.11.2022
1026 Clear 16 1018 57 10000 9.77 80 00:36 15.11.2022
1027 Clear 15 1018 64 10000 10.29 80 23:33 14.11.2022
1028 Clear 14 1017 68 10000 11.32 90 21:30 14.11.2022
1029 Clear 14 1017 63 10000 11.32 100 20:39 14.11.2022
1030 Clear 16 1018 55 10000 10.29 100 18:37 14.11.2022
1031 Clear 16 1018 58 10000 3.6 100 15:45 14.11.2022
1032 Clear 18 1018 66 10000 4.12 250 12:54 14.11.2022
1033 Clear 21 1017 55 10000 5.14 260 11:42 14.11.2022
1034 Clear 24 1017 34 10000 5.14 90 09:28 14.11.2022
1035 Clear 25 1018 24 10000 4.63 140 07:54 14.11.2022
1036 Clear 24 1019 28 10000 5.66 90 06:19 14.11.2022
1037 Clear 14 1023 55 10000 7.72 100 00:18 14.11.2022
1038 Clear 12 1021 61 10000 11.83 100 21:53 13.11.2022
1039 Clear 12 1021 61 10000 10.8 100 21:21 13.11.2022
1040 Clear 14 1020 58 10000 10.29 110 19:27 13.11.2022
1041 Clear 15 1021 55 10000 10.29 110 17:56 13.11.2022
1042 Clear 15 1021 54 10000 9.26 110 17:21 13.11.2022
1043 Clear 16 1020 67 10000 4.12 180 14:58 13.11.2022
1044 Clear 17 1019 64 10000 6.17 190 13:35 13.11.2022
1045 Clear 18 1019 58 10000 6.69 210 12:35 13.11.2022
1046 Clear 21 1018 48 10000 6.69 150 10:51 13.11.2022
1047 Clear 22 1018 46 10000 5.66 160 07:39 13.11.2022
1048 Clouds 15 1022 69 10000 4.63 130 00:44 13.11.2022
1049 Clouds 12 1021 82 10000 2.57 200 22:19 12.11.2022
1050 Clouds 12 1020 79 10000 3.6 190 21:24 12.11.2022
1051 Clouds 12 1019 79 10000 3.09 200 19:55 12.11.2022
1052 Clouds 12 1020 77 10000 3.09 190 17:56 12.11.2022
1053 Clear 13 1019 68 10000 4.12 170 16:22 12.11.2022
1054 Clear 14 1019 62 10000 4.63 170 14:59 12.11.2022
1055 Clear 18 1017 53 10000 8.23 210 11:24 12.11.2022
1056 Clear 20 1016 48 10000 8.75 220 08:46 12.11.2022
1057 Clouds 16 1019 55 10000 5.66 180 01:59 12.11.2022
1058 Clear 7 1018 84 10000 0.51 190 21:43 11.11.2022
1059 Clear 8 1018 80 10000 2.57 170 20:45 11.11.2022
1060 Clear 10 1018 73 10000 3.6 180 19:30 11.11.2022
1061 Clear 10 1018 69 10000 3.6 180 18:42 11.11.2022
1062 Clear 11 1018 65 10000 4.12 190 17:41 11.11.2022
1063 Clear 13 1017 56 10000 5.14 180 15:36 11.11.2022
1064 Clear 15 1016 53 10000 6.69 190 14:20 11.11.2022
1065 Clear 17 1015 52 10000 7.2 210 12:46 11.11.2022
1066 Clouds 19 1013 47 10000 8.75 210 09:36 11.11.2022
1067 Clouds 19 1014 47 10000 9.26 230 08:27 11.11.2022
1068 Clouds 18 1016 48 10000 7.72 210 03:55 11.11.2022
1069 Clouds 12 1014 87 10000 5.66 190 22:55 10.11.2022
1070 Clouds 11 1013 88 10000 5.14 190 21:51 10.11.2022
1071 Clear 11 1013 89 10000 5.14 190 21:30 10.11.2022
1072 Clouds 12 1012 86 10000 6.69 190 20:48 10.11.2022
1073 Clouds 12 1012 85 10000 7.72 190 20:20 10.11.2022
1074 Clouds 13 1012 82 10000 7.2 190 18:59 10.11.2022
1075 Clouds 14 1012 81 10000 6.69 190 17:59 10.11.2022
1076 Clouds 14 1012 81 10000 6.69 190 17:59 10.11.2022
1077 Clouds 15 1011 82 10000 7.72 190 16:25 10.11.2022
1078 Clouds 17 1011 74 10000 6.69 210 13:40 10.11.2022
1079 Clouds 18 1009 76 10000 6.69 220 11:29 10.11.2022
1080 Rain 20 1009 58 10000 8.23 270 08:21 10.11.2022
1081 Clouds 18 1010 71 10000 4.63 20 01:25 10.11.2022
1082 Clouds 12 1010 94 10000 3.09 10 23:21 09.11.2022
1083 Clouds 11 1010 93 10000 3.09 10 21:59 09.11.2022
1084 Clear 11 1010 91 10000 2.57 10 20:47 09.11.2022
1085 Clear 12 1010 92 10000 2.57 40 20:28 09.11.2022
1086 Clear 12 1010 90 10000 3.09 20 19:29 09.11.2022
1087 Clouds 12 1010 90 10000 2.06 20 18:30 09.11.2022
1088 Clear 15 1011 78 10000 2.06 170 15:45 09.11.2022
1089 Clouds 16 1011 74 10000 4.12 220 14:41 09.11.2022
1090 Clouds 17 1011 72 10000 4.63 230 14:22 09.11.2022
1091 Clouds 18 1010 71 10000 4.63 240 12:57 09.11.2022
1092 Clouds 21 1010 55 10000 6.69 250 09:45 09.11.2022
1093 Clouds 22 1010 53 10000 7.2 250 07:47 09.11.2022
1094 Clouds 23 1010 56 10000 7.2 250 06:55 09.11.2022
1095 Clouds 15 1011 90 10000 2.57 10 22:50 08.11.2022
1096 Clouds 15 1009 91 10000 0 0 21:43 08.11.2022
1097 Clouds 14 1010 91 10000 2.57 30 21:21 08.11.2022
1098 Clouds 15 1010 90 10000 2.06 110 20:36 08.11.2022
1099 Clouds 15 1009 88 10000 2.06 110 19:35 08.11.2022
1100 Clouds 15 1009 88 10000 2.06 110 19:35 08.11.2022
1101 Clear 16 1010 85 10000 3.09 180 17:38 08.11.2022
1102 Clear 17 1010 82 10000 3.09 200 15:50 08.11.2022
1103 Clear 17 1010 81 10000 3.6 210 14:51 08.11.2022
1104 Clouds 18 1010 77 10000 3.6 200 13:35 08.11.2022
1105 Clouds 19 1009 71 10000 7.72 230 11:55 08.11.2022
1106 Clouds 23 1009 54 10000 4.63 180 08:25 08.11.2022
1107 Clouds 22 1009 60 10000 5.66 250 06:29 08.11.2022
1108 Clouds 16 1010 78 10000 5.66 160 23:52 07.11.2022
1109 Clear 14 1009 85 10000 4.12 150 22:21 07.11.2022
1110 Clear 16 1007 80 10000 3.6 140 20:59 07.11.2022
1111 Clear 16 1008 77 10000 4.12 120 19:57 07.11.2022
1112 Clear 17 1008 86 10000 3.09 120 17:44 07.11.2022
1113 Rain 18 1008 87 10000 3.09 50 15:55 07.11.2022
1114 Rain 18 1008 87 10000 3.6 30 15:32 07.11.2022
1115 Clear 18 1008 84 10000 2.57 290 13:54 07.11.2022
1116 Clear 19 1007 79 10000 4.63 270 12:32 07.11.2022
1117 Clear 21 1006 65 10000 5.14 260 10:46 07.11.2022
1118 Clear 21 1007 65 10000 6.69 260 09:19 07.11.2022
1119 Rain 22 1008 59 10000 6.17 260 06:55 07.11.2022
1120 Clear 20 1008 62 10000 2.06 70 02:20 07.11.2022
1121 Clear 15 1008 81 10000 3.09 70 23:49 06.11.2022
1122 Clear 13 1006 87 10000 0.51 150 21:43 06.11.2022
1123 Clouds 14 1006 84 10000 1.54 150 21:18 06.11.2022
1124 Clear 13 1007 90 10000 2.06 160 19:57 06.11.2022
1125 Clear 14 1006 84 10000 3.6 150 19:28 06.11.2022
1126 Clear 15 1006 88 10000 4.12 160 18:20 06.11.2022
1127 Clear 16 1007 87 10000 3.6 170 17:45 06.11.2022
1128 Clouds 17 1007 87 10000 2.06 170 17:19 06.11.2022
1129 Clear 18 1007 83 10000 4.63 220 16:19 06.11.2022
1130 Clear 18 1007 81 10000 3.6 210 15:20 06.11.2022
1131 Clear 20 1006 68 10000 4.63 200 12:47 06.11.2022
1132 Clear 21 1006 62 10000 7.2 230 10:58 06.11.2022
1133 Clear 22 1005 61 10000 8.75 230 09:52 06.11.2022
1134 Clear 22 1005 61 10000 8.75 230 09:52 06.11.2022
1135 Clear 25 1007 52 10000 6.69 260 07:44 06.11.2022
1136 Rain 15 1011 81 10000 8.75 90 23:23 05.11.2022
1137 Rain 16 1013 60 10000 9.26 90 20:45 05.11.2022
1138 Clear 17 1014 57 10000 7.2 100 18:38 05.11.2022
1139 Clear 18 1015 52 10000 6.69 120 16:35 05.11.2022
1140 Clear 17 1015 69 10000 7.2 190 14:43 05.11.2022
1141 Clear 18 1016 67 10000 8.75 190 13:39 05.11.2022
1142 Clear 19 1015 65 10000 6.69 210 11:49 05.11.2022
1143 Clear 23 1015 50 10000 8.23 230 08:58 05.11.2022
1144 Clear 25 1016 41 10000 8.75 250 07:23 05.11.2022
1145 Clear 24 1017 38 10000 5.66 130 06:54 05.11.2022
1146 Clouds 15 1021 70 10000 6.17 110 00:22 05.11.2022
1147 Clear 13 1020 77 10000 4.12 120 23:26 04.11.2022
1148 Clear 13 1020 77 10000 4.12 120 23:26 04.11.2022
1149 Clear 12 1019 83 10000 4.63 170 20:39 04.11.2022
1150 Clear 12 1019 85 10000 3.6 200 19:28 04.11.2022
1151 Clear 14 1019 79 10000 4.12 200 17:24 04.11.2022
1152 Clouds 16 1018 69 10000 5.66 210 13:54 04.11.2022
1153 Clouds 17 1017 66 10000 7.2 210 12:27 04.11.2022
1154 Clouds 18 1017 63 10000 6.69 210 11:43 04.11.2022
1155 Clouds 21 1015 55 10000 7.72 230 08:53 04.11.2022
1156 Clouds 22 1017 56 10000 8.23 230 07:46 04.11.2022
1157 Clouds 22 1017 55 10000 6.69 260 05:24 04.11.2022
1158 Clouds 16 1016 90 10000 2.57 190 23:28 03.11.2022
1159 Clouds 16 1014 92 10000 3.6 230 20:51 03.11.2022
1160 Clouds 17 1014 91 10000 3.6 210 20:28 03.11.2022
1161 Clear 17 1014 89 10000 3.6 240 19:29 03.11.2022
1162 Clear 18 1014 85 10000 3.6 230 17:51 03.11.2022
1163 Clear 19 1014 77 10000 3.6 240 16:53 03.11.2022
1164 Clear 21 1014 58 10000 3.6 270 14:20 03.11.2022
1165 Clear 23 1013 39 10000 2.57 260 12:39 03.11.2022
1166 Clear 25 1013 35 10000 2.57 290 11:51 03.11.2022
1167 Clear 31 1013 20 10000 6.69 250 09:37 03.11.2022
1168 Clear 32 1013 19 10000 5.66 360 07:43 03.11.2022
1169 Clear 17 1017 71 10000 10.8 80 21:30 02.11.2022
1170 Clear 17 1017 68 10000 10.29 80 20:40 02.11.2022
1171 Clear 17 1017 66 10000 9.77 80 19:59 02.11.2022
1172 Clear 18 1018 57 10000 7.2 90 17:18 02.11.2022
1173 Clear 18 1019 61 10000 4.12 100 15:54 02.11.2022
1174 Clear 18 1020 75 10000 3.09 130 14:47 02.11.2022
1175 Clear 20 1019 64 10000 5.66 200 12:44 02.11.2022
1176 Clear 21 1019 58 10000 7.2 210 11:39 02.11.2022
1177 Clear 25 1020 48 10000 6.69 230 08:52 02.11.2022
1178 Clouds 24 1021 44 10000 3.6 80 05:30 02.11.2022
1179 Clouds 17 1024 70 10000 6.69 100 00:21 02.11.2022
1180 Clouds 15 1023 84 10000 4.63 100 22:19 01.11.2022
1181 Clouds 15 1022 83 10000 6.17 90 21:37 01.11.2022
1182 Clouds 15 1022 83 10000 5.66 90 20:26 01.11.2022
1183 Clear 15 1022 80 10000 5.14 100 19:42 01.11.2022
1184 Clear 15 1023 78 10000 3.6 120 18:49 01.11.2022
1185 Clear 15 1022 82 10000 3.6 180 17:28 01.11.2022
1186 Clear 15 1022 85 10000 4.63 210 16:18 01.11.2022
1187 Clear 16 1022 79 10000 5.66 190 14:20 01.11.2022
1188 Clear 18 1021 73 10000 6.17 210 12:27 01.11.2022
1189 Clear 19 1021 67 10000 7.2 200 11:23 01.11.2022
1190 Clear 20 1021 59 10000 8.75 220 09:54 01.11.2022
1191 Clear 21 1021 56 10000 7.2 240 08:38 01.11.2022
1192 Clear 21 1023 54 10000 7.72 240 07:29 01.11.2022
1193 Clear 21 1023 53 10000 6.69 240 06:47 01.11.2022
1194 Clear 20 1024 52 10000 5.14 260 05:56 01.11.2022
1195 Clouds 18 1026 56 10000 2.57 250 03:32 01.11.2022
1196 Clear 8 1025 89 10000 2.06 110 21:36 31.10.2022
1197 Clear 9 1024 85 10000 2.57 180 20:25 31.10.2022
1198 Clear 11 1025 81 10000 3.6 180 18:48 31.10.2022
1199 Clear 12 1026 73 10000 5.14 190 16:45 31.10.2022
1200 Clear 13 1026 70 10000 7.2 190 15:52 31.10.2022
1201 Clear 15 1025 68 10000 7.2 210 13:22 31.10.2022
1202 Clouds 19 1023 51 10000 8.23 230 09:54 31.10.2022
1203 Clear 20 1023 47 10000 8.75 230 08:24 31.10.2022
1204 Clouds 17 1025 48 10000 7.72 190 02:51 31.10.2022
1205 Clouds 15 1025 59 10000 4.63 170 01:49 31.10.2022
1206 Clear 4 1023 93 10000 2.57 180 22:33 30.10.2022
1207 Clouds 4 1022 93 10000 2.06 120 20:45 30.10.2022
1208 Clear 5 1022 90 10000 0 0 19:54 30.10.2022
1209 Clear 9 1022 79 10000 2.06 190 16:48 30.10.2022
1210 Clear 11 1021 68 10000 6.69 190 14:57 30.10.2022
1211 Clear 12 1020 67 10000 7.2 190 13:51 30.10.2022
1212 Clouds 13 1018 63 10000 8.23 200 12:27 30.10.2022
1213 Clouds 15 1017 63 10000 9.77 180 10:49 30.10.2022
1214 Clouds 15 1017 63 10000 9.77 180 10:49 30.10.2022
1215 Clouds 17 1016 53 10000 8.75 240 09:36 30.10.2022
1216 Rain 17 1016 52 10000 10.29 220 08:18 30.10.2022
1217 Clear 10 1015 81 10000 5.66 200 00:30 30.10.2022
1218 Clear 9 1014 84 10000 6.17 190 23:48 29.10.2022
1219 Clear 10 1013 82 10000 5.66 190 22:52 29.10.2022
1220 Drizzle 11 1011 90 10000 9.77 200 19:57 29.10.2022
1221 Clear 12 1010 87 10000 4.63 190 17:24 29.10.2022
1222 Clouds 13 1010 84 10000 6.17 180 15:40 29.10.2022
1223 Clouds 13 1010 83 10000 7.2 180 14:56 29.10.2022
1224 Clouds 14 1010 84 10000 6.69 200 14:36 29.10.2022
1225 Drizzle 15 1008 78 10000 8.23 190 12:33 29.10.2022
1226 Clouds 15 1005 81 10000 7.2 190 09:43 29.10.2022
1227 Drizzle 14 1005 81 10000 8.23 160 07:23 29.10.2022
1228 Clouds 16 1005 66 10000 7.2 150 05:55 29.10.2022
1229 Clouds 14 1005 70 10000 6.17 140 23:51 28.10.2022
1230 Clear 14 1004 67 10000 9.26 130 21:58 28.10.2022
1231 Clouds 14 1004 67 10000 7.2 130 20:45 28.10.2022
1232 Rain 16 1004 60 10000 9.77 120 18:39 28.10.2022
1233 Rain 16 1005 60 10000 12.86 120 18:20 28.10.2022
1234 Clear 20 1005 48 10000 7.72 130 15:28 28.10.2022
1235 Clear 22 1005 44 10000 8.75 130 13:44 28.10.2022
1236 Clear 24 1004 38 10000 8.75 120 11:56 28.10.2022
1237 Clear 25 1004 36 10000 8.75 110 11:33 28.10.2022
1238 Clear 25 1004 35 10000 8.75 110 10:45 28.10.2022
1239 Clear 26 1004 34 10000 7.72 130 09:44 28.10.2022
1240 Clear 26 1006 35 10000 7.72 130 07:51 28.10.2022
1241 Clear 18 1010 52 10000 8.23 110 02:58 28.10.2022
1242 Clear 13 1010 63 10000 6.17 110 23:47 27.10.2022
1243 Clouds 13 1010 63 10000 5.66 120 22:37 27.10.2022
1244 Clear 13 1010 64 10000 6.17 110 21:21 27.10.2022
1245 Clear 15 1010 62 10000 4.63 150 18:33 27.10.2022
1246 Clear 16 1010 58 10000 4.63 200 17:26 27.10.2022
1247 Clear 17 1009 61 10000 6.17 210 13:32 27.10.2022
1248 Clear 22 1010 41 10000 5.14 170 08:31 27.10.2022
1249 Clouds 17 1016 58 10000 6.17 100 02:56 27.10.2022
1250 Clear 11 1015 76 10000 3.09 170 23:54 26.10.2022
1251 Clear 11 1015 78 10000 5.66 110 22:44 26.10.2022
1252 Clear 12 1015 77 10000 4.63 110 21:49 26.10.2022
1253 Clear 13 1016 75 10000 3.6 130 18:38 26.10.2022
1254 Clear 14 1016 74 10000 3.6 180 16:22 26.10.2022
1255 Clear 16 1015 62 10000 7.72 200 13:34 26.10.2022
1256 Clouds 18 1014 56 10000 8.75 210 12:34 26.10.2022
1257 Clouds 21 1015 48 10000 8.23 220 09:20 26.10.2022
1258 Clouds 21 1015 49 10000 7.2 220 08:53 26.10.2022
1259 Clouds 21 1015 49 10000 6.69 200 07:57 26.10.2022
1260 Clouds 10 1018 91 10000 0 0 00:42 26.10.2022
1261 Clouds 9 1018 92 10000 1.54 360 23:57 25.10.2022
1262 Clear 10 1017 91 10000 0.51 190 21:47 25.10.2022
1263 Clouds 10 1017 90 10000 1.54 160 20:46 25.10.2022
1264 Clouds 11 1017 88 10000 0.51 190 18:58 25.10.2022
1265 Clouds 12 1018 86 10000 2.57 190 17:49 25.10.2022
1266 Clouds 16 1017 70 10000 4.63 210 13:40 25.10.2022
1267 Clouds 18 1016 59 10000 6.69 230 11:38 25.10.2022
1268 Clouds 18 1016 59 10000 6.69 230 11:38 25.10.2022
1269 Clouds 19 1016 52 10000 7.72 240 10:36 25.10.2022
1270 Clouds 20 1016 53 10000 7.72 230 08:43 25.10.2022
1271 Clouds 20 1016 54 10000 7.72 220 08:18 25.10.2022
1272 Clouds 20 1016 55 10000 7.72 220 07:54 25.10.2022
1273 Clouds 19 1016 57 10000 7.2 230 06:53 25.10.2022
1274 Clouds 18 1017 71 10000 7.2 190 03:35 25.10.2022
1275 Drizzle 14 1015 94 10000 4.63 180 00:33 25.10.2022
1276 Clouds 13 1014 92 10000 4.12 180 22:29 24.10.2022
1277 Clouds 13 1014 91 10000 3.6 210 21:50 24.10.2022
1278 Clear 13 1013 92 10000 3.6 180 21:31 24.10.2022
1279 Clouds 13 1013 88 10000 3.6 190 20:40 24.10.2022
1280 Clouds 14 1012 84 10000 3.6 180 18:46 24.10.2022
1281 Clouds 16 1012 75 10000 5.14 200 16:59 24.10.2022
1282 Clouds 17 1012 79 10000 6.69 220 15:43 24.10.2022
1283 Clouds 17 1012 81 10000 6.69 220 14:20 24.10.2022
1284 Clouds 18 1010 76 10000 8.75 220 12:53 24.10.2022
1285 Clouds 20 1009 65 10000 9.33 220 09:42 24.10.2022
1286 Clouds 21 1008 61 10000 9.26 230 07:56 24.10.2022
1287 Clouds 14 1007 97 10000 0 0 22:50 23.10.2022
1288 Clouds 14 1006 96 10000 1.54 140 20:41 23.10.2022
1289 Rain 14 1007 97 10000 2.57 170 19:29 23.10.2022
1290 Rain 14 1008 96 10000 4.12 180 17:30 23.10.2022
1291 Rain 14 1008 96 10000 4.12 180 17:30 23.10.2022
1292 Rain 14 1008 95 5000 4.63 200 16:37 23.10.2022
1293 Rain 15 1008 92 8000 4.63 210 14:58 23.10.2022
1294 Clouds 16 1006 88 10000 6.69 180 12:21 23.10.2022
1295 Rain 16 1006 92 10000 6.69 180 10:58 23.10.2022
1296 Rain 19 1008 72 10000 2.06 270 06:36 23.10.2022
1297 Clear 13 1010 94 10000 2.57 50 23:26 22.10.2022
1298 Clear 13 1010 94 10000 2.06 340 22:30 22.10.2022
1299 Clear 14 1010 89 10000 0.51 100 21:40 22.10.2022
1300 Clear 14 1010 88 10000 2.57 170 20:25 22.10.2022
1301 Clear 15 1011 87 10000 2.06 190 19:31 22.10.2022
1302 Clear 16 1012 83 10000 3.6 190 17:41 22.10.2022
1303 Clear 16 1012 83 10000 3.6 190 17:41 22.10.2022
1304 Clear 16 1012 80 10000 4.12 200 16:49 22.10.2022
1305 Clear 18 1013 75 10000 5.14 190 14:57 22.10.2022
1306 Clear 18 1013 75 10000 4.63 200 14:31 22.10.2022
1307 Clouds 22 1012 59 10000 5.14 220 11:25 22.10.2022
1308 Clouds 23 1012 55 10000 4.63 230 09:45 22.10.2022
1309 Clouds 23 1012 55 10000 4.63 230 09:45 22.10.2022
1310 Clouds 23 1014 51 10000 2.06 90 08:37 22.10.2022
1311 Clouds 22 1015 59 10000 3.6 90 05:34 22.10.2022
1312 Clear 14 1015 91 10000 3.6 160 00:28 22.10.2022
1313 Clouds 14 1014 94 10000 3.09 190 22:37 21.10.2022
1314 Clear 14 1014 94 10000 2.57 160 21:32 21.10.2022
1315 Clouds 14 1015 92 10000 4.63 200 20:25 21.10.2022
1316 Rain 15 1014 92 10000 1.54 170 17:50 21.10.2022
1317 Rain 16 1014 83 10000 2.84 163 14:32 21.10.2022
1318 Rain 17 1014 71 10000 5.38 185 13:30 21.10.2022
1319 Rain 18 1013 58 10000 5.14 220 11:45 21.10.2022
1320 Clear 19 1013 56 10000 5.14 240 10:22 21.10.2022
1321 Clouds 20 1014 55 10000 5.66 250 08:42 21.10.2022
1322 Clouds 21 1013 53 10000 5.66 250 08:19 21.10.2022
1323 Clouds 21 1013 53 10000 5.66 250 08:19 21.10.2022
1324 Clouds 18 1014 83 10000 2.57 30 02:32 21.10.2022
1325 Fog 14 1013 97 100 2.57 50 22:36 20.10.2022
1326 Clouds 15 1013 95 10000 1.54 10 20:53 20.10.2022
1327 Clouds 15 1013 95 10000 2.06 60 19:41 20.10.2022
1328 Clouds 15 1014 95 10000 2.57 80 18:19 20.10.2022
1329 Drizzle 16 1014 95 6000 3.09 180 17:38 20.10.2022
1330 Drizzle 17 1013 88 10000 3.6 220 13:32 20.10.2022
1331 Clouds 18 1013 83 10000 3.6 210 12:30 20.10.2022
1332 Clouds 19 1012 80 10000 5.14 250 11:25 20.10.2022
1333 Clouds 18 1012 81 10000 6.69 250 10:51 20.10.2022
1334 Clouds 22 1012 54 10000 6.69 280 08:27 20.10.2022
1335 Clouds 22 1013 52 10000 6.17 260 05:47 20.10.2022
1336 Clouds 17 1013 77 10000 2.06 30 01:54 20.10.2022
1337 Clouds 15 1011 90 10000 1.54 20 22:47 19.10.2022
1338 Clouds 15 1010 92 10000 0 0 21:59 19.10.2022
1339 Clouds 14 1010 92 10000 0 0 21:18 19.10.2022
1340 Clouds 15 1010 88 10000 2.06 170 18:54 19.10.2022
1341 Clouds 16 1010 85 10000 3.6 200 17:39 19.10.2022
1342 Clouds 17 1011 83 10000 4.63 210 16:21 19.10.2022
1343 Clear 18 1010 81 10000 5.66 240 13:53 19.10.2022
1344 Clear 25 1008 41 10000 6.69 260 10:23 19.10.2022
1345 Clear 29 1009 26 10000 7.2 270 08:35 19.10.2022
1346 Clear 31 1010 14 10000 6.69 330 06:50 19.10.2022
1347 Clear 17 1013 54 10000 6.17 60 01:27 19.10.2022
1348 Clear 12 1012 79 10000 3.6 50 23:21 18.10.2022
1349 Clear 11 1013 91 10000 1.54 170 21:48 18.10.2022
1350 Clear 12 1013 91 10000 2.06 170 20:59 18.10.2022
1351 Clear 12 1014 90 10000 2.06 160 20:19 18.10.2022
1352 Clear 14 1015 85 10000 4.12 190 18:25 18.10.2022
1353 Clear 15 1016 79 10000 5.66 180 16:52 18.10.2022
1354 Clear 17 1016 73 10000 7.72 190 14:51 18.10.2022
1355 Clear 19 1015 61 10000 6.69 210 12:34 18.10.2022
1356 Clear 21 1015 55 10000 7.2 210 11:22 18.10.2022
1357 Clear 23 1015 50 10000 7.72 220 09:59 18.10.2022
1358 Clear 25 1017 39 10000 6.17 250 07:57 18.10.2022
1359 Clear 21 1020 50 10000 3.09 50 04:35 18.10.2022
1360 Clear 12 1020 79 10000 4.12 110 22:54 17.10.2022
1361 Clear 12 1020 84 10000 3.6 170 20:55 17.10.2022
1362 Clear 12 1020 89 10000 5.14 190 20:33 17.10.2022
1363 Clear 12 1020 89 10000 3.09 200 19:52 17.10.2022
1364 Clear 13 1021 88 10000 3.6 190 19:18 17.10.2022
1365 Clear 14 1021 86 10000 3.09 210 16:55 17.10.2022
1366 Clear 15 1021 82 10000 4.63 190 15:46 17.10.2022
1367 Clear 16 1021 77 10000 6.17 210 14:35 17.10.2022
1368 Clouds 18 1019 64 10000 6.69 250 11:55 17.10.2022
1369 Clear 20 1018 49 10000 5.66 220 06:42 17.10.2022
1370 Clear 11 1018 94 10000 2.57 240 23:35 16.10.2022
1371 Clouds 11 1017 93 10000 2.57 150 21:58 16.10.2022
1372 Rain 11 1017 93 10000 2.57 30 20:56 16.10.2022
1373 Rain 12 1016 92 10000 3.6 140 19:47 16.10.2022
1374 Clouds 12 1017 91 10000 3.09 10 17:58 16.10.2022
1375 Clouds 13 1016 90 10000 0.51 90 17:39 16.10.2022
1376 Clouds 13 1017 87 10000 3.09 300 15:58 16.10.2022
1377 Clouds 14 1016 82 10000 3.6 260 14:34 16.10.2022
1378 Clouds 17 1015 55 10000 6.17 260 12:23 16.10.2022
1379 Clear 19 1014 45 10000 7.2 250 10:28 16.10.2022
1380 Clear 19 1014 41 10000 6.69 270 08:51 16.10.2022
1381 Clear 16 1015 67 10000 4.12 200 02:24 16.10.2022
1382 Clear 8 1015 93 10000 1.54 10 23:41 15.10.2022
1383 Clouds 9 1015 89 10000 0 0 21:29 15.10.2022
1384 Clouds 9 1015 89 10000 0 0 20:56 15.10.2022
1385 Clear 10 1014 85 10000 2.57 200 18:50 15.10.2022
1386 Clear 13 1016 69 10000 5.66 190 15:49 15.10.2022
1387 Clouds 14 1015 69 10000 3.6 180 15:31 15.10.2022
1388 Clear 18 1015 51 10000 7.2 220 11:58 15.10.2022
1389 Clear 19 1014 47 10000 8.23 230 11:18 15.10.2022
1390 Clear 22 1015 39 10000 7.72 240 08:55 15.10.2022
1391 Clouds 18 1017 57 10000 1.54 220 03:40 15.10.2022
1392 Clear 9 1017 93 10000 4.12 90 00:24 15.10.2022
1393 Clear 8 1016 92 10000 0 0 22:24 14.10.2022
1394 Clear 9 1016 91 10000 0 0 21:36 14.10.2022
1395 Clear 9 1016 91 10000 1.54 180 20:25 14.10.2022
1396 Clear 12 1017 81 10000 3.09 180 16:59 14.10.2022
1397 Clouds 15 1017 64 10000 4.12 210 13:52 14.10.2022
1398 Clear 17 1016 55 10000 6.17 230 12:19 14.10.2022
1399 Clear 20 1016 40 10000 6.69 250 09:46 14.10.2022
1400 Clear 21 1017 39 10000 5.66 240 07:47 14.10.2022
1401 Clear 20 1018 41 10000 3.6 210 06:18 14.10.2022
1402 Clouds 20 1019 41 10000 3.6 200 05:42 14.10.2022
1403 Clouds 19 1020 45 10000 3.09 200 04:42 14.10.2022
1404 Clouds 8 1020 90 10000 0 0 00:41 14.10.2022
1405 Clouds 7 1019 91 10000 0 0 22:31 13.10.2022
1406 Clear 7 1020 90 10000 1.54 20 21:26 13.10.2022
1407 Clear 8 1020 88 10000 2.06 20 20:18 13.10.2022
1408 Clear 8 1021 86 10000 2.06 20 19:37 13.10.2022
1409 Clear 9 1021 85 10000 1.54 30 18:43 13.10.2022
1410 Clear 10 1022 78 10000 2.57 180 17:20 13.10.2022
1411 Clear 12 1022 70 10000 4.12 180 15:48 13.10.2022
1412 Clear 14 1022 63 10000 5.14 210 14:23 13.10.2022
1413 Clear 15 1021 56 10000 7.72 210 12:50 13.10.2022
1414 Clear 17 1021 51 10000 7.72 240 11:36 13.10.2022
1415 Clear 19 1021 45 10000 7.72 250 09:40 13.10.2022
1416 Clear 20 1021 39 10000 5.14 230 08:19 13.10.2022
1417 Clear 19 1022 39 10000 4.12 260 07:33 13.10.2022
1418 Clear 11 1026 65 10000 1.54 240 01:51 13.10.2022
1419 Clear 9 1025 75 10000 2.06 340 00:55 13.10.2022
1420 Clear 7 1024 77 10000 0 0 22:46 12.10.2022
1421 Clear 7 1024 77 10000 0 0 22:28 12.10.2022
1422 Clear 8 1024 76 10000 2.57 110 21:21 12.10.2022
1423 Clear 9 1024 74 10000 3.6 140 20:52 12.10.2022
1424 Clear 9 1024 79 10000 4.12 180 19:29 12.10.2022
1425 Clear 10 1024 76 10000 3.6 170 18:25 12.10.2022
1426 Clear 11 1024 74 10000 3.6 180 17:47 12.10.2022
1427 Clear 13 1024 64 10000 4.63 180 15:35 12.10.2022
1428 Clear 15 1023 62 10000 5.66 210 13:56 12.10.2022
1429 Clear 15 1023 60 10000 7.2 210 12:46 12.10.2022
1430 Clear 19 1021 46 10000 8.23 210 09:40 12.10.2022
1431 Clear 19 1021 42 10000 7.2 200 07:42 12.10.2022
1432 Clear 19 1021 41 10000 7.2 210 06:55 12.10.2022
1433 Clear 18 1021 40 10000 7.72 170 06:37 12.10.2022
1434 Clear 8 1022 90 10000 1.54 70 00:58 12.10.2022
1435 Clear 7 1021 90 10000 2.06 190 22:18 11.10.2022
1436 Clear 9 1020 85 10000 3.09 200 20:39 11.10.2022
1437 Clear 10 1020 80 10000 4.12 190 18:46 11.10.2022
1438 Clear 11 1019 76 10000 3.6 190 16:38 11.10.2022
1439 Clouds 13 1019 66 10000 6.69 200 14:35 11.10.2022
1440 Clouds 15 1018 61 10000 7.2 220 12:44 11.10.2022
1441 Clear 18 1016 45 10000 8.75 220 10:29 11.10.2022
1442 Clear 18 1017 39 10000 9.26 230 09:30 11.10.2022
1443 Clear 18 1017 39 10000 9.26 230 09:30 11.10.2022
1444 Clear 18 1019 43 10000 6.69 200 05:39 11.10.2022
1445 Clear 14 1020 64 10000 2.57 360 02:22 11.10.2022
1446 Clear 7 1019 92 10000 2.57 10 00:29 11.10.2022
1447 Clear 7 1018 91 10000 1.54 30 21:24 10.10.2022
1448 Clear 8 1018 86 10000 0 0 19:49 10.10.2022
1449 Clear 9 1018 83 10000 0 0 18:30 10.10.2022
1450 Rain 11 1019 75 10000 0 0 16:51 10.10.2022
1451 Clouds 12 1019 67 10000 3.09 200 15:20 10.10.2022
1452 Clouds 14 1018 54 10000 7.72 210 12:43 10.10.2022
1453 Clouds 15 1017 52 10000 8.75 210 11:56 10.10.2022
1454 Clouds 17 1016 52 10000 10.29 220 08:45 10.10.2022
1455 Clouds 17 1016 58 10000 9.77 230 05:42 10.10.2022
1456 Clouds 17 1016 76 10000 7.2 240 03:48 10.10.2022
1457 Rain 14 1016 89 7000 5.66 240 00:29 10.10.2022
1458 Clouds 14 1015 70 10000 3.6 220 22:27 09.10.2022
1459 Clouds 15 1015 68 10000 3.6 220 21:58 09.10.2022
1460 Clouds 15 1015 67 10000 3.6 230 21:19 09.10.2022
1461 Rain 15 1015 77 9000 4.63 230 19:59 09.10.2022
1462 Rain 15 1014 79 10000 5.66 240 19:34 09.10.2022
1463 Clouds 15 1015 79 9000 5.66 230 18:39 09.10.2022
1464 Clouds 16 1016 77 10000 3.09 230 16:56 09.10.2022
1465 Rain 16 1016 78 10000 3.09 210 16:32 09.10.2022
1466 Clouds 16 1017 79 10000 3.6 200 15:37 09.10.2022
1467 Rain 16 1016 80 10000 4.63 200 14:29 09.10.2022
1468 Clouds 16 1015 79 10000 7.2 220 12:59 09.10.2022
1469 Clouds 18 1014 74 10000 5.66 210 11:50 09.10.2022
1470 Clouds 19 1014 62 10000 5.66 250 10:48 09.10.2022
1471 Clouds 20 1016 56 10000 6.69 240 08:29 09.10.2022
1472 Clouds 19 1017 62 10000 0 0 03:37 09.10.2022
1473 Clouds 17 1017 70 10000 2.06 140 02:39 09.10.2022
1474 Clear 9 1017 93 10000 2.06 30 00:26 09.10.2022
1475 Clear 9 1017 92 10000 1.54 140 22:53 08.10.2022
1476 Clear 9 1017 90 10000 2.06 30 21:48 08.10.2022
1477 Clear 10 1017 88 10000 1.54 40 20:26 08.10.2022
1478 Clear 11 1018 84 10000 2.06 190 18:37 08.10.2022
1479 Clear 14 1018 79 10000 4.12 210 16:18 08.10.2022
1480 Clear 15 1018 74 10000 4.63 200 14:52 08.10.2022
1481 Clear 17 1018 66 10000 5.14 210 13:20 08.10.2022
1482 Clear 22 1018 33 10000 6.69 220 10:37 08.10.2022
1483 Clear 22 1018 37 10000 6.69 210 09:55 08.10.2022
1484 Clear 22 1018 38 10000 7.2 230 08:47 08.10.2022
1485 Clear 20 1021 41 10000 4.12 20 03:52 08.10.2022
1486 Clear 9 1022 90 10000 2.57 60 00:37 08.10.2022
1487 Clear 7 1021 91 10000 1.03 70 23:21 07.10.2022
1488 Clear 7 1021 88 10000 1.54 80 22:41 07.10.2022
1489 Clear 8 1021 85 10000 0 0 20:59 07.10.2022
1490 Clouds 10 1021 80 10000 0 0 19:34 07.10.2022
1491 Clear 11 1023 77 10000 3.09 170 17:47 07.10.2022
1492 Clear 12 1023 72 10000 3.09 170 16:41 07.10.2022
1493 Clear 14 1023 65 10000 4.63 180 14:59 07.10.2022
1494 Clear 15 1022 56 10000 5.14 210 13:22 07.10.2022
1495 Clear 20 1021 42 10000 6.69 240 09:56 07.10.2022
1496 Clear 20 1021 43 10000 6.69 250 09:19 07.10.2022
1497 Clear 20 1022 39 10000 4.63 230 07:51 07.10.2022
1498 Clear 12 1024 80 10000 3.6 120 01:38 07.10.2022
1499 Clouds 10 1022 92 10000 0 0 22:51 06.10.2022
1500 Clear 10 1022 91 10000 2.06 50 21:48 06.10.2022
1501 Clear 10 1022 93 10000 2.57 90 21:25 06.10.2022
1502 Clear 10 1022 91 10000 1.54 130 20:31 06.10.2022
1503 Clouds 11 1021 89 10000 0 0 18:39 06.10.2022
1504 Rain 11 1022 87 10000 2.06 190 18:19 06.10.2022
1505 Rain 11 1022 87 10000 2.06 190 18:19 06.10.2022
1506 Clouds 13 1022 82 10000 2.57 170 15:33 06.10.2022
1507 Clouds 16 1021 61 10000 6.69 210 12:22 06.10.2022
1508 Clear 18 1021 43 10000 6.69 250 07:55 06.10.2022
1509 Clouds 16 1022 51 10000 4.63 230 03:38 06.10.2022
1510 Clear 10 1020 84 10000 2.06 60 00:39 06.10.2022
1511 Clear 10 1019 83 10000 0 0 21:41 05.10.2022
1512 Clear 12 1019 70 10000 2.57 210 19:30 05.10.2022
1513 Clear 12 1019 67 10000 3.6 170 17:36 05.10.2022
1514 Clouds 13 1018 59 10000 5.14 180 16:20 05.10.2022
1515 Clear 14 1018 63 10000 6.69 200 14:47 05.10.2022
1516 Clear 14 1017 62 10000 7.2 200 14:19 05.10.2022
1517 Clear 14 1017 62 10000 7.2 200 14:19 05.10.2022
1518 Clouds 15 1015 61 10000 8.75 210 12:23 05.10.2022
1519 Clouds 18 1013 51 10000 7.72 220 09:39 05.10.2022
1520 Clouds 18 1012 60 10000 8.75 220 07:44 05.10.2022
1521 Clouds 19 1012 57 10000 8.75 220 06:19 05.10.2022
1522 Clouds 19 1012 61 10000 7.72 230 04:21 05.10.2022
1523 Clouds 15 1010 78 10000 4.63 230 00:50 05.10.2022
1524 Clouds 14 1009 80 10000 4.63 230 00:27 05.10.2022
1525 Clouds 15 1008 91 5000 6.17 240 22:37 04.10.2022
1526 Rain 15 1006 94 10000 2.57 360 20:39 04.10.2022
1527 Clouds 17 1008 80 10000 7.72 300 18:58 04.10.2022
1528 Clouds 18 1007 75 10000 4.12 310 18:37 04.10.2022
1529 Clouds 17 1008 76 10000 5.14 310 17:45 04.10.2022
1530 Clouds 17 1008 77 10000 2.57 330 16:33 04.10.2022
1531 Clear 19 1008 67 10000 4.12 310 12:56 04.10.2022
1532 Clear 25 1008 29 10000 4.63 290 09:45 04.10.2022
1533 Clear 24 1010 31 10000 6.17 40 07:23 04.10.2022
1534 Clear 15 1015 65 10000 6.17 60 02:19 04.10.2022
1535 Clear 11 1015 82 10000 7.2 60 23:40 03.10.2022
1536 Clear 11 1015 82 10000 7.2 60 23:40 03.10.2022
1537 Clear 11 1014 80 10000 8.75 80 21:52 03.10.2022
1538 Clear 11 1014 78 10000 9.77 90 20:56 03.10.2022
1539 Clear 12 1015 71 10000 8.75 90 19:38 03.10.2022
1540 Clear 12 1016 67 10000 5.14 110 17:58 03.10.2022
1541 Clear 12 1016 72 10000 2.57 50 16:56 03.10.2022
1542 Clear 13 1017 74 10000 2.06 150 15:28 03.10.2022
1543 Clouds 16 1016 67 10000 3.09 200 13:45 03.10.2022
1544 Clear 18 1015 55 10000 5.14 220 12:22 03.10.2022
1545 Clear 20 1014 43 10000 3.6 130 10:38 03.10.2022
1546 Clouds 20 1014 42 10000 2.57 170 09:37 03.10.2022
1547 Clouds 19 1017 46 10000 6.17 100 05:44 03.10.2022
1548 Clear 15 1019 57 10000 8.23 80 02:51 03.10.2022
1549 Clear 12 1017 70 10000 4.12 100 22:29 02.10.2022
1550 Clear 12 1017 67 10000 11.83 100 20:42 02.10.2022
1551 Clear 13 1017 64 10000 9.77 100 18:31 02.10.2022
1552 Clear 14 1017 65 10000 9.77 110 17:38 02.10.2022
1553 Clear 15 1018 63 10000 6.17 120 16:33 02.10.2022
1554 Clear 15 1018 63 10000 5.14 120 15:41 02.10.2022
1555 Clear 16 1017 63 10000 5.14 120 13:51 02.10.2022
1556 Clear 17 1017 62 10000 5.66 110 12:52 02.10.2022
1557 Clear 17 1016 59 10000 7.72 110 12:28 02.10.2022
1558 Clear 18 1016 55 10000 9.26 110 11:36 02.10.2022
1559 Rain 20 1015 48 10000 10.8 120 10:37 02.10.2022
1560 Clear 21 1015 42 10000 9.77 120 09:27 02.10.2022
1561 Clouds 20 1015 46 10000 6.69 100 07:30 02.10.2022
1562 Clouds 17 1018 61 10000 8.75 120 02:54 02.10.2022
1563 Clouds 13 1018 74 10000 7.72 120 00:45 02.10.2022
1564 Clouds 13 1018 76 10000 5.66 130 00:20 02.10.2022
1565 Clouds 13 1018 75 10000 6.69 110 22:36 01.10.2022
1566 Clouds 14 1018 71 10000 5.66 120 20:21 01.10.2022
1567 Clear 15 1018 65 10000 7.72 130 17:55 01.10.2022
1568 Clear 17 1017 55 10000 8.23 140 16:30 01.10.2022
1569 Clear 19 1016 45 10000 6.69 140 14:25 01.10.2022
1570 Clear 21 1015 41 10000 7.2 150 12:59 01.10.2022
1571 Clear 22 1014 39 10000 8.23 160 12:29 01.10.2022
1572 Clear 23 1013 30 10000 8.75 150 11:19 01.10.2022
1573 Clear 24 1013 29 10000 8.75 150 10:31 01.10.2022
1574 Clear 25 1012 31 10000 8.75 150 09:27 01.10.2022
1575 Clear 25 1013 36 10000 8.23 160 08:57 01.10.2022
1576 Clear 22 1016 44 10000 4.12 150 03:59 01.10.2022
1577 Clear 20 1018 51 10000 4.12 180 03:28 01.10.2022
1578 Clear 13 1017 75 10000 5.66 190 23:47 30.09.2022
1579 Clear 14 1017 69 10000 4.12 160 22:32 30.09.2022
1580 Clear 16 1016 61 10000 3.09 170 21:22 30.09.2022
1581 Clear 16 1016 61 10000 3.09 180 20:43 30.09.2022
1582 Clear 17 1016 52 10000 3.09 170 19:32 30.09.2022
1583 Clear 18 1017 50 10000 4.63 210 17:27 30.09.2022
1584 Clear 20 1017 48 10000 5.14 180 15:26 30.09.2022
1585 Clear 22 1016 43 10000 4.63 110 13:27 30.09.2022
1586 Clear 25 1017 35 10000 6.17 150 11:56 30.09.2022
1587 Clear 27 1015 27 10000 5.14 140 10:18 30.09.2022
1588 Clear 27 1016 27 10000 5.14 150 08:21 30.09.2022
1589 Clear 24 1020 35 10000 8.23 100 04:31 30.09.2022
1590 Clear 18 1022 55 10000 7.2 70 02:23 30.09.2022
1591 Clear 17 1020 62 10000 9.26 100 22:24 29.09.2022
1592 Clear 17 1020 60 10000 9.77 90 21:26 29.09.2022
1593 Clear 18 1020 57 10000 8.75 90 20:26 29.09.2022
1594 Clear 19 1019 47 10000 8.75 100 18:31 29.09.2022
1595 Clear 19 1019 38 10000 3.6 140 16:30 29.09.2022
1596 Clear 19 1019 38 10000 4.12 170 16:30 29.09.2022
1597 Clear 19 1019 40 10000 4.63 170 15:52 29.09.2022
1598 Clear 19 1019 38 10000 4.63 170 15:27 29.09.2022
1599 Clear 22 1018 31 10000 4.63 150 13:28 29.09.2022
1600 Clear 22 1018 31 10000 4.63 150 13:28 29.09.2022
1601 Clouds 28 1015 23 10000 8.23 120 08:52 29.09.2022
1602 Clear 26 1018 26 10000 6.69 80 05:36 29.09.2022
1603 Clear 21 1019 40 10000 8.23 70 02:42 29.09.2022
1604 Clear 15 1017 67 10000 7.2 100 23:29 28.09.2022
1605 Clear 16 1016 68 10000 3.6 120 22:24 28.09.2022
1606 Clear 16 1017 68 10000 3.09 190 21:28 28.09.2022
1607 Clear 16 1016 65 10000 4.63 150 19:58 28.09.2022
1608 Clear 16 1017 79 10000 3.6 180 17:19 28.09.2022
1609 Clear 19 1017 70 10000 5.66 190 14:45 28.09.2022
1610 Clear 22 1016 51 10000 6.69 180 12:31 28.09.2022
1611 Clear 25 1014 43 10000 6.17 210 10:22 28.09.2022
1612 Clear 27 1016 34 10000 2.57 200 07:53 28.09.2022
1613 Clouds 27 1017 27 10000 5.66 40 06:42 28.09.2022
1614 Clear 17 1018 72 10000 2.57 100 01:50 28.09.2022
1615 Clear 14 1018 86 10000 2.57 120 01:25 28.09.2022
1616 Clear 10 1018 91 10000 0 0 22:49 27.09.2022
1617 Clear 12 1017 90 10000 2.57 170 21:20 27.09.2022
1618 Clear 12 1018 89 10000 3.6 200 20:35 27.09.2022
1619 Clear 12 1018 87 10000 3.09 190 19:45 27.09.2022
1620 Clear 14 1019 84 10000 3.6 180 17:54 27.09.2022
1621 Clear 14 1019 81 10000 4.12 190 17:29 27.09.2022
1622 Clear 17 1019 71 10000 4.63 190 15:18 27.09.2022
1623 Clear 18 1019 67 10000 5.66 180 14:21 27.09.2022
1624 Clear 20 1018 54 10000 5.66 210 12:39 27.09.2022
1625 Clear 23 1019 40 10000 6.69 230 10:45 27.09.2022
1626 Clear 24 1019 35 10000 5.14 250 08:36 27.09.2022
1627 Clouds 23 1022 41 10000 3.09 40 05:22 27.09.2022
1628 Clear 14 1023 77 10000 4.63 70 01:40 27.09.2022
1629 Clear 9 1023 92 10000 1.54 180 00:28 27.09.2022
1630 Clear 9 1022 91 10000 2.06 190 23:24 26.09.2022
1631 Clear 10 1022 92 10000 2.57 190 21:37 26.09.2022
1632 Clear 10 1022 91 10000 2.06 160 20:18 26.09.2022
1633 Clear 11 1023 88 10000 2.57 140 19:19 26.09.2022
1634 Clear 13 1024 81 10000 3.6 190 17:26 26.09.2022
1635 Clear 15 1024 74 10000 6.17 190 15:25 26.09.2022
1636 Clear 17 1023 66 10000 5.66 210 12:31 26.09.2022
1637 Clear 20 1022 56 10000 7.2 200 10:44 26.09.2022
1638 Clear 21 1022 55 10000 7.2 200 10:23 26.09.2022
1639 Clear 21 1022 55 10000 6.17 200 09:59 26.09.2022
1640 Clear 21 1022 54 10000 7.2 230 09:41 26.09.2022
1641 Clear 21 1022 54 10000 7.2 230 09:20 26.09.2022
1642 Clouds 20 1026 51 10000 2.57 20 05:30 26.09.2022
1643 Clouds 15 1026 75 10000 8.75 80 02:29 26.09.2022
1644 Clear 9 1025 92 10000 2.06 320 23:24 25.09.2022
1645 Clear 9 1025 94 10000 1.54 130 21:47 25.09.2022
1646 Clear 9 1025 93 10000 0 0 21:25 25.09.2022
1647 Clear 9 1024 93 10000 0 0 20:35 25.09.2022
1648 Clear 10 1025 91 10000 0 0 18:55 25.09.2022
1649 Mist 10 1025 90 10000 0 0 18:24 25.09.2022
1650 Clear 11 1025 89 10000 1.54 180 17:23 25.09.2022
1651 Clear 12 1025 85 10000 2.57 170 16:00 25.09.2022
1652 Clear 14 1024 81 10000 4.12 220 14:37 25.09.2022
1653 Clear 14 1024 80 10000 4.12 220 14:18 25.09.2022
1654 Clouds 18 1021 56 10000 6.17 220 10:40 25.09.2022
1655 Clouds 19 1022 55 10000 6.17 230 09:37 25.09.2022
1656 Clouds 18 1022 59 10000 5.14 240 07:41 25.09.2022
1657 Clouds 18 1022 48 10000 3.6 200 05:19 25.09.2022
1658 Clear 5 1021 95 10000 0.51 30 23:36 24.09.2022
1659 Clear 7 1021 92 10000 1.54 30 21:19 24.09.2022
1660 Clear 8 1021 90 10000 0 0 19:34 24.09.2022
1661 Clear 8 1021 90 10000 0 0 18:57 24.09.2022
1662 Clear 10 1021 85 10000 2.06 190 16:50 24.09.2022
1663 Clear 12 1021 77 10000 3.09 190 15:23 24.09.2022
1664 Clear 13 1020 73 10000 4.63 210 14:36 24.09.2022
1665 Clear 14 1019 67 10000 6.17 220 13:18 24.09.2022
1666 Clear 15 1019 63 10000 6.17 230 12:22 24.09.2022
1667 Clear 17 1018 50 10000 8.75 250 09:58 24.09.2022
1668 Clear 17 1017 47 10000 6.69 230 08:56 24.09.2022
1669 Clear 17 1017 47 10000 6.69 180 07:41 24.09.2022
1670 Clouds 17 1018 55 10000 7.72 190 04:52 24.09.2022
1671 Clouds 16 1017 62 10000 7.72 170 03:48 24.09.2022
1672 Drizzle 12 1014 95 5000 8.23 180 22:54 23.09.2022
1673 Clouds 13 1013 93 10000 6.17 200 21:33 23.09.2022
1674 Clear 13 1013 87 10000 6.17 220 20:57 23.09.2022
1675 Clear 12 1013 86 10000 2.06 30 20:26 23.09.2022
1676 Clouds 13 1014 81 10000 2.57 300 19:19 23.09.2022
1677 Clouds 14 1015 79 10000 2.57 350 15:29 23.09.2022
1678 Clouds 17 1015 63 10000 3.6 270 11:47 23.09.2022
1679 Clouds 19 1016 55 10000 5.14 280 09:36 23.09.2022
1680 Clouds 19 1018 51 10000 5.66 270 06:39 23.09.2022
1681 Clear 8 1020 83 10000 2.57 40 00:41 23.09.2022
1682 Clear 8 1019 83 10000 3.6 60 23:22 22.09.2022
1683 Clear 8 1019 79 10000 3.6 70 22:27 22.09.2022
1684 Clear 9 1019 76 10000 4.12 70 21:18 22.09.2022
1685 Clear 10 1020 74 10000 4.12 60 19:58 22.09.2022
1686 Clear 11 1021 72 10000 4.63 40 17:28 22.09.2022
1687 Clear 14 1020 62 10000 3.6 250 12:52 22.09.2022
1688 Clear 18 1020 43 10000 5.66 270 10:36 22.09.2022
1689 Clear 19 1020 39 10000 5.14 350 08:58 22.09.2022
1690 Clear 19 1021 41 10000 2.57 340 06:57 22.09.2022
1691 Clear 17 1023 47 10000 5.14 170 04:36 22.09.2022
1692 Clouds 11 1021 84 10000 4.12 180 23:31 21.09.2022
1693 Clouds 11 1020 89 10000 3.6 170 21:50 21.09.2022
1694 Clouds 12 1020 89 10000 3.09 170 20:34 21.09.2022
1695 Clouds 12 1020 95 10000 5.14 180 17:50 21.09.2022
1696 Clouds 14 1020 93 10000 8.75 190 16:53 21.09.2022
1697 Clouds 15 1019 87 10000 3.6 330 14:46 21.09.2022
1698 Clouds 17 1018 75 10000 5.14 310 12:58 21.09.2022
1699 Clouds 18 1017 72 10000 7.2 270 11:30 21.09.2022
1700 Clouds 19 1016 63 10000 7.2 280 10:33 21.09.2022
1701 Clouds 20 1017 59 10000 7.72 280 09:24 21.09.2022
1702 Clouds 21 1017 55 10000 8.23 300 07:57 21.09.2022
1703 Clouds 17 1019 77 10000 3.6 360 02:49 21.09.2022
1704 Clouds 15 1019 84 10000 4.63 360 02:28 21.09.2022
1705 Clouds 10 1018 94 10000 3.09 10 00:44 21.09.2022
1706 Clouds 11 1017 94 10000 3.6 20 23:18 20.09.2022
1707 Clouds 11 1018 94 10000 3.09 20 20:52 20.09.2022
1708 Clouds 11 1019 92 10000 3.09 20 19:37 20.09.2022
1709 Clouds 13 1020 88 10000 3.09 20 16:28 20.09.2022
1710 Clouds 15 1020 83 10000 3.09 330 14:46 20.09.2022
1711 Clouds 16 1020 77 10000 4.63 310 13:28 20.09.2022
1712 Clouds 19 1019 68 10000 8.23 280 09:50 20.09.2022
1713 Clouds 19 1019 67 10000 8.23 290 08:27 20.09.2022
1714 Clouds 17 1021 81 7000 8.75 260 05:24 20.09.2022
1715 Clouds 17 1021 83 8000 7.72 260 04:27 20.09.2022
1716 Drizzle 11 1019 91 10000 3.09 20 22:59 19.09.2022
1717 Clouds 11 1019 87 10000 2.57 70 22:18 19.09.2022
1718 Drizzle 11 1019 82 10000 3.09 60 20:51 19.09.2022
1719 Clouds 11 1019 80 10000 2.06 10 20:31 19.09.2022
1720 Clouds 12 1019 72 10000 2.57 170 17:45 19.09.2022
1721 Clouds 13 1019 66 10000 3.09 190 15:34 19.09.2022
1722 Clouds 14 1017 61 10000 6.17 210 13:32 19.09.2022
1723 Clouds 15 1014 65 10000 11.32 210 11:25 19.09.2022
1724 Clouds 17 1012 66 10000 11.32 220 08:51 19.09.2022
1725 Clouds 17 1011 61 10000 9.77 220 07:25 19.09.2022
1726 Clouds 12 1008 93 10000 3.6 10 01:55 19.09.2022
1727 Rain 12 1007 90 4000 7.2 280 23:22 18.09.2022
1728 Clouds 13 1007 82 10000 6.69 310 21:44 18.09.2022
1729 Clouds 14 1008 79 10000 4.63 300 20:25 18.09.2022
1730 Clear 14 1010 81 10000 8.75 280 18:33 18.09.2022
1731 Clouds 14 1011 77 10000 7.72 290 17:39 18.09.2022
1732 Rain 14 1012 88 10000 2.57 250 15:46 18.09.2022
1733 Rain 15 1012 86 10000 4.63 320 13:51 18.09.2022
1734 Clouds 17 1012 73 10000 4.63 290 12:35 18.09.2022
1735 Clouds 19 1012 64 10000 5.66 290 11:24 18.09.2022
1736 Clouds 18 1016 59 10000 3.09 10 04:26 18.09.2022
1737 Clouds 13 1017 92 10000 2.57 10 01:25 18.09.2022
1738 Clouds 13 1017 93 10000 2.57 30 00:23 18.09.2022
1739 Clear 12 1017 93 10000 0 0 21:40 17.09.2022
1740 Clear 13 1018 92 10000 2.06 110 19:43 17.09.2022
1741 Clear 13 1018 92 10000 2.06 110 19:43 17.09.2022
1742 Clear 13 1018 90 10000 2.57 200 18:57 17.09.2022
1743 Clear 13 1018 90 10000 2.57 200 18:57 17.09.2022
1744 Clouds 15 1019 84 10000 4.12 190 16:18 17.09.2022
1745 Clouds 16 1019 80 10000 3.6 210 13:56 17.09.2022
1746 Clouds 17 1019 79 10000 4.63 230 11:31 17.09.2022
1747 Clouds 20 1018 63 10000 6.17 220 09:27 17.09.2022
1748 Clouds 19 1020 68 10000 3.6 290 06:25 17.09.2022
1749 Clouds 10 1021 94 10000 3.09 50 00:20 17.09.2022
1750 Clouds 9 1020 94 10000 2.06 10 22:52 16.09.2022
1751 Clouds 9 1020 95 10000 0 0 21:22 16.09.2022
1752 Clear 10 1021 95 10000 0 0 19:50 16.09.2022
1753 Clear 12 1022 90 10000 2.08 184 16:38 16.09.2022
1754 Clear 13 1022 86 10000 3.09 230 15:26 16.09.2022
1755 Clear 14 1022 79 10000 3.09 230 13:57 16.09.2022
1756 Clouds 17 1021 66 10000 6.17 230 11:31 16.09.2022
1757 Clouds 20 1021 59 10000 6.69 270 08:19 16.09.2022
1758 Clouds 20 1022 60 10000 5.14 220 07:18 16.09.2022
1759 Clouds 19 1022 62 10000 4.12 210 06:35 16.09.2022
1760 Clouds 14 1023 86 10000 0.51 10 02:38 16.09.2022
1761 Clouds 11 1021 92 10000 1.54 200 22:43 15.09.2022
1762 Clouds 12 1021 91 10000 1.54 200 20:57 15.09.2022
1763 Clouds 13 1022 88 10000 3.6 170 19:48 15.09.2022
1764 Clouds 13 1022 91 10000 1.54 150 18:29 15.09.2022
1765 Clouds 14 1023 89 10000 2.57 190 17:31 15.09.2022
1766 Clouds 14 1022 88 10000 3.09 230 16:37 15.09.2022
1767 Clouds 14 1023 83 10000 3.6 210 14:30 15.09.2022
1768 Clouds 16 1022 73 10000 6.69 210 12:20 15.09.2022
1769 Clouds 18 1022 60 10000 8.23 240 09:52 15.09.2022
1770 Clouds 18 1023 60 10000 8.75 220 07:50 15.09.2022
1771 Clouds 17 1025 69 10000 7.72 220 03:52 15.09.2022
1772 Clouds 12 1023 95 10000 1.54 360 23:43 14.09.2022
1773 Clouds 12 1023 96 10000 2.57 170 21:26 14.09.2022
1774 Clouds 12 1023 94 10000 2.57 130 19:33 14.09.2022
1775 Rain 12 1024 93 8000 1.54 250 18:30 14.09.2022
1776 Clouds 13 1024 88 10000 4.12 200 16:40 14.09.2022
1777 Clouds 14 1024 82 10000 7.72 230 15:29 14.09.2022
1778 Drizzle 15 1023 73 10000 6.17 220 13:36 14.09.2022
1779 Clouds 17 1021 59 10000 9.77 230 10:47 14.09.2022
1780 Clouds 17 1021 63 10000 9.77 230 09:27 14.09.2022
1781 Clouds 17 1021 65 10000 10.29 230 06:51 14.09.2022
1782 Clouds 17 1022 64 10000 10.29 220 06:33 14.09.2022
1783 Clouds 16 1022 70 10000 8.23 250 03:54 14.09.2022
1784 Clouds 15 1020 71 10000 5.66 230 01:41 14.09.2022
1785 Clouds 14 1020 71 10000 5.66 230 01:19 14.09.2022
1786 Clouds 14 1019 71 10000 8.23 250 23:55 13.09.2022
1787 Clouds 14 1019 70 10000 8.75 250 23:37 13.09.2022
1788 Clouds 14 1019 71 10000 6.17 220 23:19 13.09.2022
1789 Clouds 14 1019 71 10000 7.72 230 22:43 13.09.2022
1790 Clouds 14 1019 71 10000 7.72 230 22:43 13.09.2022
1791 Clouds 14 1018 62 10000 6.69 230 21:40 13.09.2022
1792 Clouds 14 1018 64 10000 6.17 220 19:26 13.09.2022
1793 Clouds 14 1017 62 10000 5.14 230 16:45 13.09.2022
1794 Rain 14 1016 70 10000 8.11 219 15:38 13.09.2022
1795 Clouds 15 1014 62 10000 10.29 230 13:50 13.09.2022
1796 Clouds 15 1011 77 10000 8.75 230 11:34 13.09.2022
1797 Clouds 17 1005 78 2000 9.26 260 08:20 13.09.2022
1798 Clouds 16 1003 70 10000 10.8 280 02:58 13.09.2022
1799 Thunderstorm 15 1002 81 5000 8.23 310 23:23 12.09.2022
1800 Clouds 15 1002 86 10000 9.77 310 22:45 12.09.2022
1801 Clouds 15 1003 83 10000 7.2 310 21:35 12.09.2022
1802 Clouds 15 1003 92 10000 4.63 340 20:23 12.09.2022
1803 Rain 16 1004 94 10000 6.69 340 18:40 12.09.2022
1804 Rain 17 1005 87 10000 4.63 10 15:53 12.09.2022
1805 Rain 18 1006 86 10000 5.14 340 12:57 12.09.2022
1806 Clouds 20 1006 71 10000 5.14 310 10:34 12.09.2022
1807 Clouds 21 1006 64 10000 8.23 300 08:58 12.09.2022
1808 Clear 22 1009 53 10000 3.6 10 04:39 12.09.2022
1809 Clear 16 1010 72 10000 2.57 30 02:25 12.09.2022
1810 Clear 12 1010 83 10000 2.57 40 22:46 11.09.2022
1811 Clear 12 1009 83 10000 3.09 10 21:30 11.09.2022
1812 Clear 12 1010 82 10000 3.09 10 20:44 11.09.2022
1813 Clouds 13 1010 82 10000 0 0 19:39 11.09.2022
1814 Clear 13 1011 80 10000 2.57 60 19:19 11.09.2022
1815 Clear 14 1013 76 10000 2.06 40 17:29 11.09.2022
1816 Clear 16 1013 70 10000 2.57 30 15:51 11.09.2022
1817 Clear 18 1013 56 10000 2.57 280 13:26 11.09.2022
1818 Clear 22 1013 40 10000 3.09 280 11:26 11.09.2022
1819 Clear 24 1013 35 10000 5.14 270 08:25 11.09.2022
1820 Clear 22 1016 40 10000 3.6 10 05:30 11.09.2022
1821 Clear 8 1017 93 10000 2.57 30 23:51 10.09.2022
1822 Clear 8 1017 95 10000 2.57 70 22:22 10.09.2022
1823 Clear 9 1018 91 10000 0 0 20:34 10.09.2022
1824 Clear 9 1018 89 10000 2.06 60 19:44 10.09.2022
1825 Clear 9 1018 89 10000 0 0 19:25 10.09.2022
1826 Clear 9 1018 89 10000 0 0 19:25 10.09.2022
1827 Clear 11 1019 83 10000 0 0 17:49 10.09.2022
1828 Clear 13 1019 75 10000 3.09 190 15:35 10.09.2022
1829 Clear 13 1019 75 10000 3.09 190 15:35 10.09.2022
1830 Clear 15 1019 65 10000 3.6 200 13:40 10.09.2022
1831 Clear 17 1018 55 10000 4.12 200 12:30 10.09.2022
1832 Clear 20 1017 49 10000 6.69 210 10:31 10.09.2022
1833 Clouds 21 1018 51 10000 5.66 250 08:41 10.09.2022
1834 Clear 21 1017 47 10000 5.66 250 08:20 10.09.2022
1835 Clear 17 1020 69 10000 2.57 170 03:48 10.09.2022
1836 Clear 9 1018 93 10000 2.06 40 23:36 09.09.2022
1837 Clear 9 1018 93 10000 0 0 22:36 09.09.2022
1838 Clear 10 1018 91 10000 1.54 190 20:50 09.09.2022
1839 Clear 11 1018 90 10000 2.06 170 19:58 09.09.2022
1840 Clear 11 1018 89 10000 2.57 170 19:22 09.09.2022
1841 Clear 13 1019 85 10000 2.57 210 17:19 09.09.2022
1842 Clear 15 1018 77 10000 4.12 180 14:47 09.09.2022
1843 Clouds 16 1017 72 10000 5.14 200 13:19 09.09.2022
1844 Clear 20 1015 55 10000 5.66 250 10:41 09.09.2022
1845 Clouds 21 1016 49 10000 4.63 250 07:25 09.09.2022
1846 Clear 17 1018 64 10000 3.6 70 03:31 09.09.2022
1847 Clear 11 1017 88 10000 3.6 70 22:33 08.09.2022
1848 Clear 11 1017 87 10000 4.63 80 21:51 08.09.2022
1849 Clouds 12 1017 87 10000 3.09 40 20:46 08.09.2022
1850 Clouds 12 1017 88 10000 3.09 40 20:24 08.09.2022
1851 Clouds 12 1017 86 10000 3.09 50 18:34 08.09.2022
1852 Clear 14 1018 81 10000 2.06 50 16:49 08.09.2022
1853 Clouds 15 1018 77 10000 3.09 80 14:50 08.09.2022
1854 Clear 15 1017 74 10000 2.57 80 13:27 08.09.2022
1855 Clouds 16 1017 69 10000 3.6 220 12:35 08.09.2022
1856 Clouds 18 1017 56 10000 2.57 30 10:58 08.09.2022
1857 Clouds 19 1017 57 10000 2.57 40 09:20 08.09.2022
1858 Clouds 17 1020 62 10000 4.12 50 06:43 08.09.2022
1859 Clouds 13 1021 78 10000 5.14 70 03:18 08.09.2022
1860 Clouds 12 1022 88 10000 1.54 100 02:36 08.09.2022
1861 Clouds 11 1021 88 10000 5.14 60 02:18 08.09.2022
1862 Clouds 9 1019 92 10000 2.57 60 22:55 07.09.2022
1863 Clouds 9 1019 94 10000 3.6 100 21:43 07.09.2022
1864 Clouds 9 1019 96 10000 2.06 110 21:18 07.09.2022
1865 Clouds 9 1020 95 10000 2.06 180 19:54 07.09.2022
1866 Clear 9 1020 95 10000 2.57 10 18:40 07.09.2022
1867 Clear 12 1020 87 10000 2.57 190 15:21 07.09.2022
1868 Clouds 18 1018 59 10000 6.69 240 10:50 07.09.2022
1869 Clouds 19 1018 59 10000 6.69 240 10:24 07.09.2022
1870 Clouds 18 1018 69 10000 4.12 150 07:36 07.09.2022
1871 Clouds 14 1019 84 10000 3.09 20 04:39 07.09.2022
1872 Clear 6 1016 93 10000 3.09 10 00:25 07.09.2022
1873 Mist 8 1015 96 10000 2.57 30 21:45 06.09.2022
1874 Mist 8 1015 96 10000 2.57 20 21:24 06.09.2022
1875 Mist 7 1015 96 10000 2.06 40 18:53 06.09.2022
1876 Clear 8 1015 96 10000 2.57 30 18:23 06.09.2022
1877 Clear 8 1014 93 10000 2.57 40 17:23 06.09.2022
1878 Clouds 9 1014 93 10000 2.57 160 16:38 06.09.2022
1879 Clear 10 1014 92 10000 2.06 220 15:23 06.09.2022
1880 Clear 11 1012 89 10000 3.09 220 13:45 06.09.2022
1881 Clear 12 1012 86 10000 3.6 230 13:25 06.09.2022
1882 Clouds 12 1011 83 10000 7.2 210 12:31 06.09.2022
1883 Clouds 15 1009 66 10000 7.72 210 10:45 06.09.2022
1884 Clouds 16 1007 65 10000 7.2 250 08:50 06.09.2022
1885 Clouds 17 1007 62 10000 6.69 260 07:49 06.09.2022
1886 Rain 12 1008 89 10000 6.69 20 03:31 06.09.2022
1887 Rain 10 1008 96 6000 3.6 30 23:27 05.09.2022
1888 Rain 11 1008 95 10000 3.09 80 22:29 05.09.2022
1889 Rain 11 1009 98 9000 5.66 10 20:43 05.09.2022
1890 Clouds 11 1010 96 10000 3.09 30 19:26 05.09.2022
1891 Clouds 11 1010 96 10000 2.57 30 18:46 05.09.2022
1892 Rain 12 1010 96 4000 5.66 20 18:21 05.09.2022
1893 Rain 12 1011 94 10000 2.57 360 16:43 05.09.2022
1894 Rain 12 1011 94 4500 4.12 10 15:47 05.09.2022
1895 Clouds 13 1011 88 10000 4.12 300 13:26 05.09.2022
1896 Rain 14 1011 80 10000 4.12 230 12:27 05.09.2022
1897 Clouds 17 1010 62 10000 7.2 230 09:44 05.09.2022
1898 Clouds 17 1011 62 10000 8.75 230 06:41 05.09.2022
1899 Clouds 15 1012 94 10000 5.14 190 02:19 05.09.2022
1900 Fog 13 1010 98 400 2.57 30 23:18 04.09.2022
1901 Fog 13 1010 97 300 1.54 100 22:27 04.09.2022
1902 Mist 14 1010 96 10000 0 0 20:50 04.09.2022
1903 Clouds 15 1010 96 10000 0 0 19:32 04.09.2022
1904 Rain 15 1010 97 10000 3.09 240 17:55 04.09.2022
1905 Rain 15 1011 96 6000 3.6 210 16:42 04.09.2022
1906 Rain 17 1011 92 6000 2.57 20 14:30 04.09.2022
1907 Drizzle 17 1011 88 10000 2.06 90 13:28 04.09.2022
1908 Clouds 18 1010 82 10000 4.12 290 11:54 04.09.2022
1909 Rain 20 1010 74 10000 4.63 310 10:28 04.09.2022
1910 Clouds 19 1011 70 10000 4.63 20 07:29 04.09.2022
1911 Clouds 18 1013 73 10000 5.14 20 05:19 04.09.2022
1912 Clouds 13 1013 86 10000 5.14 60 00:47 04.09.2022
1913 Clouds 13 1012 85 10000 5.14 70 22:21 03.09.2022
1914 Clouds 13 1012 84 10000 5.14 60 21:23 03.09.2022
1915 Clouds 13 1013 85 10000 5.66 70 19:00 03.09.2022
1916 Clouds 14 1014 82 10000 6.69 70 17:26 03.09.2022
1917 Clouds 14 1015 81 10000 7.2 70 16:27 03.09.2022
1918 Clouds 14 1014 81 10000 7.2 70 14:44 03.09.2022
1919 Clouds 13 1014 83 10000 8.23 70 13:58 03.09.2022
1920 Clouds 14 1013 82 10000 7.72 70 12:19 03.09.2022
1921 Clouds 15 1013 77 10000 9.26 70 10:27 03.09.2022
1922 Clouds 15 1012 74 10000 8.75 60 08:27 03.09.2022
1923 Clouds 15 1013 75 10000 9.77 70 06:53 03.09.2022
1924 Rain 13 1015 84 10000 10.29 80 04:31 03.09.2022
1925 Rain 12 1016 88 10000 8.75 90 23:49 02.09.2022
1926 Rain 12 1017 85 10000 5.66 100 22:39 02.09.2022
1927 Drizzle 15 1017 64 10000 5.66 80 20:59 02.09.2022
1928 Rain 15 1017 59 10000 7.72 100 20:27 02.09.2022
1929 Rain 16 1017 58 10000 9.77 100 18:59 02.09.2022
1930 Rain 16 1017 58 10000 9.77 100 18:59 02.09.2022
1931 Rain 16 1017 54 10000 9.26 90 18:27 02.09.2022
1932 Clear 17 1017 53 10000 9.77 90 17:30 02.09.2022
1933 Clear 17 1018 51 10000 7.72 90 16:45 02.09.2022
1934 Clear 17 1019 53 10000 6.69 90 13:51 02.09.2022
1935 Clear 18 1019 50 10000 5.66 90 11:47 02.09.2022
1936 Clear 20 1019 46 10000 5.66 90 09:49 02.09.2022
1937 Clear 20 1019 45 10000 8.23 80 08:55 02.09.2022
1938 Clear 19 1020 44 10000 9.26 70 07:24 02.09.2022
1939 Clouds 19 1021 45 10000 9.77 80 06:34 02.09.2022
1940 Clear 14 1024 53 10000 8.75 70 02:34 02.09.2022
1941 Clear 14 1023 61 10000 9.26 70 22:24 01.09.2022
1942 Clear 14 1022 61 10000 8.75 80 21:39 01.09.2022
1943 Clear 14 1023 60 10000 7.72 80 21:20 01.09.2022
1944 Clear 14 1023 59 10000 6.69 70 20:31 01.09.2022
1945 Clouds 16 1023 53 10000 9.26 100 18:37 01.09.2022
1946 Clear 15 1024 59 10000 6.69 110 16:55 01.09.2022
1947 Clear 15 1025 59 10000 4.12 130 15:26 01.09.2022
1948 Clear 16 1024 55 10000 4.63 130 13:44 01.09.2022
1949 Clear 18 1023 49 10000 3.09 120 12:56 01.09.2022
1950 Clear 19 1023 44 10000 6.17 100 11:51 01.09.2022
1951 Clear 20 1023 42 10000 6.69 90 11:22 01.09.2022
1952 Clear 22 1022 38 10000 7.72 100 09:32 01.09.2022
1953 Clear 21 1024 41 10000 3.6 60 07:31 01.09.2022
1954 Clear 17 1026 55 10000 9.26 90 03:59 01.09.2022
1955 Clear 12 1025 75 10000 9.26 90 01:31 01.09.2022
1956 Clear 12 1025 75 10000 9.26 90 01:31 01.09.2022
1957 Clear 11 1024 76 10000 9.77 90 22:50 31.08.2022
1958 Clear 12 1024 75 10000 9.26 100 20:45 31.08.2022
1959 Clear 13 1024 72 10000 9.26 90 18:46 31.08.2022
1960 Clear 13 1023 65 10000 3.6 170 16:47 31.08.2022
1961 Clear 13 1023 66 10000 4.63 150 15:25 31.08.2022
1962 Clear 16 1022 59 10000 3.6 110 13:28 31.08.2022
1963 Clear 18 1021 51 10000 5.66 160 11:55 31.08.2022
1964 Clear 21 1019 41 10000 5.14 180 09:36 31.08.2022
1965 Clear 21 1019 41 10000 5.14 180 09:36 31.08.2022
1966 Clear 21 1020 41 10000 4.63 160 08:26 31.08.2022
1967 Clear 13 1023 69 10000 3.6 140 02:58 31.08.2022
1968 Clear 7 1021 87 10000 2.06 330 22:24 30.08.2022
1969 Clear 8 1021 85 10000 2.06 320 21:28 30.08.2022
1970 Clear 8 1021 84 10000 3.09 170 20:26 30.08.2022
1971 Clear 11 1022 80 10000 4.12 180 16:48 30.08.2022
1972 Clear 14 1021 67 10000 5.14 170 13:38 30.08.2022
1973 Clear 17 1019 55 10000 5.66 250 11:44 30.08.2022
1974 Clear 17 1019 52 10000 6.17 220 11:19 30.08.2022
1975 Clear 19 1020 42 10000 3.09 200 09:32 30.08.2022
1976 Clouds 18 1022 45 10000 3.09 110 06:26 30.08.2022
1977 Clear 7 1024 85 10000 3.6 100 00:30 30.08.2022
1978 Clear 7 1024 85 10000 4.12 100 22:36 29.08.2022
1979 Clear 8 1024 84 10000 3.6 90 21:51 29.08.2022
1980 Clear 8 1025 84 10000 3.09 40 20:34 29.08.2022
1981 Clear 10 1025 83 10000 4.12 60 18:55 29.08.2022
1982 Clear 11 1025 79 10000 2.06 140 17:26 29.08.2022
1983 Clear 12 1026 75 10000 2.57 160 16:56 29.08.2022
1984 Clear 13 1026 74 10000 3.6 190 15:18 29.08.2022
1985 Clear 13 1025 70 10000 4.63 180 13:40 29.08.2022
1986 Clear 16 1024 56 10000 4.63 230 11:44 29.08.2022
1987 Clear 17 1024 50 10000 2.57 210 10:42 29.08.2022
1988 Clear 18 1024 46 10000 2.06 320 08:40 29.08.2022
1989 Clear 16 1025 49 10000 2.57 60 06:26 29.08.2022
1990 Clear 8 1026 87 10000 5.14 80 01:53 29.08.2022
1991 Clear 7 1024 90 10000 2.06 350 22:55 28.08.2022
1992 Clear 7 1023 88 10000 3.6 110 21:45 28.08.2022
1993 Clear 7 1023 88 10000 2.06 90 20:58 28.08.2022
1994 Clear 7 1023 90 10000 0 0 19:44 28.08.2022
1995 Clear 7 1023 90 10000 2.06 10 18:22 28.08.2022
1996 Clear 8 1023 88 10000 0 0 17:40 28.08.2022
1997 Clear 8 1023 88 10000 0 0 16:32 28.08.2022
1998 Clear 10 1022 81 10000 2.57 190 14:44 28.08.2022
1999 Clear 13 1021 69 10000 3.6 210 12:49 28.08.2022
2000 Clouds 16 1020 55 10000 5.14 210 10:51 28.08.2022
2001 Clouds 16 1020 54 10000 5.14 180 09:56 28.08.2022
2002 Clouds 16 1020 57 10000 4.63 200 08:38 28.08.2022
2003 Clouds 16 1020 59 10000 6.17 200 07:48 28.08.2022
2004 Clouds 11 1020 88 10000 2.06 200 03:32 28.08.2022
2005 Rain 8 1018 96 10000 2.06 40 00:31 28.08.2022
2006 Clouds 9 1017 95 10000 2.57 350 22:38 27.08.2022
2007 Rain 9 1017 95 10000 0 0 21:40 27.08.2022
2008 Rain 9 1017 94 9000 2.06 80 19:57 27.08.2022
2009 Rain 10 1017 93 10000 0 0 18:27 27.08.2022
2010 Clouds 11 1017 85 9000 3.6 170 15:53 27.08.2022
2011 Rain 11 1017 84 10000 4.63 200 15:25 27.08.2022
2012 Rain 13 1015 77 10000 6.69 210 12:30 27.08.2022
2013 Clouds 14 1014 68 10000 8.23 220 11:32 27.08.2022
2014 Clouds 14 1014 68 10000 8.23 220 11:32 27.08.2022
2015 Clouds 15 1014 71 10000 10.8 200 09:49 27.08.2022
2016 Rain 14 1014 79 6000 9.26 200 08:22 27.08.2022
2017 Rain 14 1015 89 10000 5.66 200 03:40 27.08.2022
2018 Clouds 11 1013 96 9000 2.57 30 23:58 26.08.2022
2019 Rain 11 1014 95 10000 2.06 20 22:50 26.08.2022
2020 Rain 12 1014 94 4900 2.06 20 21:30 26.08.2022
2021 Clear 11 1015 87 10000 2.57 40 19:23 26.08.2022
2022 Clouds 12 1015 86 10000 0.51 50 17:25 26.08.2022
2023 Clouds 12 1016 84 10000 1.54 220 15:35 26.08.2022
2024 Clear 13 1016 77 10000 2.57 250 14:34 26.08.2022
2025 Clouds 16 1016 70 10000 4.63 240 12:51 26.08.2022
2026 Clear 18 1015 55 10000 5.66 270 11:33 26.08.2022
2027 Clouds 19 1015 51 10000 5.66 260 10:46 26.08.2022
2028 Clear 20 1016 52 10000 4.63 260 07:28 26.08.2022
2029 Clear 11 1018 81 10000 2.57 10 02:30 26.08.2022
2030 Clear 7 1017 93 10000 2.06 340 23:41 25.08.2022
2031 Clear 8 1018 90 10000 1.03 70 21:36 25.08.2022
2032 Clear 10 1018 88 10000 1.54 170 20:30 25.08.2022
2033 Clear 11 1019 84 10000 2.57 20 18:55 25.08.2022
2034 Clear 11 1018 82 10000 2.57 40 17:50 25.08.2022
2035 Clear 11 1019 83 10000 2.06 130 17:31 25.08.2022
2036 Clear 14 1020 75 10000 5.14 190 15:40 25.08.2022
2037 Clear 15 1020 70 10000 4.63 200 14:34 25.08.2022
2038 Clear 19 1019 49 10000 3.6 230 11:54 25.08.2022
2039 Clear 21 1018 42 10000 5.14 230 10:46 25.08.2022
2040 Clear 23 1019 31 10000 3.6 360 08:54 25.08.2022
2041 Clear 20 1022 36 10000 5.66 50 05:20 25.08.2022
2042 Clouds 11 1023 69 10000 7.2 70 00:59 25.08.2022
2043 Clear 11 1023 70 10000 6.17 60 23:26 24.08.2022
2044 Clear 11 1023 70 10000 6.17 60 22:22 24.08.2022
2045 Clouds 11 1023 72 10000 3.95 74 21:35 24.08.2022
2046 Clear 11 1024 71 10000 6.17 60 20:32 24.08.2022
2047 Clear 13 1025 66 10000 4.12 60 18:57 24.08.2022
2048 Clouds 14 1026 59 10000 3.09 110 16:36 24.08.2022
2049 Clear 14 1026 58 10000 4.63 80 15:52 24.08.2022
2050 Clear 14 1026 57 10000 3.09 70 13:33 24.08.2022
2051 Clear 16 1026 49 10000 6.17 70 11:24 24.08.2022
2052 Clear 18 1026 44 10000 6.69 90 09:33 24.08.2022
2053 Clear 18 1027 43 10000 6.69 70 07:47 24.08.2022
2054 Clear 11 1031 67 10000 5.14 60 02:25 24.08.2022
2055 Clear 10 1030 68 10000 6.69 80 22:59 23.08.2022
2056 Clouds 10 1030 67 10000 5.66 70 22:30 23.08.2022
2057 Clear 11 1029 67 10000 8.23 70 21:28 23.08.2022
2058 Clear 11 1030 68 10000 8.23 80 19:57 23.08.2022
2059 Clear 12 1031 66 10000 7.2 70 18:33 23.08.2022
2060 Clear 12 1031 65 10000 7.2 70 17:47 23.08.2022
2061 Clear 13 1031 65 10000 7.72 80 16:35 23.08.2022
2062 Clear 12 1031 67 10000 7.2 100 15:23 23.08.2022
2063 Clear 13 1031 64 10000 4.63 100 13:26 23.08.2022
2064 Clear 15 1030 53 10000 7.2 100 11:24 23.08.2022
2065 Clear 16 1030 49 10000 7.72 110 10:35 23.08.2022
2066 Clear 17 1030 46 10000 7.2 80 09:47 23.08.2022
2067 Clear 17 1030 44 10000 7.2 90 08:49 23.08.2022
2068 Clear 17 1031 43 10000 7.72 100 08:20 23.08.2022
2069 Clouds 17 1031 43 10000 5.66 70 07:34 23.08.2022
2070 Clear 16 1033 42 10000 7.72 80 06:26 23.08.2022
2071 Clear 10 1036 62 10000 3.6 100 01:55 23.08.2022
2072 Clear 8 1035 65 10000 6.17 100 00:27 23.08.2022
2073 Clear 8 1035 65 10000 4.12 110 23:33 22.08.2022
2074 Clear 9 1034 65 10000 5.66 100 22:32 22.08.2022
2075 Clear 9 1034 64 10000 5.66 100 21:22 22.08.2022
2076 Clear 10 1035 62 10000 6.69 100 19:47 22.08.2022
2077 Clear 10 1035 61 10000 5.14 110 18:38 22.08.2022
2078 Clear 11 1034 58 10000 5.14 130 16:31 22.08.2022
2079 Clear 12 1034 58 10000 5.14 130 15:38 22.08.2022
2080 Clear 13 1032 53 10000 5.14 110 12:57 22.08.2022
2081 Clear 17 1031 44 10000 7.72 90 10:20 22.08.2022
2082 Clear 17 1031 46 10000 7.2 90 07:40 22.08.2022
2083 Clouds 11 1033 71 10000 5.14 120 02:50 22.08.2022
2084 Clear 9 1031 82 10000 3.6 150 00:37 22.08.2022
2085 Clear 9 1031 82 10000 3.6 150 00:37 22.08.2022
2086 Clouds 9 1031 80 10000 5.14 110 23:58 21.08.2022
2087 Clear 10 1030 78 10000 5.66 140 21:57 21.08.2022
2088 Clouds 11 1029 78 10000 4.63 150 21:21 21.08.2022
2089 Clouds 11 1029 78 10000 6.69 150 20:26 21.08.2022
2090 Clouds 12 1029 80 10000 5.66 170 19:18 21.08.2022
2091 Clouds 13 1027 85 10000 5.66 170 16:52 21.08.2022
2092 Clear 13 1027 85 10000 6.69 190 15:53 21.08.2022
2093 Clouds 14 1026 81 10000 5.66 180 14:59 21.08.2022
2094 Clear 15 1026 76 10000 5.14 200 13:51 21.08.2022
2095 Clouds 15 1025 69 10000 4.63 190 12:57 21.08.2022
2096 Clouds 18 1024 54 10000 7.2 190 10:48 21.08.2022
2097 Clouds 20 1023 49 10000 8.23 190 09:21 21.08.2022
2098 Clouds 19 1023 49 10000 7.72 200 08:56 21.08.2022
2099 Clouds 19 1023 51 10000 6.17 180 08:38 21.08.2022
2100 Clouds 20 1024 52 10000 5.66 150 06:59 21.08.2022
2101 Clear 12 1026 85 10000 2.57 110 02:35 21.08.2022
2102 Clear 8 1023 92 10000 2.06 100 23:35 20.08.2022
2103 Clear 9 1023 91 10000 2.06 290 21:57 20.08.2022
2104 Clear 9 1024 90 10000 0 0 20:56 20.08.2022
2105 Clear 10 1024 90 10000 0 0 19:49 20.08.2022
2106 Mist 10 1024 89 10000 0 0 18:50 20.08.2022
2107 Clear 11 1024 89 10000 1.54 160 18:26 20.08.2022
2108 Clear 11 1025 89 10000 2.06 160 17:21 20.08.2022
2109 Clear 12 1025 86 10000 3.09 180 16:20 20.08.2022
2110 Clear 13 1026 80 10000 4.12 190 14:35 20.08.2022
2111 Clear 16 1025 70 10000 5.14 180 12:19 20.08.2022
2112 Clear 17 1025 63 10000 5.14 200 11:42 20.08.2022
2113 Clouds 20 1025 55 10000 3.6 170 09:20 20.08.2022
2114 Clouds 19 1026 54 10000 2.06 270 07:31 20.08.2022
2115 Clouds 18 1029 63 10000 3.6 350 05:22 20.08.2022
2116 Clouds 7 1029 95 10000 1.54 120 00:58 20.08.2022
2117 Clear 8 1029 93 10000 0 0 23:45 19.08.2022
2118 Clouds 8 1029 95 10000 0 0 22:45 19.08.2022
2119 Clear 9 1029 95 10000 1.54 110 21:20 19.08.2022
2120 Clouds 11 1029 92 10000 2.57 40 18:59 19.08.2022
2121 Clouds 11 1029 92 10000 2.57 40 18:59 19.08.2022
2122 Clouds 14 1030 88 10000 3.6 170 16:23 19.08.2022
2123 Clouds 15 1029 84 10000 3.09 210 13:44 19.08.2022
2124 Clouds 16 1028 80 10000 4.12 260 11:51 19.08.2022
2125 Clouds 17 1027 73 10000 4.12 250 10:33 19.08.2022
2126 Clouds 18 1027 66 10000 3.6 250 08:43 19.08.2022
2127 Clouds 17 1030 72 10000 1.03 150 04:39 19.08.2022
2128 Clouds 11 1029 86 10000 2.06 30 00:40 19.08.2022
2129 Clouds 11 1029 86 10000 2.06 30 00:19 19.08.2022
2130 Clouds 11 1028 87 10000 2.57 20 22:56 18.08.2022
2131 Clouds 11 1028 87 10000 2.57 10 22:23 18.08.2022
2132 Clouds 11 1028 87 10000 2.57 10 21:47 18.08.2022
2133 Clouds 11 1028 86 10000 2.57 20 20:45 18.08.2022
2134 Clouds 11 1028 85 10000 2.57 30 19:34 18.08.2022
2135 Clouds 11 1028 84 10000 2.57 30 18:34 18.08.2022
2136 Clouds 12 1028 84 10000 1.03 30 17:32 18.08.2022
2137 Clouds 12 1028 84 10000 2.57 60 15:50 18.08.2022
2138 Clear 12 1028 83 10000 3.09 330 14:21 18.08.2022
2139 Clear 13 1028 77 10000 2.57 360 13:40 18.08.2022
2140 Clear 14 1027 69 10000 3.6 320 12:27 18.08.2022
2141 Clouds 17 1027 59 10000 4.12 260 10:25 18.08.2022
2142 Clouds 17 1027 56 10000 4.63 300 09:42 18.08.2022
2143 Clouds 17 1027 55 10000 3.6 270 07:24 18.08.2022
2144 Clouds 15 1028 58 10000 4.12 10 05:30 18.08.2022
2145 Clear 5 1026 97 10000 3.09 40 00:23 18.08.2022
2146 Mist 4 1024 96 10000 0 0 22:20 17.08.2022
2147 Fog 5 1023 95 10000 2.06 70 20:20 17.08.2022
2148 Fog 6 1023 96 10000 2.06 10 19:33 17.08.2022
2149 Fog 6 1022 96 10000 1.54 30 18:21 17.08.2022
2150 Fog 7 1021 95 10000 0 0 16:50 17.08.2022
2151 Clear 8 1019 94 10000 2.57 220 15:30 17.08.2022
2152 Clouds 10 1018 93 10000 4.63 180 13:52 17.08.2022
2153 Thunderstorm 11 1014 92 5000 4.63 130 11:42 17.08.2022
2154 Rain 11 1012 91 10000 2.06 170 10:22 17.08.2022
2155 Rain 12 1011 86 10000 9.26 240 08:24 17.08.2022
2156 Rain 12 1012 74 10000 7.2 250 03:52 17.08.2022
2157 Rain 11 1009 84 10000 9.77 250 00:38 17.08.2022
2158 Rain 12 1007 87 10000 8.75 250 22:42 16.08.2022
2159 Rain 12 1007 84 3000 9.26 270 20:59 16.08.2022
2160 Rain 13 1006 81 10000 8.75 300 19:54 16.08.2022
2161 Rain 13 1007 87 10000 5.66 310 18:44 16.08.2022
2162 Rain 13 1007 83 10000 10.8 310 17:53 16.08.2022
2163 Rain 14 1008 76 10000 8.75 290 15:59 16.08.2022
2164 Clouds 15 1007 68 10000 8.75 310 14:55 16.08.2022
2165 Clouds 15 1008 69 10000 8.23 290 14:37 16.08.2022
2166 Clouds 16 1007 64 10000 5.66 300 13:40 16.08.2022
2167 Clouds 17 1006 55 10000 8.75 300 11:30 16.08.2022
2168 Clouds 18 1006 58 10000 9.26 280 09:51 16.08.2022
2169 Clouds 18 1006 65 10000 9.77 280 08:47 16.08.2022
2170 Rain 18 1005 64 10000 8.75 270 07:58 16.08.2022
2171 Rain 16 1005 90 5000 7.72 270 02:50 16.08.2022
2172 Rain 18 1002 94 10000 5.66 270 22:31 15.08.2022
2173 Rain 18 1002 93 10000 7.2 280 21:55 15.08.2022
2174 Rain 18 1002 95 10000 7.72 280 21:34 15.08.2022
2175 Clouds 19 1002 96 10000 6.69 350 20:20 15.08.2022
2176 Rain 18 1002 96 10000 7.72 20 18:42 15.08.2022
2177 Rain 18 1003 95 10000 8.23 10 17:36 15.08.2022
2178 Rain 17 1004 94 10000 4.63 20 16:22 15.08.2022
2179 Rain 17 1006 91 6000 3.09 320 13:57 15.08.2022
2180 Rain 18 1006 88 6000 3.09 50 12:37 15.08.2022
2181 Clear 22 1006 61 10000 2.57 320 10:18 15.08.2022
2182 Clouds 22 1008 58 10000 6.69 320 08:42 15.08.2022
2183 Clear 22 1009 50 10000 8.23 10 06:33 15.08.2022
2184 Clear 15 1014 64 10000 4.63 20 02:57 15.08.2022
2185 Clear 12 1014 75 10000 3.6 70 23:22 14.08.2022
2186 Clear 13 1015 74 10000 5.14 50 21:42 14.08.2022
2187 Clear 12 1016 79 10000 3.6 60 20:29 14.08.2022
2188 Clear 11 1016 81 10000 3.6 60 19:32 14.08.2022
2189 Clear 12 1017 78 10000 4.12 60 18:20 14.08.2022
2190 Clear 13 1017 77 10000 4.63 50 17:22 14.08.2022
2191 Clear 14 1018 77 10000 3.09 70 15:51 14.08.2022
2192 Clear 15 1017 77 10000 3.6 60 14:38 14.08.2022
2193 Clear 15 1017 77 10000 1.03 80 13:50 14.08.2022
2194 Clear 15 1017 76 10000 2.57 110 13:24 14.08.2022
2195 Clear 16 1017 71 10000 2.06 30 12:34 14.08.2022
2196 Clouds 18 1017 59 10000 2.57 10 11:18 14.08.2022
2197 Clouds 19 1017 54 10000 3.09 40 08:53 14.08.2022
2198 Clouds 18 1018 56 10000 3.6 360 06:23 14.08.2022
2199 Clouds 18 1018 56 10000 3.6 360 06:23 14.08.2022
2200 Clouds 18 1018 56 10000 3.6 360 06:23 14.08.2022
2201 Clouds 15 1019 81 10000 3.09 30 03:48 14.08.2022
2202 Clouds 9 1016 96 10000 2.57 20 00:39 14.08.2022
2203 Clouds 10 1015 93 10000 2.57 30 22:56 13.08.2022
2204 Clouds 10 1015 91 10000 2.57 60 21:47 13.08.2022
2205 Clouds 10 1015 91 10000 2.57 70 20:47 13.08.2022
2206 Clouds 11 1014 89 10000 2.57 110 19:46 13.08.2022
2207 Clouds 12 1014 86 10000 3.6 230 18:19 13.08.2022
2208 Clouds 14 1012 83 10000 5.14 230 15:57 13.08.2022
2209 Rain 15 1011 82 10000 8.75 270 14:40 13.08.2022
2210 Rain 14 1010 84 10000 6.69 290 13:46 13.08.2022
2211 Rain 14 1008 82 5000 9.77 270 11:59 13.08.2022
2212 Rain 15 1006 79 5000 8.23 300 10:33 13.08.2022
2213 Clouds 15 1006 94 10000 7.72 10 09:22 13.08.2022
2214 Rain 13 1007 73 8000 10.29 20 05:59 13.08.2022
2215 Clear 15 1009 44 10000 6.17 40 00:36 13.08.2022
2216 Clear 14 1010 50 10000 6.69 40 22:26 12.08.2022
2217 Clear 15 1011 48 10000 6.17 30 21:20 12.08.2022
2218 Clear 15 1012 51 10000 6.69 30 19:44 12.08.2022
2219 Clear 16 1013 52 10000 5.66 50 18:58 12.08.2022
2220 Clear 15 1013 57 10000 6.17 50 17:57 12.08.2022
2221 Clear 14 1015 69 10000 4.63 40 16:24 12.08.2022
2222 Clear 14 1015 70 10000 4.12 40 14:47 12.08.2022
2223 Clear 16 1015 63 10000 4.12 40 12:57 12.08.2022
2224 Clear 19 1015 51 10000 6.69 60 11:19 12.08.2022
2225 Clear 21 1016 45 10000 6.69 30 08:47 12.08.2022
2226 Clear 20 1017 46 10000 8.23 50 07:44 12.08.2022
2227 Clear 15 1022 66 10000 6.69 40 03:41 12.08.2022
2228 Clear 10 1021 85 10000 5.66 60 00:31 12.08.2022
2229 Clear 10 1021 83 10000 6.17 60 23:40 11.08.2022
2230 Clear 10 1021 82 10000 5.66 70 22:35 11.08.2022
2231 Clear 9 1022 86 10000 5.14 80 21:43 11.08.2022
2232 Clear 9 1022 86 10000 5.14 80 21:19 11.08.2022
2233 Clear 9 1024 87 10000 3.09 70 20:27 11.08.2022
2234 Clear 10 1024 86 10000 2.06 60 19:33 11.08.2022
2235 Clear 10 1025 82 10000 3.6 70 18:39 11.08.2022
2236 Clear 11 1025 79 10000 6.17 80 16:38 11.08.2022
2237 Clear 12 1025 79 10000 3.32 78 15:37 11.08.2022
2238 Clear 13 1025 78 10000 3.6 70 13:51 11.08.2022
2239 Clear 17 1024 57 10000 3.6 60 11:26 11.08.2022
2240 Clouds 18 1024 52 10000 3.6 50 07:49 11.08.2022
2241 Clear 14 1028 79 10000 0 0 03:57 11.08.2022
2242 Clear 6 1027 95 10000 0 0 01:33 11.08.2022
2243 Clear 6 1026 95 10000 0.51 150 22:36 10.08.2022
2244 Mist 6 1026 96 3300 0 0 21:34 10.08.2022
2245 Fog 6 1026 96 900 0 0 20:55 10.08.2022
2246 Mist 7 1026 94 10000 0 0 19:32 10.08.2022
2247 Clear 8 1025 92 10000 0.51 30 18:23 10.08.2022
2248 Clear 9 1025 91 10000 2.06 10 16:41 10.08.2022
2249 Clouds 12 1024 81 10000 4.12 210 13:36 10.08.2022
2250 Clouds 13 1024 76 10000 4.12 240 12:44 10.08.2022
2251 Clouds 16 1023 58 10000 5.66 180 09:25 10.08.2022
2252 Clouds 17 1022 57 10000 5.66 200 08:34 10.08.2022
2253 Clouds 16 1023 57 10000 6.17 180 07:19 10.08.2022
2254 Clear 10 1024 93 10000 2.57 10 03:28 10.08.2022
2255 Mist 6 1021 97 10000 2.06 40 23:34 09.08.2022
2256 Mist 6 1021 96 10000 2.06 40 22:56 09.08.2022
2257 Fog 7 1020 95 10000 2.57 40 21:36 09.08.2022
2258 Mist 7 1020 96 6000 2.57 30 20:30 09.08.2022
2259 Clouds 7 1020 96 9000 2.06 60 18:44 09.08.2022
2260 Clouds 7 1019 95 9000 2.57 50 17:28 09.08.2022
2261 Clouds 7 1019 95 9000 2.57 50 17:28 09.08.2022
2262 Clouds 8 1020 94 10000 0 0 16:40 09.08.2022
2263 Rain 7 1019 93 10000 2.57 330 15:58 09.08.2022
2264 Rain 9 1016 89 10000 4.12 210 12:52 09.08.2022
2265 Clouds 11 1015 78 10000 7.72 210 09:39 09.08.2022
2266 Rain 11 1014 83 10000 4.12 220 08:50 09.08.2022
2267 Rain 11 1013 85 10000 2.57 250 07:52 09.08.2022
2268 Rain 8 1013 90 10000 4.63 170 04:25 09.08.2022
2269 Rain 8 1009 90 8000 6.69 260 23:27 08.08.2022
2270 Rain 9 1008 90 10000 3.09 40 22:55 08.08.2022
2271 Rain 8 1009 91 3000 3.09 60 22:18 08.08.2022
2272 Rain 9 1009 90 10000 4.12 190 21:18 08.08.2022
2273 Rain 10 1010 84 10000 6.17 250 19:51 08.08.2022
2274 Clouds 10 1010 76 10000 8.75 290 18:45 08.08.2022
2275 Clouds 12 1011 71 10000 7.2 270 16:40 08.08.2022
2276 Rain 12 1012 72 10000 7.72 260 15:39 08.08.2022
2277 Clouds 12 1012 66 10000 7.2 280 13:50 08.08.2022
2278 Rain 13 1011 75 10000 8.23 240 11:58 08.08.2022
2279 Clouds 14 1010 81 10000 7.72 260 09:43 08.08.2022
2280 Rain 14 1012 90 5000 8.23 270 05:54 08.08.2022
2281 Rain 13 1014 82 10000 6.69 350 02:55 08.08.2022
2282 Clouds 12 1014 74 10000 4.12 10 22:32 07.08.2022
2283 Clouds 13 1015 72 10000 4.63 10 21:39 07.08.2022
2284 Clouds 13 1015 70 10000 3.09 360 20:26 07.08.2022
2285 Clouds 13 1016 70 10000 3.09 20 19:55 07.08.2022
2286 Clouds 13 1016 71 10000 3.09 30 19:34 07.08.2022
2287 Clouds 13 1016 72 10000 3.09 30 18:23 07.08.2022
2288 Clear 13 1017 74 10000 3.09 60 16:54 07.08.2022
2289 Clouds 14 1017 72 10000 2.57 50 16:28 07.08.2022
2290 Clouds 13 1017 74 10000 4.12 290 15:19 07.08.2022
2291 Clouds 13 1017 70 10000 0 0 13:24 07.08.2022
2292 Clouds 17 1016 56 10000 4.12 280 10:59 07.08.2022
2293 Clouds 17 1016 57 10000 6.17 290 10:33 07.08.2022
2294 Clouds 17 1017 55 10000 7.2 250 05:48 07.08.2022
2295 Rain 14 1017 92 9000 2.57 230 03:19 07.08.2022
2296 Rain 12 1015 96 10000 3.6 360 23:37 06.08.2022
2297 Clouds 12 1014 96 10000 5.14 10 22:20 06.08.2022
2298 Rain 12 1015 96 10000 6.17 10 20:24 06.08.2022
2299 Clouds 12 1015 96 10000 6.17 10 19:39 06.08.2022
2300 Rain 12 1015 95 4500 5.66 10 18:22 06.08.2022
2301 Rain 13 1016 91 10000 5.66 360 16:40 06.08.2022
2302 Rain 14 1016 84 10000 3.6 10 14:31 06.08.2022
2303 Clouds 15 1016 80 10000 4.63 10 13:39 06.08.2022
2304 Clouds 16 1016 69 10000 4.63 330 11:24 06.08.2022
2305 Clouds 17 1016 57 10000 5.66 320 09:50 06.08.2022
2306 Clouds 17 1017 65 10000 5.66 310 07:51 06.08.2022
2307 Clouds 13 1020 90 10000 4.63 360 03:24 06.08.2022
2308 Clouds 10 1019 94 10000 3.6 30 23:27 05.08.2022
2309 Drizzle 11 1019 95 10000 3.6 20 21:51 05.08.2022
2310 Clouds 11 1019 96 10000 3.6 20 19:29 05.08.2022
2311 Drizzle 12 1019 95 8000 2.57 20 18:44 05.08.2022
2312 Drizzle 12 1020 95 10000 2.57 50 17:26 05.08.2022
2313 Drizzle 12 1020 95 10000 2.57 60 16:43 05.08.2022
2314 Drizzle 12 1020 94 8000 2.57 80 15:21 05.08.2022
2315 Drizzle 12 1020 91 4500 3.09 70 13:43 05.08.2022
2316 Drizzle 12 1020 88 5000 3.6 50 13:22 05.08.2022
2317 Drizzle 13 1019 82 10000 3.09 70 12:24 05.08.2022
2318 Drizzle 14 1019 74 10000 3.09 70 10:30 05.08.2022
2319 Clouds 14 1019 69 10000 2.06 70 07:58 05.08.2022
2320 Clouds 14 1021 68 10000 2.06 10 05:30 05.08.2022
2321 Clouds 5 1019 97 10000 2.57 50 23:51 04.08.2022
2322 Clouds 4 1018 96 10000 0 0 21:58 04.08.2022
2323 Fog 4 1019 96 10000 0 0 21:25 04.08.2022
2324 Clouds 5 1019 93 10000 0 0 20:41 04.08.2022
2325 Mist 7 1018 89 10000 0 0 19:21 04.08.2022
2326 Clouds 9 1019 89 10000 0 0 18:34 04.08.2022
2327 Clouds 9 1019 91 10000 2.57 120 17:28 04.08.2022
2328 Clouds 12 1017 81 10000 3.6 220 13:44 04.08.2022
2329 Clouds 13 1016 68 10000 7.2 210 11:47 04.08.2022
2330 Clouds 15 1015 63 10000 7.2 210 10:48 04.08.2022
2331 Clouds 15 1014 67 10000 6.69 210 07:51 04.08.2022
2332 Clouds 13 1014 89 10000 4.12 160 04:28 04.08.2022
2333 Rain 11 1012 94 10000 2.06 20 01:58 04.08.2022
2334 Rain 11 1010 94 10000 2.57 40 23:42 03.08.2022
2335 Rain 11 1009 93 8000 3.6 340 21:39 03.08.2022
2336 Rain 11 1009 93 8000 3.6 20 20:37 03.08.2022
2337 Rain 11 1009 93 6000 4.12 210 19:28 03.08.2022
2338 Rain 11 1008 91 7000 8.23 210 17:41 03.08.2022
2339 Clear 12 1008 90 10000 3.09 270 16:24 03.08.2022
2340 Rain 12 1007 88 10000 6.69 240 14:25 03.08.2022
2341 Clouds 13 1005 76 10000 10.29 220 11:47 03.08.2022
2342 Clouds 15 1002 61 10000 13.38 250 08:20 03.08.2022
2343 Thunderstorm 14 1002 74 10000 12.86 270 04:46 03.08.2022
2344 Clouds 15 1002 55 10000 12.86 280 03:27 03.08.2022
2345 Clouds 13 1001 64 10000 9.77 260 01:18 03.08.2022
2346 Clouds 12 1000 70 10000 8.75 250 22:53 02.08.2022
2347 Clouds 11 1000 76 10000 8.75 260 21:53 02.08.2022
2348 Rain 11 1000 78 5000 8.75 260 20:37 02.08.2022
2349 Rain 11 999 76 10000 14.92 270 18:42 02.08.2022
2350 Clouds 14 997 57 10000 12.86 250 15:36 02.08.2022
2351 Rain 14 996 84 4000 11.32 280 11:45 02.08.2022
2352 Rain 15 997 74 10000 11.83 300 09:18 02.08.2022
2353 Rain 15 998 74 10000 10.8 300 07:53 02.08.2022
2354 Rain 15 999 65 10000 10.29 280 06:43 02.08.2022
2355 Clouds 15 1000 59 10000 10.29 270 04:54 02.08.2022
2356 Rain 12 997 74 9000 11.32 270 23:38 01.08.2022
2357 Clouds 13 996 60 10000 14.92 270 22:24 01.08.2022
2358 Clouds 13 996 63 9000 15.43 280 20:52 01.08.2022
2359 Clouds 14 995 59 9000 13.38 270 19:25 01.08.2022
2360 Rain 14 995 64 9000 11.83 280 18:30 01.08.2022
2361 Clouds 15 995 66 10000 11.32 270 16:53 01.08.2022
2362 Rain 14 995 77 10000 11.83 290 15:52 01.08.2022
2363 Rain 13 995 80 5000 10.8 280 15:30 01.08.2022
2364 Clouds 16 995 71 10000 12.35 290 14:20 01.08.2022
2365 Rain 15 994 89 6000 14.92 280 11:50 01.08.2022
2366 Rain 18 995 80 10000 11.32 310 09:39 01.08.2022
2367 Rain 19 995 80 7000 9.26 310 08:22 01.08.2022
2368 Rain 13 998 95 10000 6.69 20 04:47 01.08.2022
2369 Rain 12 1000 95 5000 8.75 10 02:32 01.08.2022
2370 Rain 12 1003 81 7000 6.69 10 23:54 31.07.2022
2371 Rain 13 1004 66 10000 7.72 20 22:38 31.07.2022
2372 Rain 12 1005 69 10000 5.66 20 21:24 31.07.2022
2373 Clear 11 1008 71 10000 4.63 20 19:41 31.07.2022
2374 Clouds 12 1010 71 10000 4.67 29 17:47 31.07.2022
2375 Clouds 12 1012 78 10000 3.78 33 15:35 31.07.2022
2376 Clear 13 1013 82 10000 2.06 10 13:41 31.07.2022
2377 Clouds 15 1013 70 10000 3.09 300 11:52 31.07.2022
2378 Clouds 17 1014 57 10000 4.12 10 09:36 31.07.2022
2379 Clouds 17 1016 60 10000 4.12 350 06:48 31.07.2022
2380 Clear 11 1018 90 10000 3.09 20 02:57 31.07.2022
2381 Clouds 9 1018 96 10000 3.6 50 23:35 30.07.2022
2382 Clouds 9 1018 94 10000 2.57 40 22:19 30.07.2022
2383 Clouds 9 1018 96 10000 2.06 70 21:48 30.07.2022
2384 Clouds 9 1019 95 10000 2.57 30 20:56 30.07.2022
2385 Clouds 9 1019 94 10000 3.6 10 19:58 30.07.2022
2386 Clouds 9 1019 94 10000 1.03 30 18:51 30.07.2022
2387 Clouds 10 1019 94 10000 3.09 10 17:41 30.07.2022
2388 Clouds 10 1019 90 10000 3.6 140 15:38 30.07.2022
2389 Clouds 11 1019 89 10000 2.57 10 14:53 30.07.2022
2390 Clouds 12 1018 80 10000 4.63 190 12:47 30.07.2022
2391 Rain 13 1017 74 10000 5.66 210 11:55 30.07.2022
2392 Clouds 15 1017 61 10000 8.75 230 10:28 30.07.2022
2393 Clouds 15 1017 60 10000 6.69 220 09:46 30.07.2022
2394 Clouds 15 1017 54 10000 9.77 230 07:54 30.07.2022
2395 Rain 12 1017 81 10000 6.17 230 02:36 30.07.2022
2396 Rain 11 1016 83 10000 6.17 240 01:46 30.07.2022
2397 Rain 12 1015 78 10000 7.72 240 22:25 29.07.2022
2398 Clouds 13 1015 67 10000 8.23 260 20:59 29.07.2022
2399 Clouds 12 1016 75 10000 7.72 250 19:48 29.07.2022
2400 Rain 12 1015 81 10000 7.72 250 17:52 29.07.2022
2401 Clouds 13 1015 73 10000 6.69 270 15:19 29.07.2022
2402 Rain 15 1014 61 10000 9.26 260 12:59 29.07.2022
2403 Clouds 17 1012 76 9000 9.26 260 09:49 29.07.2022
2404 Clouds 18 1012 59 10000 8.75 290 08:48 29.07.2022
2405 Clouds 18 1012 63 10000 8.23 270 07:39 29.07.2022
2406 Rain 16 1013 97 4000 3.09 290 01:46 29.07.2022
2407 Rain 15 1012 95 10000 5.14 10 21:57 28.07.2022
2408 Rain 15 1013 94 10000 3.6 30 20:55 28.07.2022
2409 Rain 15 1013 95 10000 4.12 10 20:27 28.07.2022
2410 Clouds 15 1013 96 10000 4.52 330 19:42 28.07.2022
2411 Clouds 15 1014 96 10000 4.12 10 18:27 28.07.2022
2412 Clouds 15 1014 95 10000 4.63 10 17:43 28.07.2022
2413 Clouds 15 1014 95 10000 3.6 20 16:41 28.07.2022
2414 Clouds 16 1015 93 10000 3.6 10 14:58 28.07.2022
2415 Clouds 17 1014 88 10000 3.6 320 12:49 28.07.2022
2416 Clouds 21 1013 64 10000 7.2 330 09:45 28.07.2022
2417 Clouds 21 1014 60 10000 6.69 320 06:21 28.07.2022
2418 Clouds 19 1015 53 10000 5.14 360 05:26 28.07.2022
2419 Clear 12 1014 63 10000 5.66 70 00:44 28.07.2022
2420 Clear 12 1015 65 10000 5.66 60 22:26 27.07.2022
2421 Clear 11 1016 69 10000 5.14 70 20:25 27.07.2022
2422 Clear 12 1016 69 10000 5.66 60 19:34 27.07.2022
2423 Clear 12 1018 71 10000 5.66 80 16:54 27.07.2022
2424 Clear 12 1019 74 10000 4.63 70 15:51 27.07.2022
2425 Clear 13 1019 73 10000 4.12 100 14:46 27.07.2022
2426 Clear 13 1019 72 10000 4.12 100 14:27 27.07.2022
2427 Clear 16 1018 63 10000 3.09 100 12:19 27.07.2022
2428 Clouds 20 1018 51 10000 5.66 70 07:53 27.07.2022
2429 Clouds 18 1021 74 10000 6.17 90 05:33 27.07.2022
2430 Clouds 12 1021 95 10000 3.6 60 00:28 27.07.2022
2431 Clouds 12 1020 95 10000 4.63 80 22:24 26.07.2022
2432 Clouds 12 1020 95 10000 3.6 70 21:19 26.07.2022
2433 Clouds 13 1021 95 10000 2.57 130 19:39 26.07.2022
2434 Clouds 13 1020 95 10000 2.57 190 18:41 26.07.2022
2435 Clouds 13 1021 95 10000 2.57 190 17:55 26.07.2022
2436 Clouds 14 1021 95 1800 1.54 120 15:47 26.07.2022
2437 Mist 14 1020 95 10000 2.06 70 14:43 26.07.2022
2438 Rain 15 1020 94 4000 2.06 230 12:35 26.07.2022
2439 Rain 17 1019 84 4000 6.17 250 10:35 26.07.2022
2440 Clouds 17 1018 75 10000 8.23 320 08:29 26.07.2022
2441 Clouds 13 1020 60 10000 5.14 10 02:25 26.07.2022
2442 Clouds 12 1019 65 10000 5.66 10 00:22 26.07.2022
2443 Clear 11 1019 68 10000 5.66 360 22:41 25.07.2022
2444 Clear 11 1020 69 10000 6.17 10 21:44 25.07.2022
2445 Clear 11 1020 70 10000 7.2 10 20:46 25.07.2022
2446 Clear 12 1020 69 10000 5.66 20 20:24 25.07.2022
2447 Clear 12 1020 69 10000 5.66 10 19:25 25.07.2022
2448 Clear 12 1020 73 10000 5.14 10 17:56 25.07.2022
2449 Clear 12 1020 73 10000 5.66 10 17:23 25.07.2022
2450 Clouds 15 1020 67 10000 5.14 360 13:36 25.07.2022
2451 Clouds 17 1020 62 10000 7.2 350 10:55 25.07.2022
2452 Clouds 18 1020 54 10000 8.23 350 07:59 25.07.2022
2453 Clear 11 1021 81 10000 5.14 10 01:36 25.07.2022
2454 Clear 11 1020 84 10000 5.14 20 23:45 24.07.2022
2455 Clear 11 1020 85 10000 4.63 20 22:47 24.07.2022
2456 Clear 11 1021 84 10000 4.12 10 21:42 24.07.2022
2457 Clear 11 1021 85 10000 4.12 10 20:59 24.07.2022
2458 Clouds 11 1021 85 10000 3.09 10 20:41 24.07.2022
2459 Clouds 11 1021 87 10000 3.6 10 19:20 24.07.2022
2460 Clear 10 1021 91 10000 3.09 30 17:57 24.07.2022
2461 Clouds 11 1022 86 10000 0 0 15:55 24.07.2022
2462 Clear 11 1022 85 10000 2.57 60 14:47 24.07.2022
2463 Clear 11 1021 85 10000 3.09 50 13:49 24.07.2022
2464 Clear 13 1020 78 10000 0 0 12:28 24.07.2022
2465 Clouds 14 1020 69 10000 3.09 250 11:30 24.07.2022
2466 Clouds 16 1019 61 10000 3.09 270 09:48 24.07.2022
2467 Clouds 16 1019 61 10000 2.57 240 07:57 24.07.2022
2468 Clouds 15 1019 60 10000 2.57 160 07:31 24.07.2022
2469 Clouds 9 1018 96 10000 2.57 20 02:57 24.07.2022
2470 Rain 8 1015 93 10000 0 0 22:52 23.07.2022
2471 Clear 9 1014 94 10000 1.03 150 20:47 23.07.2022
2472 Rain 10 1013 94 5000 3.09 170 19:29 23.07.2022
2473 Rain 10 1013 94 5000 4.12 250 18:36 23.07.2022
2474 Rain 10 1012 95 10000 5.14 160 17:27 23.07.2022
2475 Rain 11 1012 92 4000 5.14 190 16:22 23.07.2022
2476 Rain 11 1010 92 6000 6.17 170 15:22 23.07.2022
2477 Rain 12 1010 90 4000 7.2 210 14:52 23.07.2022
2478 Rain 13 1010 82 10000 7.72 220 14:21 23.07.2022
2479 Rain 14 1006 85 10000 5.14 220 11:55 23.07.2022
2480 Rain 15 1005 78 10000 6.69 260 10:37 23.07.2022
2481 Rain 15 1006 83 10000 5.66 230 09:34 23.07.2022
2482 Rain 15 1006 92 8000 9.77 250 07:18 23.07.2022
2483 Rain 13 1010 96 10000 6.17 360 03:37 23.07.2022
2484 Rain 12 1011 96 10000 5.66 10 00:34 23.07.2022
2485 Rain 12 1012 95 10000 3.09 360 21:33 22.07.2022
2486 Rain 13 1013 95 10000 4.12 360 20:31 22.07.2022
2487 Clouds 13 1014 95 9086 4.7 329 18:42 22.07.2022
2488 Rain 13 1015 95 10000 4.63 20 17:39 22.07.2022
2489 Clouds 13 1016 95 10000 4.12 20 15:46 22.07.2022
2490 Clouds 14 1017 93 10000 2.57 300 12:47 22.07.2022
2491 Clouds 16 1017 83 10000 5.66 280 09:56 22.07.2022
2492 Clouds 18 1017 79 10000 5.66 280 09:21 22.07.2022
2493 Clouds 18 1017 78 10000 7.2 290 07:57 22.07.2022
2494 Drizzle 15 1019 94 7000 4.12 50 04:23 22.07.2022
2495 Clouds 12 1017 88 10000 3.09 30 23:36 21.07.2022
2496 Clear 12 1017 90 10000 2.57 20 21:41 21.07.2022
2497 Clouds 13 1017 87 10000 4.73 242 19:42 21.07.2022
2498 Clouds 13 1017 88 10000 5.14 236 18:36 21.07.2022
2499 Clouds 13 1017 95 10000 0 0 17:21 21.07.2022
2500 Clouds 13 1016 94 10000 0 0 16:23 21.07.2022
2501 Rain 13 1016 94 10000 2.57 180 14:46 21.07.2022
2502 Clouds 14 1015 91 10000 3.6 210 13:53 21.07.2022
2503 Rain 15 1013 84 10000 3.6 190 11:54 21.07.2022
2504 Rain 17 1012 69 10000 7.2 230 09:54 21.07.2022
2505 Clouds 17 1011 69 10000 7.72 230 08:53 21.07.2022
2506 Clouds 17 1010 77 10000 6.17 240 07:50 21.07.2022
2507 Rain 16 1010 90 6000 4.12 260 06:27 21.07.2022
2508 Clouds 13 1008 96 10000 3.6 130 02:35 21.07.2022
2509 Rain 15 1004 94 7000 7.72 360 22:46 20.07.2022
2510 Rain 15 1004 93 6000 6.69 10 22:18 20.07.2022
2511 Rain 17 1006 73 10000 8.23 350 20:46 20.07.2022
2512 Rain 18 1007 60 10000 6.17 360 19:46 20.07.2022
2513 Clear 18 1007 58 10000 5.66 20 18:53 20.07.2022
2514 Clear 18 1007 59 10000 5.66 10 18:30 20.07.2022
2515 Clear 18 1008 62 10000 5.14 10 17:24 20.07.2022
2516 Clear 17 1010 68 10000 4.63 20 15:32 20.07.2022
2517 Clear 16 1012 71 10000 4.63 50 14:35 20.07.2022
2518 Rain 17 1012 75 10000 4.63 20 12:51 20.07.2022
2519 Rain 19 1012 59 10000 5.66 360 10:29 20.07.2022
2520 Clear 19 1015 58 10000 5.66 10 05:52 20.07.2022
2521 Rain 12 1018 88 10000 3.6 40 00:58 20.07.2022
2522 Rain 12 1018 86 10000 3.6 10 00:40 20.07.2022
2523 Rain 12 1019 84 10000 3.09 50 22:35 19.07.2022
2524 Rain 12 1019 84 10000 3.09 60 21:54 19.07.2022
2525 Rain 12 1020 85 10000 3.6 60 20:49 19.07.2022
2526 Clear 12 1019 83 10000 5.14 60 19:22 19.07.2022
2527 Clear 12 1020 84 10000 4.63 60 18:35 19.07.2022
2528 Clear 12 1020 85 10000 3.6 70 17:53 19.07.2022
2529 Clear 12 1020 84 10000 4.63 60 15:26 19.07.2022
2530 Clear 13 1020 81 10000 6.69 80 13:33 19.07.2022
2531 Clouds 15 1020 75 10000 4.63 90 11:32 19.07.2022
2532 Clouds 18 1020 64 10000 3.09 90 09:51 19.07.2022
2533 Clouds 18 1020 65 10000 3.6 90 08:46 19.07.2022
2534 Clouds 17 1018 68 10000 6.69 90 07:19 19.07.2022
2535 Clouds 16 1021 69 10000 6.69 80 06:27 19.07.2022
2536 Clouds 15 1021 74 10000 6.17 90 05:18 19.07.2022
2537 Clouds 10 1021 89 10000 6.17 80 02:37 19.07.2022
2538 Clear 9 1020 92 10000 5.14 80 23:52 18.07.2022
2539 Clear 9 1019 91 10000 3.6 90 23:19 18.07.2022
2540 Clear 9 1019 91 10000 2.57 70 22:26 18.07.2022
2541 Clear 9 1020 89 10000 3.09 110 21:20 18.07.2022
2542 Clear 10 1019 88 10000 3.09 50 19:54 18.07.2022
2543 Clear 11 1019 85 10000 4.12 50 18:24 18.07.2022
2544 Clear 12 1019 84 10000 3.09 100 16:28 18.07.2022
2545 Clear 13 1019 81 10000 3.6 100 15:26 18.07.2022
2546 Clouds 14 1018 83 10000 4.63 160 13:31 18.07.2022
2547 Clouds 16 1016 76 10000 3.6 110 11:34 18.07.2022
2548 Clouds 18 1015 69 10000 6.17 150 09:54 18.07.2022
2549 Clouds 18 1015 73 10000 5.14 110 07:49 18.07.2022
2550 Clouds 12 1014 95 10000 4.12 40 02:51 18.07.2022
2551 Clouds 11 1013 96 10000 5.14 20 22:55 17.07.2022
2552 Clouds 11 1013 96 10000 4.63 20 22:28 17.07.2022
2553 Clouds 12 1013 95 10000 4.63 10 21:26 17.07.2022
2554 Rain 12 1013 95 10000 4.12 30 20:44 17.07.2022
2555 Clouds 13 1014 95 10000 3.6 40 19:49 17.07.2022
2556 Rain 13 1014 94 10000 3.6 10 19:20 17.07.2022
2557 Clouds 13 1013 92 10000 5.66 20 17:42 17.07.2022
2558 Rain 13 1013 92 10000 5.66 20 17:22 17.07.2022
2559 Clouds 13 1013 92 10000 6.69 30 16:28 17.07.2022
2560 Clouds 13 1014 91 10000 5.66 30 15:37 17.07.2022
2561 Clouds 13 1013 90 10000 6.69 60 13:51 17.07.2022
2562 Clouds 13 1013 91 10000 4.63 60 12:40 17.07.2022
2563 Rain 14 1013 91 10000 5.66 60 10:18 17.07.2022
2564 Rain 13 1016 92 6000 4.12 70 06:58 17.07.2022
2565 Clouds 13 1018 75 10000 6.17 70 02:34 17.07.2022
2566 Clear 13 1018 72 10000 5.14 40 23:23 16.07.2022
2567 Clear 13 1018 75 10000 3.6 70 21:59 16.07.2022
2568 Clear 13 1018 75 10000 4.12 70 20:28 16.07.2022
2569 Clear 13 1018 75 10000 2.57 50 18:43 16.07.2022
2570 Clear 13 1019 76 10000 3.09 80 17:25 16.07.2022
2571 Clear 14 1019 77 10000 2.06 40 15:50 16.07.2022
2572 Clouds 17 1019 65 10000 4.12 10 11:55 16.07.2022
2573 Clouds 20 1019 51 10000 2.57 340 09:41 16.07.2022
2574 Clouds 20 1019 51 10000 2.57 340 09:22 16.07.2022
2575 Clouds 20 1019 48 10000 2.57 20 08:35 16.07.2022
2576 Clouds 19 1020 56 10000 4.63 50 06:47 16.07.2022
2577 Clear 13 1022 92 10000 0 0 03:31 16.07.2022
2578 Clear 11 1021 94 10000 2.57 320 23:52 15.07.2022
2579 Clear 11 1020 93 10000 2.57 10 22:44 15.07.2022
2580 Clear 11 1021 93 10000 3.6 30 21:31 15.07.2022
2581 Clouds 12 1021 93 10000 3.09 20 20:32 15.07.2022
2582 Clouds 12 1021 93 10000 2.57 40 18:46 15.07.2022
2583 Mist 12 1021 95 10000 3.09 10 17:49 15.07.2022
2584 Clouds 13 1021 91 10000 0 0 15:41 15.07.2022
2585 Clouds 14 1019 86 10000 0 0 13:22 15.07.2022
2586 Clouds 17 1019 75 10000 4.63 230 11:48 15.07.2022
2587 Clouds 19 1018 65 10000 6.17 250 10:42 15.07.2022
2588 Clouds 20 1017 66 10000 6.17 250 07:42 15.07.2022
2589 Clouds 15 1017 85 10000 3.6 260 02:24 15.07.2022
2590 Clouds 14 1015 84 10000 5.66 260 00:38 15.07.2022
2591 Clouds 14 1014 84 10000 4.12 280 22:54 14.07.2022
2592 Clouds 15 1015 81 10000 5.14 280 21:56 14.07.2022
2593 Clouds 15 1015 79 10000 5.66 260 21:30 14.07.2022
2594 Clouds 15 1015 81 10000 5.66 260 20:45 14.07.2022
2595 Clouds 15 1015 82 10000 6.69 270 20:26 14.07.2022
2596 Rain 15 1014 83 10000 5.66 270 19:45 14.07.2022
2597 Clouds 16 1013 80 10000 7.72 300 16:23 14.07.2022
2598 Clouds 16 1013 81 10000 7.72 290 15:50 14.07.2022
2599 Clouds 16 1013 80 10000 7.72 300 14:43 14.07.2022
2600 Rain 16 1012 80 10000 6.69 290 13:21 14.07.2022
2601 Clouds 17 1011 74 10000 7.72 300 11:56 14.07.2022
2602 Clouds 18 1011 72 10000 8.23 300 11:24 14.07.2022
2603 Clouds 19 1010 69 10000 9.77 290 10:37 14.07.2022
2604 Rain 16 1010 94 4000 8.23 290 07:55 14.07.2022
2605 Clear 13 1011 91 10000 5.66 10 01:27 14.07.2022
2606 Clear 12 1011 92 10000 5.14 20 00:54 14.07.2022
2607 Clouds 12 1011 94 10000 4.63 20 22:57 13.07.2022
2608 Clear 12 1012 95 10000 3.6 20 22:22 13.07.2022
2609 Clear 12 1013 93 10000 4.12 20 21:19 13.07.2022
2610 Clear 14 1013 90 10000 4.12 10 19:58 13.07.2022
2611 Clouds 14 1013 89 10000 3.6 20 17:52 13.07.2022
2612 Clouds 15 1013 86 10000 3.6 10 16:46 13.07.2022
2613 Clouds 16 1013 81 10000 5.14 20 15:26 13.07.2022
2614 Clear 18 1013 69 10000 4.12 10 13:24 13.07.2022
2615 Clear 21 1012 53 10000 4.63 50 10:46 13.07.2022
2616 Clear 22 1012 51 10000 5.14 50 10:25 13.07.2022
2617 Clear 22 1013 48 10000 6.69 20 09:26 13.07.2022
2618 Clear 22 1014 47 10000 6.69 20 07:52 13.07.2022
2619 Clear 12 1019 70 10000 5.66 80 03:19 13.07.2022
2620 Clear 8 1019 79 10000 5.14 70 23:52 12.07.2022
2621 Clear 6 1020 90 10000 2.57 120 22:18 12.07.2022
2622 Clear 4 1021 93 10000 2.06 70 21:34 12.07.2022
2623 Clear 6 1021 93 10000 3.6 30 20:42 12.07.2022
2624 Clear 8 1020 89 10000 2.06 50 19:36 12.07.2022
2625 Clear 7 1021 93 10000 2.57 30 17:54 12.07.2022
2626 Clear 9 1021 86 10000 1.54 70 16:20 12.07.2022
2627 Clear 9 1021 86 10000 1.54 70 16:20 12.07.2022
2628 Clear 11 1021 84 10000 0 0 14:31 12.07.2022
2629 Clear 13 1020 73 10000 3.09 210 12:48 12.07.2022
2630 Clear 17 1020 58 10000 3.6 230 11:26 12.07.2022
2631 Clear 19 1020 49 10000 4.63 250 10:18 12.07.2022
2632 Clear 19 1020 40 10000 4.12 270 08:24 12.07.2022
2633 Clear 19 1021 46 10000 4.12 350 06:59 12.07.2022
2634 Clear 17 1022 50 10000 4.63 20 05:42 12.07.2022
2635 Clear 10 1023 82 10000 3.09 30 02:52 12.07.2022
2636 Clear 6 1022 92 10000 3.6 60 23:30 11.07.2022
2637 Clear 7 1024 94 10000 0 0 22:31 11.07.2022
2638 Clear 7 1024 98 10000 0 0 20:41 11.07.2022
2639 Clear 7 1024 90 10000 4.63 70 19:44 11.07.2022
2640 Clear 8 1025 91 10000 2.06 50 18:32 11.07.2022
2641 Clear 8 1025 90 10000 0 0 17:49 11.07.2022
2642 Clear 9 1025 86 10000 0 0 16:20 11.07.2022
2643 Clear 11 1025 80 10000 3.6 50 14:41 11.07.2022
2644 Clear 15 1025 64 10000 3.09 50 11:58 11.07.2022
2645 Clear 17 1024 54 10000 4.12 70 10:35 11.07.2022
2646 Clear 18 1024 52 10000 4.63 80 09:43 11.07.2022
2647 Clouds 18 1025 50 10000 2.57 70 08:34 11.07.2022
2648 Clear 17 1027 61 10000 3.09 10 05:52 11.07.2022
2649 Clear 7 1026 99 10000 2.57 60 00:22 11.07.2022
2650 Fog 7 1025 96 10000 3.09 20 22:58 10.07.2022
2651 Mist 8 1025 97 10000 2.57 30 21:51 10.07.2022
2652 Mist 8 1024 95 10000 2.06 20 20:54 10.07.2022
2653 Mist 9 1024 96 10000 2.57 80 19:50 10.07.2022
2654 Mist 9 1024 96 10000 2.57 80 19:50 10.07.2022
2655 Mist 9 1024 96 10000 2.57 80 19:50 10.07.2022
2656 Clouds 9 1024 95 10000 2.06 50 18:49 10.07.2022
2657 Mist 10 1024 94 10000 2.06 50 17:40 10.07.2022
2658 Clouds 11 1024 95 10000 1.54 90 16:57 10.07.2022
2659 Clouds 11 1023 95 10000 2.57 90 16:19 10.07.2022
2660 Rain 11 1023 93 10000 0 0 14:33 10.07.2022
2661 Rain 13 1021 88 10000 2.06 280 12:30 10.07.2022
2662 Rain 14 1020 77 10000 3.6 170 11:25 10.07.2022
2663 Rain 16 1019 75 10000 8.23 220 08:46 10.07.2022
2664 Clouds 17 1018 62 10000 5.14 210 07:59 10.07.2022
2665 Clouds 15 1017 61 10000 5.66 250 02:50 10.07.2022
2666 Clouds 15 1014 64 10000 7.2 260 22:59 09.07.2022
2667 Clouds 15 1013 65 10000 8.75 250 22:25 09.07.2022
2668 Clouds 15 1013 68 10000 8.23 250 21:28 09.07.2022
2669 Clouds 15 1012 77 10000 7.2 270 18:45 09.07.2022
2670 Rain 15 1012 73 10000 9.26 260 17:48 09.07.2022
2671 Clouds 15 1012 77 10000 8.23 260 16:58 09.07.2022
2672 Rain 15 1011 91 10000 8.23 260 15:42 09.07.2022
2673 Rain 15 1011 94 8000 5.66 270 14:44 09.07.2022
2674 Rain 15 1011 93 6000 5.66 270 13:51 09.07.2022
2675 Rain 16 1010 94 5000 8.75 260 12:48 09.07.2022
2676 Rain 17 1009 95 3500 7.72 280 11:32 09.07.2022
2677 Rain 17 1009 95 5000 6.69 310 10:23 09.07.2022
2678 Clouds 22 1008 50 10000 9.26 340 07:54 09.07.2022
2679 Clear 19 1011 32 10000 6.17 10 05:37 09.07.2022
2680 Clear 18 1012 27 10000 8.23 10 03:29 09.07.2022
2681 Clear 17 1012 33 10000 7.72 20 23:18 08.07.2022
2682 Clouds 17 1013 35 10000 5.66 360 21:59 08.07.2022
2683 Clouds 17 1013 36 10000 6.17 10 20:55 08.07.2022
2684 Clouds 17 1013 38 10000 6.17 10 20:24 08.07.2022
2685 Clear 16 1014 42 10000 6.17 10 18:29 08.07.2022
2686 Clear 16 1014 42 10000 6.17 10 18:29 08.07.2022
2687 Clear 16 1016 47 10000 4.63 20 17:21 08.07.2022
2688 Clear 18 1016 48 10000 4.63 40 14:55 08.07.2022
2689 Clear 18 1016 48 10000 3.6 20 13:56 08.07.2022
2690 Clear 18 1016 44 10000 3.6 50 12:28 08.07.2022
2691 Clear 22 1016 31 10000 6.17 20 10:37 08.07.2022
2692 Clear 23 1017 28 10000 6.17 10 08:44 08.07.2022
2693 Clear 22 1018 29 10000 6.69 360 06:50 08.07.2022
2694 Clear 13 1020 77 10000 4.63 60 01:49 08.07.2022
2695 Clear 12 1019 90 10000 2.57 40 23:30 07.07.2022
2696 Clear 11 1019 90 10000 3.09 30 22:38 07.07.2022
2697 Clear 12 1020 91 10000 3.09 60 20:40 07.07.2022
2698 Clear 11 1021 92 10000 3.6 50 18:22 07.07.2022
2699 Clear 13 1021 88 10000 3.6 50 16:57 07.07.2022
2700 Clear 13 1022 86 10000 3.6 80 14:56 07.07.2022
2701 Clear 12 1022 87 10000 2.57 170 13:25 07.07.2022
2702 Clear 14 1022 82 10000 3.09 70 12:24 07.07.2022
2703 Clear 15 1021 77 10000 3.09 90 11:45 07.07.2022
2704 Clear 16 1021 73 10000 3.09 90 11:27 07.07.2022
2705 Clear 17 1021 69 10000 3.6 80 10:42 07.07.2022
2706 Clear 17 1021 68 10000 3.6 80 10:24 07.07.2022
2707 Clear 16 1022 68 10000 3.6 90 06:58 07.07.2022
2708 Clouds 8 1024 91 10000 4.63 80 01:51 07.07.2022
2709 Clear 8 1024 89 10000 3.63 86 23:36 06.07.2022
2710 Clear 8 1023 88 10000 3.6 50 23:18 06.07.2022
2711 Clear 9 1023 87 10000 3.6 50 22:52 06.07.2022
2712 Clear 9 1024 85 10000 7.2 80 22:34 06.07.2022
2713 Clear 10 1024 84 10000 8.23 90 20:36 06.07.2022
2714 Clear 10 1024 84 10000 8.75 90 19:35 06.07.2022
2715 Clear 11 1025 82 10000 8.75 100 17:32 06.07.2022
2716 Clear 11 1024 79 10000 4.12 110 15:59 06.07.2022
2717 Clear 11 1024 83 10000 2.57 140 14:33 06.07.2022
2718 Clouds 13 1023 74 10000 2.57 110 12:31 06.07.2022
2719 Clouds 16 1022 63 10000 3.6 120 11:45 06.07.2022
2720 Clouds 18 1022 56 10000 4.12 120 10:18 06.07.2022
2721 Clouds 18 1022 59 10000 3.6 130 07:44 06.07.2022
2722 Clouds 18 1022 59 10000 3.6 130 07:44 06.07.2022
2723 Clouds 18 1022 61 10000 4.12 90 07:19 06.07.2022
2724 Clear 9 1023 92 10000 3.6 90 01:20 06.07.2022
2725 Clear 9 1022 93 10000 3.09 120 22:44 05.07.2022
2726 Mist 9 1022 92 10000 0 0 21:29 05.07.2022
2727 Clear 10 1022 90 10000 2.57 110 20:35 05.07.2022
2728 Clear 11 1022 92 10000 2.57 160 19:40 05.07.2022
2729 Clear 11 1021 92 10000 2.57 110 18:23 05.07.2022
2730 Clouds 11 1021 91 10000 1.54 140 17:39 05.07.2022
2731 Clear 11 1021 91 10000 3.6 30 16:36 05.07.2022
2732 Clear 11 1021 90 10000 0 0 15:23 05.07.2022
2733 Clear 12 1020 88 10000 2.57 100 13:36 05.07.2022
2734 Clouds 13 1019 84 10000 3.6 70 12:41 05.07.2022
2735 Clouds 14 1019 81 10000 3.09 130 10:46 05.07.2022
2736 Clouds 15 1019 80 10000 3.6 150 09:58 05.07.2022
2737 Rain 14 1018 88 10000 5.66 180 08:23 05.07.2022
2738 Rain 13 1018 93 10000 6.17 190 07:20 05.07.2022
2739 Rain 11 1018 90 4000 3.09 190 04:39 05.07.2022
2740 Rain 14 1016 52 10000 6.17 360 01:54 05.07.2022
2741 Clouds 14 1015 40 10000 5.14 10 23:40 04.07.2022
2742 Clear 14 1015 38 10000 4.63 360 22:58 04.07.2022
2743 Clear 14 1015 37 10000 6.17 10 22:19 04.07.2022
2744 Clear 13 1015 40 10000 5.14 10 20:58 04.07.2022
2745 Clear 13 1015 40 10000 5.66 20 20:37 04.07.2022
2746 Clear 13 1016 42 10000 5.66 10 19:57 04.07.2022
2747 Clear 13 1016 44 10000 4.63 10 19:37 04.07.2022
2748 Clear 12 1016 45 10000 5.14 10 18:54 04.07.2022
2749 Clear 11 1018 54 10000 4.12 20 16:58 04.07.2022
2750 Clear 12 1017 51 10000 3.6 40 15:40 04.07.2022
2751 Clear 12 1017 50 10000 3.09 40 14:19 04.07.2022
2752 Clear 14 1017 45 10000 4.12 30 12:55 04.07.2022
2753 Clear 17 1017 38 10000 5.14 30 11:32 04.07.2022
2754 Clear 18 1017 32 10000 7.72 20 10:32 04.07.2022
2755 Clear 19 1017 31 10000 8.23 30 09:23 04.07.2022
2756 Clear 18 1020 34 10000 8.75 10 06:28 04.07.2022
2757 Clear 13 1023 47 10000 6.69 20 02:59 04.07.2022
2758 Clear 9 1022 59 10000 4.63 30 23:52 03.07.2022
2759 Clear 7 1022 65 10000 4.63 60 22:36 03.07.2022
2760 Clear 9 1022 64 10000 4.12 70 20:46 03.07.2022
2761 Clear 10 1023 63 10000 4.63 70 19:52 03.07.2022
2762 Clear 9 1022 67 10000 3.6 60 19:24 03.07.2022
2763 Clear 10 1023 63 10000 4.12 60 18:27 03.07.2022
2764 Clear 9 1023 69 10000 4.12 70 17:38 03.07.2022
2765 Clear 10 1024 67 10000 3.09 70 15:27 03.07.2022
2766 Clear 10 1024 66 10000 3.09 70 14:53 03.07.2022
2767 Clear 11 1023 63 10000 4.63 80 13:50 03.07.2022
2768 Clear 13 1023 59 10000 4.12 80 12:44 03.07.2022
2769 Clear 14 1023 54 10000 3.09 80 11:47 03.07.2022
2770 Clear 17 1023 45 10000 5.14 80 10:51 03.07.2022
2771 Clear 18 1023 43 10000 6.17 70 10:33 03.07.2022
2772 Clear 19 1025 36 10000 5.66 50 07:38 03.07.2022
2773 Clear 17 1027 47 10000 6.69 40 05:34 03.07.2022
2774 Clear 7 1027 81 10000 4.63 60 00:38 03.07.2022
2775 Clear 7 1027 80 10000 4.63 60 23:36 02.07.2022
2776 Clear 8 1027 80 10000 4.12 70 22:31 02.07.2022
2777 Clear 9 1028 81 10000 6.17 90 20:26 02.07.2022
2778 Clear 8 1027 82 10000 5.14 80 19:49 02.07.2022
2779 Clear 9 1028 80 10000 4.12 90 18:20 02.07.2022
2780 Clear 10 1028 79 10000 4.63 60 17:37 02.07.2022
2781 Clear 9 1028 84 10000 3.6 100 15:46 02.07.2022
2782 Clear 12 1028 71 10000 3.09 90 12:56 02.07.2022
2783 Clear 15 1027 59 10000 3.09 80 11:48 02.07.2022
2784 Clear 17 1026 53 10000 2.57 110 10:50 02.07.2022
2785 Clear 18 1027 46 10000 4.12 60 09:49 02.07.2022
2786 Clear 19 1027 46 10000 3.6 30 08:37 02.07.2022
2787 Clear 19 1027 46 10000 3.6 30 08:19 02.07.2022
2788 Clear 11 1030 77 10000 5.14 70 02:53 02.07.2022
2789 Clear 8 1030 86 10000 4.63 70 00:27 02.07.2022
2790 Clear 7 1029 83 10000 4.63 60 22:59 01.07.2022
2791 Clear 8 1029 83 10000 4.12 60 22:29 01.07.2022
2792 Clear 8 1029 88 10000 4.63 50 21:37 01.07.2022
2793 Clear 8 1029 84 10000 4.12 50 20:58 01.07.2022
2794 Clear 8 1029 87 10000 4.12 60 20:20 01.07.2022
2795 Clear 9 1030 85 10000 4.12 60 19:34 01.07.2022
2796 Clear 10 1030 81 10000 2.57 110 16:40 01.07.2022
2797 Clear 11 1030 79 10000 3.6 100 14:29 01.07.2022
2798 Clear 13 1030 74 10000 1.54 140 13:33 01.07.2022
2799 Clear 18 1029 53 10000 3.6 90 10:53 01.07.2022
2800 Clear 18 1029 51 10000 3.09 80 10:19 01.07.2022
2801 Clear 17 1030 53 10000 3.09 40 06:21 01.07.2022
2802 Clear 8 1032 86 10000 4.63 70 02:19 01.07.2022
2803 Clear 8 1030 85 10000 4.63 70 23:44 30.06.2022
2804 Clear 8 1030 87 10000 4.12 70 22:50 30.06.2022
2805 Clear 8 1030 87 10000 4.63 70 22:31 30.06.2022
2806 Clear 8 1030 87 10000 4.12 70 21:53 30.06.2022
2807 Clear 9 1030 82 10000 5.14 60 20:49 30.06.2022
2808 Clear 9 1030 84 10000 4.63 60 20:20 30.06.2022
2809 Clear 9 1030 84 10000 4.63 60 19:47 30.06.2022
2810 Clear 9 1031 82 10000 5.14 110 18:52 30.06.2022
2811 Clear 10 1031 83 10000 5.14 70 17:53 30.06.2022
2812 Clear 10 1031 82 10000 5.14 90 17:18 30.06.2022
2813 Clear 11 1031 81 10000 4.12 130 15:56 30.06.2022
2814 Clear 12 1030 78 10000 3.6 120 13:58 30.06.2022
2815 Clear 12 1030 76 10000 3.09 110 13:19 30.06.2022
2816 Clear 13 1029 70 10000 3.6 90 12:33 30.06.2022
2817 Clear 17 1029 55 10000 4.63 70 10:21 30.06.2022
2818 Clear 18 1028 54 10000 4.63 40 09:41 30.06.2022
2819 Clear 18 1028 53 10000 4.63 50 08:26 30.06.2022
2820 Clear 17 1028 55 10000 5.66 80 07:41 30.06.2022
2821 Clouds 14 1032 70 10000 6.17 70 03:53 30.06.2022
2822 Clear 9 1031 80 10000 4.12 90 23:39 29.06.2022
2823 Clear 11 1030 75 10000 6.17 80 22:41 29.06.2022
2824 Clear 11 1030 75 10000 6.17 80 22:19 29.06.2022
2825 Clear 12 1030 68 10000 4.63 50 20:35 29.06.2022
2826 Clear 12 1030 67 10000 4.63 60 19:56 29.06.2022
2827 Clear 12 1031 70 10000 5.14 50 17:55 29.06.2022
2828 Clear 11 1031 69 10000 5.14 70 17:32 29.06.2022
2829 Clouds 12 1031 71 10000 5.66 90 16:24 29.06.2022
2830 Clear 12 1031 72 10000 3.6 90 13:45 29.06.2022
2831 Clear 12 1030 69 10000 5.66 90 12:38 29.06.2022
2832 Clouds 16 1030 55 10000 5.66 80 09:50 29.06.2022
2833 Clouds 16 1030 53 10000 5.66 70 09:26 29.06.2022
2834 Clouds 16 1031 57 10000 5.66 70 06:32 29.06.2022
2835 Clouds 13 1033 66 10000 7.72 90 04:44 29.06.2022
2836 Clear 7 1031 89 10000 4.12 100 00:53 29.06.2022
2837 Clear 6 1031 90 10000 2.57 60 00:34 29.06.2022
2838 Clear 6 1031 94 10000 1.54 290 22:52 28.06.2022
2839 Clear 5 1031 94 10000 2.57 160 21:59 28.06.2022
2840 Clear 6 1031 90 10000 3.6 140 21:40 28.06.2022
2841 Clear 6 1031 90 10000 3.6 140 21:22 28.06.2022
2842 Clear 6 1030 91 10000 4.63 160 19:54 28.06.2022
2843 Clear 6 1031 91 10000 3.6 170 19:30 28.06.2022
2844 Clear 6 1031 93 10000 2.57 190 18:40 28.06.2022
2845 Clear 8 1031 84 10000 3.6 170 16:58 28.06.2022
2846 Clear 9 1031 80 10000 3.6 180 15:55 28.06.2022
2847 Clouds 11 1031 77 10000 4.63 170 14:50 28.06.2022
2848 Clouds 11 1030 76 10000 3.6 170 14:18 28.06.2022
2849 Clear 11 1030 74 10000 4.12 160 13:45 28.06.2022
2850 Clear 13 1029 68 10000 4.12 130 12:28 28.06.2022
2851 Clouds 17 1028 53 10000 3.6 130 09:53 28.06.2022
2852 Clouds 17 1028 52 10000 4.63 140 08:55 28.06.2022
2853 Clouds 17 1028 49 10000 4.12 150 08:26 28.06.2022
2854 Clouds 17 1029 52 10000 4.12 80 07:20 28.06.2022
2855 Clouds 12 1032 82 10000 0 0 03:38 28.06.2022
2856 Clouds 8 1031 94 8000 0 0 23:51 27.06.2022
2857 Clouds 8 1030 92 10000 0 0 23:25 27.06.2022
2858 Clear 9 1030 91 10000 2.06 190 21:53 27.06.2022
2859 Clear 9 1030 91 10000 2.06 190 21:21 27.06.2022
2860 Clear 10 1030 89 10000 0 0 20:21 27.06.2022
2861 Clear 10 1029 87 10000 3.09 180 18:50 27.06.2022
2862 Clear 12 1029 85 10000 3.09 170 17:33 27.06.2022
2863 Clouds 14 1029 78 10000 3.6 170 15:44 27.06.2022
2864 Clouds 15 1028 76 10000 5.14 170 14:18 27.06.2022
2865 Clouds 16 1027 78 10000 6.69 170 12:58 27.06.2022
2866 Clouds 16 1026 82 10000 8.75 200 11:30 27.06.2022
2867 Rain 20 1025 78 10000 7.72 230 09:45 27.06.2022
2868 Clouds 22 1025 62 10000 7.2 260 08:43 27.06.2022
2869 Clouds 22 1025 58 10000 6.69 270 07:39 27.06.2022
2870 Clouds 21 1027 68 10000 3.09 330 05:22 27.06.2022
2871 Clouds 11 1026 91 10000 3.09 10 01:22 27.06.2022
2872 Clouds 11 1025 88 10000 3.09 20 22:58 26.06.2022
2873 Clear 12 1025 91 10000 2.57 20 21:37 26.06.2022
2874 Clear 12 1025 91 10000 2.57 10 20:28 26.06.2022
2875 Clear 12 1025 90 10000 3.09 30 18:33 26.06.2022
2876 Clear 13 1024 84 10000 3.09 30 17:38 26.06.2022
2877 Clear 14 1024 80 10000 3.09 50 15:36 26.06.2022
2878 Clear 15 1024 78 10000 3.6 60 13:59 26.06.2022
2879 Clear 15 1024 78 10000 3.6 60 13:23 26.06.2022
2880 Clear 19 1024 62 10000 3.09 30 11:39 26.06.2022
2881 Clear 22 1023 50 10000 3.6 10 10:30 26.06.2022
2882 Clear 22 1023 50 10000 4.63 10 09:55 26.06.2022
2883 Clear 22 1023 50 10000 7.2 10 07:47 26.06.2022
2884 Clear 17 1026 60 10000 6.17 20 04:29 26.06.2022
2885 Clear 9 1025 78 10000 0 0 00:36 26.06.2022
2886 Clear 9 1025 78 10000 0 0 00:18 26.06.2022
2887 Clear 10 1025 76 10000 3.09 60 23:25 25.06.2022
2888 Clear 10 1025 77 10000 3.6 60 22:28 25.06.2022
2889 Clear 10 1025 74 10000 3.6 40 21:52 25.06.2022
2890 Clear 9 1026 77 10000 3.6 70 21:20 25.06.2022
2891 Clear 9 1026 78 10000 2.57 50 20:30 25.06.2022
2892 Clouds 10 1026 74 10000 4.12 70 19:55 25.06.2022
2893 Clouds 10 1026 74 10000 4.12 70 19:55 25.06.2022
2894 Clouds 10 1026 74 10000 4.12 70 19:55 25.06.2022
2895 Clear 10 1026 79 10000 3.09 90 18:21 25.06.2022
2896 Clear 11 1026 76 10000 4.63 70 17:25 25.06.2022
2897 Clear 11 1026 78 10000 3.6 90 16:24 25.06.2022
2898 Clear 12 1026 72 10000 4.12 90 13:51 25.06.2022
2899 Clear 14 1025 68 10000 3.6 100 12:39 25.06.2022
2900 Clear 16 1025 58 10000 3.09 110 11:34 25.06.2022
2901 Clear 19 1024 48 10000 3.6 90 09:22 25.06.2022
2902 Clear 19 1024 47 10000 3.6 130 08:46 25.06.2022
2903 Clear 19 1024 47 10000 3.6 130 08:46 25.06.2022
2904 Clear 19 1024 48 10000 3.09 140 08:19 25.06.2022
2905 Clear 18 1026 57 10000 3.09 60 05:23 25.06.2022
2906 Clear 10 1026 89 10000 4.12 50 00:43 25.06.2022
2907 Clear 10 1025 90 10000 3.09 70 23:18 24.06.2022
2908 Clear 11 1025 88 10000 2.06 120 21:57 24.06.2022
2909 Clouds 11 1025 90 10000 2.06 200 21:19 24.06.2022
2910 Clouds 11 1025 90 10000 2.57 180 20:20 24.06.2022
2911 Clouds 11 1025 90 10000 2.57 180 20:19 24.06.2022
2912 Clouds 11 1025 91 10000 1.54 310 19:22 24.06.2022
2913 Clouds 11 1025 91 10000 2.06 200 18:49 24.06.2022
2914 Clouds 11 1025 90 10000 2.06 200 18:30 24.06.2022
2915 Clouds 10 1025 89 10000 0 0 17:41 24.06.2022
2916 Clouds 11 1025 86 10000 2.57 180 15:51 24.06.2022
2917 Clouds 12 1026 81 10000 3.09 200 14:28 24.06.2022
2918 Clouds 12 1025 80 10000 3.09 210 13:55 24.06.2022
2919 Clear 15 1024 72 10000 4.12 210 11:45 24.06.2022
2920 Clouds 15 1024 69 10000 5.66 220 11:22 24.06.2022
2921 Clouds 17 1024 65 10000 5.14 210 10:19 24.06.2022
2922 Clouds 18 1024 62 10000 3.6 220 09:40 24.06.2022
2923 Clouds 19 1024 59 10000 3.6 200 08:52 24.06.2022
2924 Clouds 18 1025 63 10000 3.09 90 06:49 24.06.2022
2925 Clouds 17 1025 63 10000 4.63 80 06:31 24.06.2022
2926 Clouds 17 1026 65 10000 4.63 90 05:55 24.06.2022
2927 Clouds 10 1026 94 10000 3.09 190 01:36 24.06.2022
2928 Clouds 11 1025 91 10000 2.06 90 22:55 23.06.2022
2929 Clouds 11 1025 92 10000 2.06 110 22:33 23.06.2022
2930 Clouds 13 1025 92 10000 3.09 110 20:56 23.06.2022
2931 Clouds 13 1024 92 10000 2.57 140 20:32 23.06.2022
2932 Clouds 13 1024 94 10000 4.12 170 18:59 23.06.2022
2933 Clear 14 1024 94 10000 3.6 180 17:50 23.06.2022
2934 Clear 14 1024 94 10000 3.6 180 17:50 23.06.2022
2935 Clear 14 1024 94 10000 3.09 190 16:42 23.06.2022
2936 Clouds 14 1024 94 10000 3.09 170 15:43 23.06.2022
2937 Clouds 14 1024 94 10000 3.09 170 15:23 23.06.2022
2938 Clouds 15 1023 92 10000 2.06 110 12:43 23.06.2022
2939 Clouds 15 1022 91 10000 3.6 150 11:20 23.06.2022
2940 Drizzle 16 1022 89 8000 4.12 170 09:30 23.06.2022
2941 Rain 16 1021 84 10000 8.75 200 07:51 23.06.2022
2942 Fog 12 1022 94 10000 1.54 130 01:29 23.06.2022
2943 Clouds 13 1022 96 400 2.06 310 00:25 23.06.2022
2944 Clouds 13 1021 95 10000 2.57 10 23:23 22.06.2022
2945 Clouds 13 1021 94 10000 2.57 20 21:45 22.06.2022
2946 Clouds 13 1021 94 10000 2.57 20 21:45 22.06.2022
2947 Fog 12 1021 98 10000 2.57 50 20:57 22.06.2022
2948 Fog 13 1021 98 10000 3.09 30 20:21 22.06.2022
2949 Fog 13 1021 94 10000 2.06 40 19:44 22.06.2022
2950 Clear 14 1021 93 10000 2.06 40 17:50 22.06.2022
2951 Clear 14 1021 93 10000 1.03 40 17:20 22.06.2022
2952 Clouds 15 1021 92 10000 1.03 130 15:46 22.06.2022
2953 Clouds 15 1021 92 10000 1.03 130 15:22 22.06.2022
2954 Clouds 17 1021 87 10000 0 0 13:50 22.06.2022
2955 Clouds 17 1021 85 10000 1.03 190 13:25 22.06.2022
2956 Clouds 18 1021 81 10000 2.57 210 12:37 22.06.2022
2957 Clouds 19 1020 78 10000 4.63 230 11:46 22.06.2022
2958 Clouds 19 1020 76 10000 4.63 240 10:50 22.06.2022
2959 Clouds 20 1019 77 10000 5.14 240 09:44 22.06.2022
2960 Clouds 20 1019 80 10000 3.6 250 07:51 22.06.2022
2961 Rain 14 1021 89 10000 2.57 10 02:56 22.06.2022
2962 Clouds 11 1020 94 10000 3.09 10 01:19 22.06.2022
2963 Clear 11 1019 93 10000 3.09 350 22:57 21.06.2022
2964 Clear 12 1019 94 10000 4.12 360 21:21 21.06.2022
2965 Clear 12 1019 93 10000 3.09 360 19:30 21.06.2022
2966 Clear 12 1019 93 10000 3.09 360 19:30 21.06.2022
2967 Clouds 12 1019 93 10000 2.57 360 17:56 21.06.2022
2968 Clear 13 1020 91 10000 3.09 30 16:49 21.06.2022
2969 Clear 17 1019 75 10000 2.57 290 12:23 21.06.2022
2970 Clear 20 1018 60 10000 4.63 320 10:47 21.06.2022
2971 Clouds 22 1018 53 10000 6.17 320 09:35 21.06.2022
2972 Clouds 21 1018 54 10000 5.66 10 07:50 21.06.2022
2973 Clouds 19 1021 70 10000 6.69 10 04:59 21.06.2022
2974 Clouds 14 1021 96 10000 2.06 50 00:31 21.06.2022
2975 Clouds 14 1020 95 10000 2.06 20 22:21 20.06.2022
2976 Clouds 15 1020 95 9000 2.06 30 21:40 20.06.2022
2977 Clouds 15 1021 96 10000 3.6 30 20:29 20.06.2022
2978 Clouds 15 1021 95 7000 3.09 10 19:37 20.06.2022
2979 Clouds 15 1021 95 10000 2.57 30 18:34 20.06.2022
2980 Clouds 15 1021 95 10000 2.57 20 17:49 20.06.2022
2981 Clouds 15 1021 95 8000 2.57 50 16:36 20.06.2022
2982 Drizzle 16 1021 93 3500 1.54 280 15:30 20.06.2022
2983 Clouds 17 1020 87 10000 2.57 300 12:32 20.06.2022
2984 Clouds 19 1020 74 10000 4.12 270 10:21 20.06.2022
2985 Clouds 19 1020 74 10000 4.12 270 10:21 20.06.2022
2986 Clouds 20 1020 74 10000 3.09 30 08:56 20.06.2022
2987 Clouds 19 1020 76 10000 4.12 320 07:52 20.06.2022
2988 Clouds 18 1021 85 10000 4.12 10 05:21 20.06.2022
2989 Clouds 13 1021 96 8000 4.12 20 01:33 20.06.2022
2990 Drizzle 12 1020 95 3000 3.6 10 23:57 19.06.2022
2991 Drizzle 12 1020 95 3000 2.57 40 22:40 19.06.2022
2992 Clouds 12 1020 96 7000 2.57 50 21:45 19.06.2022
2993 Clouds 12 1020 95 7000 2.57 40 21:26 19.06.2022
2994 Mist 12 1020 96 10000 3.09 20 20:25 19.06.2022
2995 Mist 12 1020 96 10000 2.57 10 19:46 19.06.2022
2996 Fog 12 1020 95 9000 2.57 40 18:41 19.06.2022
2997 Mist 13 1020 95 7000 2.57 50 17:48 19.06.2022
2998 Mist 13 1020 95 5000 2.06 80 17:21 19.06.2022
2999 Clouds 13 1020 96 7000 2.57 40 16:34 19.06.2022
3000 Clouds 13 1020 95 6000 2.57 340 15:37 19.06.2022
3001 Clouds 13 1019 94 10000 2.57 20 14:51 19.06.2022
3002 Clouds 14 1019 94 10000 2.06 120 13:54 19.06.2022
3003 Clouds 14 1018 92 10000 4.12 170 12:26 19.06.2022
3004 Rain 16 1017 82 10000 6.69 190 10:53 19.06.2022
3005 Rain 18 1015 71 10000 8.23 220 09:34 19.06.2022
3006 Rain 18 1015 72 10000 9.26 230 08:35 19.06.2022
3007 Clouds 18 1015 72 10000 8.75 230 07:30 19.06.2022
3008 Rain 17 1015 78 10000 8.23 220 04:33 19.06.2022
3009 Clouds 14 1013 91 10000 5.14 250 01:28 19.06.2022
3010 Clouds 14 1012 89 10000 7.2 230 00:23 19.06.2022
3011 Clouds 15 1011 87 10000 4.12 230 23:35 18.06.2022
3012 Clouds 15 1011 89 10000 6.69 250 22:33 18.06.2022
3013 Clouds 15 1011 89 10000 8.75 230 20:55 18.06.2022
3014 Clouds 15 1011 89 10000 7.72 300 20:24 18.06.2022
3015 Clouds 15 1011 87 5000 8.23 270 19:21 18.06.2022
3016 Rain 16 1010 81 10000 8.23 280 18:42 18.06.2022
3017 Rain 16 1011 78 10000 8.75 290 17:30 18.06.2022
3018 Rain 16 1011 80 10000 6.69 290 17:30 18.06.2022
3019 Clouds 15 1011 81 10000 9.77 280 16:20 18.06.2022
3020 Clouds 15 1011 84 10000 6.69 250 15:18 18.06.2022
3021 Rain 15 1011 76 10000 8.75 280 14:41 18.06.2022
3022 Clouds 16 1010 64 10000 9.77 280 12:46 18.06.2022
3023 Clouds 16 1009 62 10000 8.75 280 11:29 18.06.2022
3024 Clouds 17 1008 59 10000 8.75 270 10:25 18.06.2022
3025 Clouds 17 1008 57 10000 9.77 260 09:19 18.06.2022
3026 Clouds 17 1008 59 10000 11.83 280 07:58 18.06.2022
3027 Clouds 17 1008 61 10000 10.29 280 06:24 18.06.2022
3028 Rain 14 1008 79 10000 7.2 280 02:54 18.06.2022
3029 Clouds 14 1008 88 10000 8.23 280 01:24 18.06.2022
3030 Clouds 14 1007 87 10000 5.14 290 00:41 18.06.2022
3031 Rain 13 1007 89 10000 4.63 290 23:43 17.06.2022
3032 Rain 13 1007 89 10000 5.66 290 22:49 17.06.2022
3033 Rain 15 1006 66 10000 5.66 280 20:40 17.06.2022
3034 Rain 15 1007 68 10000 5.66 280 19:25 17.06.2022
3035 Clouds 16 1007 68 10000 7.2 270 18:24 17.06.2022
3036 Clouds 15 1007 72 10000 5.66 260 17:22 17.06.2022
3037 Rain 15 1007 78 10000 3.6 270 16:37 17.06.2022
3038 Rain 15 1007 86 7000 7.72 260 15:41 17.06.2022
3039 Rain 15 1006 93 4000 6.69 240 14:37 17.06.2022
3040 Rain 15 1006 94 6000 6.69 240 14:18 17.06.2022
3041 Rain 16 1005 93 10000 7.72 260 13:39 17.06.2022
3042 Rain 17 1004 93 10000 7.72 250 12:29 17.06.2022
3043 Rain 17 1004 92 10000 7.72 270 11:55 17.06.2022
3044 Rain 17 1004 91 10000 8.23 280 11:34 17.06.2022
3045 Clouds 21 1003 70 10000 10.8 310 09:46 17.06.2022
3046 Clouds 20 1003 89 7000 8.23 360 08:26 17.06.2022
3047 Clouds 20 1004 84 10000 8.75 10 06:51 17.06.2022
3048 Clouds 20 1008 78 10000 7.72 360 04:19 17.06.2022
3049 Clouds 16 1009 89 10000 5.66 10 01:57 17.06.2022
3050 Clouds 15 1009 92 10000 4.63 10 00:24 17.06.2022
3051 Clouds 15 1010 91 10000 5.14 10 22:42 16.06.2022
3052 Clouds 15 1010 90 10000 4.63 10 21:23 16.06.2022
3053 Clouds 15 1011 91 10000 4.63 20 20:55 16.06.2022
3054 Clouds 14 1011 92 10000 4.63 20 20:35 16.06.2022
3055 Clear 14 1011 91 10000 4.63 20 19:41 16.06.2022
3056 Clouds 14 1012 91 10000 4.63 10 18:24 16.06.2022
3057 Clouds 14 1012 90 10000 3.6 10 17:43 16.06.2022
3058 Clear 14 1013 89 10000 4.12 20 16:35 16.06.2022
3059 Clear 15 1012 87 10000 4.12 40 15:22 16.06.2022
3060 Clear 15 1013 87 10000 2.06 60 14:37 16.06.2022
3061 Clear 16 1012 81 10000 3.09 340 13:20 16.06.2022
3062 Clouds 17 1013 75 10000 2.57 330 12:36 16.06.2022
3063 Clouds 19 1012 69 10000 3.09 310 11:51 16.06.2022
3064 Clouds 19 1012 69 10000 3.09 310 11:51 16.06.2022
3065 Clouds 21 1013 58 10000 5.14 310 10:55 16.06.2022
3066 Clouds 22 1012 53 10000 5.14 310 09:53 16.06.2022
3067 Clouds 23 1012 50 10000 5.14 10 09:21 16.06.2022
3068 Clouds 23 1012 52 10000 4.12 10 08:28 16.06.2022
3069 Clouds 22 1013 54 10000 5.14 20 07:24 16.06.2022
3070 Clear 19 1016 70 10000 4.63 20 04:42 16.06.2022
3071 Clouds 13 1016 95 10000 2.57 40 02:19 16.06.2022
3072 Mist 11 1016 94 10000 2.57 30 01:35 16.06.2022
3073 Fog 10 1016 100 300 1.54 20 00:39 16.06.2022
3074 Fog 11 1016 94 10000 3.09 20 23:33 15.06.2022
3075 Mist 12 1016 97 10000 2.57 30 22:35 15.06.2022
3076 Clear 13 1016 95 10000 2.06 20 21:21 15.06.2022
3077 Clear 13 1016 95 10000 1.54 20 20:38 15.06.2022
3078 Clear 12 1016 95 10000 1.54 20 20:19 15.06.2022
3079 Clear 12 1016 93 10000 2.06 10 19:19 15.06.2022
3080 Clouds 13 1016 94 10000 3.09 20 17:55 15.06.2022
3081 Clouds 14 1016 92 10000 1.03 60 16:40 15.06.2022
3082 Clouds 14 1017 91 10000 3.09 40 15:35 15.06.2022
3083 Clouds 15 1016 88 10000 3.6 360 13:43 15.06.2022
3084 Clouds 16 1015 87 10000 3.09 350 12:53 15.06.2022
3085 Clouds 16 1015 84 10000 3.09 340 11:52 15.06.2022
3086 Drizzle 17 1015 81 10000 7.72 300 10:24 15.06.2022
3087 Rain 19 1014 68 10000 5.14 300 09:39 15.06.2022
3088 Clear 20 1014 52 10000 5.66 350 08:30 15.06.2022
3089 Clear 18 1016 53 10000 6.17 10 06:33 15.06.2022
3090 Clear 15 1018 71 10000 4.63 360 03:45 15.06.2022
3091 Clouds 13 1017 82 10000 4.12 360 01:53 15.06.2022
3092 Clouds 13 1016 84 10000 4.63 20 00:50 15.06.2022
3093 Clouds 13 1016 84 10000 2.57 50 23:39 14.06.2022
3094 Clouds 13 1016 80 10000 3.6 50 22:56 14.06.2022
3095 Clouds 13 1016 82 10000 3.6 30 22:18 14.06.2022
3096 Clouds 14 1017 85 10000 4.12 10 21:28 14.06.2022
3097 Clouds 14 1017 89 10000 3.6 40 20:48 14.06.2022
3098 Clouds 14 1017 91 10000 2.06 50 20:28 14.06.2022
3099 Drizzle 15 1017 94 10000 3.09 300 18:54 14.06.2022
3100 Clouds 15 1018 93 10000 3.09 30 17:39 14.06.2022
3101 Clouds 15 1018 91 10000 3.09 40 16:43 14.06.2022
3102 Clouds 14 1018 90 10000 3.6 40 15:50 14.06.2022
3103 Clouds 15 1018 89 10000 3.09 80 14:57 14.06.2022
3104 Clouds 15 1018 88 10000 3.6 50 14:30 14.06.2022
3105 Clouds 15 1018 87 10000 4.63 290 13:40 14.06.2022
3106 Rain 16 1017 86 10000 3.09 280 12:30 14.06.2022
3107 Rain 17 1017 78 10000 9.77 300 11:28 14.06.2022
3108 Clouds 18 1017 69 10000 5.14 340 10:44 14.06.2022
3109 Clouds 19 1016 62 10000 3.6 310 09:48 14.06.2022
3110 Clouds 20 1017 62 10000 3.09 310 08:45 14.06.2022
3111 Clouds 19 1017 70 10000 3.09 330 07:26 14.06.2022
3112 Clouds 16 1019 89 10000 3.6 30 04:44 14.06.2022
3113 Drizzle 13 1019 94 10000 3.6 360 02:45 14.06.2022
3114 Clouds 13 1018 93 10000 4.63 10 00:27 14.06.2022
3115 Clear 12 1018 92 10000 2.57 30 23:18 13.06.2022
3116 Clear 12 1018 93 10000 2.57 60 22:25 13.06.2022
3117 Clear 12 1018 96 10000 2.57 40 21:43 13.06.2022
3118 Clear 13 1018 94 10000 3.09 360 20:19 13.06.2022
3119 Clear 12 1019 92 10000 2.06 190 19:26 13.06.2022
3120 Clear 13 1019 91 10000 4.12 180 17:57 13.06.2022
3121 Clear 13 1019 90 10000 3.09 140 17:35 13.06.2022
3122 Clear 14 1019 88 10000 1.54 70 16:32 13.06.2022
3123 Clouds 15 1019 83 10000 3.09 80 14:54 13.06.2022
3124 Clouds 15 1018 82 10000 2.57 80 14:33 13.06.2022
3125 Clouds 16 1018 75 10000 2.57 160 13:41 13.06.2022
3126 Clouds 16 1017 73 10000 3.09 220 12:25 13.06.2022
3127 Clouds 17 1017 68 10000 5.66 230 11:18 13.06.2022
3128 Clouds 17 1017 65 10000 6.17 240 10:26 13.06.2022
3129 Clouds 18 1016 64 10000 6.69 220 09:23 13.06.2022
3130 Clouds 18 1016 58 10000 7.72 250 07:34 13.06.2022
3131 Clouds 19 1016 60 10000 8.75 250 05:39 13.06.2022
3132 Clouds 16 1016 63 10000 7.2 250 02:47 13.06.2022
3133 Clouds 15 1015 70 10000 8.75 260 01:36 13.06.2022
3134 Clouds 15 1014 70 10000 9.26 260 23:52 12.06.2022
3135 Rain 14 1014 76 10000 7.72 250 22:50 12.06.2022
3136 Rain 15 1014 75 10000 8.23 270 22:22 12.06.2022
3137 Rain 14 1014 79 10000 9.26 250 20:58 12.06.2022
3138 Rain 14 1014 81 10000 6.69 280 20:19 12.06.2022
3139 Clouds 14 1014 77 10000 7.72 260 19:30 12.06.2022
3140 Rain 15 1013 69 10000 8.75 260 17:47 12.06.2022
3141 Rain 15 1013 71 10000 8.23 260 15:58 12.06.2022
3142 Rain 15 1013 68 10000 12.86 240 14:56 12.06.2022
3143 Clouds 15 1013 69 10000 8.23 280 14:20 12.06.2022
3144 Rain 15 1012 72 10000 8.23 280 13:49 12.06.2022
3145 Clouds 17 1011 56 10000 8.75 270 12:35 12.06.2022
3146 Clouds 17 1011 59 10000 9.77 260 11:36 12.06.2022
3147 Clouds 18 1010 62 10000 9.26 260 10:21 12.06.2022
3148 Clouds 19 1009 61 10000 9.77 270 08:54 12.06.2022
3149 Clouds 19 1009 62 10000 9.77 280 08:35 12.06.2022
3150 Clouds 18 1008 75 8000 10.29 270 07:31 12.06.2022
3151 Rain 17 1010 94 6000 8.75 350 04:35 12.06.2022
3152 Clouds 17 1009 92 10000 5.14 10 02:33 12.06.2022
3153 Clouds 15 1010 94 10000 5.14 20 01:36 12.06.2022
3154 Clouds 15 1010 95 10000 5.66 10 00:58 12.06.2022
3155 Clear 16 1010 95 10000 5.14 20 00:20 12.06.2022
3156 Clear 16 1010 94 10000 4.63 20 23:21 11.06.2022
3157 Clouds 16 1009 94 10000 4.12 20 22:38 11.06.2022
3158 Clouds 16 1009 94 10000 4.12 20 22:38 11.06.2022
3159 Clouds 16 1011 94 10000 4.12 10 21:36 11.06.2022
3160 Clouds 16 1011 95 10000 3.09 10 20:33 11.06.2022
3161 Clouds 16 1012 95 10000 3.6 20 19:37 11.06.2022
3162 Clouds 16 1012 95 10000 3.6 30 18:50 11.06.2022
3163 Clear 16 1012 95 10000 3.6 60 18:31 11.06.2022
3164 Clouds 16 1012 95 10000 3.09 30 17:49 11.06.2022
3165 Clear 16 1013 95 10000 3.09 30 17:26 11.06.2022
3166 Clear 16 1013 95 10000 3.09 30 17:26 11.06.2022
3167 Clear 16 1013 95 10000 3.09 50 16:44 11.06.2022
3168 Clear 16 1013 95 10000 3.09 50 16:25 11.06.2022
3169 Clouds 17 1013 94 8000 2.57 50 15:18 11.06.2022
3170 Clear 17 1013 94 10000 2.57 50 13:52 11.06.2022
3171 Clouds 18 1012 87 10000 3.09 20 12:19 11.06.2022
3172 Clouds 20 1010 78 10000 3.6 330 10:40 11.06.2022
3173 Clouds 21 1010 75 10000 4.12 330 09:42 11.06.2022
3174 Rain 20 1010 78 6000 5.14 330 08:45 11.06.2022
3175 Clouds 21 1011 80 10000 5.14 360 06:34 11.06.2022
3176 Clouds 20 1012 84 10000 6.69 10 05:53 11.06.2022
3177 Rain 17 1012 95 10000 5.14 10 03:31 11.06.2022
3178 Rain 16 1011 96 10000 5.14 20 01:51 11.06.2022
3179 Drizzle 16 1011 95 7000 6.17 10 01:26 11.06.2022
3180 Rain 16 1010 95 7000 6.69 10 23:28 10.06.2022
3181 Drizzle 17 1009 91 8000 5.66 20 22:27 10.06.2022
3182 Rain 17 1009 90 10000 6.17 10 21:46 10.06.2022
3183 Clouds 17 1009 89 10000 6.17 30 20:39 10.06.2022
3184 Clouds 17 1009 89 10000 6.17 30 20:19 10.06.2022
3185 Clouds 17 1009 89 10000 6.17 30 19:19 10.06.2022
3186 Clouds 17 1010 89 10000 6.17 30 18:44 10.06.2022
3187 Rain 17 1010 91 10000 7.2 20 17:54 10.06.2022
3188 Rain 17 1010 88 10000 5.66 30 17:22 10.06.2022
3189 Clear 17 1010 87 10000 5.14 20 16:26 10.06.2022
3190 Rain 17 1010 88 10000 5.66 30 15:39 10.06.2022
3191 Clouds 17 1010 89 10000 6.17 30 14:24 10.06.2022
3192 Rain 17 1010 93 10000 5.66 30 12:57 10.06.2022
3193 Rain 17 1009 93 10000 4.63 50 11:59 10.06.2022
3194 Rain 18 1009 87 10000 8.23 10 10:45 10.06.2022
3195 Clouds 20 1008 81 10000 7.2 30 09:56 10.06.2022
3196 Rain 21 1008 70 10000 9.26 10 08:47 10.06.2022
3197 Rain 21 1009 68 10000 6.17 20 07:31 10.06.2022
3198 Rain 21 1009 74 10000 4.63 20 06:45 10.06.2022
3199 Rain 20 1010 76 10000 6.17 20 06:26 10.06.2022
3200 Rain 18 1011 80 10000 6.17 30 04:37 10.06.2022
3201 Rain 17 1010 82 10000 5.66 40 01:42 10.06.2022
3202 Rain 17 1010 84 10000 5.66 40 00:40 10.06.2022
3203 Clouds 16 1010 89 10000 3.09 70 23:49 09.06.2022
3204 Rain 16 1011 90 10000 5.66 70 22:18 09.06.2022
3205 Rain 16 1011 87 10000 6.17 70 21:37 09.06.2022
3206 Clouds 16 1011 85 9000 6.17 50 20:55 09.06.2022
3207 Clouds 15 1011 85 9000 5.14 70 20:26 09.06.2022
3208 Rain 15 1011 86 7000 6.69 60 19:29 09.06.2022
3209 Rain 15 1011 86 10000 5.66 60 18:34 09.06.2022
3210 Rain 15 1011 89 10000 7.2 60 17:18 09.06.2022
3211 Rain 15 1012 92 10000 6.69 40 15:54 09.06.2022
3212 Rain 16 1011 90 5000 5.66 70 14:38 09.06.2022
3213 Thunderstorm 16 1011 87 5000 4.63 60 13:55 09.06.2022
3214 Clouds 17 1011 83 10000 4.12 60 13:28 09.06.2022
3215 Rain 17 1011 83 5000 5.14 60 11:54 09.06.2022
3216 Clouds 18 1011 77 7000 4.63 30 11:19 09.06.2022
3217 Clouds 20 1010 66 10000 9.26 60 09:50 09.06.2022
3218 Clouds 21 1010 66 10000 8.23 60 09:31 09.06.2022
3219 Clouds 20 1011 65 10000 8.23 60 07:56 09.06.2022
3220 Clouds 19 1012 69 10000 8.23 60 06:41 09.06.2022
3221 Rain 12 1015 92 6000 6.69 70 03:19 09.06.2022
3222 Clouds 14 1014 73 10000 8.23 50 23:48 08.06.2022
3223 Clear 15 1014 65 10000 7.2 70 22:58 08.06.2022
3224 Clear 15 1014 64 10000 7.72 70 22:27 08.06.2022
3225 Clear 15 1014 63 10000 6.69 70 21:55 08.06.2022
3226 Clouds 15 1015 63 10000 7.72 80 21:21 08.06.2022
3227 Clouds 15 1015 62 10000 6.69 70 20:21 08.06.2022
3228 Rain 16 1015 57 10000 9.77 40 19:38 08.06.2022
3229 Rain 17 1015 50 10000 7.72 50 18:45 08.06.2022
3230 Rain 17 1014 49 10000 7.2 60 17:25 08.06.2022
3231 Clear 16 1015 59 10000 7.2 60 15:48 08.06.2022
3232 Clouds 14 1015 70 10000 7.72 70 13:52 08.06.2022
3233 Clouds 13 1015 82 10000 7.2 50 12:20 08.06.2022
3234 Rain 15 1015 64 7000 8.75 30 11:33 08.06.2022
3235 Rain 17 1014 51 10000 5.14 60 09:59 08.06.2022
3236 Rain 18 1014 48 10000 5.66 50 09:22 08.06.2022
3237 Clear 18 1014 45 10000 8.75 60 08:40 08.06.2022
3238 Clear 17 1016 46 10000 10.8 60 05:55 08.06.2022
3239 Clear 15 1017 49 10000 9.77 70 03:55 08.06.2022
3240 Clear 14 1017 51 10000 8.75 60 00:38 08.06.2022
3241 Rain 14 1018 50 10000 8.23 50 23:28 07.06.2022
3242 Clouds 14 1018 49 10000 8.75 50 22:45 07.06.2022
3243 Clouds 14 1018 49 10000 8.75 50 22:23 07.06.2022
3244 Clouds 15 1019 48 10000 8.23 70 21:34 07.06.2022
3245 Clear 15 1019 47 10000 9.77 70 20:58 07.06.2022
3246 Clear 15 1019 47 10000 8.75 60 20:32 07.06.2022
3247 Clouds 15 1020 46 10000 7.72 50 19:38 07.06.2022
3248 Clear 15 1020 47 10000 7.72 70 18:23 07.06.2022
3249 Clear 15 1020 46 10000 7.72 70 17:26 07.06.2022
3250 Clear 16 1020 46 10000 8.75 70 16:43 07.06.2022
3251 Clear 16 1020 45 10000 8.75 80 15:47 07.06.2022
3252 Clear 16 1020 45 10000 8.75 90 15:26 07.06.2022
3253 Clear 16 1020 45 10000 8.75 90 15:26 07.06.2022
3254 Clear 16 1021 45 10000 7.2 70 14:47 07.06.2022
3255 Clear 16 1021 46 10000 7.72 70 14:29 07.06.2022
3256 Clear 16 1020 46 10000 7.72 70 13:30 07.06.2022
3257 Clear 16 1020 46 10000 7.2 80 12:45 07.06.2022
3258 Clouds 17 1020 48 10000 6.69 90 11:37 07.06.2022
3259 Clear 18 1020 47 10000 7.72 90 10:26 07.06.2022
3260 Clear 18 1020 47 10000 7.72 90 10:26 07.06.2022
3261 Clear 19 1020 44 10000 8.23 80 08:49 07.06.2022
3262 Clear 18 1020 45 10000 8.75 70 07:33 07.06.2022
3263 Clouds 17 1022 49 10000 7.2 60 05:58 07.06.2022
3264 Clear 13 1024 60 10000 7.2 50 03:22 07.06.2022
3265 Clear 10 1023 70 10000 8.23 70 00:44 07.06.2022
3266 Clear 10 1022 69 10000 8.23 70 23:35 06.06.2022
3267 Clear 10 1023 68 10000 7.72 70 22:47 06.06.2022
3268 Clear 10 1022 67 10000 7.72 60 21:49 06.06.2022
3269 Clear 11 1022 66 10000 8.75 70 20:21 06.06.2022
3270 Clear 11 1022 65 10000 8.75 70 19:23 06.06.2022
3271 Clear 11 1023 66 10000 8.23 70 18:46 06.06.2022
3272 Clear 11 1022 65 10000 6.17 60 17:52 06.06.2022
3273 Clear 12 1022 64 10000 7.72 70 16:48 06.06.2022
3274 Clear 12 1022 66 10000 7.2 90 15:40 06.06.2022
3275 Clear 12 1022 66 10000 6.17 100 14:57 06.06.2022
3276 Clear 13 1022 66 10000 4.12 110 13:37 06.06.2022
3277 Clouds 13 1021 64 10000 4.12 110 12:44 06.06.2022
3278 Clouds 14 1021 64 10000 4.12 110 12:26 06.06.2022
3279 Clouds 15 1021 61 10000 4.63 100 11:45 06.06.2022
3280 Clouds 18 1020 50 10000 5.14 90 09:43 06.06.2022
3281 Clouds 18 1021 50 10000 4.63 50 08:36 06.06.2022
3282 Clouds 17 1021 54 10000 5.66 90 07:41 06.06.2022
3283 Clouds 17 1022 53 10000 6.69 80 06:43 06.06.2022
3284 Clear 14 1024 67 10000 5.14 90 04:28 06.06.2022
3285 Clear 9 1023 87 10000 4.12 90 01:30 06.06.2022
3286 Clear 9 1024 88 10000 4.12 110 00:47 06.06.2022
3287 Clouds 9 1023 86 10000 4.12 90 00:28 06.06.2022
3288 Clouds 10 1022 89 10000 2.57 130 22:58 05.06.2022
3289 Clouds 10 1023 87 10000 2.57 150 21:56 05.06.2022
3290 Clouds 11 1023 84 10000 3.6 130 20:23 05.06.2022
3291 Clouds 10 1022 86 10000 1.54 140 18:47 05.06.2022
3292 Clouds 9 1023 89 10000 2.57 70 17:58 05.06.2022
3293 Clouds 9 1023 88 10000 1.54 30 17:38 05.06.2022
3294 Clouds 9 1022 88 10000 1.54 30 17:19 05.06.2022
3295 Clouds 9 1023 85 10000 0 0 16:46 05.06.2022
3296 Clouds 11 1023 82 10000 0 0 14:59 05.06.2022
3297 Clouds 12 1022 76 10000 2.06 70 13:55 05.06.2022
3298 Clouds 14 1021 67 10000 3.6 80 11:57 05.06.2022
3299 Clouds 17 1021 57 10000 5.66 80 10:45 05.06.2022
3300 Clouds 17 1021 56 10000 6.69 80 10:23 05.06.2022
3301 Clouds 17 1021 57 10000 3.09 90 08:45 05.06.2022
3302 Clouds 18 1021 57 10000 4.12 50 08:21 05.06.2022
3303 Clouds 15 1023 68 10000 5.14 50 05:23 05.06.2022
3304 Clouds 14 1024 73 10000 4.12 60 04:33 05.06.2022
3305 Clouds 9 1024 93 10000 2.57 130 02:19 05.06.2022
3306 Fog 6 1023 94 10000 2.06 340 01:23 05.06.2022
3307 Fog 6 1023 94 10000 2.06 340 01:23 05.06.2022
3308 Clear 7 1022 93 10000 1.54 130 22:45 04.06.2022
3309 Fog 7 1022 92 10000 1.54 190 21:21 04.06.2022
3310 Clouds 9 1022 87 9000 0 0 18:58 04.06.2022
3311 Clear 9 1022 86 10000 2.06 20 16:48 04.06.2022
3312 Clear 9 1022 86 10000 2.06 20 16:48 04.06.2022
3313 Clear 10 1023 84 8000 1.03 240 16:20 04.06.2022
3314 Clear 10 1022 81 10000 1.54 330 15:27 04.06.2022
3315 Clear 12 1021 73 10000 2.57 150 13:54 04.06.2022
3316 Clear 16 1021 54 10000 5.14 170 11:23 04.06.2022
3317 Clear 17 1021 51 10000 5.66 180 10:52 04.06.2022
3318 Clouds 18 1021 48 10000 5.66 190 09:46 04.06.2022
3319 Clouds 18 1021 47 10000 5.66 180 08:44 04.06.2022
3320 Clouds 17 1022 48 10000 6.69 180 07:59 04.06.2022
3321 Clouds 16 1023 51 10000 5.66 140 06:20 04.06.2022
3322 Clouds 10 1025 90 10000 0.51 210 02:57 04.06.2022
3323 Clouds 5 1022 93 10000 2.06 140 00:20 04.06.2022
3324 Clear 5 1023 91 10000 0 0 22:49 03.06.2022
3325 Clear 4 1023 96 10000 0 0 21:43 03.06.2022
3326 Clear 7 1023 86 10000 1.54 150 20:40 03.06.2022
3327 Clear 8 1023 81 10000 2.57 190 19:19 03.06.2022
3328 Clear 10 1023 72 10000 3.6 170 16:54 03.06.2022
3329 Clear 11 1023 70 10000 4.63 180 15:51 03.06.2022
3330 Clear 13 1022 66 10000 4.12 190 13:51 03.06.2022
3331 Clear 15 1021 59 10000 4.63 180 11:51 03.06.2022
3332 Clouds 17 1021 50 10000 3.6 180 09:54 03.06.2022
3333 Clouds 17 1021 48 10000 3.09 210 09:28 03.06.2022
3334 Clouds 18 1021 48 10000 4.12 220 07:42 03.06.2022
3335 Clouds 18 1022 48 10000 3.6 180 06:45 03.06.2022
3336 Clouds 17 1022 49 10000 3.09 80 06:27 03.06.2022
3337 Clouds 10 1023 88 10000 2.06 40 02:24 03.06.2022
3338 Clear 8 1021 93 10000 2.57 310 23:34 02.06.2022
3339 Clear 9 1021 88 10000 0.51 360 21:57 02.06.2022
3340 Clear 9 1020 92 10000 3.09 80 20:26 02.06.2022
3341 Mist 9 1020 97 10000 2.57 110 19:53 02.06.2022
3342 Fog 9 1021 94 10000 2.57 30 19:35 02.06.2022
3343 Mist 10 1021 98 10000 1.54 180 17:59 02.06.2022
3344 Clear 11 1021 92 10000 1.03 320 16:28 02.06.2022
3345 Clear 12 1019 91 10000 2.06 90 14:58 02.06.2022
3346 Clear 13 1019 86 10000 2.57 220 13:30 02.06.2022
3347 Clouds 14 1018 82 10000 2.57 230 12:42 02.06.2022
3348 Clouds 18 1017 70 10000 4.63 240 10:32 02.06.2022
3349 Clouds 19 1017 65 10000 6.69 190 09:28 02.06.2022
3350 Clouds 19 1017 61 10000 5.14 220 08:29 02.06.2022
3351 Clouds 19 1017 63 10000 4.12 220 07:48 02.06.2022
3352 Clouds 17 1018 76 10000 2.06 360 06:20 02.06.2022
3353 Rain 11 1019 90 6000 2.57 20 03:48 02.06.2022
3354 Clouds 6 1017 96 10000 3.09 40 00:31 02.06.2022
3355 Clear 6 1017 93 10000 3.09 30 22:57 01.06.2022
3356 Clear 7 1017 96 10000 4.12 10 21:45 01.06.2022
3357 Clear 7 1017 96 10000 4.12 360 21:22 01.06.2022
3358 Mist 7 1017 96 10000 3.6 360 20:38 01.06.2022
3359 Clear 8 1017 89 10000 3.09 20 19:48 01.06.2022
3360 Clear 7 1018 96 10000 2.06 10 18:19 01.06.2022
3361 Clear 8 1018 93 10000 1.54 230 16:46 01.06.2022
3362 Clear 9 1018 89 10000 2.06 70 15:39 01.06.2022
3363 Clouds 11 1018 82 10000 0 0 14:31 01.06.2022
3364 Clear 14 1017 72 10000 3.09 210 12:42 01.06.2022
3365 Clouds 17 1017 57 10000 4.12 220 10:41 01.06.2022
3366 Clouds 18 1017 52 10000 3.6 260 09:26 01.06.2022
3367 Clouds 18 1018 48 10000 1.54 280 07:56 01.06.2022
3368 Clouds 18 1019 51 10000 2.57 320 06:41 01.06.2022
3369 Clear 8 1020 96 10000 0 0 01:30 01.06.2022
3370 Clear 8 1020 93 10000 2.06 150 23:47 31.05.2022
3371 Clear 8 1019 91 10000 1.54 150 22:38 31.05.2022
3372 Clear 8 1020 91 10000 2.06 360 21:46 31.05.2022
3373 Clear 8 1020 91 10000 2.06 360 21:46 31.05.2022
3374 Clouds 8 1020 90 10000 2.06 150 20:57 31.05.2022
3375 Clouds 9 1020 87 10000 2.06 150 20:33 31.05.2022
3376 Clear 10 1020 85 10000 2.57 190 18:57 31.05.2022
3377 Clear 11 1020 80 10000 3.09 160 17:51 31.05.2022
3378 Clouds 11 1021 79 10000 3.09 170 17:31 31.05.2022
3379 Clouds 13 1021 74 10000 2.06 120 15:42 31.05.2022
3380 Clouds 12 1021 73 10000 4.12 140 14:34 31.05.2022
3381 Clouds 14 1020 69 10000 3.09 90 12:22 31.05.2022
3382 Clouds 15 1019 67 10000 4.12 90 11:42 31.05.2022
3383 Clouds 17 1018 63 10000 5.14 130 09:49 31.05.2022
3384 Clouds 18 1019 59 10000 6.69 120 07:36 31.05.2022
3385 Clouds 17 1021 65 10000 7.72 80 05:24 31.05.2022
3386 Clear 11 1022 88 10000 4.12 90 01:42 31.05.2022
3387 Clear 10 1020 90 10000 0.51 100 23:29 30.05.2022
3388 Clouds 11 1020 89 10000 0.51 170 22:57 30.05.2022
3389 Clouds 9 1020 92 10000 0 0 22:21 30.05.2022
3390 Clouds 9 1020 93 10000 0 0 21:34 30.05.2022
3391 Clear 8 1020 93 10000 1.54 170 20:22 30.05.2022
3392 Clouds 10 1020 89 10000 1.54 170 18:58 30.05.2022
3393 Clouds 12 1021 83 10000 0 0 17:41 30.05.2022
3394 Clouds 13 1021 76 10000 1.54 60 16:45 30.05.2022
3395 Clouds 15 1021 74 10000 2.57 200 15:22 30.05.2022
3396 Clouds 15 1020 72 10000 0 0 12:37 30.05.2022
3397 Clouds 17 1020 59 10000 3.09 110 10:47 30.05.2022
3398 Clouds 19 1020 55 10000 3.6 100 09:39 30.05.2022
3399 Clouds 18 1020 57 10000 4.12 130 07:23 30.05.2022
3400 Clouds 16 1023 65 10000 3.09 170 05:50 30.05.2022
3401 Clouds 8 1023 89 10000 1.03 340 02:33 30.05.2022
3402 Clouds 5 1022 93 10000 1.54 210 23:24 29.05.2022
3403 Clouds 5 1022 100 10000 2.06 190 22:39 29.05.2022
3404 Clouds 6 1022 90 10000 2.57 190 21:19 29.05.2022
3405 Clear 7 1023 88 10000 3.09 180 19:38 29.05.2022
3406 Clear 8 1023 86 10000 3.09 180 19:18 29.05.2022
3407 Clear 9 1023 81 10000 4.12 180 17:32 29.05.2022
3408 Clear 10 1023 76 10000 2.57 170 15:49 29.05.2022
3409 Clear 10 1023 75 10000 3.6 180 15:23 29.05.2022
3410 Clear 11 1022 72 10000 3.09 170 14:19 29.05.2022
3411 Clear 14 1019 56 10000 5.14 160 11:55 29.05.2022
3412 Clouds 17 1018 49 10000 4.63 160 10:42 29.05.2022
3413 Clear 18 1019 47 10000 5.66 170 09:51 29.05.2022
3414 Clouds 17 1019 52 10000 8.75 180 06:51 29.05.2022
3415 Clouds 16 1020 60 10000 8.23 180 04:47 29.05.2022
3416 Clear 15 1021 62 10000 7.2 180 04:24 29.05.2022
3417 Clear 6 1019 90 10000 0 0 23:59 28.05.2022
3418 Clouds 7 1018 88 10000 0 0 23:39 28.05.2022
3419 Clear 8 1018 83 10000 2.57 160 22:40 28.05.2022
3420 Clouds 10 1019 80 10000 3.6 160 21:40 28.05.2022
3421 Clouds 11 1018 75 10000 4.12 160 19:51 28.05.2022
3422 Clouds 12 1018 73 10000 5.14 170 19:18 28.05.2022
3423 Clouds 13 1017 85 10000 5.66 190 17:44 28.05.2022
3424 Clouds 14 1016 83 10000 5.66 180 16:50 28.05.2022
3425 Clouds 14 1016 82 10000 10.29 210 15:44 28.05.2022
3426 Clouds 15 1014 72 10000 2.57 210 14:35 28.05.2022
3427 Clouds 17 1015 71 10000 7.72 200 13:21 28.05.2022
3428 Clouds 17 1014 74 10000 6.69 210 12:39 28.05.2022
3429 Clouds 19 1013 69 10000 8.23 210 11:23 28.05.2022
3430 Clouds 20 1013 66 10000 8.23 210 10:21 28.05.2022
3431 Clouds 21 1013 61 10000 8.23 210 09:22 28.05.2022
3432 Clear 22 1013 49 10000 5.66 250 07:23 28.05.2022
3433 Clear 22 1014 46 10000 1.54 310 05:48 28.05.2022
3434 Clear 19 1015 54 10000 3.6 60 03:48 28.05.2022
3435 Clear 13 1015 71 10000 4.12 60 00:33 28.05.2022
3436 Clear 14 1015 67 10000 2.57 60 23:32 27.05.2022
3437 Clear 14 1015 64 10000 3.6 30 21:50 27.05.2022
3438 Clear 14 1015 64 10000 3.6 30 21:50 27.05.2022
3439 Clear 15 1015 64 10000 3.6 50 20:56 27.05.2022
3440 Clear 15 1015 60 10000 3.6 50 20:25 27.05.2022
3441 Clear 16 1015 62 10000 4.12 70 19:48 27.05.2022
3442 Clear 16 1016 62 10000 3.6 50 19:29 27.05.2022
3443 Clear 16 1016 64 10000 4.12 70 18:24 27.05.2022
3444 Clear 16 1017 62 10000 3.09 110 16:40 27.05.2022
3445 Clear 16 1017 64 10000 3.6 110 15:33 27.05.2022
3446 Clear 16 1016 63 10000 3.6 100 14:26 27.05.2022
3447 Clear 18 1016 59 10000 3.6 120 13:18 27.05.2022
3448 Clear 21 1015 46 10000 3.6 100 11:34 27.05.2022
3449 Clear 23 1015 41 10000 3.6 110 10:56 27.05.2022
3450 Clear 23 1014 39 10000 4.63 90 10:31 27.05.2022
3451 Clear 24 1014 36 10000 5.14 80 09:35 27.05.2022
3452 Clear 24 1015 42 10000 3.09 70 07:52 27.05.2022
3453 Clear 22 1017 47 10000 4.12 80 05:39 27.05.2022
3454 Clear 15 1017 68 10000 4.63 70 02:26 27.05.2022
3455 Clear 14 1017 71 10000 3.6 80 00:29 27.05.2022
3456 Clear 15 1017 67 10000 4.12 60 22:35 26.05.2022
3457 Clear 15 1016 66 10000 4.63 60 21:37 26.05.2022
3458 Clear 15 1016 64 10000 5.66 70 20:30 26.05.2022
3459 Clear 16 1016 60 10000 4.63 70 19:19 26.05.2022
3460 Clear 16 1017 63 10000 4.63 70 17:51 26.05.2022
3461 Clear 16 1017 63 10000 3.6 120 16:36 26.05.2022
3462 Clear 16 1017 65 10000 2.57 90 15:45 26.05.2022
3463 Clear 16 1017 67 10000 4.12 90 14:24 26.05.2022
3464 Clear 18 1017 60 10000 2.57 110 12:36 26.05.2022
3465 Clear 20 1016 55 10000 3.6 80 11:23 26.05.2022
3466 Clear 22 1016 45 10000 5.14 70 09:40 26.05.2022
3467 Clear 22 1016 45 10000 5.14 70 09:19 26.05.2022
3468 Clear 22 1016 46 10000 5.66 60 07:51 26.05.2022
3469 Clear 17 1020 69 10000 3.09 80 03:35 26.05.2022
3470 Clear 12 1019 86 10000 5.14 70 00:21 26.05.2022
3471 Clear 12 1019 87 10000 4.63 70 23:22 25.05.2022
3472 Clear 11 1019 91 10000 3.6 70 21:47 25.05.2022
3473 Clear 11 1020 91 10000 2.06 80 21:28 25.05.2022
3474 Clear 12 1020 87 10000 4.63 90 19:59 25.05.2022
3475 Clear 12 1020 88 10000 5.14 90 19:19 25.05.2022
3476 Clear 12 1021 88 10000 3.6 60 17:33 25.05.2022
3477 Clear 13 1020 88 10000 2.06 70 16:36 25.05.2022
3478 Clear 13 1021 86 10000 2.06 70 15:53 25.05.2022
3479 Clear 14 1020 84 10000 2.57 100 14:51 25.05.2022
3480 Clear 14 1020 83 10000 3.09 90 14:32 25.05.2022
3481 Clear 15 1020 79 10000 3.09 110 13:35 25.05.2022
3482 Clouds 16 1019 76 10000 0 0 12:36 25.05.2022
3483 Clouds 20 1019 61 10000 3.6 70 10:43 25.05.2022
3484 Clouds 21 1019 56 10000 3.09 50 09:53 25.05.2022
3485 Clouds 21 1018 56 10000 0.18 17 08:22 25.05.2022
3486 Clouds 21 1019 59 10000 1.2 93 06:53 25.05.2022
3487 Clear 15 1022 92 10000 2.57 30 03:19 25.05.2022
3488 Clear 11 1020 98 10000 2.06 20 23:53 24.05.2022
3489 Mist 11 1020 96 10000 2.06 30 23:23 24.05.2022
3490 Mist 11 1019 97 10000 0 0 22:19 24.05.2022
3491 Clear 12 1019 96 10000 2.06 320 21:38 24.05.2022
3492 Clear 12 1019 94 10000 2.06 80 21:19 24.05.2022
3493 Mist 13 1019 94 10000 1.54 90 19:37 24.05.2022
3494 Fog 14 1019 95 10000 0 0 18:49 24.05.2022
3495 Mist 15 1019 94 10000 1.54 70 16:40 24.05.2022
3496 Clouds 16 1018 93 10000 0.51 270 16:18 24.05.2022
3497 Rain 16 1018 93 10000 2.57 190 14:50 24.05.2022
3498 Rain 17 1017 90 10000 3.09 220 13:48 24.05.2022
3499 Rain 18 1016 83 10000 5.14 220 12:42 24.05.2022
3500 Clouds 20 1014 74 10000 6.69 190 10:29 24.05.2022
3501 Rain 21 1013 67 10000 8.75 230 09:42 24.05.2022
3502 Clouds 21 1013 65 10000 7.72 240 08:49 24.05.2022
3503 Clouds 21 1013 66 10000 9.77 240 06:56 24.05.2022
3504 Clouds 19 1012 74 10000 8.23 250 03:48 24.05.2022
3505 Clouds 18 1010 82 10000 6.17 250 01:49 24.05.2022
3506 Clouds 18 1009 81 10000 7.72 260 01:18 24.05.2022
3507 Clouds 17 1006 85 10000 8.23 250 22:50 23.05.2022
3508 Clouds 17 1006 85 10000 9.26 260 21:54 23.05.2022
3509 Clouds 17 1005 90 8000 8.23 270 20:59 23.05.2022
3510 Rain 17 1005 89 8000 11.32 260 20:26 23.05.2022
3511 Clouds 17 1004 92 8000 7.72 290 19:31 23.05.2022
3512 Rain 17 1004 92 5000 9.77 270 18:54 23.05.2022
3513 Rain 17 1003 91 9000 12.86 270 18:27 23.05.2022
3514 Rain 17 1003 86 3000 12.35 280 17:18 23.05.2022
3515 Rain 16 1002 87 10000 11.83 300 14:52 23.05.2022
3516 Rain 17 1002 71 10000 9.77 300 12:50 23.05.2022
3517 Rain 16 1002 82 5000 8.75 300 11:26 23.05.2022
3518 Clouds 19 1001 62 10000 9.77 300 09:50 23.05.2022
3519 Clouds 19 1001 62 10000 7.72 290 09:23 23.05.2022
3520 Clouds 18 1001 67 10000 9.77 300 07:48 23.05.2022
3521 Rain 15 1002 93 10000 8.23 310 06:45 23.05.2022
3522 Rain 13 1003 95 2000 6.69 10 05:21 23.05.2022
3523 Rain 14 1004 93 10000 5.66 330 02:19 23.05.2022
3524 Rain 14 1003 91 10000 6.69 20 01:37 23.05.2022
3525 Rain 13 1003 95 9000 5.66 360 23:51 22.05.2022
3526 Rain 14 1003 95 5000 5.66 360 22:35 22.05.2022
3527 Rain 14 1003 95 10000 6.17 10 21:55 22.05.2022
3528 Rain 14 1003 95 5000 7.72 360 20:53 22.05.2022
3529 Rain 14 1003 94 3000 6.17 10 20:27 22.05.2022
3530 Rain 14 1003 94 8000 5.66 10 19:56 22.05.2022
3531 Rain 14 1004 93 5000 5.66 20 18:55 22.05.2022
3532 Rain 15 1004 92 10000 5.14 20 18:24 22.05.2022
3533 Clouds 15 1003 89 10000 3.09 20 17:32 22.05.2022
3534 Rain 16 1004 86 6000 5.14 10 16:25 22.05.2022
3535 Clouds 16 1004 88 10000 7.72 290 14:48 22.05.2022
3536 Rain 17 1003 82 10000 8.23 300 13:38 22.05.2022
3537 Clouds 17 1003 79 10000 8.75 300 12:50 22.05.2022
3538 Clouds 17 1002 86 10000 7.72 320 11:42 22.05.2022
3539 Rain 16 1001 94 10000 5.14 350 09:43 22.05.2022
3540 Rain 17 1001 88 7000 9.26 340 08:34 22.05.2022
3541 Rain 22 1000 57 10000 8.23 360 07:21 22.05.2022
3542 Rain 22 1000 57 10000 8.23 360 07:21 22.05.2022
3543 Clouds 22 1002 68 10000 8.23 20 05:31 22.05.2022
3544 Clear 14 1007 80 10000 3.09 60 01:42 22.05.2022
3545 Clear 13 1006 81 10000 3.6 60 00:43 22.05.2022
3546 Clear 12 1006 86 10000 3.09 350 23:54 21.05.2022
3547 Clear 13 1006 77 10000 4.63 60 22:57 21.05.2022
3548 Clear 13 1007 78 10000 4.12 60 21:42 21.05.2022
3549 Clear 13 1009 84 10000 3.6 60 20:59 21.05.2022
3550 Clear 13 1009 87 10000 2.57 60 20:22 21.05.2022
3551 Clear 13 1010 88 10000 3.09 30 19:27 21.05.2022
3552 Clear 14 1010 91 10000 2.57 30 17:48 21.05.2022
3553 Clear 16 1011 86 10000 2.06 40 15:54 21.05.2022
3554 Clear 17 1011 85 10000 0 0 14:37 21.05.2022
3555 Clear 17 1011 79 10000 1.54 210 13:42 21.05.2022
3556 Clear 19 1011 72 10000 3.09 230 12:49 21.05.2022
3557 Clear 21 1011 63 10000 3.6 230 11:58 21.05.2022
3558 Clear 25 1011 41 10000 4.12 20 10:23 21.05.2022
3559 Clear 26 1011 40 10000 3.6 40 09:41 21.05.2022
3560 Clear 26 1011 40 10000 4.63 40 08:52 21.05.2022
3561 Clear 25 1012 41 10000 4.63 20 07:53 21.05.2022
3562 Clear 20 1016 64 10000 5.14 80 03:48 21.05.2022
3563 Clear 14 1017 88 10000 4.12 50 23:50 20.05.2022
3564 Clear 15 1017 88 10000 3.6 20 22:42 20.05.2022
3565 Clear 15 1017 88 10000 3.6 20 22:42 20.05.2022
3566 Clear 15 1017 88 10000 3.6 20 22:23 20.05.2022
3567 Clouds 15 1016 89 10000 3.6 120 21:32 20.05.2022
3568 Clear 15 1017 90 10000 3.6 110 20:53 20.05.2022
3569 Clear 15 1018 91 10000 2.57 290 19:56 20.05.2022
3570 Clear 15 1018 92 10000 3.09 110 19:24 20.05.2022
3571 Clear 15 1018 92 10000 2.57 130 18:28 20.05.2022
3572 Clear 16 1018 91 10000 2.06 240 16:51 20.05.2022
3573 Clear 17 1019 89 10000 2.57 180 15:57 20.05.2022
3574 Clear 17 1019 88 10000 2.57 180 15:39 20.05.2022
3575 Clear 17 1019 87 10000 2.06 210 14:29 20.05.2022
3576 Clear 17 1018 84 10000 2.57 190 13:44 20.05.2022
3577 Clouds 20 1017 72 10000 3.6 210 10:56 20.05.2022
3578 Clouds 21 1016 67 10000 3.6 210 09:50 20.05.2022
3579 Clouds 22 1016 69 10000 3.09 220 08:38 20.05.2022
3580 Clouds 21 1017 72 10000 3.09 210 06:45 20.05.2022
3581 Clouds 22 1018 69 10000 4.63 200 06:21 20.05.2022
3582 Clouds 18 1019 90 7000 0.51 110 03:53 20.05.2022
3583 Clouds 15 1018 91 10000 1.54 70 23:54 19.05.2022
3584 Clouds 16 1017 91 10000 2.57 70 22:44 19.05.2022
3585 Clouds 16 1017 90 10000 2.06 50 21:53 19.05.2022
3586 Clouds 16 1017 90 10000 2.57 50 21:24 19.05.2022
3587 Clouds 16 1018 90 10000 1.03 10 20:54 19.05.2022
3588 Drizzle 16 1018 90 10000 2.57 10 20:20 19.05.2022
3589 Clouds 16 1017 89 10000 2.57 20 19:25 19.05.2022
3590 Clouds 16 1018 90 10000 2.57 80 17:47 19.05.2022
3591 Clouds 16 1018 88 10000 2.57 40 16:22 19.05.2022
3592 Clouds 18 1018 83 10000 2.57 340 14:50 19.05.2022
3593 Clouds 18 1018 82 10000 2.57 340 14:21 19.05.2022
3594 Clouds 19 1016 74 10000 2.57 290 12:20 19.05.2022
3595 Clouds 21 1016 64 10000 3.6 290 10:35 19.05.2022
3596 Clouds 22 1015 61 10000 4.63 260 08:51 19.05.2022
3597 Clouds 22 1015 62 10000 3.6 280 07:33 19.05.2022
3598 Clouds 18 1017 84 10000 4.12 10 04:23 19.05.2022
3599 Clouds 11 1016 100 10000 3.09 20 01:38 19.05.2022
3600 Clouds 12 1015 95 10000 3.09 20 23:49 18.05.2022
3601 Clouds 13 1015 93 10000 3.09 10 22:45 18.05.2022
3602 Clouds 12 1015 95 10000 3.09 20 21:45 18.05.2022
3603 Clouds 11 1015 93 10000 2.57 30 21:24 18.05.2022
3604 Clear 12 1015 97 10000 2.57 30 20:22 18.05.2022
3605 Clouds 13 1015 96 10000 2.06 10 19:18 18.05.2022
3606 Clouds 14 1015 95 10000 2.57 40 18:18 18.05.2022
3607 Clear 14 1015 93 10000 2.57 70 17:40 18.05.2022
3608 Clear 14 1015 94 10000 2.57 70 17:22 18.05.2022
3609 Clouds 15 1015 91 10000 2.57 40 15:58 18.05.2022
3610 Clouds 15 1015 89 10000 2.06 60 15:35 18.05.2022
3611 Clouds 16 1014 86 10000 2.06 280 14:25 18.05.2022
3612 Clouds 17 1014 80 10000 2.57 290 12:58 18.05.2022
3613 Clouds 18 1013 77 10000 3.09 290 12:25 18.05.2022
3614 Clouds 19 1013 71 10000 4.63 270 11:33 18.05.2022
3615 Clouds 20 1012 69 10000 5.14 270 10:48 18.05.2022
3616 Clouds 21 1011 70 10000 5.14 300 08:25 18.05.2022
3617 Clouds 21 1011 76 10000 5.14 340 07:27 18.05.2022
3618 Clouds 17 1012 91 10000 5.66 20 03:59 18.05.2022
3619 Rain 15 1010 94 10000 3.09 70 00:51 18.05.2022
3620 Clear 15 1010 94 10000 2.57 50 23:41 17.05.2022
3621 Rain 15 1010 94 10000 5.14 50 21:22 17.05.2022
3622 Rain 15 1010 94 10000 3.09 40 20:44 17.05.2022
3623 Clouds 16 1010 94 10000 2.06 330 19:41 17.05.2022
3624 Rain 16 1010 94 10000 2.06 330 19:20 17.05.2022
3625 Clouds 16 1010 92 9000 8.75 70 17:34 17.05.2022
3626 Thunderstorm 16 1011 91 10000 3.6 50 16:57 17.05.2022
3627 Rain 18 1011 72 10000 0.51 20 15:58 17.05.2022
3628 Clear 18 1010 74 10000 3.09 360 14:55 17.05.2022
3629 Clear 18 1010 74 10000 2.57 70 14:28 17.05.2022
3630 Clear 20 1010 66 10000 2.06 290 12:39 17.05.2022
3631 Clear 23 1009 44 10000 4.63 300 10:39 17.05.2022
3632 Clear 25 1009 33 10000 4.12 350 08:51 17.05.2022
3633 Clear 25 1009 34 10000 4.12 360 07:46 17.05.2022
3634 Clear 23 1010 37 10000 5.66 20 06:21 17.05.2022
3635 Clear 12 1012 72 10000 5.14 70 00:47 17.05.2022
3636 Clear 13 1012 69 10000 6.69 70 23:43 16.05.2022
3637 Clear 13 1012 72 10000 5.14 50 22:33 16.05.2022
3638 Clear 13 1012 73 10000 5.66 60 21:18 16.05.2022
3639 Clear 13 1012 70 10000 5.14 70 20:37 16.05.2022
3640 Clear 14 1013 69 10000 4.63 60 18:46 16.05.2022
3641 Clear 15 1013 67 10000 4.63 60 17:18 16.05.2022
3642 Clear 15 1014 68 10000 4.63 80 15:29 16.05.2022
3643 Clear 16 1015 64 10000 4.12 80 13:45 16.05.2022
3644 Clear 17 1014 61 10000 3.09 90 12:37 16.05.2022
3645 Clear 21 1014 47 10000 4.12 50 10:36 16.05.2022
3646 Clear 22 1015 45 10000 6.17 50 07:48 16.05.2022
3647 Clear 20 1018 49 10000 8.23 30 05:44 16.05.2022
3648 Clear 10 1019 84 10000 3.09 40 00:44 16.05.2022
3649 Clear 11 1019 90 10000 3.6 40 22:42 15.05.2022
3650 Clear 11 1019 92 10000 4.12 60 21:57 15.05.2022
3651 Clear 11 1019 91 10000 3.6 60 21:36 15.05.2022
3652 Clear 12 1019 93 10000 3.6 60 20:38 15.05.2022
3653 Clouds 12 1019 94 10000 1.54 90 18:37 15.05.2022
3654 Clear 12 1020 91 10000 1.54 150 16:52 15.05.2022
3655 Clear 14 1020 84 10000 1.54 150 14:29 15.05.2022
3656 Clear 15 1020 81 10000 2.57 150 13:45 15.05.2022
3657 Clouds 17 1020 71 10000 3.09 180 11:55 15.05.2022
3658 Clouds 18 1020 65 10000 3.6 150 10:43 15.05.2022
3659 Clouds 19 1020 62 10000 4.12 180 09:46 15.05.2022
3660 Clouds 19 1021 60 10000 2.57 130 07:22 15.05.2022
3661 Clouds 19 1021 59 10000 2.06 160 06:42 15.05.2022
3662 Rain 14 1021 94 10000 2.57 40 02:43 15.05.2022
3663 Clear 13 1021 94 10000 1.54 30 00:22 15.05.2022
3664 Clouds 13 1020 94 10000 0 0 23:35 14.05.2022
3665 Clouds 14 1021 95 10000 3.6 200 21:45 14.05.2022
3666 Clouds 14 1021 95 10000 3.6 200 21:25 14.05.2022
3667 Clouds 14 1020 93 10000 2.57 270 20:25 14.05.2022
3668 Clouds 14 1020 91 10000 2.57 170 19:20 14.05.2022
3669 Clouds 15 1020 91 10000 2.06 170 18:57 14.05.2022
3670 Fog 14 1020 89 8000 2.06 20 17:44 14.05.2022
3671 Clouds 15 1020 91 10000 2.06 60 15:58 14.05.2022
3672 Clouds 16 1019 92 10000 2.57 230 14:38 14.05.2022
3673 Clouds 16 1019 91 7000 4.12 250 13:24 14.05.2022
3674 Clouds 17 1017 87 10000 6.69 240 11:42 14.05.2022
3675 Rain 18 1016 82 10000 8.23 260 10:39 14.05.2022
3676 Rain 18 1017 79 10000 8.23 260 10:18 14.05.2022
3677 Clouds 20 1016 67 10000 8.75 280 09:19 14.05.2022
3678 Clouds 21 1017 62 10000 9.77 280 07:23 14.05.2022
3679 Clouds 19 1017 63 10000 7.72 270 03:45 14.05.2022
3680 Rain 15 1015 84 10000 4.63 270 00:21 14.05.2022
3681 Clear 14 1015 86 10000 8.75 260 23:24 13.05.2022
3682 Clouds 14 1015 87 10000 3.09 260 22:54 13.05.2022
3683 Clouds 13 1015 90 10000 3.09 310 22:20 13.05.2022
3684 Rain 13 1015 94 10000 2.57 60 20:57 13.05.2022
3685 Clouds 13 1015 94 10000 3.09 60 20:30 13.05.2022
3686 Rain 13 1015 92 10000 3.6 300 19:44 13.05.2022
3687 Clouds 13 1015 92 10000 1.54 10 18:44 13.05.2022
3688 Clouds 13 1015 87 10000 2.57 130 17:29 13.05.2022
3689 Clouds 14 1015 83 10000 3.6 180 16:29 13.05.2022
3690 Clouds 14 1015 85 10000 3.6 190 15:45 13.05.2022
3691 Rain 15 1014 79 10000 2.06 190 14:24 13.05.2022
3692 Clouds 15 1013 75 10000 5.66 200 12:46 13.05.2022
3693 Clouds 16 1012 71 10000 8.75 210 11:36 13.05.2022
3694 Clouds 18 1011 60 10000 8.23 240 09:43 13.05.2022
3695 Clouds 17 1010 66 10000 8.23 240 08:51 13.05.2022
3696 Clouds 18 1010 62 10000 9.26 220 07:49 13.05.2022
3697 Clouds 17 1010 68 10000 6.17 200 06:44 13.05.2022
3698 Rain 16 1010 82 7000 5.14 190 04:48 13.05.2022
3699 Fog 10 1006 97 1000 2.06 170 00:42 13.05.2022
3700 Rain 10 1004 95 9000 1.54 20 22:47 12.05.2022
3701 Mist 10 1004 96 2700 3.09 80 21:59 12.05.2022
3702 Rain 10 1004 96 8000 2.06 330 20:38 12.05.2022
3703 Clouds 10 1003 95 8000 2.06 220 19:23 12.05.2022
3704 Clouds 11 1003 95 10000 2.57 230 17:59 12.05.2022
3705 Clouds 11 1004 93 10000 5.66 190 16:27 12.05.2022
3706 Rain 12 1004 94 10000 4.12 190 14:47 12.05.2022
3707 Rain 12 1004 94 10000 4.63 190 13:47 12.05.2022
3708 Rain 12 1003 92 10000 2.06 170 11:23 12.05.2022
3709 Rain 13 1003 90 10000 4.63 180 09:31 12.05.2022
3710 Rain 13 1003 91 10000 4.12 170 08:51 12.05.2022
3711 Rain 13 1004 90 10000 4.63 150 07:41 12.05.2022
3712 Rain 13 1005 89 10000 7.2 180 06:39 12.05.2022
3713 Rain 12 1005 93 9000 9.26 200 02:59 12.05.2022
3714 Rain 15 1005 93 10000 4.12 360 00:39 12.05.2022
3715 Rain 15 1006 91 10000 4.12 360 22:39 11.05.2022
3716 Clouds 15 1006 91 10000 4.63 10 21:52 11.05.2022
3717 Clouds 15 1007 91 10000 4.63 10 21:24 11.05.2022
3718 Rain 16 1009 89 10000 3.09 30 18:58 11.05.2022
3719 Rain 17 1010 82 10000 3.6 360 16:55 11.05.2022
3720 Clouds 18 1011 79 10000 2.57 10 15:38 11.05.2022
3721 Rain 18 1011 75 10000 1.54 330 14:39 11.05.2022
3722 Clouds 19 1011 75 10000 1.54 330 14:19 11.05.2022
3723 Rain 19 1010 68 10000 3.09 290 11:54 11.05.2022
3724 Clouds 20 1010 66 10000 4.12 290 11:23 11.05.2022
3725 Clouds 22 1011 60 10000 4.63 290 08:46 11.05.2022
3726 Clouds 21 1014 64 10000 3.09 350 05:31 11.05.2022
3727 Clouds 21 1014 64 10000 3.09 350 05:31 11.05.2022
3728 Clouds 12 1015 96 10000 2.06 10 01:23 11.05.2022
3729 Clouds 12 1015 97 10000 3.09 40 22:32 10.05.2022
3730 Clouds 12 1015 96 10000 2.57 40 21:57 10.05.2022
3731 Clouds 10 1015 96 10000 2.06 360 20:58 10.05.2022
3732 Clouds 9 1015 96 10000 1.54 10 19:47 10.05.2022
3733 Clear 12 1016 93 10000 2.06 80 17:59 10.05.2022
3734 Clear 12 1016 93 10000 0 0 17:29 10.05.2022
3735 Clear 14 1017 88 10000 2.57 80 15:41 10.05.2022
3736 Clouds 18 1016 77 10000 3.09 240 12:47 10.05.2022
3737 Clouds 19 1016 71 10000 4.63 220 11:51 10.05.2022
3738 Clear 20 1015 69 10000 5.66 230 11:21 10.05.2022
3739 Clear 21 1015 66 10000 6.69 250 10:53 10.05.2022
3740 Clear 22 1014 58 10000 7.2 250 09:26 10.05.2022
3741 Clear 23 1015 51 10000 4.63 270 07:22 10.05.2022
3742 Clear 20 1016 59 10000 3.09 150 03:57 10.05.2022
3743 Clear 13 1017 90 10000 3.09 190 00:57 10.05.2022
3744 Clear 12 1016 90 10000 1.54 160 22:57 09.05.2022
3745 Clear 13 1016 93 10000 2.06 150 21:51 09.05.2022
3746 Clear 13 1017 92 10000 2.57 130 20:54 09.05.2022
3747 Clear 13 1018 90 10000 2.57 100 19:23 09.05.2022
3748 Clear 14 1018 88 10000 0.51 340 17:51 09.05.2022
3749 Clear 16 1018 84 10000 2.57 180 16:33 09.05.2022
3750 Clear 16 1018 82 10000 3.09 210 15:52 09.05.2022
3751 Clear 17 1018 82 10000 3.6 190 15:21 09.05.2022
3752 Clear 18 1018 78 10000 4.63 190 14:29 09.05.2022
3753 Clear 18 1018 76 10000 4.63 200 13:49 09.05.2022
3754 Clear 20 1018 69 10000 4.63 220 12:21 09.05.2022
3755 Clear 22 1017 58 10000 5.66 230 11:18 09.05.2022
3756 Clear 23 1016 52 10000 4.12 230 10:42 09.05.2022
3757 Clear 25 1017 45 10000 3.6 240 08:36 09.05.2022
3758 Clouds 25 1017 42 10000 2.06 240 07:53 09.05.2022
3759 Mist 17 1020 82 10000 5.66 60 03:19 09.05.2022
3760 Clear 12 1019 97 10000 2.06 60 23:34 08.05.2022
3761 Clear 11 1018 94 10000 0 0 22:55 08.05.2022
3762 Clear 11 1018 95 10000 1.54 360 21:55 08.05.2022
3763 Clear 11 1018 95 10000 1.54 360 21:55 08.05.2022
3764 Clear 12 1018 95 10000 1.03 30 20:35 08.05.2022
3765 Clear 13 1018 91 10000 0 0 19:44 08.05.2022
3766 Clear 13 1018 90 10000 0 0 18:54 08.05.2022
3767 Clear 14 1018 90 10000 0 0 17:57 08.05.2022
3768 Clear 15 1018 86 10000 2.57 190 16:42 08.05.2022
3769 Clear 16 1018 83 10000 2.57 220 15:26 08.05.2022
3770 Clear 17 1017 77 10000 3.09 200 14:39 08.05.2022
3771 Clear 20 1015 58 10000 4.12 210 12:21 08.05.2022
3772 Clear 23 1014 42 10000 6.17 220 10:27 08.05.2022
3773 Clear 24 1014 42 10000 5.66 230 09:56 08.05.2022
3774 Clear 25 1013 32 10000 5.14 250 08:52 08.05.2022
3775 Clear 26 1015 29 10000 3.6 240 06:51 08.05.2022
3776 Haze 19 1016 42 10000 2.06 40 03:25 08.05.2022
3777 Clear 15 1016 53 10000 3.09 50 02:23 08.05.2022
3778 Haze 11 1015 61 10000 3.09 10 00:20 08.05.2022
3779 Rain 12 1015 59 10000 3.09 60 23:46 07.05.2022
3780 Clear 12 1016 63 10000 2.06 80 22:46 07.05.2022
3781 Haze 12 1015 58 10000 2.57 10 21:57 07.05.2022
3782 Haze 12 1016 57 10000 2.06 40 21:32 07.05.2022
3783 Haze 12 1016 58 10000 2.57 50 20:27 07.05.2022
3784 Haze 12 1016 59 10000 2.57 10 18:59 07.05.2022
3785 Haze 11 1017 63 10000 1.54 20 17:31 07.05.2022
3786 Clear 14 1017 60 10000 1.54 50 15:18 07.05.2022
3787 Clear 19 1016 48 10000 3.09 250 12:23 07.05.2022
3788 Clear 25 1015 26 10000 1.03 10 10:18 07.05.2022
3789 Clear 25 1015 24 10000 2.57 10 08:34 07.05.2022
3790 Clear 25 1016 25 10000 2.57 60 07:30 07.05.2022
3791 Clear 24 1017 28 10000 4.12 30 06:42 07.05.2022
3792 Clear 20 1020 35 10000 5.66 30 04:19 07.05.2022
3793 Clear 11 1020 55 10000 4.12 70 00:45 07.05.2022
3794 Clear 12 1019 54 10000 3.6 70 22:40 06.05.2022
3795 Clear 12 1019 53 10000 3.6 70 21:54 06.05.2022
3796 Clear 12 1019 52 10000 3.09 60 21:30 06.05.2022
3797 Clear 13 1019 47 10000 3.6 60 19:48 06.05.2022
3798 Clear 13 1019 46 10000 3.6 50 19:25 06.05.2022
3799 Clear 13 1020 50 10000 4.12 50 18:34 06.05.2022
3800 Clear 14 1020 47 10000 4.12 70 17:36 06.05.2022
3801 Clear 14 1021 49 10000 2.57 40 15:53 06.05.2022
3802 Clear 14 1021 49 10000 3.09 80 15:28 06.05.2022
3803 Clear 15 1020 44 10000 3.6 90 13:49 06.05.2022
3804 Clear 17 1020 39 10000 3.6 100 12:50 06.05.2022
3805 Clear 20 1019 33 10000 4.63 60 11:58 06.05.2022
3806 Clear 22 1018 28 10000 6.17 80 10:41 06.05.2022
3807 Clear 23 1019 29 10000 5.66 90 09:47 06.05.2022
3808 Clear 23 1019 29 10000 5.66 90 09:18 06.05.2022
3809 Clear 22 1019 31 10000 5.14 50 07:40 06.05.2022
3810 Clear 21 1021 35 10000 6.69 70 06:25 06.05.2022
3811 Clear 15 1023 51 10000 7.72 40 02:54 06.05.2022
3812 Clear 13 1024 55 10000 6.69 50 01:58 06.05.2022
3813 Clear 12 1023 59 10000 4.63 70 22:50 05.05.2022
3814 Clear 13 1023 58 10000 5.14 50 21:46 05.05.2022
3815 Clear 13 1023 55 10000 6.17 70 20:34 05.05.2022
3816 Clear 14 1023 50 10000 3.6 70 18:43 05.05.2022
3817 Clear 15 1023 46 10000 4.12 60 16:40 05.05.2022
3818 Clear 15 1022 44 10000 2.57 70 14:55 05.05.2022
3819 Clear 16 1023 41 10000 3.6 80 13:27 05.05.2022
3820 Clear 17 1023 40 10000 3.6 90 12:54 05.05.2022
3821 Clear 20 1022 34 10000 6.69 80 10:59 05.05.2022
3822 Clear 21 1022 32 10000 7.72 90 09:40 05.05.2022
3823 Clear 21 1022 34 10000 9.77 90 08:30 05.05.2022
3824 Clear 19 1025 39 10000 9.26 70 05:44 05.05.2022
3825 Clear 14 1028 52 10000 6.69 90 02:20 05.05.2022
3826 Clear 12 1027 56 10000 7.72 80 01:35 05.05.2022
3827 Clear 12 1027 56 10000 7.72 70 23:55 04.05.2022
3828 Clear 13 1026 56 10000 6.69 70 22:50 04.05.2022
3829 Clear 13 1026 56 10000 7.2 80 21:59 04.05.2022
3830 Clear 13 1026 56 10000 7.2 90 21:29 04.05.2022
3831 Clear 13 1026 57 10000 7.72 90 20:30 04.05.2022
3832 Clear 13 1027 56 10000 7.72 80 19:55 04.05.2022
3833 Clear 13 1027 55 10000 7.2 80 19:24 04.05.2022
3834 Clear 14 1027 55 10000 7.2 90 18:22 04.05.2022
3835 Clouds 14 1027 54 10000 6.17 80 17:58 04.05.2022
3836 Clear 15 1027 51 10000 6.69 110 15:42 04.05.2022
3837 Clear 15 1027 50 10000 7.72 110 15:24 04.05.2022
3838 Clear 16 1027 48 10000 5.14 110 14:21 04.05.2022
3839 Clear 16 1027 47 10000 5.66 120 13:49 04.05.2022
3840 Clear 17 1026 44 10000 6.69 110 12:33 04.05.2022
3841 Clear 19 1025 40 10000 8.23 120 10:43 04.05.2022
3842 Clear 20 1025 42 10000 7.72 110 09:44 04.05.2022
3843 Clear 20 1025 44 10000 7.2 120 08:48 04.05.2022
3844 Clouds 19 1026 49 10000 7.72 100 06:49 04.05.2022
3845 Clouds 15 1029 65 10000 7.72 90 02:59 04.05.2022
3846 Clouds 12 1028 76 10000 4.63 110 00:48 04.05.2022
3847 Clear 12 1027 75 10000 5.14 140 22:50 03.05.2022
3848 Clear 12 1027 70 10000 7.72 130 21:46 03.05.2022
3849 Clear 12 1027 66 10000 7.72 120 20:56 03.05.2022
3850 Clear 13 1026 65 10000 5.66 120 20:30 03.05.2022
3851 Clear 13 1027 62 10000 4.63 140 18:54 03.05.2022
3852 Clear 14 1027 63 10000 6.69 140 18:21 03.05.2022
3853 Clear 14 1026 67 10000 4.63 140 17:19 03.05.2022
3854 Clear 14 1026 67 10000 4.12 150 15:43 03.05.2022
3855 Clear 17 1025 56 10000 4.63 160 13:28 03.05.2022
3856 Clear 19 1024 52 10000 6.17 160 12:27 03.05.2022
3857 Clear 21 1022 46 10000 7.2 170 10:57 03.05.2022
3858 Clear 22 1022 43 10000 6.17 190 09:35 03.05.2022
3859 Clouds 22 1022 47 10000 4.12 180 07:33 03.05.2022
3860 Clouds 21 1023 49 10000 5.14 170 06:45 03.05.2022
3861 Clear 14 1024 86 10000 4.63 200 01:52 03.05.2022
3862 Clouds 14 1022 87 10000 3.09 180 22:44 02.05.2022
3863 Clouds 14 1022 89 10000 3.09 180 21:54 02.05.2022
3864 Clouds 14 1022 90 10000 3.6 190 21:23 02.05.2022
3865 Clear 15 1022 86 10000 5.14 200 18:46 02.05.2022
3866 Clear 16 1021 86 10000 4.63 200 18:25 02.05.2022
3867 Clouds 16 1021 88 10000 4.63 210 17:37 02.05.2022
3868 Clear 17 1021 88 10000 3.09 200 16:23 02.05.2022
3869 Clouds 18 1021 85 10000 4.63 180 15:31 02.05.2022
3870 Clouds 18 1020 83 10000 5.14 200 13:52 02.05.2022
3871 Clouds 19 1019 76 10000 4.12 220 12:20 02.05.2022
3872 Clouds 21 1018 66 10000 5.66 230 10:51 02.05.2022
3873 Clouds 23 1018 59 10000 6.17 240 09:30 02.05.2022
3874 Clouds 24 1018 52 10000 5.66 230 07:52 02.05.2022
3875 Clouds 21 1021 61 10000 2.57 140 04:36 02.05.2022
3876 Clear 9 1020 97 10000 0 0 00:25 02.05.2022
3877 Clear 9 1020 99 10000 2.06 20 23:52 01.05.2022
3878 Clear 10 1020 95 10000 1.03 170 22:33 01.05.2022
3879 Clear 11 1020 94 10000 2.06 170 21:22 01.05.2022
3880 Clear 12 1020 89 10000 0 0 19:53 01.05.2022
3881 Clear 13 1020 87 10000 2.06 190 18:58 01.05.2022
3882 Clear 14 1020 87 10000 2.06 180 18:28 01.05.2022
3883 Clear 15 1021 82 10000 2.57 210 17:29 01.05.2022
3884 Clear 16 1021 78 10000 4.12 200 16:23 01.05.2022
3885 Clear 17 1020 72 10000 5.14 200 15:25 01.05.2022
3886 Clear 18 1020 64 10000 3.6 210 13:47 01.05.2022
3887 Clear 22 1019 43 10000 3.6 260 11:23 01.05.2022
3888 Clear 25 1018 36 10000 4.63 250 08:53 01.05.2022
3889 Clear 25 1019 36 10000 4.63 250 08:34 01.05.2022
3890 Clear 20 1023 55 10000 2.06 110 03:35 01.05.2022
3891 Clear 11 1022 82 10000 3.09 120 00:18 01.05.2022
3892 Clear 13 1022 81 10000 3.09 110 21:47 30.04.2022
3893 Clear 13 1023 78 10000 4.12 130 20:58 30.04.2022
3894 Clear 12 1023 81 10000 1.54 180 19:41 30.04.2022
3895 Clear 13 1024 80 10000 2.06 190 18:21 30.04.2022
3896 Clear 14 1023 74 10000 0 0 16:44 30.04.2022
3897 Clear 15 1024 71 10000 3.09 170 15:46 30.04.2022
3898 Clear 17 1024 65 10000 4.12 210 14:43 30.04.2022
3899 Clear 18 1023 61 10000 4.63 210 12:42 30.04.2022
3900 Clear 20 1023 53 10000 5.66 210 11:34 30.04.2022
3901 Clear 22 1022 48 10000 6.17 210 10:44 30.04.2022
3902 Clear 24 1022 40 10000 3.09 200 09:25 30.04.2022
3903 Clear 23 1024 37 10000 3.6 100 06:43 30.04.2022
3904 Clear 12 1026 76 10000 3.6 70 01:53 30.04.2022
3905 Clear 10 1025 81 10000 3.6 110 23:37 29.04.2022
3906 Clear 11 1025 79 10000 2.57 110 22:31 29.04.2022
3907 Clear 11 1025 84 10000 3.09 110 21:34 29.04.2022
3908 Clear 12 1025 81 10000 2.57 120 20:40 29.04.2022
3909 Clear 11 1025 84 10000 2.06 130 19:45 29.04.2022
3910 Clear 12 1025 85 10000 1.54 150 17:55 29.04.2022
3911 Clear 13 1026 85 10000 2.06 190 17:21 29.04.2022
3912 Clear 15 1025 78 10000 3.6 180 15:23 29.04.2022
3913 Clear 16 1025 75 10000 4.63 190 14:22 29.04.2022
3914 Clear 17 1024 69 10000 4.63 210 12:52 29.04.2022
3915 Clear 19 1023 62 10000 5.66 250 11:40 29.04.2022
3916 Clear 22 1023 44 10000 3.6 170 08:46 29.04.2022
3917 Clouds 22 1023 45 10000 3.6 170 07:27 29.04.2022
3918 Clouds 21 1023 47 10000 3.6 130 06:38 29.04.2022
3919 Clear 19 1024 58 10000 5.66 90 04:43 29.04.2022
3920 Clear 8 1023 97 10000 3.09 50 00:19 29.04.2022
3921 Clear 8 1022 96 10000 0 0 23:27 28.04.2022
3922 Clear 8 1022 96 10000 0 0 22:41 28.04.2022
3923 Clear 9 1021 92 10000 0 0 21:46 28.04.2022
3924 Clear 9 1020 95 10000 1.54 90 20:55 28.04.2022
3925 Clear 10 1020 87 10000 2.06 90 20:24 28.04.2022
3926 Clear 10 1020 88 10000 1.03 150 19:41 28.04.2022
3927 Clear 11 1020 88 10000 1.03 150 19:21 28.04.2022
3928 Clear 11 1020 87 10000 1.54 160 18:35 28.04.2022
3929 Clear 13 1019 80 10000 3.6 190 16:59 28.04.2022
3930 Clear 13 1019 79 10000 3.6 210 16:22 28.04.2022
3931 Clear 14 1019 78 10000 2.57 190 15:57 28.04.2022
3932 Clear 14 1019 76 10000 3.09 200 15:27 28.04.2022
3933 Clear 16 1017 66 10000 3.6 210 13:44 28.04.2022
3934 Clear 17 1016 63 10000 4.63 210 12:42 28.04.2022
3935 Clear 18 1015 59 10000 7.2 200 11:53 28.04.2022
3936 Clouds 20 1014 54 10000 7.72 200 10:37 28.04.2022
3937 Clear 21 1013 54 10000 6.69 230 09:52 28.04.2022
3938 Clouds 21 1013 50 10000 7.72 210 08:30 28.04.2022
3939 Clouds 20 1013 62 10000 7.2 190 06:58 28.04.2022
3940 Clouds 19 1013 73 10000 8.23 170 05:55 28.04.2022
3941 Rain 17 1013 91 10000 7.2 180 04:50 28.04.2022
3942 Rain 16 1013 94 10000 7.72 200 04:31 28.04.2022
3943 Clouds 12 1010 100 10000 2.06 40 23:59 27.04.2022
3944 Clouds 13 1010 93 10000 4.12 360 22:34 27.04.2022
3945 Rain 13 1010 93 10000 3.6 10 21:51 27.04.2022
3946 Clouds 13 1010 94 10000 3.6 10 20:56 27.04.2022
3947 Rain 13 1010 94 10000 2.57 50 20:34 27.04.2022
3948 Rain 13 1010 94 10000 2.57 50 20:34 27.04.2022
3949 Clouds 14 1010 94 10000 2.57 20 19:37 27.04.2022
3950 Clouds 14 1010 94 10000 3.09 30 18:52 27.04.2022
3951 Clouds 14 1009 93 5000 4.12 350 18:21 27.04.2022
3952 Rain 15 1009 93 10000 2.57 70 16:27 27.04.2022
3953 Rain 15 1008 90 10000 2.57 50 14:26 27.04.2022
3954 Rain 16 1006 84 10000 3.6 210 11:45 27.04.2022
3955 Rain 17 1006 84 4000 4.63 230 11:20 27.04.2022
3956 Rain 19 1004 68 10000 7.2 220 08:58 27.04.2022
3957 Clouds 20 1004 59 10000 6.17 220 06:45 27.04.2022
3958 Clouds 18 1003 71 10000 3.09 210 03:41 27.04.2022
3959 Clear 13 1001 93 10000 0.51 160 01:30 27.04.2022
3960 Clear 14 1001 92 10000 2.06 70 00:36 27.04.2022
3961 Clouds 14 1000 92 10000 3.6 190 23:25 26.04.2022
3962 Clouds 14 999 91 10000 3.6 210 22:52 26.04.2022
3963 Rain 14 999 91 10000 4.12 170 22:34 26.04.2022
3964 Rain 15 999 92 10000 3.6 180 21:26 26.04.2022
3965 Rain 15 999 92 10000 3.6 60 20:40 26.04.2022
3966 Rain 15 999 91 10000 3.6 50 19:48 26.04.2022
3967 Rain 15 1000 91 10000 5.14 60 19:26 26.04.2022
3968 Rain 15 999 93 10000 3.09 70 18:42 26.04.2022
3969 Rain 15 1000 93 10000 2.57 80 17:50 26.04.2022
3970 Rain 15 1002 91 10000 0 0 16:19 26.04.2022
3971 Rain 16 1002 86 10000 4.63 160 13:58 26.04.2022
3972 Clouds 16 1002 83 10000 5.14 190 13:29 26.04.2022
3973 Rain 20 1001 62 10000 3.09 250 11:29 26.04.2022
3974 Clouds 21 1001 58 10000 3.6 240 10:31 26.04.2022
3975 Clouds 22 1001 53 10000 5.14 270 08:38 26.04.2022
3976 Clouds 21 1004 56 10000 5.66 260 05:29 26.04.2022
3977 Clouds 20 1004 58 10000 5.66 280 04:23 26.04.2022
3978 Clouds 16 1003 83 10000 7.2 260 00:52 26.04.2022
3979 Clouds 16 1003 90 10000 2.57 340 23:51 25.04.2022
3980 Clouds 16 1003 89 10000 10.29 260 21:57 25.04.2022
3981 Rain 16 1002 88 10000 4.63 280 21:33 25.04.2022
3982 Clouds 17 1002 89 10000 4.63 260 19:58 25.04.2022
3983 Clouds 17 1002 92 9000 5.14 270 18:48 25.04.2022
3984 Rain 17 1002 95 7000 4.12 20 17:40 25.04.2022
3985 Rain 17 1003 91 7000 4.63 310 16:42 25.04.2022
3986 Rain 19 1004 78 10000 9.77 260 15:22 25.04.2022
3987 Rain 20 1003 76 10000 13.38 250 14:32 25.04.2022
3988 Rain 23 1001 72 10000 5.66 330 12:47 25.04.2022
3989 Clear 26 1001 42 10000 4.63 290 10:42 25.04.2022
3990 Clear 28 1003 34 10000 4.63 310 09:41 25.04.2022
3991 Clear 29 1005 27 10000 5.66 360 07:38 25.04.2022
3992 Clouds 28 1006 29 10000 6.17 20 05:54 25.04.2022
3993 Clear 20 1010 48 10000 4.63 70 01:28 25.04.2022
3994 Clear 19 1010 48 10000 5.14 70 23:54 24.04.2022
3995 Clear 19 1009 47 10000 5.14 60 23:22 24.04.2022
3996 Clear 20 1009 46 10000 6.17 70 22:38 24.04.2022
3997 Clouds 20 1010 45 10000 7.72 70 21:54 24.04.2022
3998 Clear 20 1010 43 10000 6.69 80 21:21 24.04.2022
3999 Clear 21 1010 41 10000 7.2 80 20:41 24.04.2022
4000 Clear 21 1010 39 10000 7.2 70 19:57 24.04.2022
4001 Clear 21 1012 39 10000 7.72 80 18:33 24.04.2022
4002 Clouds 21 1012 41 10000 7.72 90 17:41 24.04.2022
4003 Clear 21 1012 41 10000 8.23 90 17:20 24.04.2022
4004 Clear 21 1012 41 10000 7.2 90 16:51 24.04.2022
4005 Clear 21 1012 42 10000 7.2 90 16:22 24.04.2022
4006 Clear 21 1013 42 10000 4.63 90 15:36 24.04.2022
4007 Clear 21 1013 45 10000 4.12 110 14:30 24.04.2022
4008 Clear 22 1013 43 10000 3.09 110 13:26 24.04.2022
4009 Clear 24 1013 37 10000 3.6 110 12:44 24.04.2022
4010 Clear 26 1013 32 10000 3.09 90 11:44 24.04.2022
4011 Clear 28 1013 27 10000 4.12 80 10:32 24.04.2022
4012 Clear 28 1013 27 10000 5.14 100 09:39 24.04.2022
4013 Clouds 28 1014 31 10000 5.14 80 07:31 24.04.2022
4014 Clear 24 1017 44 10000 6.69 80 04:44 24.04.2022
4015 Clear 16 1018 68 10000 6.69 70 01:39 24.04.2022
4016 Clear 15 1018 72 10000 7.2 60 00:33 24.04.2022
4017 Clear 16 1018 69 10000 7.72 80 23:45 23.04.2022
4018 Clear 16 1018 69 10000 7.72 80 23:22 23.04.2022
4019 Clear 16 1018 64 10000 6.69 70 21:54 23.04.2022
4020 Clear 16 1018 63 10000 6.69 70 21:34 23.04.2022
4021 Clear 17 1018 60 10000 8.23 90 20:57 23.04.2022
4022 Clear 17 1019 53 10000 8.23 100 19:48 23.04.2022
4023 Clear 18 1019 51 10000 8.23 100 19:19 23.04.2022
4024 Clear 18 1019 51 10000 7.72 100 18:52 23.04.2022
4025 Clear 18 1019 50 10000 6.17 100 17:51 23.04.2022
4026 Clear 19 1019 50 10000 6.17 100 17:26 23.04.2022
4027 Clear 18 1019 50 10000 5.66 110 16:41 23.04.2022
4028 Clear 18 1019 51 10000 4.12 110 15:20 23.04.2022
4029 Clear 22 1019 40 10000 4.12 130 12:44 23.04.2022
4030 Clear 25 1018 31 10000 7.2 100 10:44 23.04.2022
4031 Clear 26 1018 30 10000 6.17 80 09:33 23.04.2022
4032 Clear 25 1020 37 10000 7.72 70 06:32 23.04.2022
4033 Clear 20 1022 52 10000 8.75 80 03:54 23.04.2022
4034 Clear 15 1023 71 10000 7.72 80 00:57 23.04.2022
4035 Clear 15 1022 68 10000 9.77 90 23:29 22.04.2022
4036 Clear 16 1022 67 10000 10.29 90 22:20 22.04.2022
4037 Clear 16 1022 64 10000 10.8 100 21:42 22.04.2022
4038 Clear 16 1022 62 10000 10.8 100 20:46 22.04.2022
4039 Clear 17 1022 60 10000 10.29 100 20:26 22.04.2022
4040 Clear 17 1022 56 10000 9.77 100 19:18 22.04.2022
4041 Clear 18 1022 54 10000 8.75 100 18:41 22.04.2022
4042 Clear 19 1022 51 10000 7.72 100 17:40 22.04.2022
4043 Clear 19 1022 50 10000 7.2 100 16:46 22.04.2022
4044 Clear 20 1023 48 10000 7.2 110 15:32 22.04.2022
4045 Clear 20 1022 48 10000 7.2 110 14:44 22.04.2022
4046 Clear 21 1022 47 10000 4.12 120 13:49 22.04.2022
4047 Clear 22 1021 45 10000 4.63 110 12:57 22.04.2022
4048 Clear 24 1021 40 10000 4.63 100 11:48 22.04.2022
4049 Clear 24 1021 38 10000 5.66 100 11:21 22.04.2022
4050 Clear 25 1020 37 10000 6.69 120 10:48 22.04.2022
4051 Clear 26 1020 36 10000 6.69 90 10:29 22.04.2022
4052 Clouds 26 1020 35 9000 6.17 90 09:50 22.04.2022
4053 Clouds 26 1020 36 10000 7.72 100 08:50 22.04.2022
4054 Clear 25 1022 42 10000 6.17 100 06:56 22.04.2022
4055 Clear 16 1024 69 10000 10.29 100 01:53 22.04.2022
4056 Clear 15 1024 72 10000 9.26 90 23:53 21.04.2022
4057 Clear 15 1024 71 10000 7.72 90 22:59 21.04.2022
4058 Clear 15 1023 70 10000 8.75 90 21:59 21.04.2022
4059 Clear 16 1023 67 10000 10.29 100 20:34 21.04.2022
4060 Clear 16 1024 67 10000 10.8 100 19:53 21.04.2022
4061 Clear 17 1024 64 10000 10.8 100 18:35 21.04.2022
4062 Clear 18 1024 61 10000 11.32 100 17:49 21.04.2022
4063 Clouds 20 1023 52 10000 9.77 100 16:28 21.04.2022
4064 Clear 20 1023 49 10000 8.75 110 15:20 21.04.2022
4065 Clear 21 1022 49 10000 7.72 110 14:38 21.04.2022
4066 Clear 22 1022 48 10000 5.14 110 13:23 21.04.2022
4067 Clear 22 1022 48 10000 5.14 110 13:23 21.04.2022
4068 Clear 23 1021 45 10000 4.63 130 12:36 21.04.2022
4069 Smoke 26 1020 38 4000 6.69 140 10:20 21.04.2022
4070 Clear 27 1020 37 10000 5.66 120 08:53 21.04.2022
4071 Clear 25 1021 42 10000 6.17 100 06:55 21.04.2022
4072 Clear 22 1023 53 10000 6.69 90 04:36 21.04.2022
4073 Clear 19 1025 62 10000 6.69 110 03:24 21.04.2022
4074 Clear 18 1025 68 10000 6.69 100 02:46 21.04.2022
4075 Clear 15 1024 80 10000 5.66 100 00:43 21.04.2022
4076 Clear 15 1024 79 10000 6.17 100 23:48 20.04.2022
4077 Clear 15 1024 78 10000 5.66 100 23:21 20.04.2022
4078 Clear 15 1023 77 10000 6.17 100 22:45 20.04.2022
4079 Clear 15 1023 75 10000 5.66 110 22:18 20.04.2022
4080 Clear 16 1023 70 10000 7.72 90 21:23 20.04.2022
4081 Clear 17 1023 64 10000 8.75 100 20:22 20.04.2022
4082 Clear 17 1023 61 10000 8.23 100 19:51 20.04.2022
4083 Clear 17 1023 60 10000 4.63 100 18:52 20.04.2022
4084 Clear 18 1023 62 10000 5.66 100 17:53 20.04.2022
4085 Clear 17 1022 68 10000 3.6 110 16:40 20.04.2022
4086 Clear 18 1022 69 10000 4.12 120 15:39 20.04.2022
4087 Clear 20 1021 67 10000 3.6 200 12:47 20.04.2022
4088 Clear 23 1021 58 10000 4.63 240 11:42 20.04.2022
4089 Clear 24 1020 51 10000 4.63 250 10:53 20.04.2022
4090 Clouds 25 1021 43 10000 3.09 110 09:45 20.04.2022
4091 Clouds 25 1021 46 10000 2.57 170 08:54 20.04.2022
4092 Clouds 24 1021 47 10000 3.6 90 08:20 20.04.2022
4093 Clouds 23 1022 54 10000 6.17 100 06:26 20.04.2022
4094 Clouds 18 1024 72 10000 6.69 110 02:58 20.04.2022
4095 Clear 15 1023 81 10000 4.63 100 00:22 20.04.2022
4096 Clear 15 1023 80 10000 5.14 100 23:31 19.04.2022
4097 Clear 15 1022 76 10000 0 0 22:24 19.04.2022
4098 Clear 15 1022 78 10000 2.06 20 21:55 19.04.2022
4099 Clear 15 1022 76 10000 2.57 20 21:18 19.04.2022
4100 Clear 15 1022 75 10000 1.54 250 20:37 19.04.2022
4101 Clear 16 1022 76 10000 2.57 120 19:43 19.04.2022
4102 Clear 16 1021 72 10000 3.09 130 18:37 19.04.2022
4103 Clear 17 1022 70 10000 3.09 20 17:24 19.04.2022
4104 Clear 18 1022 68 10000 3.6 120 16:42 19.04.2022
4105 Clear 18 1022 68 10000 3.6 120 16:42 19.04.2022
4106 Clear 18 1022 67 10000 3.6 120 16:20 19.04.2022
4107 Clear 19 1022 65 10000 4.63 180 14:47 19.04.2022
4108 Clear 20 1021 64 10000 4.63 170 13:22 19.04.2022
4109 Clear 21 1020 63 10000 4.63 220 12:49 19.04.2022
4110 Clear 22 1020 61 10000 7.2 220 11:38 19.04.2022
4111 Clear 24 1020 51 10000 6.69 240 09:52 19.04.2022
4112 Clear 26 1020 42 10000 5.14 230 08:23 19.04.2022
4113 Clear 22 1024 53 10000 4.63 90 04:26 19.04.2022
4114 Clear 17 1024 78 10000 1.54 140 02:41 19.04.2022
4115 Clear 12 1024 88 10000 2.06 330 00:23 19.04.2022
4116 Clear 12 1023 87 9000 0 0 22:54 18.04.2022
4117 Clear 12 1023 88 10000 0 0 21:28 18.04.2022
4118 Clear 12 1024 86 6000 2.06 40 20:40 18.04.2022
4119 Clear 12 1024 85 10000 1.03 340 20:22 18.04.2022
4120 Clear 12 1024 85 10000 0 0 19:41 18.04.2022
4121 Clear 13 1024 83 10000 0 0 18:52 18.04.2022
4122 Clear 14 1024 80 10000 2.57 190 17:49 18.04.2022
4123 Clear 14 1024 80 10000 2.57 190 17:49 18.04.2022
4124 Clear 14 1024 78 10000 2.57 190 17:20 18.04.2022
4125 Clear 15 1024 75 10000 2.57 180 16:40 18.04.2022
4126 Clear 17 1023 71 10000 6.17 190 15:43 18.04.2022
4127 Clouds 17 1023 67 10000 6.69 190 14:28 18.04.2022
4128 Clear 18 1023 64 10000 7.2 200 13:25 18.04.2022
4129 Clear 19 1022 63 10000 6.17 200 12:27 18.04.2022
4130 Clear 21 1021 52 10000 7.2 230 10:59 18.04.2022
4131 Clear 22 1021 46 10000 6.69 210 10:18 18.04.2022
4132 Clear 23 1021 39 10000 3.6 210 09:30 18.04.2022
4133 Clear 23 1022 38 10000 3.6 160 07:29 18.04.2022
4134 Clear 19 1025 53 10000 3.09 50 03:51 18.04.2022
4135 Clear 10 1024 80 10000 2.06 330 23:41 17.04.2022
4136 Clear 11 1023 78 10000 0 0 22:39 17.04.2022
4137 Clear 11 1023 77 10000 3.6 190 21:39 17.04.2022
4138 Clear 11 1023 76 10000 3.6 190 21:19 17.04.2022
4139 Clear 12 1023 76 10000 3.6 210 20:25 17.04.2022
4140 Clear 12 1023 74 10000 3.09 200 19:20 17.04.2022
4141 Clear 14 1023 69 10000 3.09 170 17:34 17.04.2022
4142 Clear 16 1022 61 10000 5.14 190 15:37 17.04.2022
4143 Clear 16 1021 60 10000 7.2 190 14:53 17.04.2022
4144 Clear 18 1021 57 10000 6.69 210 13:41 17.04.2022
4145 Clear 18 1020 55 10000 6.69 230 12:52 17.04.2022
4146 Clear 20 1018 49 10000 6.69 220 11:22 17.04.2022
4147 Clear 21 1018 45 10000 4.63 200 10:30 17.04.2022
4148 Clear 22 1018 41 10000 4.12 200 09:57 17.04.2022
4149 Clear 22 1018 40 10000 5.66 210 09:21 17.04.2022
4150 Clear 22 1018 40 10000 6.17 180 08:41 17.04.2022
4151 Clear 22 1019 43 10000 7.2 160 06:52 17.04.2022
4152 Clouds 17 1021 74 10000 3.6 120 02:56 17.04.2022
4153 Clear 13 1019 89 10000 3.6 180 00:43 17.04.2022
4154 Clear 14 1018 89 10000 3.6 200 23:41 16.04.2022
4155 Clear 15 1018 85 10000 4.63 190 21:54 16.04.2022
4156 Clear 15 1018 85 10000 3.6 200 21:19 16.04.2022
4157 Clear 16 1017 82 10000 5.14 180 19:30 16.04.2022
4158 Clear 17 1017 79 10000 5.14 190 18:44 16.04.2022
4159 Clear 18 1016 78 10000 5.14 190 17:21 16.04.2022
4160 Clouds 19 1016 80 10000 3.6 190 16:30 16.04.2022
4161 Clouds 19 1016 79 10000 4.12 210 14:59 16.04.2022
4162 Clear 19 1016 78 10000 5.14 210 14:41 16.04.2022
4163 Clear 20 1015 77 10000 4.63 210 13:50 16.04.2022
4164 Clouds 20 1015 75 10000 5.14 220 13:18 16.04.2022
4165 Clouds 21 1014 68 10000 7.72 230 11:50 16.04.2022
4166 Clear 23 1013 56 10000 9.77 210 10:35 16.04.2022
4167 Clear 24 1013 54 10000 9.77 230 09:37 16.04.2022
4168 Clear 25 1013 51 10000 9.26 210 08:52 16.04.2022
4169 Clear 25 1014 51 10000 8.23 240 07:23 16.04.2022
4170 Clear 25 1015 49 10000 6.17 220 05:45 16.04.2022
4171 Clear 16 1015 91 10000 2.57 30 01:49 16.04.2022
4172 Clear 14 1014 92 10000 0 0 23:52 15.04.2022
4173 Clear 15 1014 93 10000 0 0 22:51 15.04.2022
4174 Clear 15 1014 94 10000 0.51 160 22:29 15.04.2022
4175 Clear 15 1014 91 10000 1.03 200 21:25 15.04.2022
4176 Clear 16 1014 89 10000 2.57 210 20:38 15.04.2022
4177 Clear 16 1014 86 10000 2.06 190 19:45 15.04.2022
4178 Clear 17 1015 84 10000 2.06 180 18:59 15.04.2022
4179 Clear 17 1015 83 10000 2.57 190 18:41 15.04.2022
4180 Clear 17 1015 82 10000 2.57 190 18:21 15.04.2022
4181 Clear 18 1015 77 10000 2.06 200 17:26 15.04.2022
4182 Clear 19 1015 75 10000 3.09 210 16:25 15.04.2022
4183 Clear 20 1015 72 10000 3.09 190 15:45 15.04.2022
4184 Clear 22 1015 67 10000 5.14 200 13:55 15.04.2022
4185 Clear 23 1015 64 10000 4.63 200 12:52 15.04.2022
4186 Clear 24 1015 62 10000 4.12 210 12:24 15.04.2022
4187 Clear 24 1015 58 10000 5.14 220 11:50 15.04.2022
4188 Clear 27 1015 51 10000 5.14 230 10:46 15.04.2022
4189 Clear 28 1015 48 10000 4.63 250 10:00 15.04.2022
4190 Clear 28 1015 46 10000 5.14 250 09:22 15.04.2022
4191 Clear 28 1017 46 10000 5.66 260 08:39 15.04.2022
4192 Clear 28 1017 45 10000 2.57 140 06:50 15.04.2022
4193 Clear 25 1019 54 10000 6.69 60 04:43 15.04.2022
4194 Clear 16 1020 80 10000 7.2 60 00:34 15.04.2022
4195 Clear 16 1020 79 10000 7.2 70 23:22 14.04.2022
4196 Clear 17 1019 78 10000 6.17 70 22:45 14.04.2022
4197 Clear 16 1019 78 10000 6.17 70 22:26 14.04.2022
4198 Clear 16 1019 79 10000 7.2 70 21:47 14.04.2022
4199 Clear 16 1020 78 10000 5.66 60 19:24 14.04.2022
4200 Clear 17 1020 77 10000 4.63 60 18:53 14.04.2022
4201 Clear 17 1020 74 10000 5.14 80 17:45 14.04.2022
4202 Clear 18 1020 72 10000 4.63 90 16:51 14.04.2022
4203 Clear 19 1020 70 10000 4.63 70 15:51 14.04.2022
4204 Clear 19 1020 71 10000 4.12 120 13:53 14.04.2022
4205 Clear 20 1020 71 10000 4.12 100 13:20 14.04.2022
4206 Clear 21 1019 66 10000 4.12 100 12:32 14.04.2022
4207 Clear 23 1019 61 10000 5.66 130 11:37 14.04.2022
4208 Clear 24 1019 55 10000 5.66 240 10:58 14.04.2022
4209 Clear 24 1019 55 10000 5.14 110 10:31 14.04.2022
4210 Clear 26 1019 47 10000 6.17 110 09:28 14.04.2022
4211 Clouds 25 1019 49 10000 4.12 100 07:54 14.04.2022
4212 Clear 22 1022 57 10000 5.14 110 05:35 14.04.2022
4213 Clear 14 1022 82 10000 4.12 100 00:22 14.04.2022
4214 Clear 15 1021 80 10000 4.12 100 22:37 13.04.2022
4215 Clear 16 1021 79 10000 6.17 100 21:42 13.04.2022
4216 Clear 16 1021 78 10000 2.57 130 20:35 13.04.2022
4217 Clear 17 1021 77 10000 4.12 110 19:47 13.04.2022
4218 Clear 17 1021 76 10000 4.63 100 18:37 13.04.2022
4219 Clear 18 1020 74 10000 4.63 110 17:25 13.04.2022
4220 Clear 17 1020 78 10000 2.06 20 16:49 13.04.2022
4221 Clear 17 1020 77 10000 2.06 130 15:44 13.04.2022
4222 Clear 18 1020 76 10000 2.57 200 15:21 13.04.2022
4223 Clear 19 1019 72 10000 4.12 210 14:34 13.04.2022
4224 Clear 19 1019 71 10000 4.12 210 13:37 13.04.2022
4225 Clear 20 1018 70 10000 5.14 220 12:45 13.04.2022
4226 Clouds 22 1017 63 10000 5.66 220 11:25 13.04.2022
4227 Clear 23 1017 58 10000 7.72 230 09:53 13.04.2022
4228 Clear 24 1017 56 10000 6.69 250 08:44 13.04.2022
4229 Clouds 25 1017 51 10000 3.09 210 07:38 13.04.2022
4230 Clouds 24 1018 51 10000 4.12 190 06:47 13.04.2022
4231 Clouds 24 1018 52 10000 2.57 160 06:23 13.04.2022
4232 Clear 13 1019 86 10000 6.69 170 00:30 13.04.2022
4233 Clear 13 1019 84 10000 5.66 170 23:55 12.04.2022
4234 Clear 13 1019 82 10000 2.57 190 22:33 12.04.2022
4235 Clear 14 1019 79 10000 3.6 170 21:47 12.04.2022
4236 Clear 15 1019 77 10000 3.6 170 20:44 12.04.2022
4237 Clear 15 1019 76 10000 3.6 150 20:18 12.04.2022
4238 Clear 15 1018 77 10000 4.63 150 19:39 12.04.2022
4239 Clear 15 1018 76 10000 4.63 150 18:52 12.04.2022
4240 Clear 16 1018 71 10000 4.12 170 17:37 12.04.2022
4241 Clear 16 1018 71 10000 3.6 180 16:34 12.04.2022
4242 Clear 17 1018 66 10000 3.6 190 15:33 12.04.2022
4243 Clear 19 1017 62 10000 4.63 180 14:33 12.04.2022
4244 Clear 20 1017 59 10000 4.63 170 13:40 12.04.2022
4245 Clear 20 1016 58 10000 4.63 170 13:20 12.04.2022
4246 Clear 23 1015 53 10000 6.69 180 11:47 12.04.2022
4247 Clear 23 1015 56 10000 6.69 180 11:24 12.04.2022
4248 Clear 25 1015 48 10000 6.69 190 09:25 12.04.2022
4249 Clear 24 1015 47 10000 4.63 150 08:26 12.04.2022
4250 Clouds 24 1016 51 10000 5.66 130 06:33 12.04.2022
4251 Clouds 22 1017 57 10000 5.66 130 05:36 12.04.2022
4252 Clouds 14 1018 89 10000 4.12 180 01:47 12.04.2022
4253 Clouds 13 1017 91 10000 4.12 170 23:20 11.04.2022
4254 Clear 12 1017 91 10000 2.06 180 21:50 11.04.2022
4255 Clear 12 1017 90 10000 2.57 200 21:18 11.04.2022
4256 Clear 11 1017 90 10000 3.09 220 20:30 11.04.2022
4257 Clear 11 1017 90 10000 3.09 220 20:30 11.04.2022
4258 Clear 13 1017 88 10000 3.6 220 19:57 11.04.2022
4259 Clear 13 1017 88 10000 2.57 210 19:22 11.04.2022
4260 Clear 13 1017 88 10000 2.57 190 18:49 11.04.2022
4261 Clear 14 1017 86 10000 3.6 210 17:57 11.04.2022
4262 Clear 13 1017 87 10000 3.6 200 16:57 11.04.2022
4263 Clear 13 1017 91 10000 3.09 210 16:25 11.04.2022
4264 Clear 14 1016 82 10000 3.09 180 14:36 11.04.2022
4265 Clear 16 1015 72 10000 2.57 110 12:54 11.04.2022
4266 Clouds 17 1015 70 10000 4.12 70 12:35 11.04.2022
4267 Clouds 18 1013 63 10000 3.6 260 11:42 11.04.2022
4268 Rain 19 1013 56 10000 5.66 240 10:34 11.04.2022
4269 Clouds 20 1013 52 10000 5.14 240 09:22 11.04.2022
4270 Clouds 21 1013 54 10000 2.57 210 06:51 11.04.2022
4271 Clouds 14 1014 93 10000 3.09 50 02:30 11.04.2022
4272 Clouds 13 1014 96 10000 4.12 190 22:54 10.04.2022
4273 Clouds 13 1013 96 10000 2.57 110 22:26 10.04.2022
4274 Rain 14 1013 96 4000 4.12 180 21:33 10.04.2022
4275 Rain 14 1013 96 2500 3.09 270 20:31 10.04.2022
4276 Clouds 14 1013 96 10000 2.57 30 19:45 10.04.2022
4277 Clouds 14 1013 96 10000 3.09 10 19:22 10.04.2022
4278 Clear 14 1013 95 10000 2.06 50 18:43 10.04.2022
4279 Clouds 14 1013 95 10000 1.03 100 17:54 10.04.2022
4280 Clear 14 1014 95 10000 1.54 70 17:34 10.04.2022
4281 Clear 15 1014 95 10000 2.57 50 16:22 10.04.2022
4282 Clouds 15 1014 95 10000 3.09 30 15:20 10.04.2022
4283 Rain 16 1015 94 8000 3.09 160 14:22 10.04.2022
4284 Rain 17 1013 88 10000 3.09 260 12:34 10.04.2022
4285 Rain 17 1012 85 10000 6.17 280 11:46 10.04.2022
4286 Rain 18 1012 82 10000 5.14 270 11:28 10.04.2022
4287 Clouds 19 1012 79 10000 8.23 280 10:48 10.04.2022
4288 Clouds 19 1012 82 10000 7.72 290 09:55 10.04.2022
4289 Clouds 18 1012 84 10000 5.66 210 09:21 10.04.2022
4290 Clouds 22 1013 59 10000 6.17 300 08:21 10.04.2022
4291 Clouds 21 1012 62 10000 7.72 300 07:18 10.04.2022
4292 Clouds 22 1015 49 10000 6.69 300 05:27 10.04.2022
4293 Clouds 17 1016 71 10000 4.12 10 02:20 10.04.2022
4294 Clouds 14 1014 82 10000 3.6 80 23:54 09.04.2022
4295 Clear 14 1015 84 10000 2.57 50 23:35 09.04.2022
4296 Clear 14 1015 84 10000 2.06 20 22:43 09.04.2022
4297 Clear 14 1015 77 10000 2.06 360 21:32 09.04.2022
4298 Clear 14 1015 75 10000 0 0 20:39 09.04.2022
4299 Clear 14 1015 75 10000 0 0 20:19 09.04.2022
4300 Clouds 15 1015 74 10000 1.54 360 19:41 09.04.2022
4301 Clouds 15 1016 74 10000 2.57 10 18:54 09.04.2022
4302 Clouds 14 1015 74 10000 0 0 18:18 09.04.2022
4303 Clear 14 1015 74 10000 2.06 180 17:32 09.04.2022
4304 Clear 14 1016 74 10000 2.57 190 16:43 09.04.2022
4305 Clear 15 1016 70 10000 3.6 180 15:52 09.04.2022
4306 Clear 16 1016 69 10000 4.12 190 15:26 09.04.2022
4307 Clear 16 1016 66 10000 3.6 190 14:26 09.04.2022
4308 Clear 17 1015 60 10000 4.63 210 13:38 09.04.2022
4309 Clear 18 1015 58 10000 6.17 210 12:57 09.04.2022
4310 Clouds 19 1014 55 10000 6.17 220 11:51 09.04.2022
4311 Clouds 20 1014 51 10000 6.69 210 10:52 09.04.2022
4312 Clear 21 1014 46 10000 7.2 230 10:18 09.04.2022
4313 Clear 22 1014 43 10000 5.14 210 09:24 09.04.2022
4314 Clear 22 1014 40 10000 4.63 210 08:35 09.04.2022
4315 Clouds 20 1015 47 10000 5.14 150 05:21 09.04.2022
4316 Clear 14 1014 90 10000 3.09 210 00:35 09.04.2022
4317 Clouds 14 1013 91 10000 4.12 180 23:24 08.04.2022
4318 Clouds 14 1012 95 10000 4.63 160 21:53 08.04.2022
4319 Clouds 15 1011 96 10000 3.6 190 20:44 08.04.2022
4320 Clouds 16 1011 94 10000 5.66 190 19:50 08.04.2022
4321 Rain 16 1010 93 10000 5.14 210 18:59 08.04.2022
4322 Clouds 17 1010 94 7000 6.69 190 18:24 08.04.2022
4323 Clouds 17 1009 94 10000 5.66 210 17:29 08.04.2022
4324 Clouds 17 1009 93 5000 6.69 200 16:58 08.04.2022
4325 Clouds 18 1008 94 4000 7.72 220 16:31 08.04.2022
4326 Clouds 19 1008 90 10000 7.72 240 15:37 08.04.2022
4327 Clouds 20 1008 81 10000 8.23 260 14:52 08.04.2022
4328 Clouds 21 1008 79 10000 8.75 270 14:20 08.04.2022
4329 Clouds 21 1008 71 10000 4.12 290 13:31 08.04.2022
4330 Clouds 21 1007 69 10000 5.14 270 12:55 08.04.2022
4331 Clouds 22 1007 63 10000 7.2 270 11:35 08.04.2022
4332 Clouds 23 1006 66 10000 8.23 260 09:59 08.04.2022
4333 Clouds 23 1007 66 10000 9.77 270 09:19 08.04.2022
4334 Clouds 25 1006 68 10000 8.23 250 07:44 08.04.2022
4335 Clouds 25 1007 68 10000 8.75 280 06:45 08.04.2022
4336 Clear 26 1005 56 10000 5.66 360 02:55 08.04.2022
4337 Clear 21 1005 50 10000 2.57 300 00:31 08.04.2022
4338 Clear 23 1005 45 10000 3.6 310 23:47 07.04.2022
4339 Clear 24 1004 41 10000 4.63 50 22:55 07.04.2022
4340 Clear 24 1004 41 10000 4.12 40 22:36 07.04.2022
4341 Clear 23 1004 42 10000 4.12 40 22:18 07.04.2022
4342 Clear 24 1005 42 10000 5.14 50 21:30 07.04.2022
4343 Clear 24 1005 40 10000 5.14 60 20:55 07.04.2022
4344 Clouds 24 1006 39 10000 5.66 40 20:21 07.04.2022
4345 Clear 24 1007 40 10000 4.63 50 17:43 07.04.2022
4346 Clear 24 1008 41 10000 5.14 50 17:23 07.04.2022
4347 Clear 24 1008 43 10000 3.09 40 16:35 07.04.2022
4348 Clear 24 1009 46 10000 2.57 160 15:52 07.04.2022
4349 Clear 25 1010 43 10000 3.6 170 13:59 07.04.2022
4350 Clear 25 1009 41 10000 3.6 180 13:24 07.04.2022
4351 Clear 28 1009 30 10000 3.6 230 11:54 07.04.2022
4352 Clear 30 1009 26 10000 4.63 260 10:55 07.04.2022
4353 Clear 32 1010 24 10000 3.09 30 09:19 07.04.2022
4354 Clear 31 1012 27 10000 5.14 20 06:59 07.04.2022
4355 Clear 29 1014 32 10000 6.17 20 05:28 07.04.2022
4356 Clear 22 1015 50 10000 6.17 70 02:37 07.04.2022
4357 Clear 18 1015 62 10000 6.69 70 00:44 07.04.2022
4358 Clear 17 1015 61 10000 5.66 70 23:36 06.04.2022
4359 Clear 18 1015 61 10000 6.69 70 22:45 06.04.2022
4360 Clear 18 1015 60 10000 6.69 70 22:20 06.04.2022
4361 Clear 18 1015 61 10000 5.14 70 20:50 06.04.2022
4362 Clear 19 1017 60 10000 5.66 60 20:26 06.04.2022
4363 Clear 19 1017 60 10000 3.09 30 19:44 06.04.2022
4364 Clear 19 1016 60 10000 3.09 100 18:48 06.04.2022
4365 Clear 19 1017 60 10000 3.6 100 17:36 06.04.2022
4366 Clear 20 1017 57 10000 3.6 110 16:58 06.04.2022
4367 Clear 20 1017 57 10000 4.12 100 16:34 06.04.2022
4368 Clear 21 1018 54 10000 3.6 100 15:44 06.04.2022
4369 Clear 22 1017 52 10000 3.6 100 13:53 06.04.2022
4370 Clear 24 1017 47 10000 4.12 100 12:30 06.04.2022
4371 Clear 26 1016 37 10000 4.63 110 11:44 06.04.2022
4372 Clear 28 1016 35 10000 5.66 120 10:37 06.04.2022
4373 Clear 28 1016 34 10000 5.66 120 10:18 06.04.2022
4374 Clear 28 1016 34 10000 4.12 80 09:25 06.04.2022
4375 Clear 28 1017 34 10000 3.6 100 08:18 06.04.2022
4376 Clouds 27 1018 38 10000 3.6 70 06:40 06.04.2022
4377 Clear 15 1021 77 10000 4.12 60 01:26 06.04.2022
4378 Clear 15 1020 75 10000 6.17 80 23:50 05.04.2022
4379 Clear 16 1020 71 10000 4.63 110 21:58 05.04.2022
4380 Clear 16 1020 70 10000 5.14 100 21:18 05.04.2022
4381 Clear 16 1020 67 10000 5.14 100 20:24 05.04.2022
4382 Clear 17 1020 65 10000 3.6 110 18:45 05.04.2022
4383 Clear 17 1020 65 10000 3.6 100 17:22 05.04.2022
4384 Clear 17 1021 62 10000 3.09 80 16:44 05.04.2022
4385 Clear 18 1021 60 10000 4.12 90 15:52 05.04.2022
4386 Clear 18 1021 59 10000 5.66 80 15:31 05.04.2022
4387 Clear 19 1020 65 10000 2.06 160 13:55 05.04.2022
4388 Clear 21 1019 60 10000 5.14 220 12:39 05.04.2022
4389 Clear 23 1019 51 10000 6.17 220 11:43 05.04.2022
4390 Clear 23 1019 49 10000 6.17 220 11:25 05.04.2022
4391 Clear 25 1019 40 10000 4.12 100 09:40 05.04.2022
4392 Clear 26 1019 36 10000 4.12 120 08:47 05.04.2022
4393 Clouds 20 1021 52 10000 7.72 70 04:19 05.04.2022
4394 Clear 14 1021 71 10000 6.69 100 23:48 04.04.2022
4395 Clear 15 1021 68 10000 5.66 120 22:41 04.04.2022
4396 Clear 15 1021 67 10000 3.6 160 21:51 04.04.2022
4397 Clear 16 1021 65 10000 5.14 130 21:20 04.04.2022
4398 Clear 16 1021 64 10000 6.17 120 20:48 04.04.2022
4399 Clear 17 1020 61 10000 7.2 110 19:38 04.04.2022
4400 Clear 17 1020 60 10000 8.23 110 18:46 04.04.2022
4401 Clear 18 1020 64 10000 5.14 130 17:33 04.04.2022
4402 Clear 18 1020 66 10000 5.66 140 16:36 04.04.2022
4403 Clear 19 1019 65 10000 3.09 160 15:34 04.04.2022
4404 Clear 20 1019 64 10000 3.6 170 14:49 04.04.2022
4405 Clouds 20 1019 64 10000 5.66 160 14:31 04.04.2022
4406 Clouds 21 1018 64 10000 5.14 160 13:18 04.04.2022
4407 Clouds 22 1016 60 10000 6.69 130 11:29 04.04.2022
4408 Clouds 23 1016 58 10000 6.69 150 10:29 04.04.2022
4409 Clouds 24 1015 58 10000 5.66 170 07:36 04.04.2022
4410 Clouds 21 1015 72 10000 6.69 180 03:18 04.04.2022
4411 Clouds 21 1015 72 10000 6.69 180 03:18 04.04.2022
4412 Clouds 20 1012 78 10000 6.69 190 23:48 03.04.2022
4413 Clouds 21 1011 78 10000 7.2 180 22:31 03.04.2022
4414 Clouds 22 1010 78 10000 5.66 170 21:32 03.04.2022
4415 Clouds 22 1010 77 10000 7.2 180 20:36 03.04.2022
4416 Clouds 23 1009 78 10000 6.69 150 19:29 03.04.2022
4417 Clouds 23 1009 78 10000 6.69 170 18:27 03.04.2022
4418 Clouds 23 1009 82 10000 4.12 170 17:41 03.04.2022
4419 Clouds 23 1009 85 10000 4.12 170 16:50 03.04.2022
4420 Clouds 22 1008 86 10000 2.57 200 15:59 03.04.2022
4421 Clouds 23 1007 83 10000 3.09 230 14:27 03.04.2022
4422 Clouds 23 1007 82 10000 4.12 240 13:38 03.04.2022
4423 Clouds 25 1006 74 10000 5.66 250 11:59 03.04.2022
4424 Clouds 27 1006 64 10000 5.14 240 10:22 03.04.2022
4425 Clouds 27 1007 67 10000 6.69 260 09:23 03.04.2022
4426 Clouds 29 1007 58 10000 3.6 250 07:24 03.04.2022
4427 Clear 26 1008 68 10000 5.14 360 03:37 03.04.2022
4428 Clear 23 1008 68 10000 3.09 50 00:29 03.04.2022
4429 Clear 23 1007 67 10000 2.57 60 22:52 02.04.2022
4430 Clear 24 1007 64 10000 4.12 60 21:57 02.04.2022
4431 Clear 24 1007 64 10000 4.63 60 21:26 02.04.2022
4432 Clear 24 1008 64 10000 2.57 80 20:41 02.04.2022
4433 Clear 24 1008 63 10000 5.66 70 18:51 02.04.2022
4434 Clear 24 1008 63 10000 6.69 80 18:20 02.04.2022
4435 Clear 25 1009 63 10000 2.57 90 17:43 02.04.2022
4436 Clear 26 1009 59 10000 3.6 180 15:59 02.04.2022
4437 Clear 26 1009 57 10000 3.6 170 15:21 02.04.2022
4438 Clear 27 1009 56 10000 4.63 180 14:42 02.04.2022
4439 Clear 28 1008 52 10000 3.09 80 13:34 02.04.2022
4440 Clear 29 1008 45 10000 5.66 50 12:34 02.04.2022
4441 Clear 31 1007 44 10000 5.66 30 10:50 02.04.2022
4442 Clear 30 1010 44 10000 5.66 30 08:44 02.04.2022
4443 Clear 28 1011 45 10000 6.69 40 05:58 02.04.2022
4444 Clear 25 1012 54 10000 6.69 70 03:28 02.04.2022
4445 Clear 24 1011 55 10000 5.14 70 23:55 01.04.2022
4446 Clear 24 1011 55 10000 5.14 50 22:51 01.04.2022
4447 Clear 25 1011 54 10000 4.12 70 21:27 01.04.2022
4448 Clear 25 1011 53 10000 4.63 60 20:49 01.04.2022
4449 Clear 25 1012 54 10000 4.63 50 19:50 01.04.2022
4450 Clear 25 1012 55 10000 4.63 40 19:26 01.04.2022
4451 Clear 26 1012 56 10000 5.14 50 18:42 01.04.2022
4452 Clear 26 1012 57 10000 5.66 60 17:43 01.04.2022
4453 Clear 26 1012 55 10000 5.14 40 16:33 01.04.2022
4454 Clear 26 1012 55 10000 4.63 80 15:18 01.04.2022
4455 Clear 27 1012 51 10000 4.63 70 14:18 01.04.2022
4456 Clear 28 1012 45 10000 4.12 80 13:32 01.04.2022
4457 Clear 29 1012 43 10000 6.17 90 12:30 01.04.2022
4458 Clear 29 1012 42 10000 5.14 70 10:54 01.04.2022
4459 Clear 30 1013 41 10000 5.14 70 09:49 01.04.2022
4460 Clear 28 1013 49 10000 7.2 40 07:50 01.04.2022
4461 Clear 29 1014 48 10000 5.66 70 05:45 01.04.2022
4462 Clear 28 1015 50 10000 5.66 60 04:43 01.04.2022
4463 Rain 26 1015 54 10000 5.66 60 03:19 01.04.2022
4464 Clear 25 1014 61 10000 5.66 70 01:51 01.04.2022
4465 Clear 23 1013 68 10000 6.17 80 22:34 31.03.2022
4466 Clear 23 1013 67 10000 4.63 70 21:44 31.03.2022
4467 Clear 24 1013 67 10000 6.69 70 20:51 31.03.2022
4468 Clear 24 1013 67 10000 6.69 70 20:51 31.03.2022
4469 Clouds 24 1013 66 10000 7.2 70 20:28 31.03.2022
4470 Clear 24 1013 64 10000 6.17 70 19:43 31.03.2022
4471 Clear 25 1014 64 10000 4.12 70 18:34 31.03.2022
4472 Clear 26 1014 61 10000 7.72 70 16:53 31.03.2022
4473 Rain 26 1014 63 10000 8.75 100 15:57 31.03.2022
4474 Rain 26 1014 63 7000 8.23 90 15:29 31.03.2022
4475 Rain 26 1014 62 10000 8.23 100 14:48 31.03.2022
4476 Clear 26 1013 61 10000 6.69 90 13:42 31.03.2022
4477 Clear 28 1012 54 10000 7.2 80 11:31 31.03.2022
4478 Clear 30 1012 49 10000 6.69 70 10:26 31.03.2022
4479 Clouds 30 1012 47 10000 5.66 90 09:39 31.03.2022
4480 Clear 29 1013 48 10000 6.69 70 07:48 31.03.2022
4481 Clear 22 1016 68 10000 9.77 90 02:33 31.03.2022
4482 Clouds 21 1015 76 10000 9.26 90 23:24 30.03.2022
4483 Clouds 21 1015 77 10000 7.72 80 21:55 30.03.2022
4484 Clouds 21 1015 77 10000 8.23 80 21:30 30.03.2022
4485 Clouds 21 1015 77 10000 7.2 80 20:37 30.03.2022
4486 Clouds 21 1015 77 10000 8.23 80 19:47 30.03.2022
4487 Clouds 21 1015 76 10000 7.72 90 18:41 30.03.2022
4488 Clouds 21 1015 76 10000 8.75 80 17:51 30.03.2022
4489 Clouds 22 1015 76 10000 7.72 80 16:59 30.03.2022
4490 Clouds 22 1016 75 10000 7.72 80 16:39 30.03.2022
4491 Clouds 22 1015 74 10000 7.72 80 15:47 30.03.2022
4492 Clouds 22 1015 73 10000 5.14 90 14:22 30.03.2022
4493 Clouds 23 1014 74 10000 7.2 80 13:20 30.03.2022
4494 Clouds 24 1014 70 10000 5.66 100 12:19 30.03.2022
4495 Clouds 25 1014 65 10000 8.75 100 10:48 30.03.2022
4496 Rain 26 1014 58 10000 8.75 80 09:30 30.03.2022
4497 Rain 25 1013 60 10000 8.75 70 07:59 30.03.2022
4498 Clouds 26 1015 60 10000 8.75 70 05:41 30.03.2022
4499 Clouds 26 1015 60 10000 8.75 70 05:23 30.03.2022
4500 Clouds 22 1014 77 10000 6.69 50 01:45 30.03.2022
4501 Rain 22 1013 78 10000 7.2 90 22:38 29.03.2022
4502 Rain 22 1013 76 10000 7.72 90 21:47 29.03.2022
4503 Rain 22 1013 73 10000 7.2 80 20:55 29.03.2022
4504 Clouds 23 1013 72 10000 8.75 80 20:25 29.03.2022
4505 Rain 23 1013 70 10000 9.77 90 19:20 29.03.2022
4506 Rain 23 1013 70 10000 6.69 80 18:48 29.03.2022
4507 Clear 24 1013 68 10000 8.23 100 17:39 29.03.2022
4508 Rain 24 1013 66 10000 7.2 90 16:59 29.03.2022
4509 Rain 24 1013 66 10000 7.2 90 16:59 29.03.2022
4510 Rain 24 1013 65 10000 7.72 80 16:20 29.03.2022
4511 Rain 25 1012 64 10000 8.75 90 14:53 29.03.2022
4512 Clear 25 1011 64 10000 9.26 100 14:24 29.03.2022
4513 Clear 26 1011 62 10000 7.2 110 12:57 29.03.2022
4514 Clear 27 1010 58 10000 7.72 110 11:45 29.03.2022
4515 Clear 28 1009 52 10000 7.2 80 10:58 29.03.2022
4516 Rain 30 1009 48 10000 6.69 90 09:49 29.03.2022
4517 Clouds 30 1010 47 10000 6.17 100 08:20 29.03.2022
4518 Rain 26 1013 59 10000 7.2 90 05:35 29.03.2022
4519 Rain 20 1012 77 10000 5.66 90 00:50 29.03.2022
4520 Clear 20 1012 77 10000 6.69 90 23:24 28.03.2022
4521 Clear 20 1011 77 10000 7.2 100 22:54 28.03.2022
4522 Clear 20 1011 77 10000 6.69 110 22:26 28.03.2022
4523 Clear 21 1011 75 10000 7.2 100 20:58 28.03.2022
4524 Clear 21 1010 75 10000 5.14 110 20:23 28.03.2022
4525 Rain 21 1011 75 10000 6.69 90 19:45 28.03.2022
4526 Clear 21 1011 74 10000 7.72 100 19:27 28.03.2022
4527 Clear 21 1011 73 10000 7.72 90 18:40 28.03.2022
4528 Rain 21 1011 73 10000 8.23 90 17:39 28.03.2022
4529 Clear 21 1011 73 10000 8.75 90 16:21 28.03.2022
4530 Clear 22 1011 71 10000 8.23 110 14:47 28.03.2022
4531 Clear 22 1011 71 10000 7.72 110 14:21 28.03.2022
4532 Clouds 23 1011 68 10000 6.69 110 12:20 28.03.2022
4533 Clouds 24 1010 63 10000 8.23 90 11:24 28.03.2022
4534 Clouds 25 1010 61 10000 8.23 100 09:43 28.03.2022
4535 Clouds 25 1010 62 10000 8.23 100 09:19 28.03.2022
4536 Clouds 25 1011 64 10000 8.23 100 08:22 28.03.2022
4537 Rain 25 1012 60 10000 7.72 100 07:28 28.03.2022
4538 Clouds 21 1014 70 10000 9.26 110 03:43 28.03.2022
4539 Clouds 18 1014 76 10000 6.69 90 23:28 27.03.2022
4540 Clouds 18 1014 74 10000 8.23 110 22:24 27.03.2022
4541 Clouds 18 1014 74 10000 6.69 120 21:41 27.03.2022
4542 Clouds 18 1014 73 10000 6.69 130 20:54 27.03.2022
4543 Clouds 18 1014 73 10000 6.69 130 20:54 27.03.2022
4544 Clouds 18 1015 74 10000 6.69 120 19:47 27.03.2022
4545 Clouds 18 1015 73 10000 7.72 110 18:55 27.03.2022
4546 Clouds 18 1015 72 10000 7.2 110 18:27 27.03.2022
4547 Clouds 19 1015 72 10000 6.69 100 17:38 27.03.2022
4548 Clouds 20 1015 70 10000 9.77 110 15:59 27.03.2022
4549 Clouds 20 1015 70 10000 9.26 110 14:55 27.03.2022
4550 Clouds 21 1014 66 10000 9.26 130 13:54 27.03.2022
4551 Clouds 21 1014 66 10000 9.26 130 13:54 27.03.2022
4552 Clouds 22 1013 63 10000 9.26 120 12:20 27.03.2022
4553 Clouds 23 1013 62 10000 8.23 120 10:47 27.03.2022
4554 Clouds 25 1012 59 10000 8.23 120 08:37 27.03.2022
4555 Clouds 23 1013 69 10000 9.26 130 05:45 27.03.2022
4556 Clouds 22 1012 76 10000 7.2 130 00:47 27.03.2022
4557 Clouds 21 1011 78 10000 5.66 170 23:30 26.03.2022
4558 Clouds 21 1010 79 10000 5.66 150 22:29 26.03.2022
4559 Rain 21 1009 79 10000 7.2 170 21:32 26.03.2022
4560 Clouds 22 1009 79 10000 5.14 170 19:46 26.03.2022
4561 Clouds 22 1009 78 10000 6.17 160 18:58 26.03.2022
4562 Clear 23 1008 76 10000 4.12 150 17:44 26.03.2022
4563 Clear 23 1008 76 10000 4.12 150 17:44 26.03.2022
4564 Clear 23 1008 75 10000 4.12 150 17:22 26.03.2022
4565 Rain 23 1008 75 10000 3.6 110 15:52 26.03.2022
4566 Rain 24 1007 76 10000 8.75 90 14:21 26.03.2022
4567 Rain 23 1007 79 10000 4.63 90 13:51 26.03.2022
4568 Clouds 23 1006 84 10000 2.57 130 12:36 26.03.2022
4569 Clouds 23 1006 84 10000 7.72 190 11:18 26.03.2022
4570 Rain 26 1005 77 10000 7.72 260 09:22 26.03.2022
4571 Clouds 30 1005 61 10000 8.75 300 07:36 26.03.2022
4572 Thunderstorm 27 1004 69 10000 4.63 20 05:52 26.03.2022
4573 Clear 29 1006 47 10000 8.23 50 03:23 26.03.2022
4574 Rain 22 1008 83 10000 6.69 270 22:57 25.03.2022
4575 Clear 24 1004 62 10000 5.14 70 20:58 25.03.2022
4576 Clear 24 1005 64 10000 4.63 70 20:37 25.03.2022
4577 Clear 23 1005 68 10000 2.06 70 19:21 25.03.2022
4578 Clear 23 1006 70 10000 3.6 80 18:37 25.03.2022
4579 Rain 24 1008 68 10000 2.57 70 17:34 25.03.2022
4580 Clear 24 1009 61 10000 2.57 330 16:38 25.03.2022
4581 Clouds 25 1009 59 10000 3.09 330 15:46 25.03.2022
4582 Clear 27 1008 52 10000 4.12 280 13:32 25.03.2022
4583 Rain 32 1006 28 10000 3.09 90 11:38 25.03.2022
4584 Clear 34 1006 22 10000 4.12 10 09:43 25.03.2022
4585 Clear 35 1006 21 10000 4.63 20 08:56 25.03.2022
4586 Clear 35 1006 20 10000 5.14 50 07:47 25.03.2022
4587 Clear 35 1006 21 10000 6.69 80 07:19 25.03.2022
4588 Clear 30 1011 27 10000 7.2 70 03:45 25.03.2022
4589 Clear 20 1012 43 10000 7.72 70 23:49 24.03.2022
4590 Clear 20 1012 42 10000 6.17 70 22:24 24.03.2022
4591 Clear 21 1011 41 10000 8.23 70 21:24 24.03.2022
4592 Clear 22 1011 38 10000 8.75 70 19:49 24.03.2022
4593 Clear 23 1011 36 10000 7.72 80 18:45 24.03.2022
4594 Clear 23 1012 35 10000 9.77 90 17:36 24.03.2022
4595 Clear 24 1012 35 10000 8.75 90 16:33 24.03.2022
4596 Clear 23 1013 34 10000 4.63 110 14:52 24.03.2022
4597 Clear 23 1013 38 10000 4.12 120 14:22 24.03.2022
4598 Clear 24 1013 36 10000 3.6 130 13:34 24.03.2022
4599 Clear 26 1013 32 10000 4.12 110 12:24 24.03.2022
4600 Clear 28 1012 27 10000 6.17 90 11:27 24.03.2022
4601 Clear 30 1011 25 10000 7.2 90 09:27 24.03.2022
4602 Clear 31 1012 25 10000 6.17 100 08:34 24.03.2022
4603 Clear 28 1014 33 10000 6.17 100 05:30 24.03.2022
4604 Clear 28 1014 33 10000 6.17 100 05:30 24.03.2022
4605 Clear 16 1016 67 10000 9.77 90 23:59 23.03.2022
4606 Clear 16 1015 66 10000 9.77 100 22:19 23.03.2022
4607 Clear 17 1016 63 10000 9.26 100 21:21 23.03.2022
4608 Clear 18 1016 57 10000 9.26 100 19:56 23.03.2022
4609 Clear 18 1016 55 10000 7.72 100 19:25 23.03.2022
4610 Clear 20 1016 49 10000 5.14 80 17:52 23.03.2022
4611 Clear 20 1016 48 10000 6.17 90 17:24 23.03.2022
4612 Clear 21 1016 42 10000 6.17 130 15:25 23.03.2022
4613 Clear 21 1016 40 10000 5.14 130 14:47 23.03.2022
4614 Clear 22 1015 38 10000 3.6 130 13:30 23.03.2022
4615 Clear 27 1014 29 10000 6.69 120 10:50 23.03.2022
4616 Clear 28 1014 29 10000 5.14 150 08:29 23.03.2022
4617 Clear 26 1016 36 10000 7.72 90 05:50 23.03.2022
4618 Clear 20 1019 49 10000 7.72 90 02:28 23.03.2022
4619 Clear 16 1019 61 10000 5.14 80 00:26 23.03.2022
4620 Clear 16 1018 60 10000 9.77 100 21:40 22.03.2022
4621 Clear 16 1018 60 10000 7.72 110 20:59 22.03.2022
4622 Clear 16 1018 59 10000 8.23 110 20:18 22.03.2022
4623 Clear 17 1018 57 10000 6.69 100 19:26 22.03.2022
4624 Clear 17 1018 56 10000 7.2 110 18:46 22.03.2022
4625 Clear 19 1018 54 10000 7.72 120 17:43 22.03.2022
4626 Clear 19 1018 49 10000 5.14 130 16:37 22.03.2022
4627 Clear 20 1017 45 10000 4.63 160 15:40 22.03.2022
4628 Clear 20 1017 45 10000 4.63 160 15:19 22.03.2022
4629 Clear 20 1018 44 10000 3.6 130 14:42 22.03.2022
4630 Clear 21 1017 42 10000 4.63 140 13:42 22.03.2022
4631 Clear 24 1016 36 10000 5.66 120 11:53 22.03.2022
4632 Clear 26 1016 33 10000 5.66 110 10:53 22.03.2022
4633 Clear 27 1015 32 10000 3.6 120 09:21 22.03.2022
4634 Clear 27 1016 33 10000 4.12 140 07:30 22.03.2022
4635 Clouds 22 1020 50 10000 7.72 100 03:55 22.03.2022
4636 Clouds 17 1021 72 10000 4.12 110 00:46 22.03.2022
4637 Clear 15 1021 73 10000 3.6 140 22:46 21.03.2022
4638 Clear 16 1020 68 10000 4.12 120 21:25 21.03.2022
4639 Clear 17 1019 64 10000 4.63 120 20:43 21.03.2022
4640 Clear 17 1019 63 10000 4.63 120 20:21 21.03.2022
4641 Clear 18 1019 60 10000 5.14 100 19:35 21.03.2022
4642 Clear 18 1019 59 10000 5.66 110 18:47 21.03.2022
4643 Clear 19 1019 58 10000 7.2 100 17:35 21.03.2022
4644 Clear 20 1018 57 10000 6.69 100 16:58 21.03.2022
4645 Clear 20 1018 56 10000 6.69 100 16:24 21.03.2022
4646 Clear 21 1018 55 10000 6.17 130 15:21 21.03.2022
4647 Clear 22 1018 54 10000 5.66 160 14:28 21.03.2022
4648 Clear 23 1016 55 10000 5.66 170 12:53 21.03.2022
4649 Clear 25 1016 48 10000 5.66 140 11:57 21.03.2022
4650 Clear 26 1015 45 10000 6.17 170 10:59 21.03.2022
4651 Clear 27 1015 41 10000 5.14 180 09:42 21.03.2022
4652 Clouds 27 1014 46 10000 5.66 150 07:22 21.03.2022
4653 Clouds 25 1016 56 10000 6.17 120 04:54 21.03.2022
4654 Clouds 20 1017 75 10000 7.2 170 00:36 21.03.2022
4655 Clouds 20 1015 75 10000 5.14 170 22:56 20.03.2022
4656 Clouds 20 1015 75 10000 6.69 160 22:22 20.03.2022
4657 Clouds 20 1015 77 10000 5.66 180 21:31 20.03.2022
4658 Clouds 19 1014 79 10000 5.14 190 20:48 20.03.2022
4659 Clouds 19 1014 79 10000 4.63 190 20:25 20.03.2022
4660 Clouds 19 1014 80 10000 4.63 190 19:43 20.03.2022
4661 Clear 19 1014 81 10000 5.66 190 18:48 20.03.2022
4662 Clear 19 1014 76 10000 5.14 200 17:38 20.03.2022
4663 Clear 20 1014 74 10000 5.66 200 16:59 20.03.2022
4664 Clear 21 1014 74 10000 5.14 190 15:56 20.03.2022
4665 Clear 21 1013 73 10000 5.14 200 14:36 20.03.2022
4666 Clear 22 1012 73 10000 4.63 210 13:20 20.03.2022
4667 Rain 22 1011 74 10000 6.69 200 11:37 20.03.2022
4668 Clear 23 1011 71 10000 8.23 230 09:58 20.03.2022
4669 Clear 28 1011 49 10000 6.69 230 07:51 20.03.2022
4670 Clear 27 1011 52 10000 5.14 230 05:49 20.03.2022
4671 Clear 24 1011 60 10000 4.12 150 03:18 20.03.2022
4672 Clear 20 1011 68 10000 3.6 110 00:51 20.03.2022
4673 Clear 19 1011 69 10000 5.14 110 23:35 19.03.2022
4674 Clear 20 1010 67 10000 5.66 110 21:54 19.03.2022
4675 Clear 20 1010 67 10000 5.66 110 21:20 19.03.2022
4676 Rain 21 1012 62 10000 8.75 100 19:21 19.03.2022
4677 Rain 21 1011 61 10000 4.63 100 18:25 19.03.2022
4678 Rain 22 1011 58 10000 8.75 120 17:41 19.03.2022
4679 Rain 23 1012 53 10000 5.66 120 16:29 19.03.2022
4680 Rain 23 1012 52 10000 6.17 100 15:21 19.03.2022
4681 Clear 25 1012 50 10000 6.17 120 13:39 19.03.2022
4682 Clear 25 1012 50 10000 8.23 120 12:42 19.03.2022
4683 Clear 26 1012 48 10000 7.2 110 11:54 19.03.2022
4684 Clear 26 1012 48 10000 7.72 110 11:33 19.03.2022
4685 Clear 29 1012 47 10000 5.66 120 08:23 19.03.2022
4686 Clouds 28 1014 51 10000 5.66 130 04:23 19.03.2022
4687 Clouds 25 1015 62 10000 5.66 140 02:30 19.03.2022
4688 Clear 20 1014 82 10000 2.57 140 23:46 18.03.2022
4689 Clear 21 1014 79 10000 4.12 190 22:36 18.03.2022
4690 Clear 21 1013 79 10000 5.14 170 21:55 18.03.2022
4691 Clouds 22 1013 79 10000 6.17 180 19:57 18.03.2022
4692 Clouds 22 1012 79 10000 7.2 190 19:22 18.03.2022
4693 Clouds 22 1012 81 10000 7.72 200 18:27 18.03.2022
4694 Clear 23 1013 81 10000 6.69 210 16:52 18.03.2022
4695 Clear 23 1013 82 10000 5.14 210 15:43 18.03.2022
4696 Clear 23 1012 81 10000 5.66 210 14:25 18.03.2022
4697 Clear 24 1010 76 10000 5.14 220 12:39 18.03.2022
4698 Clouds 25 1010 69 10000 5.66 220 11:21 18.03.2022
4699 Clear 27 1009 53 10000 4.63 230 09:34 18.03.2022
4700 Clear 28 1009 51 10000 6.17 230 08:42 18.03.2022
4701 Clear 28 1010 59 10000 3.09 240 06:42 18.03.2022
4702 Clear 28 1011 54 10000 3.09 260 04:38 18.03.2022
4703 Clear 19 1012 91 10000 2.57 30 00:54 18.03.2022
4704 Clear 15 1012 97 10000 2.57 60 23:52 17.03.2022
4705 Clear 16 1012 94 10000 2.06 100 22:26 17.03.2022
4706 Clear 17 1011 93 10000 2.57 110 21:51 17.03.2022
4707 Clear 18 1012 92 10000 2.06 210 21:27 17.03.2022
4708 Clear 18 1012 91 10000 2.06 230 20:51 17.03.2022
4709 Clear 18 1012 91 10000 1.54 210 19:53 17.03.2022
4710 Clear 18 1012 89 10000 2.06 110 19:32 17.03.2022
4711 Clear 19 1012 86 10000 2.57 180 18:49 17.03.2022
4712 Clear 20 1013 83 10000 3.6 180 17:26 17.03.2022
4713 Clear 21 1013 78 10000 4.12 200 15:52 17.03.2022
4714 Clear 21 1014 78 10000 4.12 210 15:33 17.03.2022
4715 Clouds 22 1013 77 10000 4.12 190 14:48 17.03.2022
4716 Clouds 23 1013 73 10000 5.14 210 12:59 17.03.2022
4717 Clear 23 1013 72 10000 7.2 230 12:37 17.03.2022
4718 Clear 25 1013 65 10000 6.17 220 11:30 17.03.2022
4719 Clouds 27 1012 57 10000 6.17 220 10:32 17.03.2022
4720 Clear 30 1012 47 10000 6.17 240 08:40 17.03.2022
4721 Clear 31 1012 42 10000 5.66 280 07:36 17.03.2022
4722 Clear 29 1014 43 10000 3.6 40 05:47 17.03.2022
4723 Clear 22 1017 77 10000 4.63 70 01:37 17.03.2022
4724 Clear 17 1016 96 10000 2.57 50 23:56 16.03.2022
4725 Clear 16 1015 95 10000 2.06 100 22:50 16.03.2022
4726 Clear 16 1015 94 10000 0 0 22:32 16.03.2022
4727 Clear 17 1015 94 10000 1.54 150 21:42 16.03.2022
4728 Clouds 18 1015 93 10000 2.06 50 19:47 16.03.2022
4729 Clouds 18 1016 93 10000 2.06 30 19:21 16.03.2022
4730 Clear 18 1016 92 10000 1.54 150 18:37 16.03.2022
4731 Clear 19 1015 91 10000 2.06 200 17:43 16.03.2022
4732 Clear 19 1015 90 10000 2.06 200 17:19 16.03.2022
4733 Clear 20 1015 85 10000 3.09 180 15:55 16.03.2022
4734 Clouds 22 1016 81 10000 3.09 230 14:27 16.03.2022
4735 Clouds 22 1015 78 10000 2.57 240 13:31 16.03.2022
4736 Clouds 22 1014 76 10000 4.12 280 11:56 16.03.2022
4737 Clouds 23 1014 73 10000 4.12 270 11:21 16.03.2022
4738 Clouds 23 1013 72 10000 7.2 250 10:23 16.03.2022
4739 Clouds 26 1014 60 10000 8.75 260 08:52 16.03.2022
4740 Clouds 26 1014 58 10000 6.17 270 05:58 16.03.2022
4741 Clouds 23 1013 66 10000 4.63 270 01:35 16.03.2022
4742 Clouds 20 1011 76 10000 3.6 260 22:38 15.03.2022
4743 Clouds 20 1011 74 10000 4.12 260 21:52 15.03.2022
4744 Clouds 20 1011 79 10000 4.63 250 20:28 15.03.2022
4745 Clouds 21 1011 79 10000 3.6 250 18:57 15.03.2022
4746 Clouds 21 1012 81 10000 4.12 280 16:57 15.03.2022
4747 Clouds 21 1012 82 10000 3.6 290 16:28 15.03.2022
4748 Clouds 21 1013 80 10000 2.57 290 14:57 15.03.2022
4749 Clouds 21 1012 79 10000 2.57 300 14:34 15.03.2022
4750 Clouds 22 1012 76 10000 3.09 250 13:28 15.03.2022
4751 Clouds 23 1012 73 10000 5.66 240 12:21 15.03.2022
4752 Clouds 23 1010 68 10000 5.66 220 11:29 15.03.2022
4753 Clouds 25 1010 70 10000 6.17 250 09:39 15.03.2022
4754 Clouds 25 1011 72 10000 5.66 270 08:32 15.03.2022
4755 Clouds 25 1011 70 10000 6.17 260 07:50 15.03.2022
4756 Clouds 25 1010 70 10000 10.29 260 06:54 15.03.2022
4757 Clouds 24 1013 72 10000 7.2 250 02:59 15.03.2022
4758 Clouds 20 1010 93 10000 1.54 200 23:39 14.03.2022
4759 Clouds 20 1010 93 10000 1.54 200 23:20 14.03.2022
4760 Clouds 21 1010 91 10000 1.54 190 22:19 14.03.2022
4761 Clouds 21 1010 92 10000 3.09 220 21:22 14.03.2022
4762 Clouds 21 1010 92 10000 2.57 230 20:35 14.03.2022
4763 Clouds 20 1010 92 10000 2.06 200 19:59 14.03.2022
4764 Clouds 21 1010 91 10000 2.06 210 18:30 14.03.2022
4765 Clouds 21 1010 90 10000 2.57 200 17:43 14.03.2022
4766 Clouds 21 1011 89 10000 2.57 220 16:57 14.03.2022
4767 Clouds 22 1011 87 10000 3.09 210 15:29 14.03.2022
4768 Clouds 23 1011 85 10000 3.6 220 14:24 14.03.2022
4769 Clouds 24 1009 72 10000 5.66 230 11:36 14.03.2022
4770 Clouds 26 1009 68 10000 7.72 250 10:23 14.03.2022
4771 Clouds 27 1009 63 10000 6.69 250 09:38 14.03.2022
4772 Clouds 27 1008 62 10000 6.69 250 09:19 14.03.2022
4773 Clouds 27 1010 59 10000 6.69 250 08:46 14.03.2022
4774 Clouds 28 1011 55 10000 6.69 270 07:21 14.03.2022
4775 Clouds 27 1013 54 10000 2.57 250 04:22 14.03.2022
4776 Clear 23 1013 70 10000 4.63 90 01:46 14.03.2022
4777 Clear 20 1012 86 10000 3.09 50 00:35 14.03.2022
4778 Clouds 18 1012 92 10000 3.6 100 21:55 13.03.2022
4779 Clear 18 1011 93 10000 2.57 30 21:26 13.03.2022
4780 Clear 18 1011 92 10000 2.57 20 20:46 13.03.2022
4781 Clear 18 1011 92 10000 2.57 10 20:23 13.03.2022
4782 Clear 18 1012 92 10000 0 0 19:42 13.03.2022
4783 Clear 19 1011 91 10000 0 0 19:23 13.03.2022
4784 Clear 18 1012 92 10000 0 0 19:23 13.03.2022
4785 Clear 19 1012 90 10000 1.54 40 18:45 13.03.2022
4786 Clear 19 1013 91 10000 0 0 18:26 13.03.2022
4787 Clouds 20 1012 88 10000 0.51 60 17:39 13.03.2022
4788 Clouds 21 1012 86 10000 0 0 16:46 13.03.2022
4789 Clouds 21 1012 85 10000 2.06 200 16:25 13.03.2022
4790 Clouds 21 1012 83 10000 2.57 250 15:42 13.03.2022
4791 Clear 22 1013 80 10000 3.09 240 14:41 13.03.2022
4792 Clear 23 1012 77 10000 3.09 270 13:29 13.03.2022
4793 Clouds 23 1011 71 10000 3.6 250 12:23 13.03.2022
4794 Clouds 24 1010 66 10000 4.63 260 11:44 13.03.2022
4795 Clouds 26 1010 61 10000 4.63 280 10:50 13.03.2022
4796 Clouds 26 1010 59 10000 5.14 280 10:29 13.03.2022
4797 Clouds 27 1011 57 10000 5.14 250 09:42 13.03.2022
4798 Clouds 27 1011 55 10000 5.14 270 08:50 13.03.2022
4799 Clouds 27 1011 54 10000 5.66 280 08:29 13.03.2022
4800 Clouds 27 1011 53 10000 4.63 250 06:41 13.03.2022
4801 Clouds 26 1012 57 10000 4.12 270 04:57 13.03.2022
4802 Clouds 24 1012 73 10000 3.09 280 01:47 13.03.2022
4803 Clouds 23 1009 72 10000 2.57 270 23:26 12.03.2022
4804 Clouds 23 1008 75 10000 2.57 280 21:32 12.03.2022
4805 Clouds 23 1008 74 10000 2.57 310 20:19 12.03.2022
4806 Clouds 23 1008 72 10000 2.57 300 19:44 12.03.2022
4807 Clouds 23 1008 69 10000 2.57 290 18:40 12.03.2022
4808 Clouds 23 1008 67 10000 3.09 280 17:49 12.03.2022
4809 Clouds 23 1009 66 10000 3.6 240 16:28 12.03.2022
4810 Clouds 23 1008 67 10000 3.6 250 15:48 12.03.2022
4811 Clouds 23 1008 66 10000 4.63 260 15:19 12.03.2022
4812 Clouds 23 1008 67 10000 4.63 260 13:53 12.03.2022
4813 Clouds 24 1007 66 10000 5.66 270 12:27 12.03.2022
4814 Clouds 24 1007 67 10000 5.66 280 11:52 12.03.2022
4815 Clouds 24 1008 69 10000 6.17 270 11:21 12.03.2022
4816 Clouds 25 1006 66 10000 6.69 280 10:18 12.03.2022
4817 Clouds 26 1007 63 10000 6.17 290 09:40 12.03.2022
4818 Clouds 27 1007 58 10000 6.17 310 07:51 12.03.2022
4819 Clouds 28 1006 60 10000 6.69 320 05:46 12.03.2022
4820 Clouds 23 1006 90 10000 3.6 70 00:27 12.03.2022
4821 Clouds 22 1006 90 10000 3.09 10 23:37 11.03.2022
4822 Clear 22 1005 87 10000 2.06 90 21:55 11.03.2022
4823 Clear 23 1005 83 10000 0.51 330 20:59 11.03.2022
4824 Clear 23 1005 82 10000 2.57 270 20:40 11.03.2022
4825 Clear 24 1005 81 10000 2.57 270 20:19 11.03.2022
4826 Clouds 24 1006 69 10000 2.57 310 19:28 11.03.2022
4827 Clear 27 1006 47 10000 3.6 40 17:38 11.03.2022
4828 Clear 28 1006 44 10000 3.6 40 17:19 11.03.2022
4829 Clear 28 1006 39 10000 4.12 50 15:57 11.03.2022
4830 Clear 29 1006 39 10000 4.63 90 14:22 11.03.2022
4831 Rain 30 1007 37 10000 3.6 110 13:21 11.03.2022
4832 Rain 30 1005 35 10000 2.57 50 12:22 11.03.2022
4833 Clear 31 1004 33 10000 1.54 110 11:56 11.03.2022
4834 Clear 32 1005 28 10000 5.66 190 10:24 11.03.2022
4835 Rain 32 1005 29 10000 5.66 270 09:27 11.03.2022
4836 Rain 35 1005 23 10000 5.14 260 08:24 11.03.2022
4837 Clear 37 1005 21 10000 2.57 30 07:46 11.03.2022
4838 Rain 36 1005 18 10000 3.6 30 05:49 11.03.2022
4839 Clear 36 1007 19 10000 6.69 20 04:22 11.03.2022
4840 Clear 26 1009 29 10000 8.23 80 23:49 10.03.2022
4841 Clear 26 1008 30 10000 5.14 60 22:31 10.03.2022
4842 Clear 26 1008 29 10000 5.66 60 21:48 10.03.2022
4843 Clear 27 1008 27 10000 7.72 70 21:20 10.03.2022
4844 Clear 27 1008 28 10000 8.23 70 19:48 10.03.2022
4845 Clear 27 1008 29 10000 6.17 60 18:55 10.03.2022
4846 Clear 26 1009 32 10000 4.63 110 17:36 10.03.2022
4847 Clear 26 1009 37 10000 1.54 330 16:31 10.03.2022
4848 Clear 26 1009 40 10000 3.09 200 15:20 10.03.2022
4849 Clouds 29 1008 35 10000 3.6 180 13:24 10.03.2022
4850 Clear 31 1008 28 10000 6.69 200 11:58 10.03.2022
4851 Clear 34 1008 24 10000 6.69 230 10:54 10.03.2022
4852 Clear 37 1008 19 10000 6.69 230 09:21 10.03.2022
4853 Clear 37 1010 15 10000 3.09 360 07:41 10.03.2022
4854 Clouds 35 1013 22 10000 4.12 30 04:44 10.03.2022
4855 Clear 29 1014 30 10000 6.17 70 01:49 10.03.2022
4856 Clear 23 1013 36 10000 7.72 70 23:26 09.03.2022
4857 Clear 24 1013 36 10000 7.2 70 21:51 09.03.2022
4858 Clear 24 1012 35 10000 7.2 70 21:31 09.03.2022
4859 Clear 26 1012 32 10000 7.72 100 19:44 09.03.2022
4860 Clear 26 1013 33 10000 6.69 100 18:33 09.03.2022
4861 Clear 22 1013 49 10000 3.09 150 17:27 09.03.2022
4862 Clear 23 1014 47 10000 2.06 200 16:31 09.03.2022
4863 Clear 26 1014 39 10000 4.63 200 14:59 09.03.2022
4864 Clear 27 1014 38 10000 4.63 210 13:53 09.03.2022
4865 Clear 28 1013 36 10000 6.69 190 12:45 09.03.2022
4866 Clear 30 1013 31 10000 6.17 210 11:53 09.03.2022
4867 Clear 30 1013 31 10000 6.17 210 11:53 09.03.2022
4868 Clear 31 1013 27 10000 7.2 190 11:35 09.03.2022
4869 Clear 33 1013 23 10000 7.72 220 09:54 09.03.2022
4870 Clear 34 1013 24 10000 7.2 240 08:51 09.03.2022
4871 Clear 35 1013 19 10000 4.63 50 07:27 09.03.2022
4872 Clear 29 1015 33 10000 7.2 60 02:42 09.03.2022
4873 Clear 23 1015 44 10000 7.72 70 00:28 09.03.2022
4874 Clear 22 1014 46 10000 6.69 70 22:47 08.03.2022
4875 Clear 23 1014 45 10000 6.69 70 21:55 08.03.2022
4876 Clear 23 1014 44 10000 7.2 70 21:22 08.03.2022
4877 Clear 24 1014 41 10000 7.72 70 20:24 08.03.2022
4878 Clear 25 1013 39 10000 8.75 90 19:30 08.03.2022
4879 Clear 25 1014 38 10000 9.26 90 18:41 08.03.2022
4880 Clear 26 1014 37 10000 6.69 100 16:59 08.03.2022
4881 Clear 26 1015 36 10000 6.17 110 14:58 08.03.2022
4882 Clear 26 1015 41 10000 3.6 130 13:54 08.03.2022
4883 Clear 29 1014 38 10000 4.63 130 12:28 08.03.2022
4884 Clear 30 1013 37 10000 5.66 130 11:43 08.03.2022
4885 Clear 32 1013 33 10000 5.14 130 10:29 08.03.2022
4886 Clear 34 1013 26 10000 4.12 140 08:57 08.03.2022
4887 Clear 32 1015 31 10000 6.17 120 06:31 08.03.2022
4888 Clear 27 1017 44 10000 6.69 70 03:48 08.03.2022
4889 Clear 19 1017 69 10000 10.8 90 22:53 07.03.2022
4890 Clear 19 1016 68 10000 7.72 100 21:45 07.03.2022
4891 Clear 20 1016 67 10000 8.75 90 21:23 07.03.2022
4892 Clear 20 1016 66 10000 8.75 90 20:34 07.03.2022
4893 Clear 20 1016 65 10000 11.83 90 19:50 07.03.2022
4894 Clear 21 1016 64 10000 11.83 100 19:24 07.03.2022
4895 Clear 21 1016 62 10000 8.75 90 18:33 07.03.2022
4896 Clear 23 1017 56 10000 7.72 100 17:31 07.03.2022
4897 Clear 24 1017 51 10000 7.72 110 16:54 07.03.2022
4898 Clear 27 1017 36 10000 4.63 120 14:51 07.03.2022
4899 Clear 30 1015 35 10000 6.69 110 12:34 07.03.2022
4900 Clear 32 1014 30 10000 7.72 130 11:34 07.03.2022
4901 Clear 33 1014 28 10000 7.2 110 10:31 07.03.2022
4902 Clear 34 1014 28 10000 7.72 110 08:34 07.03.2022
4903 Clear 27 1019 48 10000 9.26 100 02:50 07.03.2022
4904 Clear 22 1018 61 10000 7.72 90 00:20 07.03.2022
4905 Clear 21 1017 62 10000 7.2 100 23:23 06.03.2022
4906 Clear 22 1017 59 10000 10.8 100 22:29 06.03.2022
4907 Clear 23 1016 55 10000 7.2 90 21:37 06.03.2022
4908 Clear 24 1016 52 10000 6.17 100 20:29 06.03.2022
4909 Clear 24 1016 52 10000 5.14 130 19:39 06.03.2022
4910 Clear 23 1015 52 10000 4.63 120 18:50 06.03.2022
4911 Clear 21 1016 61 10000 2.57 160 17:46 06.03.2022
4912 Clear 21 1016 58 10000 3.6 170 17:19 06.03.2022
4913 Clear 23 1016 57 10000 4.12 210 16:39 06.03.2022
4914 Clear 24 1016 51 10000 4.63 190 15:26 06.03.2022
4915 Clear 25 1016 50 10000 7.72 190 14:42 06.03.2022
4916 Clear 25 1016 48 10000 8.75 190 13:49 06.03.2022
4917 Clear 27 1015 46 10000 7.2 210 12:40 06.03.2022
4918 Clear 28 1014 38 10000 8.23 210 11:45 06.03.2022
4919 Clear 30 1013 35 10000 8.23 220 10:39 06.03.2022
4920 Clear 32 1013 36 10000 7.72 230 09:18 06.03.2022
4921 Clear 33 1013 31 10000 7.72 240 08:28 06.03.2022
4922 Clear 34 1014 26 10000 3.6 90 07:25 06.03.2022
4923 Clear 26 1017 47 10000 5.14 70 02:22 06.03.2022
4924 Clear 22 1017 64 10000 5.66 70 00:35 06.03.2022
4925 Clear 20 1017 67 10000 5.14 70 23:59 05.03.2022
4926 Clear 20 1017 69 10000 4.63 70 23:19 05.03.2022
4927 Clear 21 1017 67 10000 5.66 90 22:32 05.03.2022
4928 Clear 21 1016 64 10000 8.75 90 21:29 05.03.2022
4929 Clear 22 1016 59 10000 10.29 100 20:27 05.03.2022
4930 Clear 23 1016 54 10000 8.75 100 19:18 05.03.2022
4931 Clear 23 1016 50 10000 6.69 110 18:37 05.03.2022
4932 Clear 21 1016 62 10000 2.06 160 17:31 05.03.2022
4933 Clear 21 1016 68 10000 3.09 230 16:18 05.03.2022
4934 Clear 23 1016 64 10000 4.12 190 14:54 05.03.2022
4935 Clear 23 1016 61 10000 5.14 190 14:35 05.03.2022
4936 Clear 23 1016 61 10000 5.14 190 14:35 05.03.2022
4937 Clear 24 1016 56 10000 5.66 190 13:37 05.03.2022
4938 Clear 25 1015 51 10000 8.23 190 12:33 05.03.2022
4939 Clear 28 1015 45 10000 6.17 210 11:20 05.03.2022
4940 Clear 28 1014 43 10000 6.69 210 10:52 05.03.2022
4941 Clear 31 1014 36 10000 7.2 240 09:30 05.03.2022
4942 Clear 32 1015 29 10000 5.66 130 08:24 05.03.2022
4943 Clear 31 1016 29 10000 5.66 100 06:29 05.03.2022
4944 Clear 29 1017 37 10000 5.14 60 04:54 05.03.2022
4945 Clear 19 1019 69 10000 5.66 100 00:30 05.03.2022
4946 Clear 18 1019 71 10000 6.69 100 22:45 04.03.2022
4947 Clear 18 1019 71 10000 6.69 100 22:24 04.03.2022
4948 Clear 19 1018 68 10000 6.69 100 21:42 04.03.2022
4949 Clear 20 1018 64 10000 5.66 90 20:36 04.03.2022
4950 Clear 20 1018 60 10000 5.14 110 19:36 04.03.2022
4951 Clear 21 1018 57 10000 5.66 110 18:47 04.03.2022
4952 Clear 21 1018 56 10000 4.12 120 18:27 04.03.2022
4953 Clear 20 1018 57 10000 4.12 180 17:29 04.03.2022
4954 Clear 21 1018 50 10000 3.6 160 15:48 04.03.2022
4955 Clear 23 1017 45 10000 3.6 160 14:40 04.03.2022
4956 Clear 24 1017 47 10000 3.6 130 13:27 04.03.2022
4957 Clear 25 1016 51 10000 5.66 110 11:57 04.03.2022
4958 Clear 27 1016 48 10000 5.66 250 10:58 04.03.2022
4959 Clear 28 1016 44 10000 5.66 240 10:23 04.03.2022
4960 Clear 28 1016 41 10000 7.2 110 09:27 04.03.2022
4961 Clear 29 1017 27 10000 6.69 120 07:47 04.03.2022
4962 Clear 26 1019 31 10000 5.66 120 05:26 04.03.2022
4963 Clear 17 1022 61 10000 3.6 100 00:43 04.03.2022
4964 Clear 15 1021 66 10000 4.12 120 23:28 03.03.2022
4965 Clear 16 1020 64 10000 6.69 100 21:58 03.03.2022
4966 Clear 16 1020 63 10000 5.66 100 21:35 03.03.2022
4967 Clear 17 1020 59 10000 5.14 110 20:27 03.03.2022
4968 Clear 18 1020 51 10000 7.72 100 18:58 03.03.2022
4969 Clear 18 1019 50 10000 6.69 110 18:25 03.03.2022
4970 Clear 19 1018 47 10000 5.66 110 17:31 03.03.2022
4971 Clear 17 1018 64 10000 3.09 190 16:28 03.03.2022
4972 Clear 18 1018 66 10000 4.63 170 15:41 03.03.2022
4973 Clear 19 1018 64 10000 7.2 190 14:44 03.03.2022
4974 Clear 20 1018 63 10000 7.2 190 14:25 03.03.2022
4975 Clear 21 1016 59 10000 7.2 210 12:28 03.03.2022
4976 Clear 23 1015 54 10000 8.23 230 10:58 03.03.2022
4977 Clear 24 1015 51 10000 9.77 220 09:58 03.03.2022
4978 Clear 25 1015 45 10000 8.75 230 08:42 03.03.2022
4979 Clear 25 1016 34 10000 3.6 110 06:54 03.03.2022
4980 Clear 23 1017 37 10000 7.2 150 05:20 03.03.2022
4981 Clear 11 1019 82 10000 3.6 190 23:45 02.03.2022
4982 Clear 11 1018 80 10000 3.09 210 22:54 02.03.2022
4983 Clear 11 1018 80 10000 3.6 210 22:31 02.03.2022
4984 Clear 12 1017 76 10000 4.12 180 20:59 02.03.2022
4985 Clear 13 1018 73 10000 4.63 190 20:25 02.03.2022
4986 Clear 13 1018 71 10000 3.6 180 19:37 02.03.2022
4987 Clear 13 1017 70 10000 3.6 190 18:58 02.03.2022
4988 Clear 14 1017 69 10000 2.57 200 18:31 02.03.2022
4989 Clear 15 1017 66 10000 4.12 180 17:41 02.03.2022
4990 Clear 15 1017 63 10000 4.12 170 16:52 02.03.2022
4991 Clear 17 1016 56 10000 6.69 200 15:46 02.03.2022
4992 Clear 18 1015 54 10000 7.72 200 13:52 02.03.2022
4993 Clouds 19 1014 54 10000 6.17 210 12:46 02.03.2022
4994 Clouds 19 1014 54 10000 7.2 200 12:46 02.03.2022
4995 Clear 20 1014 52 10000 8.23 210 12:24 02.03.2022
4996 Clear 21 1013 46 10000 8.75 220 11:26 02.03.2022
4997 Clear 22 1012 44 10000 8.75 220 10:31 02.03.2022
4998 Clear 23 1012 41 10000 8.75 230 09:36 02.03.2022
4999 Clear 23 1013 45 10000 8.75 220 08:34 02.03.2022
5000 Clouds 23 1012 50 10000 8.23 180 07:23 02.03.2022
5001 Clouds 19 1013 70 10000 8.23 160 04:46 02.03.2022
5002 Rain 17 1011 89 10000 3.09 210 00:40 02.03.2022
5003 Rain 17 1011 89 10000 3.09 210 00:40 02.03.2022
5004 Rain 17 1011 86 10000 3.6 200 23:24 01.03.2022
5005 Clouds 17 1010 85 10000 3.09 170 22:37 01.03.2022
5006 Clear 17 1010 85 10000 3.09 190 21:37 01.03.2022
5007 Clear 17 1009 83 10000 3.6 210 20:38 01.03.2022
5008 Clear 17 1009 83 10000 3.6 210 20:19 01.03.2022
5009 Clear 18 1009 79 10000 4.63 190 18:52 01.03.2022
5010 Clear 19 1009 77 10000 4.63 190 18:22 01.03.2022
5011 Clouds 19 1009 76 10000 5.14 210 17:39 01.03.2022
5012 Clouds 20 1009 75 10000 5.14 180 16:36 01.03.2022
5013 Clear 20 1009 75 10000 5.14 230 15:47 01.03.2022
5014 Clear 21 1009 76 10000 5.14 220 14:53 01.03.2022
5015 Clouds 21 1009 75 10000 5.66 220 14:31 01.03.2022
5016 Clouds 21 1009 74 10000 7.72 210 13:26 01.03.2022
5017 Clouds 22 1008 74 10000 8.75 230 12:35 01.03.2022
5018 Clouds 23 1007 72 10000 9.77 230 10:57 01.03.2022
5019 Rain 23 1007 76 10000 11.32 220 09:27 01.03.2022
5020 Rain 24 1006 70 10000 10.29 240 08:19 01.03.2022
5021 Clouds 26 1007 67 10000 9.77 230 06:47 01.03.2022
5022 Clouds 25 1008 67 10000 6.69 250 02:57 01.03.2022
5023 Clouds 23 1006 77 10000 6.17 240 00:47 01.03.2022
5024 Clouds 21 1005 83 10000 3.09 240 23:36 28.02.2022
5025 Clouds 21 1005 82 10000 3.6 250 22:30 28.02.2022
5026 Clouds 22 1005 79 10000 4.12 250 21:43 28.02.2022
5027 Clouds 23 1005 74 10000 4.63 230 20:34 28.02.2022
5028 Clouds 22 1005 75 10000 4.63 230 19:51 28.02.2022
5029 Clouds 22 1005 76 10000 5.66 240 18:50 28.02.2022
5030 Clouds 22 1005 76 10000 5.66 210 17:37 28.02.2022
5031 Clouds 22 1005 79 10000 5.14 210 17:18 28.02.2022
5032 Clouds 22 1005 81 10000 5.14 210 15:59 28.02.2022
5033 Clear 22 1005 82 10000 4.63 210 14:32 28.02.2022
5034 Clouds 22 1005 81 10000 5.14 220 13:52 28.02.2022
5035 Clouds 22 1005 81 10000 5.14 220 13:52 28.02.2022
5036 Clouds 23 1005 80 10000 6.69 220 13:18 28.02.2022
5037 Clear 24 1004 73 10000 6.69 240 11:59 28.02.2022
5038 Clear 25 1003 68 10000 6.17 240 11:19 28.02.2022
5039 Clouds 27 1003 59 10000 7.2 250 10:22 28.02.2022
5040 Clear 28 1003 55 10000 7.72 240 09:43 28.02.2022
5041 Clear 29 1004 50 10000 8.23 250 08:51 28.02.2022
5042 Clear 30 1002 47 10000 7.2 260 07:57 28.02.2022
5043 Clear 33 1004 38 10000 5.66 310 05:53 28.02.2022
5044 Clear 33 1003 35 10000 3.6 20 04:30 28.02.2022
5045 Clear 23 1005 63 10000 5.14 110 00:42 28.02.2022
5046 Clear 21 1004 72 10000 4.63 90 22:38 27.02.2022
5047 Clear 21 1004 72 10000 2.57 120 21:58 27.02.2022
5048 Clear 21 1004 72 10000 2.57 140 21:36 27.02.2022
5049 Clear 22 1005 71 10000 3.6 120 20:41 27.02.2022
5050 Clear 22 1005 71 10000 3.6 120 20:18 27.02.2022
5051 Clouds 22 1005 69 10000 4.63 120 19:43 27.02.2022
5052 Clear 22 1005 69 10000 4.63 120 19:18 27.02.2022
5053 Clear 23 1006 65 10000 3.6 140 17:57 27.02.2022
5054 Clear 23 1006 64 10000 4.63 130 17:34 27.02.2022
5055 Clear 25 1007 60 10000 5.66 130 16:22 27.02.2022
5056 Clear 27 1007 50 10000 6.69 170 14:28 27.02.2022
5057 Clear 30 1006 42 10000 6.69 130 12:35 27.02.2022
5058 Clear 31 1005 38 10000 7.72 110 11:36 27.02.2022
5059 Clear 32 1004 38 10000 7.72 130 10:36 27.02.2022
5060 Clear 33 1005 37 10000 8.75 130 09:52 27.02.2022
5061 Clear 33 1005 34 10000 6.69 130 09:21 27.02.2022
5062 Clear 33 1005 34 10000 7.72 150 08:38 27.02.2022
5063 Clear 30 1005 39 10000 5.14 150 05:41 27.02.2022
5064 Clouds 26 1010 54 10000 7.2 130 02:57 27.02.2022
5065 Clouds 19 1011 70 10000 5.14 170 23:36 26.02.2022
5066 Clouds 19 1010 71 10000 5.14 150 22:34 26.02.2022
5067 Clouds 20 1010 69 10000 5.14 150 21:19 26.02.2022
5068 Clouds 20 1010 70 10000 5.14 140 20:37 26.02.2022
5069 Clouds 20 1010 70 10000 5.14 140 20:37 26.02.2022
5070 Clear 20 1010 69 10000 5.66 140 19:54 26.02.2022
5071 Clear 20 1010 68 10000 5.66 150 19:33 26.02.2022
5072 Clear 22 1010 66 10000 7.2 130 17:58 26.02.2022
5073 Clear 22 1010 65 10000 6.69 150 17:30 26.02.2022
5074 Clear 23 1010 62 10000 7.72 150 16:36 26.02.2022
5075 Clear 24 1009 57 10000 7.72 140 15:27 26.02.2022
5076 Clear 25 1009 54 10000 8.23 130 14:58 26.02.2022
5077 Clear 26 1009 52 10000 8.75 140 14:39 26.02.2022
5078 Clear 27 1009 48 10000 8.75 150 13:46 26.02.2022
5079 Clear 29 1007 44 10000 7.2 160 12:53 26.02.2022
5080 Clear 31 1006 40 10000 8.23 160 11:39 26.02.2022
5081 Clear 31 1005 42 10000 8.23 170 10:59 26.02.2022
5082 Clear 32 1005 40 10000 5.14 180 09:22 26.02.2022
5083 Clear 32 1006 41 10000 5.66 180 07:57 26.02.2022
5084 Clear 28 1009 50 10000 4.63 180 04:21 26.02.2022
5085 Clear 20 1009 80 10000 4.63 170 23:35 25.02.2022
5086 Clear 20 1009 80 10000 4.63 170 22:18 25.02.2022
5087 Clear 20 1008 79 10000 5.66 170 21:29 25.02.2022
5088 Clear 21 1008 78 10000 5.14 170 20:33 25.02.2022
5089 Clear 21 1008 77 10000 5.14 170 19:53 25.02.2022
5090 Clear 22 1008 89 10000 3.09 110 17:48 25.02.2022
5091 Rain 22 1008 87 10000 0.51 190 16:46 25.02.2022
5092 Rain 23 1008 85 10000 2.57 220 15:49 25.02.2022
5093 Rain 23 1008 83 10000 2.57 210 15:23 25.02.2022
5094 Thunderstorm 24 1008 82 10000 3.6 220 14:49 25.02.2022
5095 Rain 24 1009 80 10000 3.6 250 14:18 25.02.2022
5096 Rain 24 1008 77 10000 4.12 240 13:20 25.02.2022
5097 Clear 25 1007 68 10000 6.17 220 11:52 25.02.2022
5098 Clear 27 1007 62 10000 6.17 240 11:18 25.02.2022
5099 Clear 28 1006 55 10000 6.69 240 10:23 25.02.2022
5100 Clear 29 1008 53 10000 6.69 230 09:36 25.02.2022
5101 Clear 30 1008 46 10000 6.69 260 07:47 25.02.2022
5102 Clear 31 1008 45 10000 5.66 260 06:51 25.02.2022
5103 Clear 31 1009 46 10000 6.17 250 05:38 25.02.2022
5104 Clear 22 1009 68 10000 2.06 150 00:46 25.02.2022
5105 Clear 20 1008 73 10000 3.09 120 22:30 24.02.2022
5106 Clear 21 1008 70 10000 3.6 150 21:43 24.02.2022
5107 Clear 21 1008 68 10000 3.6 150 21:21 24.02.2022
5108 Clear 22 1008 64 10000 3.09 140 20:42 24.02.2022
5109 Clear 24 1008 59 10000 4.12 120 19:29 24.02.2022
5110 Clear 25 1008 54 10000 4.63 120 18:20 24.02.2022
5111 Clear 24 1008 55 10000 2.57 160 17:51 24.02.2022
5112 Clear 24 1008 64 10000 2.57 150 17:18 24.02.2022
5113 Rain 23 1008 75 10000 1.54 200 16:25 24.02.2022
5114 Clear 24 1009 71 10000 2.57 210 15:41 24.02.2022
5115 Rain 25 1009 67 10000 3.09 230 14:44 24.02.2022
5116 Clear 26 1009 63 10000 4.12 220 13:51 24.02.2022
5117 Rain 26 1008 64 10000 3.6 210 13:30 24.02.2022
5118 Clouds 30 1007 47 10000 6.69 240 10:50 24.02.2022
5119 Clear 32 1007 42 10000 7.2 260 09:42 24.02.2022
5120 Clear 34 1008 34 10000 3.09 70 08:43 24.02.2022
5121 Clear 34 1008 34 10000 3.09 70 08:43 24.02.2022
5122 Clear 33 1009 30 10000 3.6 170 06:27 24.02.2022
5123 Clear 31 1010 33 10000 5.66 100 05:37 24.02.2022
5124 Clouds 21 1013 67 10000 6.69 110 00:30 24.02.2022
5125 Clouds 19 1013 72 10000 4.63 140 21:56 23.02.2022
5126 Clouds 19 1012 72 10000 7.2 120 20:43 23.02.2022
5127 Clouds 19 1012 71 10000 7.2 120 20:19 23.02.2022
5128 Clouds 19 1012 71 10000 7.2 120 19:23 23.02.2022
5129 Clouds 20 1013 68 10000 7.72 110 17:56 23.02.2022
5130 Clear 21 1013 63 10000 5.14 130 16:18 23.02.2022
5131 Clear 25 1012 52 10000 8.23 130 13:36 23.02.2022
5132 Clear 28 1012 44 10000 9.26 130 12:29 23.02.2022
5133 Clear 32 1009 33 10000 9.26 140 10:55 23.02.2022
5134 Clear 33 1008 30 10000 7.2 130 09:38 23.02.2022
5135 Clear 33 1008 30 10000 6.69 100 08:36 23.02.2022
5136 Clear 33 1009 32 10000 7.2 110 07:25 23.02.2022
5137 Clear 26 1011 57 10000 6.69 140 02:22 23.02.2022
5138 Clear 21 1011 74 10000 5.14 160 23:46 22.02.2022
5139 Clear 20 1011 76 10000 4.63 170 23:28 22.02.2022
5140 Clear 21 1010 74 10000 4.12 160 21:58 22.02.2022
5141 Clear 21 1010 73 10000 5.14 140 21:40 22.02.2022
5142 Clear 21 1010 72 10000 5.14 140 21:18 22.02.2022
5143 Clear 22 1009 72 10000 5.66 150 20:31 22.02.2022
5144 Clear 22 1009 74 10000 4.63 210 19:53 22.02.2022
5145 Clear 22 1009 75 10000 4.63 210 19:33 22.02.2022
5146 Clear 22 1009 78 10000 5.14 200 18:27 22.02.2022
5147 Clear 22 1009 76 10000 7.2 200 17:26 22.02.2022
5148 Clear 23 1009 75 10000 6.69 200 16:42 22.02.2022
5149 Clear 23 1009 76 10000 6.17 210 15:59 22.02.2022
5150 Clear 24 1009 76 10000 5.66 200 14:52 22.02.2022
5151 Clear 25 1008 73 10000 7.2 220 12:52 22.02.2022
5152 Clear 28 1006 51 10000 8.23 220 10:53 22.02.2022
5153 Clear 31 1007 33 10000 8.75 230 08:56 22.02.2022
5154 Clear 32 1007 37 10000 8.75 250 07:27 22.02.2022
5155 Clear 33 1008 34 10000 8.23 250 06:52 22.02.2022
5156 Clear 29 1008 42 10000 3.09 180 02:47 22.02.2022
5157 Clear 18 1008 85 10000 2.57 200 23:18 21.02.2022
5158 Clear 19 1007 85 10000 2.06 170 21:56 21.02.2022
5159 Clear 20 1007 82 10000 3.09 210 20:38 21.02.2022
5160 Clear 21 1007 79 10000 4.12 190 18:47 21.02.2022
5161 Clear 22 1008 75 10000 4.63 210 17:41 21.02.2022
5162 Clear 22 1008 75 10000 4.63 210 17:41 21.02.2022
5163 Clear 23 1008 66 10000 6.69 190 15:26 21.02.2022
5164 Clear 24 1008 66 10000 5.14 210 14:22 21.02.2022
5165 Clear 25 1008 62 10000 6.17 210 13:30 21.02.2022
5166 Clear 26 1007 54 10000 6.17 220 12:24 21.02.2022
5167 Clear 28 1006 47 10000 7.72 230 11:20 21.02.2022
5168 Clear 31 1006 43 10000 7.2 240 09:54 21.02.2022
5169 Clear 32 1009 35 10000 3.09 110 05:35 21.02.2022
5170 Clear 20 1012 62 10000 7.72 80 00:18 21.02.2022
5171 Clear 19 1011 64 10000 6.69 70 22:28 20.02.2022
5172 Clear 20 1011 62 10000 6.69 80 21:42 20.02.2022
5173 Clear 20 1011 62 10000 6.69 80 21:19 20.02.2022
5174 Clear 20 1011 62 10000 8.23 90 20:41 20.02.2022
5175 Clear 21 1011 60 10000 9.26 100 19:42 20.02.2022
5176 Clear 22 1011 57 10000 11.32 100 18:52 20.02.2022
5177 Clear 22 1011 55 10000 13.38 100 18:32 20.02.2022
5178 Clear 23 1011 50 10000 11.32 100 17:52 20.02.2022
5179 Clear 27 1011 39 10000 8.75 100 15:54 20.02.2022
5180 Clear 29 1011 35 10000 7.2 110 14:48 20.02.2022
5181 Clear 30 1011 32 10000 4.63 150 13:33 20.02.2022
5182 Clear 31 1010 26 10000 5.66 140 12:34 20.02.2022
5183 Clear 34 1011 23 10000 6.17 110 10:47 20.02.2022
5184 Clear 34 1011 22 10000 5.14 110 10:20 20.02.2022
5185 Clear 35 1011 21 10000 4.12 100 08:51 20.02.2022
5186 Clear 23 1015 52 10000 6.69 110 00:54 20.02.2022
5187 Clear 22 1015 54 10000 6.17 100 00:30 20.02.2022
5188 Clear 21 1015 55 10000 5.14 90 23:18 19.02.2022
5189 Clear 22 1014 50 10000 7.2 110 22:22 19.02.2022
5190 Clear 23 1013 43 10000 6.69 110 21:25 19.02.2022
5191 Clear 25 1014 39 10000 5.66 120 19:53 19.02.2022
5192 Clear 25 1013 37 10000 6.17 120 19:30 19.02.2022
5193 Clear 26 1013 33 10000 5.66 120 18:33 19.02.2022
5194 Clear 27 1013 34 10000 4.63 170 17:36 19.02.2022
5195 Clear 26 1013 51 10000 4.63 160 16:28 19.02.2022
5196 Clear 26 1013 57 10000 5.14 190 14:56 19.02.2022
5197 Clear 27 1013 57 10000 4.63 210 14:37 19.02.2022
5198 Clouds 27 1012 58 10000 4.63 230 13:22 19.02.2022
5199 Clear 31 1012 28 10000 7.2 230 11:37 19.02.2022
5200 Clear 35 1013 20 10000 9.77 230 09:45 19.02.2022
5201 Clear 38 1014 16 10000 6.69 270 06:54 19.02.2022
5202 Clear 32 1015 25 10000 2.57 140 02:52 19.02.2022
5203 Clear 22 1015 50 10000 2.57 170 23:28 18.02.2022
5204 Clear 21 1014 50 10000 2.57 330 21:49 18.02.2022
5205 Clear 22 1014 48 10000 2.06 350 20:42 18.02.2022
5206 Clear 22 1014 47 10000 0 0 19:52 18.02.2022
5207 Clear 23 1014 45 10000 2.06 170 18:50 18.02.2022
5208 Clear 23 1014 44 10000 2.06 170 18:20 18.02.2022
5209 Clear 24 1014 42 10000 3.09 190 17:38 18.02.2022
5210 Clear 28 1015 36 10000 4.63 190 14:48 18.02.2022
5211 Clear 29 1014 34 10000 5.14 180 13:54 18.02.2022
5212 Clear 31 1014 32 10000 5.66 210 12:51 18.02.2022
5213 Clear 33 1013 28 10000 5.66 210 11:58 18.02.2022
5214 Clear 33 1013 28 10000 5.66 210 11:58 18.02.2022
5215 Clear 34 1013 26 10000 7.72 240 11:21 18.02.2022
5216 Clear 38 1014 16 10000 7.2 230 09:30 18.02.2022
5217 Clear 38 1014 15 10000 3.09 150 06:51 18.02.2022
5218 Clear 36 1015 22 10000 4.63 70 05:37 18.02.2022
5219 Clear 22 1017 54 10000 8.23 70 22:46 17.02.2022
5220 Clear 23 1016 50 10000 8.75 80 21:43 17.02.2022
5221 Clear 24 1016 46 10000 8.23 80 20:52 17.02.2022
5222 Clear 24 1016 44 10000 9.77 90 20:34 17.02.2022
5223 Clear 25 1015 42 10000 10.29 90 19:43 17.02.2022
5224 Clear 27 1015 39 10000 10.29 90 18:37 17.02.2022
5225 Clear 27 1015 37 10000 9.77 100 17:47 17.02.2022
5226 Clear 29 1015 28 10000 9.77 100 16:20 17.02.2022
5227 Clear 30 1015 24 10000 5.14 110 14:39 17.02.2022
5228 Clear 30 1014 27 10000 5.14 110 13:47 17.02.2022
5229 Clear 34 1013 20 10000 6.17 110 11:57 17.02.2022
5230 Clear 34 1013 25 10000 5.66 120 11:21 17.02.2022
5231 Clear 37 1015 21 10000 4.12 150 07:57 17.02.2022
5232 Clear 22 1017 59 10000 7.72 70 00:20 17.02.2022
5233 Clear 21 1016 63 10000 8.23 100 22:38 16.02.2022
5234 Clear 23 1016 59 10000 6.69 110 20:32 16.02.2022
5235 Clear 24 1016 50 10000 6.69 100 19:27 16.02.2022
5236 Clear 26 1015 46 10000 9.26 110 18:35 16.02.2022
5237 Clear 27 1015 42 10000 9.77 100 17:27 16.02.2022
5238 Clear 30 1014 39 10000 7.72 130 15:24 16.02.2022
5239 Clear 31 1013 42 10000 6.69 190 13:47 16.02.2022
5240 Clear 32 1012 35 10000 7.2 210 12:27 16.02.2022
5241 Clear 34 1013 26 10000 8.23 200 11:46 16.02.2022
5242 Clear 35 1014 24 10000 9.77 220 10:35 16.02.2022
5243 Clear 36 1014 27 10000 9.77 220 09:39 16.02.2022
5244 Clear 37 1015 27 10000 8.23 240 06:44 16.02.2022
5245 Clear 34 1015 32 10000 5.14 50 02:47 16.02.2022
5246 Clear 26 1015 54 10000 6.69 70 22:34 15.02.2022
5247 Clear 26 1015 53 10000 5.66 100 21:51 15.02.2022
5248 Clear 26 1015 53 10000 5.66 100 21:30 15.02.2022
5249 Clear 27 1015 52 10000 4.63 100 20:58 15.02.2022
5250 Clear 27 1015 51 10000 5.14 90 20:26 15.02.2022
5251 Clear 27 1015 50 10000 5.66 100 19:45 15.02.2022
5252 Clear 27 1015 57 10000 2.06 150 18:26 15.02.2022
5253 Clear 27 1015 59 10000 5.14 170 17:53 15.02.2022
5254 Clouds 26 1015 61 10000 0 0 17:32 15.02.2022
5255 Clear 28 1015 60 10000 4.63 200 15:43 15.02.2022
5256 Clear 29 1015 54 10000 5.14 210 13:57 15.02.2022
5257 Clear 29 1014 51 10000 5.14 210 13:25 15.02.2022
5258 Clear 33 1013 37 10000 6.17 220 11:41 15.02.2022
5259 Clear 35 1013 38 10000 7.2 220 10:27 15.02.2022
5260 Clear 37 1016 26 10000 6.17 230 08:42 15.02.2022
5261 Clear 37 1017 30 10000 3.6 60 06:45 15.02.2022
5262 Clear 23 1017 67 10000 7.72 100 23:35 14.02.2022
5263 Clear 24 1017 66 10000 7.72 100 21:56 14.02.2022
5264 Clear 25 1016 66 10000 8.75 90 20:52 14.02.2022
5265 Clear 25 1016 71 10000 5.66 80 19:46 14.02.2022
5266 Clear 26 1016 71 10000 5.14 80 19:28 14.02.2022
5267 Clear 26 1016 71 10000 4.12 100 18:23 14.02.2022
5268 Clear 26 1016 67 10000 2.57 90 17:27 14.02.2022
5269 Clear 27 1016 61 10000 5.66 80 16:27 14.02.2022
5270 Clear 27 1015 65 10000 8.23 70 14:43 14.02.2022
5271 Clear 28 1015 66 10000 8.23 80 13:34 14.02.2022
5272 Clouds 29 1014 61 10000 9.26 80 12:58 14.02.2022
5273 Clouds 31 1014 47 10000 12.86 50 11:57 14.02.2022
5274 Clouds 35 1012 36 10000 7.2 210 11:38 14.02.2022
5275 Clouds 35 1013 36 10000 7.72 230 09:37 14.02.2022
5276 Clear 38 1013 32 10000 6.69 200 07:37 14.02.2022
5277 Clear 37 1013 34 10000 6.69 200 07:19 14.02.2022
5278 Clear 23 1012 60 10000 5.14 70 22:48 13.02.2022
5279 Clear 23 1013 57 10000 5.66 110 22:29 13.02.2022
5280 Clear 23 1012 57 10000 6.17 100 21:48 13.02.2022
5281 Clear 25 1011 55 10000 7.72 80 20:42 13.02.2022
5282 Clear 26 1011 55 10000 8.23 80 19:57 13.02.2022
5283 Clear 26 1011 53 10000 6.69 70 18:58 13.02.2022
5284 Clear 26 1011 53 10000 7.2 80 18:40 13.02.2022
5285 Clear 24 1012 63 10000 2.57 240 16:53 13.02.2022
5286 Clear 24 1012 67 10000 2.57 220 15:51 13.02.2022
5287 Clear 25 1011 68 10000 4.63 190 14:38 13.02.2022
5288 Clear 25 1011 66 10000 3.09 210 13:26 13.02.2022
5289 Clear 27 1010 59 10000 5.66 210 12:40 13.02.2022
5290 Clear 31 1009 44 10000 6.69 230 10:40 13.02.2022
5291 Clear 32 1009 41 10000 6.69 220 09:49 13.02.2022
5292 Clear 33 1011 39 10000 6.17 260 08:33 13.02.2022
5293 Clouds 23 1015 61 10000 8.75 90 01:24 13.02.2022
5294 Clouds 21 1014 67 10000 5.66 100 00:21 13.02.2022
5295 Clear 19 1013 72 10000 5.14 110 22:34 12.02.2022
5296 Clear 19 1013 71 10000 5.14 100 21:41 12.02.2022
5297 Clear 19 1013 69 10000 5.66 100 20:55 12.02.2022
5298 Clear 19 1013 67 10000 7.72 100 19:56 12.02.2022
5299 Clear 20 1013 63 10000 7.72 100 18:54 12.02.2022
5300 Clear 20 1013 63 10000 7.72 100 18:54 12.02.2022
5301 Clear 21 1012 62 10000 6.69 130 18:35 12.02.2022
5302 Clear 22 1012 59 10000 6.69 130 17:38 12.02.2022
5303 Clear 22 1012 62 10000 5.66 140 16:45 12.02.2022
5304 Clear 21 1012 69 10000 4.63 160 15:52 12.02.2022
5305 Clear 22 1012 70 10000 4.12 180 15:20 12.02.2022
5306 Clear 22 1012 68 10000 4.12 220 14:25 12.02.2022
5307 Clear 25 1010 61 10000 7.72 220 11:26 12.02.2022
5308 Clear 26 1009 58 10000 8.23 230 10:29 12.02.2022
5309 Clear 27 1009 58 10000 8.75 220 09:36 12.02.2022
5310 Clouds 27 1009 58 10000 7.72 240 08:46 12.02.2022
5311 Clouds 28 1010 55 10000 7.72 250 06:52 12.02.2022
5312 Clear 28 1011 44 10000 6.69 210 04:44 12.02.2022
5313 Clouds 23 1012 65 10000 8.75 210 02:19 12.02.2022
5314 Clear 19 1010 83 10000 5.66 200 23:20 11.02.2022
5315 Clouds 20 1009 86 10000 3.6 210 22:20 11.02.2022
5316 Clear 20 1009 85 10000 3.09 210 21:18 11.02.2022
5317 Clear 21 1009 83 10000 3.6 210 20:26 11.02.2022
5318 Clear 21 1009 81 10000 3.09 220 19:28 11.02.2022
5319 Clear 21 1009 80 10000 3.6 210 18:29 11.02.2022
5320 Clear 22 1010 80 10000 3.6 200 17:26 11.02.2022
5321 Rain 22 1010 79 10000 4.12 210 16:37 11.02.2022
5322 Clear 22 1009 76 10000 4.63 210 15:19 11.02.2022
5323 Clear 23 1009 71 10000 5.66 220 14:37 11.02.2022
5324 Clear 23 1009 71 10000 5.66 220 14:19 11.02.2022
5325 Clear 24 1008 73 10000 6.69 220 13:40 11.02.2022
5326 Clear 24 1007 75 10000 5.66 220 12:45 11.02.2022
5327 Clear 27 1005 66 10000 6.17 230 10:49 11.02.2022
5328 Clear 30 1005 55 10000 6.17 240 09:31 11.02.2022
5329 Clear 31 1005 52 10000 5.14 250 08:31 11.02.2022
5330 Clear 32 1006 48 10000 5.66 260 07:40 11.02.2022
5331 Clear 32 1008 50 10000 5.14 250 05:34 11.02.2022
5332 Clear 28 1007 60 10000 2.57 340 02:20 11.02.2022
5333 Clear 18 1007 87 10000 3.09 20 23:41 10.02.2022
5334 Clear 20 1005 88 10000 0 0 21:55 10.02.2022
5335 Clear 20 1005 88 10000 2.06 40 21:35 10.02.2022
5336 Rain 20 1005 88 10000 2.57 50 20:48 10.02.2022
5337 Clear 21 1005 85 10000 0 0 19:49 10.02.2022
5338 Clear 20 1005 84 10000 0.51 240 19:20 10.02.2022
5339 Clear 22 1006 78 10000 2.06 190 17:53 10.02.2022
5340 Clear 22 1006 74 10000 2.57 220 17:21 10.02.2022
5341 Rain 23 1006 70 10000 3.6 210 16:30 10.02.2022
5342 Clear 24 1006 64 10000 3.6 220 15:37 10.02.2022
5343 Rain 24 1006 63 10000 3.6 220 15:18 10.02.2022
5344 Clear 25 1006 60 10000 4.63 210 14:33 10.02.2022
5345 Clear 26 1006 59 10000 6.69 220 13:33 10.02.2022
5346 Clear 26 1005 56 10000 6.17 210 12:53 10.02.2022
5347 Clear 29 1004 41 10000 8.23 220 11:48 10.02.2022
5348 Clear 31 1004 38 10000 7.2 220 11:28 10.02.2022
5349 Clear 33 1004 32 10000 8.23 220 10:21 10.02.2022
5350 Clear 35 1004 26 10000 8.23 230 09:27 10.02.2022
5351 Clear 37 1006 23 10000 6.17 260 07:57 10.02.2022
5352 Clear 35 1006 23 10000 3.6 120 05:53 10.02.2022
5353 Clear 25 1009 46 10000 6.17 110 01:58 10.02.2022
5354 Clear 22 1010 52 10000 6.69 90 00:51 10.02.2022
5355 Clear 21 1010 55 10000 7.2 80 00:29 10.02.2022
5356 Clear 20 1010 57 10000 7.2 110 23:28 09.02.2022
5357 Clear 20 1009 58 10000 6.69 90 22:38 09.02.2022
5358 Clear 20 1009 60 10000 6.17 110 21:56 09.02.2022
5359 Clear 20 1009 61 10000 6.69 100 21:32 09.02.2022
5360 Clear 21 1009 61 10000 6.69 100 20:53 09.02.2022
5361 Clear 21 1009 61 10000 6.69 100 20:31 09.02.2022
5362 Clear 22 1009 57 10000 7.2 100 19:59 09.02.2022
5363 Clear 22 1009 57 10000 5.66 100 19:38 09.02.2022
5364 Rain 19 1009 81 10000 3.09 190 17:39 09.02.2022
5365 Clear 19 1010 78 10000 2.57 200 16:53 09.02.2022
5366 Clear 20 1010 76 10000 3.6 210 15:54 09.02.2022
5367 Clear 22 1011 74 10000 4.12 210 14:43 09.02.2022
5368 Clear 24 1010 63 10000 5.66 210 12:30 09.02.2022
5369 Clear 26 1010 55 10000 6.69 220 11:19 09.02.2022
5370 Clear 26 1009 52 10000 7.2 230 10:30 09.02.2022
5371 Clear 27 1009 49 10000 7.72 250 09:42 09.02.2022
5372 Clear 27 1009 48 10000 7.72 250 09:19 09.02.2022
5373 Clear 28 1010 47 10000 9.26 250 07:55 09.02.2022
5374 Clear 28 1012 41 10000 3.6 190 05:30 09.02.2022
5375 Clear 26 1012 48 10000 2.57 100 03:50 09.02.2022
5376 Clear 20 1014 67 10000 6.17 170 00:53 09.02.2022
5377 Clear 17 1014 84 10000 5.66 180 23:34 08.02.2022
5378 Clear 16 1013 88 10000 5.66 180 22:47 08.02.2022
5379 Clear 16 1013 88 10000 5.14 180 22:21 08.02.2022
5380 Clear 16 1012 89 10000 4.63 190 21:42 08.02.2022
5381 Clear 17 1012 89 10000 4.63 190 21:21 08.02.2022
5382 Clear 16 1012 90 10000 2.57 160 20:44 08.02.2022
5383 Clear 17 1012 90 10000 2.57 160 19:46 08.02.2022
5384 Clear 18 1012 88 10000 4.63 190 18:38 08.02.2022
5385 Clear 18 1012 86 10000 4.63 190 17:42 08.02.2022
5386 Clear 19 1013 83 10000 6.17 190 16:30 08.02.2022
5387 Clear 20 1013 80 10000 6.69 190 15:30 08.02.2022
5388 Clear 20 1013 80 10000 6.69 190 15:30 08.02.2022
5389 Clear 20 1012 78 10000 7.2 200 14:36 08.02.2022
5390 Clear 21 1012 75 10000 6.69 210 13:20 08.02.2022
5391 Clear 23 1011 61 10000 8.23 220 11:33 08.02.2022
5392 Clouds 25 1011 54 10000 8.23 240 10:23 08.02.2022
5393 Clouds 25 1012 52 10000 8.75 230 09:44 08.02.2022
5394 Clear 26 1012 46 10000 6.69 230 07:51 08.02.2022
5395 Clear 25 1014 43 10000 3.09 70 05:40 08.02.2022
5396 Clear 24 1014 44 10000 5.14 210 04:39 08.02.2022
5397 Clear 24 1014 44 10000 5.14 210 04:21 08.02.2022
5398 Clouds 24 1015 46 10000 4.12 180 03:36 08.02.2022
5399 Clouds 23 1015 47 10000 4.12 180 03:18 08.02.2022
5400 Clouds 22 1015 51 10000 3.09 120 02:58 08.02.2022
5401 Clouds 22 1015 52 10000 1.54 210 02:36 08.02.2022
5402 Clouds 21 1015 53 10000 1.54 210 02:18 08.02.2022
5403 Clouds 20 1015 60 10000 2.57 50 01:43 08.02.2022
5404 Clouds 19 1015 61 10000 2.57 50 01:24 08.02.2022
5405 Clouds 18 1015 65 10000 3.6 70 00:53 08.02.2022
5406 Clouds 15 1014 77 10000 2.06 20 23:54 07.02.2022
5407 Clouds 14 1014 80 10000 3.09 50 23:36 07.02.2022
5408 Clouds 13 1014 82 10000 3.09 50 23:18 07.02.2022
5409 Clear 14 1013 80 10000 0 0 22:19 07.02.2022
5410 Clouds 14 1013 78 10000 0 0 21:53 07.02.2022
5411 Clouds 14 1012 77 10000 1.54 50 21:29 07.02.2022
5412 Clouds 15 1012 74 10000 1.03 70 20:56 07.02.2022
5413 Clouds 15 1012 72 10000 4.12 140 20:38 07.02.2022
5414 Clouds 16 1012 69 10000 4.12 130 19:49 07.02.2022
5415 Clouds 17 1012 67 10000 6.17 150 19:31 07.02.2022
5416 Clouds 16 1013 73 10000 3.6 180 17:41 07.02.2022
5417 Clouds 17 1012 69 10000 2.57 170 16:52 07.02.2022
5418 Clouds 18 1012 65 10000 4.63 190 15:49 07.02.2022
5419 Clouds 19 1012 62 10000 6.69 210 14:44 07.02.2022
5420 Clouds 19 1011 62 10000 6.69 210 13:27 07.02.2022
5421 Clouds 20 1010 58 10000 7.72 230 12:38 07.02.2022
5422 Clouds 20 1010 53 10000 9.26 220 11:55 07.02.2022
5423 Clouds 21 1010 53 10000 8.23 230 11:26 07.02.2022
5424 Clouds 21 1010 53 10000 8.23 220 10:45 07.02.2022
5425 Clouds 22 1010 49 10000 9.77 210 10:26 07.02.2022
5426 Clouds 22 1010 48 10000 9.77 220 09:52 07.02.2022
5427 Clouds 23 1009 50 10000 8.75 220 09:18 07.02.2022
5428 Clear 24 1011 41 10000 9.26 230 07:59 07.02.2022
5429 Clouds 23 1011 47 10000 8.23 230 06:35 07.02.2022
5430 Clouds 23 1010 50 10000 8.23 220 05:26 07.02.2022
5431 Clouds 22 1009 50 10000 7.2 240 02:56 07.02.2022
5432 Clouds 19 1008 55 10000 3.6 150 00:29 07.02.2022
5433 Clouds 18 1007 65 10000 6.17 220 23:33 06.02.2022
5434 Clouds 17 1007 68 10000 6.17 210 22:45 06.02.2022
5435 Clouds 18 1007 64 10000 6.69 220 21:47 06.02.2022
5436 Clear 18 1007 62 10000 7.2 230 21:21 06.02.2022
5437 Clear 18 1007 62 10000 7.2 230 21:21 06.02.2022
5438 Clear 18 1007 62 10000 7.2 230 21:21 06.02.2022
5439 Clouds 18 1006 57 10000 8.23 240 20:48 06.02.2022
5440 Clouds 18 1006 56 10000 8.23 240 20:24 06.02.2022
5441 Clouds 18 1006 61 10000 5.14 230 19:30 06.02.2022
5442 Clouds 18 1006 63 10000 6.17 230 18:34 06.02.2022
5443 Rain 18 1006 61 10000 9.26 230 17:39 06.02.2022
5444 Clouds 19 1005 60 10000 8.23 230 16:52 06.02.2022
5445 Clouds 19 1005 59 10000 6.69 240 16:29 06.02.2022
5446 Clouds 18 1005 63 10000 7.72 250 15:47 06.02.2022
5447 Clouds 18 1005 63 10000 7.72 250 15:47 06.02.2022
5448 Clouds 18 1005 66 10000 7.72 250 15:25 06.02.2022
5449 Clouds 19 1005 65 10000 8.23 250 14:23 06.02.2022
5450 Rain 19 1004 71 10000 5.66 230 13:23 06.02.2022
5451 Clouds 19 1003 70 10000 7.72 260 12:33 06.02.2022
5452 Clouds 18 1003 93 10000 10.29 240 10:37 06.02.2022
5453 Clouds 21 1001 84 10000 8.75 250 09:48 06.02.2022
5454 Clouds 26 1000 59 10000 8.23 260 08:41 06.02.2022
5455 Clouds 25 1002 60 10000 6.17 290 07:31 06.02.2022
5456 Clouds 26 1001 65 10000 7.2 270 05:28 06.02.2022
5457 Clouds 25 1003 69 10000 5.14 260 02:25 06.02.2022
5458 Clouds 23 1002 80 10000 1.54 340 00:49 06.02.2022
5459 Clouds 22 1001 82 10000 2.57 40 00:22 06.02.2022
5460 Clouds 22 999 89 10000 0.51 150 21:48 05.02.2022
5461 Clear 21 1000 85 10000 1.03 360 20:47 05.02.2022
5462 Clear 22 1000 84 10000 0.51 100 20:22 05.02.2022
5463 Clear 22 1000 82 10000 2.06 340 19:42 05.02.2022
5464 Clear 22 1001 79 10000 2.06 40 18:37 05.02.2022
5465 Clear 23 1001 75 10000 0 0 17:35 05.02.2022
5466 Clear 24 1002 66 10000 1.54 10 16:20 05.02.2022
5467 Clear 25 1003 59 10000 2.06 20 15:31 05.02.2022
5468 Clear 28 1003 42 10000 2.57 290 13:38 05.02.2022
5469 Clear 30 1002 33 10000 2.57 260 12:46 05.02.2022
5470 Clear 33 1002 26 10000 4.63 230 11:45 05.02.2022
5471 Clear 35 1002 28 10000 4.12 260 10:43 05.02.2022
5472 Clear 37 1004 18 10000 6.69 240 09:50 05.02.2022
5473 Clear 39 1004 12 10000 7.72 260 08:39 05.02.2022
5474 Clear 42 1005 10 10000 5.66 270 06:59 05.02.2022
5475 Clear 42 1005 11 10000 4.63 10 06:27 05.02.2022
5476 Clear 35 1007 18 10000 3.6 50 02:31 05.02.2022
5477 Clear 31 1007 25 10000 3.6 50 01:18 05.02.2022
5478 Clear 27 1007 36 10000 4.12 70 00:36 05.02.2022
5479 Clear 22 1008 45 10000 2.06 70 23:33 04.02.2022
5480 Clear 20 1007 49 10000 2.57 60 22:39 04.02.2022
5481 Clear 19 1007 55 10000 1.03 70 21:36 04.02.2022
5482 Clear 19 1007 55 10000 1.03 70 21:18 04.02.2022
5483 Clear 20 1007 53 10000 0 0 20:29 04.02.2022
5484 Clear 23 1006 52 10000 0 0 18:35 04.02.2022
5485 Clear 25 1006 42 10000 1.54 20 16:20 04.02.2022
5486 Clear 26 1006 37 10000 2.06 20 15:18 04.02.2022
5487 Clear 27 1006 34 10000 2.06 100 14:26 04.02.2022
5488 Clear 31 1006 22 10000 3.6 250 12:43 04.02.2022
5489 Clear 33 1005 17 10000 4.12 230 11:44 04.02.2022
5490 Clear 35 1007 15 10000 6.17 230 10:51 04.02.2022
5491 Clear 37 1006 17 10000 7.72 260 09:31 04.02.2022
5492 Clear 40 1006 11 10000 4.12 340 07:35 04.02.2022
5493 Clear 35 1007 18 10000 8.23 20 02:54 04.02.2022
5494 Clear 33 1007 20 10000 6.17 40 02:20 04.02.2022
5495 Clear 27 1007 26 10000 6.17 50 23:32 03.02.2022
5496 Clear 28 1007 24 10000 6.69 50 22:48 03.02.2022
5497 Clear 28 1006 24 10000 6.17 50 21:50 03.02.2022
5498 Clouds 28 1005 23 10000 5.66 80 20:50 03.02.2022
5499 Clear 29 1005 23 10000 6.17 80 20:20 03.02.2022
5500 Clear 29 1005 23 10000 4.63 80 19:34 03.02.2022
5501 Clear 29 1005 22 10000 5.66 70 18:44 03.02.2022
5502 Clear 30 1005 21 10000 5.66 70 17:47 03.02.2022
5503 Clear 30 1005 21 10000 8.23 80 16:39 03.02.2022
5504 Clear 31 1006 21 10000 7.2 90 14:54 03.02.2022
5505 Clear 32 1005 21 10000 3.6 100 13:18 03.02.2022
5506 Clear 37 1006 12 10000 5.14 90 11:43 03.02.2022
5507 Clear 39 1005 14 10000 6.69 60 08:38 03.02.2022
5508 Clear 35 1008 19 10000 7.2 60 05:26 03.02.2022
5509 Clear 26 1009 34 10000 8.23 60 00:32 03.02.2022
5510 Clear 25 1009 35 10000 8.23 60 23:44 02.02.2022
5511 Clear 24 1008 34 10000 8.75 60 22:35 02.02.2022
5512 Clear 25 1008 33 10000 7.72 50 21:37 02.02.2022
5513 Clear 25 1008 31 10000 8.23 50 20:53 02.02.2022
5514 Clear 26 1008 30 10000 10.29 70 19:59 02.02.2022
5515 Clear 27 1008 29 10000 10.29 60 19:32 02.02.2022
5516 Clear 27 1008 28 10000 9.77 60 18:50 02.02.2022
5517 Clear 27 1008 28 10000 11.32 70 18:22 02.02.2022
5518 Clear 28 1009 28 10000 8.75 70 17:19 02.02.2022
5519 Clear 28 1009 26 10000 8.23 80 16:42 02.02.2022
5520 Clear 29 1009 22 10000 3.6 100 13:35 02.02.2022
5521 Clear 31 1008 20 10000 6.17 90 12:25 02.02.2022
5522 Clear 32 1008 19 10000 6.17 90 11:34 02.02.2022
5523 Clear 33 1007 19 10000 7.72 90 10:31 02.02.2022
5524 Clear 33 1009 21 10000 7.72 110 07:37 02.02.2022
5525 Clear 18 1010 58 10000 14.4 90 22:52 01.02.2022
5526 Clear 18 1010 58 10000 12.35 90 21:52 01.02.2022
5527 Clear 18 1010 57 10000 9.26 90 20:36 01.02.2022
5528 Clear 20 1009 45 10000 9.77 100 17:50 01.02.2022
5529 Clear 22 1009 39 10000 8.23 110 16:40 01.02.2022
5530 Clear 25 1009 31 10000 8.75 100 14:47 01.02.2022
5531 Clear 27 1009 26 10000 7.2 110 12:45 01.02.2022
5532 Clear 29 1008 22 10000 9.77 110 11:34 01.02.2022
5533 Clear 25 1011 35 10000 10.8 90 04:53 01.02.2022
5534 Clear 18 1013 60 10000 8.23 110 23:42 31.01.2022
5535 Clear 18 1013 60 10000 8.23 110 23:42 31.01.2022
5536 Clear 17 1013 61 10000 8.23 110 23:21 31.01.2022
5537 Clear 17 1012 60 10000 7.2 110 21:42 31.01.2022
5538 Clear 17 1012 59 10000 7.2 110 21:19 31.01.2022
5539 Clear 17 1012 56 10000 9.77 110 20:32 31.01.2022
5540 Clear 17 1012 54 10000 4.63 140 19:35 31.01.2022
5541 Clear 18 1012 55 10000 7.72 140 18:26 31.01.2022
5542 Clear 18 1012 54 10000 5.66 140 17:33 31.01.2022
5543 Clear 19 1012 53 10000 9.26 120 16:38 31.01.2022
5544 Clear 20 1012 51 10000 7.72 120 15:41 31.01.2022
5545 Clear 22 1011 45 10000 9.77 140 14:22 31.01.2022
5546 Clear 26 1010 36 10000 9.26 130 12:39 31.01.2022
5547 Clear 28 1008 34 10000 10.8 130 11:55 31.01.2022
5548 Clear 29 1007 32 10000 8.75 130 10:50 31.01.2022
5549 Clear 29 1007 32 10000 8.75 130 10:50 31.01.2022
5550 Clear 30 1007 33 10000 9.77 140 10:25 31.01.2022
5551 Clear 31 1007 31 10000 7.2 130 09:23 31.01.2022
5552 Clouds 31 1007 32 10000 9.77 120 08:47 31.01.2022
5553 Clouds 31 1007 32 10000 10.8 150 08:20 31.01.2022
5554 Clear 30 1009 39 10000 7.72 140 06:18 31.01.2022
5555 Clear 22 1010 59 10000 5.66 130 00:46 31.01.2022
5556 Clear 19 1009 70 10000 5.14 170 22:40 30.01.2022
5557 Clear 19 1009 70 10000 5.14 170 22:22 30.01.2022
5558 Clear 19 1009 70 10000 3.6 160 21:38 30.01.2022
5559 Clear 20 1009 70 10000 3.6 160 21:18 30.01.2022
5560 Clear 20 1009 69 10000 5.14 160 20:45 30.01.2022
5561 Clear 20 1009 68 10000 5.66 160 20:27 30.01.2022
5562 Clear 21 1008 68 10000 4.12 150 19:24 30.01.2022
5563 Clear 22 1008 66 10000 4.63 140 18:36 30.01.2022
5564 Clear 23 1009 62 10000 6.69 140 17:54 30.01.2022
5565 Clear 23 1008 59 10000 6.17 160 17:21 30.01.2022
5566 Clear 24 1007 63 10000 5.14 190 16:39 30.01.2022
5567 Clear 24 1007 63 10000 5.14 190 16:21 30.01.2022
5568 Clear 24 1007 76 10000 3.09 200 15:49 30.01.2022
5569 Clear 24 1007 78 10000 3.6 210 15:30 30.01.2022
5570 Clear 24 1007 76 10000 3.09 220 14:45 30.01.2022
5571 Clear 26 1006 63 10000 5.14 240 12:46 30.01.2022
5572 Clear 28 1004 57 10000 6.17 240 11:53 30.01.2022
5573 Clear 32 1004 43 10000 6.69 240 10:27 30.01.2022
5574 Clear 34 1005 33 10000 7.72 230 09:48 30.01.2022
5575 Clear 34 1006 39 10000 7.72 240 08:48 30.01.2022
5576 Clear 33 1007 45 10000 6.69 260 06:55 30.01.2022
5577 Clear 29 1008 52 10000 3.09 210 01:55 30.01.2022
5578 Clear 25 1007 66 10000 3.09 20 00:19 30.01.2022
5579 Clear 21 1006 80 10000 1.54 360 22:58 29.01.2022
5580 Clear 22 1006 76 10000 1.54 50 21:46 29.01.2022
5581 Clear 22 1005 75 10000 2.57 200 21:22 29.01.2022
5582 Clear 23 1005 73 10000 1.54 190 20:22 29.01.2022
5583 Clear 23 1005 71 10000 2.06 180 19:33 29.01.2022
5584 Clear 24 1005 70 10000 2.06 170 18:51 29.01.2022
5585 Clear 24 1005 66 10000 0.51 120 18:18 29.01.2022
5586 Clouds 24 1005 65 10000 0 0 17:27 29.01.2022
5587 Clouds 26 1006 59 10000 0 0 15:42 29.01.2022
5588 Clear 28 1006 48 10000 3.6 220 13:58 29.01.2022
5589 Clouds 28 1006 47 10000 4.12 220 13:38 29.01.2022
5590 Clouds 28 1006 46 10000 4.12 220 13:20 29.01.2022
5591 Clear 33 1005 33 10000 7.72 210 11:40 29.01.2022
5592 Clear 33 1005 33 10000 7.72 210 11:40 29.01.2022
5593 Clear 34 1005 32 10000 7.72 230 10:38 29.01.2022
5594 Clouds 37 1006 29 10000 8.23 250 08:36 29.01.2022
5595 Clear 34 1008 31 10000 7.72 50 03:25 29.01.2022
5596 Clear 26 1008 46 10000 8.75 80 00:32 29.01.2022
5597 Clear 24 1008 52 10000 8.23 70 23:32 28.01.2022
5598 Clear 24 1008 52 10000 8.23 70 23:32 28.01.2022
5599 Clear 23 1007 54 10000 9.26 80 22:48 28.01.2022
5600 Clear 23 1007 54 10000 9.77 90 22:19 28.01.2022
5601 Clear 24 1007 49 10000 11.32 100 20:41 28.01.2022
5602 Clear 25 1007 47 10000 11.32 100 19:58 28.01.2022
5603 Clear 26 1007 43 10000 9.77 100 18:52 28.01.2022
5604 Clear 26 1007 41 10000 9.77 100 18:34 28.01.2022
5605 Clear 27 1008 32 10000 4.63 170 16:37 28.01.2022
5606 Clear 26 1008 51 10000 5.66 190 14:58 28.01.2022
5607 Clear 26 1008 59 10000 4.63 220 13:21 28.01.2022
5608 Clear 29 1007 53 10000 4.63 260 11:50 28.01.2022
5609 Clear 33 1006 36 10000 2.57 100 10:27 28.01.2022
5610 Clear 34 1008 31 10000 4.12 140 09:47 28.01.2022
5611 Clear 34 1009 28 10000 3.6 70 07:42 28.01.2022
5612 Clear 32 1009 31 10000 4.12 130 06:29 28.01.2022
5613 Clear 28 1012 41 10000 6.69 90 03:51 28.01.2022
5614 Clear 24 1012 50 10000 7.2 90 02:27 28.01.2022
5615 Clear 22 1012 56 10000 7.72 90 01:37 28.01.2022
5616 Clear 22 1012 56 10000 7.72 90 01:37 28.01.2022
5617 Clear 19 1012 62 10000 3.09 100 00:42 28.01.2022
5618 Clear 17 1012 69 10000 4.63 120 22:20 27.01.2022
5619 Clear 17 1011 66 10000 3.09 150 21:37 27.01.2022
5620 Clear 18 1011 63 10000 4.63 90 20:59 27.01.2022
5621 Clear 18 1011 63 10000 4.63 90 20:59 27.01.2022
5622 Clear 19 1010 57 10000 8.75 110 19:38 27.01.2022
5623 Clear 21 1010 50 10000 8.75 90 18:19 27.01.2022
5624 Clear 24 1009 43 10000 7.2 100 16:45 27.01.2022
5625 Clear 24 1008 60 10000 4.63 200 13:58 27.01.2022
5626 Clear 25 1007 57 10000 6.69 210 12:49 27.01.2022
5627 Clear 26 1007 56 10000 7.2 220 11:53 27.01.2022
5628 Clear 28 1007 48 10000 8.75 240 09:48 27.01.2022
5629 Clear 29 1007 46 10000 9.26 240 08:40 27.01.2022
5630 Clear 29 1007 45 10000 7.72 210 07:31 27.01.2022
5631 Clear 26 1009 49 10000 5.66 120 03:19 27.01.2022
5632 Clouds 21 1009 66 10000 3.6 120 00:23 27.01.2022
5633 Clouds 19 1007 73 10000 5.66 100 22:27 26.01.2022
5634 Clear 19 1007 72 10000 5.66 100 21:42 26.01.2022
5635 Clear 20 1006 70 10000 5.66 110 20:42 26.01.2022
5636 Clear 20 1005 70 10000 5.66 110 20:24 26.01.2022
5637 Clear 21 1005 66 10000 5.14 120 19:28 26.01.2022
5638 Clear 21 1005 64 10000 3.6 90 18:46 26.01.2022
5639 Clear 22 1005 64 10000 4.63 110 17:52 26.01.2022
5640 Clear 21 1004 69 10000 1.03 80 17:24 26.01.2022
5641 Clear 21 1005 72 10000 3.6 180 16:40 26.01.2022
5642 Clear 22 1005 73 10000 3.6 210 15:50 26.01.2022
5643 Clear 23 1005 69 10000 4.63 210 14:23 26.01.2022
5644 Clear 24 1004 63 10000 7.72 210 11:59 26.01.2022
5645 Clear 26 1004 54 10000 8.23 220 10:45 26.01.2022
5646 Clear 26 1004 53 10000 8.75 230 09:49 26.01.2022
5647 Clear 27 1005 50 10000 7.2 230 08:32 26.01.2022
5648 Clear 27 1006 46 10000 3.09 140 06:20 26.01.2022
5649 Clear 27 1006 46 10000 3.09 140 06:20 26.01.2022
5650 Clear 19 1008 65 10000 4.63 110 00:18 26.01.2022
5651 Clear 18 1008 71 10000 6.17 110 23:28 25.01.2022
5652 Clear 17 1007 73 10000 4.12 110 22:48 25.01.2022
5653 Clear 18 1007 71 10000 4.63 120 22:18 25.01.2022
5654 Clear 18 1007 69 10000 3.6 130 21:22 25.01.2022
5655 Clear 18 1007 68 10000 4.12 120 20:44 25.01.2022
5656 Clear 19 1006 66 10000 4.63 120 19:53 25.01.2022
5657 Clear 19 1006 66 10000 4.63 120 19:53 25.01.2022
5658 Clear 20 1007 63 10000 4.12 110 18:43 25.01.2022
5659 Clear 21 1007 58 10000 4.63 130 17:45 25.01.2022
5660 Clear 22 1007 54 10000 5.14 120 16:47 25.01.2022
5661 Clear 22 1007 53 10000 5.14 120 16:21 25.01.2022
5662 Clear 22 1007 52 10000 3.6 130 15:38 25.01.2022
5663 Clear 23 1007 49 10000 3.6 130 14:58 25.01.2022
5664 Clear 24 1006 46 10000 3.6 130 13:46 25.01.2022
5665 Clear 28 1005 38 10000 6.17 120 10:58 25.01.2022
5666 Clear 29 1006 37 10000 7.2 130 08:38 25.01.2022
5667 Clear 29 1006 39 10000 6.69 130 07:29 25.01.2022
5668 Clear 28 1007 41 10000 7.72 140 06:49 25.01.2022
5669 Clear 27 1008 40 10000 6.69 130 05:22 25.01.2022
5670 Clouds 17 1011 72 10000 4.12 180 23:37 24.01.2022
5671 Clouds 16 1011 72 10000 4.12 180 23:18 24.01.2022
5672 Clouds 16 1011 73 10000 5.14 170 22:59 24.01.2022
5673 Clouds 16 1011 72 10000 4.12 150 22:41 24.01.2022
5674 Clear 17 1010 70 10000 3.6 160 21:53 24.01.2022
5675 Clear 17 1010 67 10000 5.14 150 21:29 24.01.2022
5676 Clear 17 1010 64 10000 5.66 160 20:30 24.01.2022
5677 Clear 18 1010 61 10000 4.63 160 19:50 24.01.2022
5678 Clear 18 1010 59 10000 4.63 160 19:24 24.01.2022
5679 Clear 19 1011 54 10000 6.69 150 18:18 24.01.2022
5680 Clear 20 1011 50 10000 6.69 150 17:24 24.01.2022
5681 Clear 21 1011 48 10000 7.72 140 16:52 24.01.2022
5682 Clear 21 1011 45 10000 7.72 140 16:19 24.01.2022
5683 Clear 24 1010 38 10000 8.75 140 14:38 24.01.2022
5684 Clear 26 1009 32 10000 9.26 160 12:58 24.01.2022
5685 Clear 27 1008 31 10000 8.75 140 12:23 24.01.2022
5686 Clear 30 1006 26 10000 7.72 140 10:27 24.01.2022
5687 Clear 31 1006 27 10000 8.23 170 09:48 24.01.2022
5688 Clear 31 1007 28 10000 8.75 150 08:30 24.01.2022
5689 Clear 30 1008 33 10000 7.2 150 06:19 24.01.2022
5690 Clouds 23 1011 56 10000 9.77 150 01:30 24.01.2022
5691 Clouds 22 1011 60 10000 7.72 150 00:35 24.01.2022
5692 Clear 21 1011 62 10000 7.2 150 23:49 23.01.2022
5693 Clear 21 1011 62 10000 7.2 150 23:49 23.01.2022
5694 Clear 20 1010 64 10000 6.17 160 22:28 23.01.2022
5695 Clear 21 1009 62 10000 5.66 170 21:46 23.01.2022
5696 Clear 21 1009 61 10000 5.66 170 21:25 23.01.2022
5697 Clear 21 1009 62 10000 6.69 170 20:44 23.01.2022
5698 Clear 22 1008 60 10000 6.69 170 19:43 23.01.2022
5699 Clear 22 1008 61 10000 5.14 190 18:50 23.01.2022
5700 Clear 23 1008 64 10000 5.66 200 17:34 23.01.2022
5701 Clear 24 1008 64 10000 5.66 200 16:45 23.01.2022
5702 Clear 24 1008 72 10000 6.69 210 14:59 23.01.2022
5703 Clear 24 1008 75 10000 6.69 210 14:21 23.01.2022
5704 Clear 25 1007 70 10000 9.26 220 12:51 23.01.2022
5705 Clear 26 1007 66 10000 8.75 230 12:22 23.01.2022
5706 Clear 28 1007 56 10000 9.77 220 11:51 23.01.2022
5707 Clear 30 1007 47 10000 9.26 240 11:18 23.01.2022
5708 Clear 34 1007 25 10000 8.75 240 10:27 23.01.2022
5709 Clear 36 1008 20 10000 9.26 220 09:40 23.01.2022
5710 Clear 36 1008 18 10000 8.23 210 08:51 23.01.2022
5711 Clear 39 1008 20 10000 2.57 250 05:55 23.01.2022
5712 Clear 31 1009 35 10000 4.63 80 01:49 23.01.2022
5713 Clear 30 1010 38 10000 6.69 80 01:25 23.01.2022
5714 Clear 28 1010 42 10000 8.75 80 00:23 23.01.2022
5715 Clear 26 1010 46 10000 4.63 50 23:35 22.01.2022
5716 Clear 25 1011 45 10000 4.12 30 22:34 22.01.2022
5717 Clear 24 1010 45 10000 3.09 40 21:19 22.01.2022
5718 Clear 24 1010 39 10000 2.06 10 19:51 22.01.2022
5719 Clear 24 1009 43 10000 0.51 290 18:49 22.01.2022
5720 Clear 25 1009 38 10000 0 0 17:59 22.01.2022
5721 Clear 25 1009 38 10000 2.06 230 17:35 22.01.2022
5722 Clear 26 1009 34 10000 2.06 190 16:55 22.01.2022
5723 Clear 28 1009 30 10000 4.63 190 15:49 22.01.2022
5724 Clear 30 1009 27 10000 6.69 200 14:57 22.01.2022
5725 Clear 31 1009 24 10000 5.14 210 13:39 22.01.2022
5726 Clear 32 1009 22 10000 6.69 210 12:48 22.01.2022
5727 Clear 33 1009 24 10000 6.17 210 12:28 22.01.2022
5728 Clear 36 1008 21 10000 9.26 220 10:56 22.01.2022
5729 Clear 36 1008 22 10000 7.72 230 10:28 22.01.2022
5730 Clear 37 1007 22 10000 8.75 220 09:57 22.01.2022
5731 Clear 38 1009 22 10000 6.69 260 08:51 22.01.2022
5732 Clear 40 1010 18 10000 3.09 210 07:29 22.01.2022
5733 Clear 39 1010 17 10000 5.14 60 04:52 22.01.2022
5734 Clear 30 1012 33 10000 8.75 80 01:34 22.01.2022
5735 Clear 26 1011 43 10000 5.66 70 23:35 21.01.2022
5736 Clear 25 1011 42 10000 5.66 80 22:20 21.01.2022
5737 Clear 27 1010 33 10000 2.57 70 20:20 21.01.2022
5738 Clear 26 1010 38 10000 1.03 140 18:36 21.01.2022
5739 Clear 27 1011 35 10000 2.57 220 17:25 21.01.2022
5740 Clear 29 1011 29 10000 5.66 190 15:28 21.01.2022
5741 Clear 32 1009 26 10000 4.63 210 13:18 21.01.2022
5742 Clear 35 1011 21 10000 6.69 200 12:28 21.01.2022
5743 Clear 36 1009 19 10000 7.2 210 11:27 21.01.2022
5744 Clear 38 1010 18 10000 6.17 250 09:46 21.01.2022
5745 Clear 41 1010 14 10000 4.12 210 08:23 21.01.2022
5746 Clear 39 1011 13 10000 5.14 50 04:49 21.01.2022
5747 Clear 27 1013 26 10000 6.17 90 23:27 20.01.2022
5748 Clear 27 1011 27 10000 4.63 90 21:50 20.01.2022
5749 Clear 27 1011 26 10000 4.12 90 21:32 20.01.2022
5750 Clear 28 1011 26 10000 4.63 90 20:31 20.01.2022
5751 Clear 28 1011 27 10000 5.66 110 19:19 20.01.2022
5752 Clear 27 1011 38 10000 2.06 60 18:18 20.01.2022
5753 Clear 26 1011 42 10000 2.57 210 16:40 20.01.2022
5754 Clear 29 1011 35 10000 4.12 200 15:40 20.01.2022
5755 Clear 30 1011 31 10000 5.66 190 14:40 20.01.2022
5756 Clear 32 1010 27 10000 4.12 210 13:32 20.01.2022
5757 Clear 33 1010 20 10000 5.14 220 12:31 20.01.2022
5758 Clear 36 1011 17 10000 8.23 210 11:36 20.01.2022
5759 Clear 36 1010 15 10000 8.23 220 10:37 20.01.2022
5760 Clear 38 1010 15 10000 8.23 230 09:29 20.01.2022
5761 Clear 39 1011 14 10000 6.69 250 07:33 20.01.2022
5762 Clear 30 1011 23 10000 6.69 80 00:43 20.01.2022
5763 Clear 25 1009 30 10000 4.63 60 22:52 19.01.2022
5764 Clear 25 1010 31 10000 3.6 70 21:45 19.01.2022
5765 Clear 26 1009 29 10000 6.17 80 21:22 19.01.2022
5766 Clear 26 1009 31 10000 6.17 90 20:46 19.01.2022
5767 Clear 26 1009 39 10000 2.57 70 19:27 19.01.2022
5768 Clear 27 1009 41 10000 2.57 170 17:52 19.01.2022
5769 Clear 28 1009 37 10000 3.6 180 17:32 19.01.2022
5770 Clear 30 1009 33 10000 4.63 180 15:44 19.01.2022
5771 Clear 32 1008 29 10000 7.2 200 13:38 19.01.2022
5772 Clear 34 1007 25 10000 7.72 220 12:24 19.01.2022
5773 Clear 36 1006 21 10000 8.75 230 11:38 19.01.2022
5774 Clear 40 1007 17 10000 5.14 270 09:52 19.01.2022
5775 Clear 41 1008 15 10000 3.09 160 09:33 19.01.2022
5776 Clear 40 1009 15 10000 5.14 30 06:34 19.01.2022
5777 Clear 33 1010 25 10000 6.69 50 01:40 19.01.2022
5778 Clear 29 1009 28 10000 5.66 50 23:18 18.01.2022
5779 Clear 30 1008 27 10000 7.2 70 21:55 18.01.2022
5780 Clear 30 1008 25 10000 5.14 70 20:44 18.01.2022
5781 Clear 31 1008 24 10000 5.66 80 19:52 18.01.2022
5782 Clear 31 1008 24 10000 6.69 80 19:33 18.01.2022
5783 Clear 31 1007 26 10000 5.66 70 18:25 18.01.2022
5784 Clear 31 1007 32 10000 4.12 70 17:48 18.01.2022
5785 Clear 30 1007 42 10000 4.63 170 16:33 18.01.2022
5786 Clear 30 1007 41 10000 2.57 160 15:25 18.01.2022
5787 Clear 31 1007 38 10000 5.66 200 14:34 18.01.2022
5788 Clear 35 1007 27 10000 7.72 210 11:51 18.01.2022
5789 Clear 38 1007 20 10000 9.26 230 10:30 18.01.2022
5790 Clear 40 1007 19 10000 3.09 250 08:36 18.01.2022
5791 Clear 41 1008 18 10000 3.6 160 07:45 18.01.2022
5792 Clouds 28 1009 47 10000 7.72 60 00:42 18.01.2022
5793 Clear 24 1008 53 10000 9.26 70 22:46 17.01.2022
5794 Clear 24 1007 51 10000 10.8 80 21:44 17.01.2022
5795 Clear 24 1007 51 10000 10.8 80 21:24 17.01.2022
5796 Clear 25 1007 48 10000 11.32 90 19:37 17.01.2022
5797 Clear 26 1007 46 10000 11.32 100 18:26 17.01.2022
5798 Clear 26 1007 44 10000 6.17 90 17:22 17.01.2022
5799 Clear 23 1009 75 10000 2.06 210 15:58 17.01.2022
5800 Clear 23 1008 71 10000 2.57 210 14:58 17.01.2022
5801 Clear 24 1008 71 10000 3.09 220 14:31 17.01.2022
5802 Clear 24 1007 67 10000 4.12 240 13:18 17.01.2022
5803 Clear 24 1007 67 10000 4.12 240 13:18 17.01.2022
5804 Clear 27 1007 57 10000 5.14 230 11:53 17.01.2022
5805 Clear 29 1006 49 10000 5.66 260 10:53 17.01.2022
5806 Clear 31 1007 43 10000 5.66 240 09:46 17.01.2022
5807 Clear 31 1006 43 10000 7.72 250 08:43 17.01.2022
5808 Clear 31 1007 41 10000 6.17 260 07:20 17.01.2022
5809 Clear 20 1011 57 10000 5.66 90 00:59 17.01.2022
5810 Clear 17 1011 63 10000 2.57 130 23:33 16.01.2022
5811 Clear 17 1010 60 10000 9.26 100 20:51 16.01.2022
5812 Clear 18 1009 58 10000 5.14 130 19:56 16.01.2022
5813 Clear 19 1009 54 10000 2.57 120 18:45 16.01.2022
5814 Clear 21 1008 49 10000 4.12 160 17:47 16.01.2022
5815 Clear 22 1008 44 10000 5.14 160 16:52 16.01.2022
5816 Clear 22 1008 59 10000 5.66 190 15:40 16.01.2022
5817 Clear 22 1007 66 10000 6.69 190 14:29 16.01.2022
5818 Clear 23 1006 66 10000 5.14 220 13:21 16.01.2022
5819 Clear 25 1005 56 10000 7.2 220 11:56 16.01.2022
5820 Clear 26 1005 53 10000 7.72 220 11:27 16.01.2022
5821 Clear 26 1005 50 10000 8.23 220 10:27 16.01.2022
5822 Clear 27 1005 48 10000 8.75 230 09:57 16.01.2022
5823 Clear 27 1005 49 10000 8.75 240 09:23 16.01.2022
5824 Clear 27 1005 49 10000 10.8 220 08:52 16.01.2022
5825 Clear 29 1008 40 10000 4.63 200 05:35 16.01.2022
5826 Clouds 19 1010 68 10000 6.17 190 00:18 16.01.2022
5827 Clear 17 1010 78 10000 5.14 200 22:37 15.01.2022
5828 Clear 17 1009 78 10000 5.14 200 21:21 15.01.2022
5829 Clear 17 1009 77 10000 4.63 190 20:43 15.01.2022
5830 Clear 18 1009 75 10000 5.14 200 19:52 15.01.2022
5831 Clear 18 1009 75 10000 5.14 190 19:19 15.01.2022
5832 Clear 19 1008 76 10000 6.69 190 17:35 15.01.2022
5833 Clear 20 1008 76 10000 5.66 200 16:38 15.01.2022
5834 Clouds 21 1008 72 10000 7.72 210 13:57 15.01.2022
5835 Clear 22 1007 65 10000 8.75 220 12:23 15.01.2022
5836 Clear 24 1007 50 10000 8.75 220 10:43 15.01.2022
5837 Clear 26 1007 49 10000 9.26 230 08:32 15.01.2022
5838 Clear 22 1010 55 10000 4.12 90 00:49 15.01.2022
5839 Clear 17 1009 77 10000 2.57 190 21:56 14.01.2022
5840 Clear 18 1008 74 10000 3.09 210 20:41 14.01.2022
5841 Clear 18 1008 74 10000 3.09 210 20:21 14.01.2022
5842 Clear 19 1008 75 10000 4.12 200 18:49 14.01.2022
5843 Clear 19 1009 74 10000 5.14 210 18:20 14.01.2022
5844 Clear 20 1010 82 10000 3.09 210 16:50 14.01.2022
5845 Clear 21 1010 79 10000 5.66 210 15:39 14.01.2022
5846 Clear 22 1010 75 10000 5.14 210 14:42 14.01.2022
5847 Clear 22 1009 73 10000 6.17 220 13:36 14.01.2022
5848 Clear 23 1009 68 10000 7.72 220 12:28 14.01.2022
5849 Clear 26 1008 60 10000 8.23 220 10:53 14.01.2022
5850 Clear 28 1008 56 10000 8.75 240 08:54 14.01.2022
5851 Clear 28 1010 56 10000 8.75 240 08:34 14.01.2022
5852 Clear 29 1012 46 10000 6.69 260 05:29 14.01.2022
5853 Clear 22 1013 64 10000 4.12 190 00:59 14.01.2022
5854 Clear 18 1012 88 10000 4.63 200 22:52 13.01.2022
5855 Clear 18 1011 86 10000 4.12 210 21:31 13.01.2022
5856 Clear 19 1011 85 10000 4.63 190 20:57 13.01.2022
5857 Clear 19 1011 83 10000 4.12 210 19:40 13.01.2022
5858 Clear 20 1011 83 10000 4.12 210 19:21 13.01.2022
5859 Clear 21 1011 81 10000 5.14 190 17:48 13.01.2022
5860 Clear 21 1012 81 10000 4.63 210 16:20 13.01.2022
5861 Clear 22 1013 80 10000 5.66 220 15:37 13.01.2022
5862 Clear 22 1012 82 10000 6.17 230 13:48 13.01.2022
5863 Clear 23 1012 74 10000 7.72 230 12:37 13.01.2022
5864 Clouds 26 1011 64 10000 6.69 260 10:23 13.01.2022
5865 Clear 27 1012 60 10000 7.72 270 08:57 13.01.2022
5866 Clear 27 1012 59 10000 6.69 270 08:26 13.01.2022
5867 Clear 27 1013 59 10000 6.69 280 07:22 13.01.2022
5868 Clouds 27 1013 60 10000 5.66 260 05:59 13.01.2022
5869 Clouds 26 1014 64 10000 4.12 260 05:19 13.01.2022
5870 Clouds 22 1014 77 10000 4.63 210 01:53 13.01.2022
5871 Clouds 21 1013 80 10000 4.63 190 00:40 13.01.2022
5872 Clouds 21 1013 81 10000 5.14 180 23:45 12.01.2022
5873 Clouds 21 1012 82 10000 4.63 200 22:57 12.01.2022
5874 Clouds 21 1012 82 10000 4.63 210 21:56 12.01.2022
5875 Clouds 21 1012 83 10000 4.63 210 21:21 12.01.2022
5876 Clouds 21 1011 82 10000 4.63 220 20:56 12.01.2022
5877 Clouds 21 1012 82 10000 3.6 240 19:35 12.01.2022
5878 Clouds 22 1012 82 10000 4.12 240 18:30 12.01.2022
5879 Clouds 22 1012 82 10000 4.12 240 18:30 12.01.2022
5880 Clouds 22 1013 81 10000 4.12 230 16:59 12.01.2022
5881 Rain 22 1013 81 10000 4.63 230 16:26 12.01.2022
5882 Clouds 22 1013 80 10000 5.14 240 14:48 12.01.2022
5883 Clouds 23 1012 77 10000 5.66 240 12:58 12.01.2022
5884 Clear 26 1010 59 10000 6.69 260 10:38 12.01.2022
5885 Clear 29 1011 47 10000 7.72 260 08:37 12.01.2022
5886 Clear 31 1010 35 10000 6.69 250 07:34 12.01.2022
5887 Clear 32 1010 30 10000 6.69 270 06:49 12.01.2022
5888 Clear 24 1009 46 10000 1.54 70 23:31 11.01.2022
5889 Clear 23 1009 48 10000 2.57 50 22:49 11.01.2022
5890 Clear 23 1009 47 10000 4.12 120 22:21 11.01.2022
5891 Clear 24 1009 44 10000 3.09 120 20:51 11.01.2022
5892 Clear 24 1009 40 10000 4.12 110 19:45 11.01.2022
5893 Clear 22 1011 60 10000 2.06 230 18:31 11.01.2022
5894 Clear 22 1011 62 10000 3.6 220 17:19 11.01.2022
5895 Clear 23 1011 59 10000 4.63 210 16:37 11.01.2022
5896 Clear 24 1011 54 10000 3.6 210 15:34 11.01.2022
5897 Clear 26 1011 49 10000 6.17 190 14:41 11.01.2022
5898 Clear 27 1011 45 10000 5.66 180 13:54 11.01.2022
5899 Clear 28 1011 43 10000 6.69 190 13:32 11.01.2022
5900 Clear 31 1012 25 10000 6.69 170 12:41 11.01.2022
5901 Clear 34 1011 22 10000 8.23 190 10:59 11.01.2022
5902 Clear 34 1011 23 10000 8.23 200 08:58 11.01.2022
5903 Clear 33 1013 25 10000 4.12 210 06:28 11.01.2022
5904 Clear 20 1016 55 10000 6.17 90 00:30 11.01.2022
5905 Clear 19 1016 59 10000 7.72 90 23:41 10.01.2022
5906 Clear 17 1016 62 10000 6.69 90 22:51 10.01.2022
5907 Clear 17 1016 62 10000 6.69 90 22:51 10.01.2022
5908 Clear 18 1016 61 10000 6.17 90 22:18 10.01.2022
5909 Clear 18 1015 60 10000 4.12 100 21:48 10.01.2022
5910 Clear 18 1015 59 10000 5.66 90 21:19 10.01.2022
5911 Clear 18 1015 59 10000 6.69 100 20:56 10.01.2022
5912 Clear 19 1015 57 10000 4.63 100 20:26 10.01.2022
5913 Clear 19 1015 54 10000 2.57 110 19:41 10.01.2022
5914 Clear 19 1014 54 10000 2.57 110 19:20 10.01.2022
5915 Clear 20 1014 51 10000 2.06 160 18:48 10.01.2022
5916 Clear 22 1014 42 10000 9.77 100 17:24 10.01.2022
5917 Clear 23 1014 37 10000 8.75 110 16:41 10.01.2022
5918 Clear 21 1015 48 10000 3.6 140 15:20 10.01.2022
5919 Clear 24 1015 43 10000 4.63 140 13:39 10.01.2022
5920 Clear 26 1015 41 10000 4.63 120 11:57 10.01.2022
5921 Clear 27 1015 33 10000 6.17 130 11:24 10.01.2022
5922 Clear 27 1014 37 10000 3.6 170 09:46 10.01.2022
5923 Clear 27 1015 28 10000 3.6 130 06:22 10.01.2022
5924 Clear 27 1016 29 10000 7.72 90 05:49 10.01.2022
5925 Clear 20 1019 48 10000 8.23 90 01:26 10.01.2022
5926 Clear 19 1019 54 10000 6.17 90 00:23 10.01.2022
5927 Clouds 17 1018 61 10000 3.09 100 23:28 09.01.2022
5928 Clear 16 1018 59 10000 3.09 110 22:33 09.01.2022
5929 Clear 17 1017 53 10000 3.6 120 21:44 09.01.2022
5930 Clear 17 1017 53 10000 3.6 120 21:23 09.01.2022
5931 Clear 17 1017 52 10000 4.63 120 20:50 09.01.2022
5932 Clear 17 1017 51 10000 4.12 130 20:29 09.01.2022
5933 Clear 18 1016 48 10000 5.14 110 19:44 09.01.2022
5934 Clear 18 1016 48 10000 5.14 110 19:23 09.01.2022
5935 Clear 19 1016 46 10000 6.69 120 18:49 09.01.2022
5936 Clear 19 1016 46 10000 6.17 120 18:30 09.01.2022
5937 Clear 20 1015 43 10000 4.12 150 17:30 09.01.2022
5938 Clear 19 1015 51 10000 4.63 160 16:51 09.01.2022
5939 Clear 19 1015 64 10000 4.12 180 15:56 09.01.2022
5940 Clear 19 1015 63 10000 5.66 190 15:34 09.01.2022
5941 Clear 20 1015 61 10000 6.69 200 14:40 09.01.2022
5942 Clear 21 1014 60 10000 7.2 200 13:50 09.01.2022
5943 Clear 21 1013 59 10000 9.26 220 12:44 09.01.2022
5944 Clear 22 1013 55 10000 9.26 210 11:48 09.01.2022
5945 Clear 23 1012 50 10000 8.75 230 10:49 09.01.2022
5946 Clear 24 1012 47 10000 10.29 240 09:42 09.01.2022
5947 Clear 24 1012 45 10000 7.72 250 08:31 09.01.2022
5948 Clouds 22 1015 51 10000 7.2 180 02:48 09.01.2022
5949 Clouds 20 1015 57 10000 5.66 190 01:21 09.01.2022
5950 Clouds 16 1015 68 10000 5.14 190 23:38 08.01.2022
5951 Clouds 16 1015 70 10000 4.63 190 22:59 08.01.2022
5952 Clouds 16 1013 68 10000 5.14 190 21:33 08.01.2022
5953 Clouds 17 1013 68 10000 6.17 180 20:58 08.01.2022
5954 Clouds 17 1013 68 10000 8.23 190 20:39 08.01.2022
5955 Clouds 17 1013 68 10000 8.23 190 20:19 08.01.2022
5956 Clear 18 1011 70 10000 8.75 190 18:21 08.01.2022
5957 Clear 19 1011 68 10000 9.77 200 17:21 08.01.2022
5958 Clear 20 1010 64 10000 9.77 200 15:47 08.01.2022
5959 Clear 22 1009 62 10000 7.2 220 14:41 08.01.2022
5960 Clear 23 1007 65 10000 10.8 210 12:44 08.01.2022
5961 Clear 25 1006 65 10000 9.26 230 10:59 08.01.2022
5962 Clear 26 1006 60 10000 9.77 220 10:25 08.01.2022
5963 Clear 27 1005 56 10000 10.8 210 09:44 08.01.2022
5964 Clear 28 1005 48 10000 9.26 240 07:19 08.01.2022
5965 Clear 30 1006 36 10000 2.06 190 02:39 08.01.2022
5966 Clear 25 1007 44 10000 3.09 50 00:41 08.01.2022
5967 Clear 22 1007 51 10000 5.14 80 22:40 07.01.2022
5968 Clear 24 1007 47 10000 4.63 80 20:56 07.01.2022
5969 Clear 24 1007 45 10000 3.6 110 19:56 07.01.2022
5970 Clear 24 1007 45 10000 3.6 110 19:56 07.01.2022
5971 Clear 24 1007 45 10000 3.6 110 19:56 07.01.2022
5972 Clear 26 1007 41 10000 7.72 100 18:58 07.01.2022
5973 Clear 26 1007 41 10000 7.72 100 18:38 07.01.2022
5974 Clear 28 1007 37 10000 6.17 90 17:25 07.01.2022
5975 Clear 28 1008 37 10000 3.6 100 16:23 07.01.2022
5976 Clear 28 1008 51 10000 4.63 220 13:53 07.01.2022
5977 Clear 29 1008 48 10000 6.69 210 13:21 07.01.2022
5978 Clear 30 1007 44 10000 4.63 220 12:48 07.01.2022
5979 Clear 38 1009 22 10000 3.09 90 09:21 07.01.2022
5980 Clear 30 1012 38 10000 8.75 100 02:54 07.01.2022
5981 Clear 27 1011 45 10000 8.75 100 01:53 07.01.2022
5982 Clear 25 1012 49 10000 8.75 90 01:27 07.01.2022
5983 Clear 24 1012 52 10000 6.17 90 00:57 07.01.2022
5984 Clear 21 1011 62 10000 3.09 120 22:46 06.01.2022
5985 Clear 21 1011 57 10000 3.09 150 21:23 06.01.2022
5986 Clear 22 1010 54 10000 3.6 140 20:20 06.01.2022
5987 Clear 23 1010 53 10000 2.06 160 19:41 06.01.2022
5988 Clear 25 1010 50 10000 4.12 110 17:53 06.01.2022
5989 Clear 26 1010 49 10000 4.12 110 17:34 06.01.2022
5990 Clear 27 1010 46 10000 7.72 130 16:40 06.01.2022
5991 Clear 28 1010 51 10000 4.63 120 15:45 06.01.2022
5992 Clear 27 1009 58 10000 4.63 180 15:24 06.01.2022
5993 Rain 27 1009 67 10000 4.63 210 14:21 06.01.2022
5994 Clear 27 1008 68 10000 5.14 200 13:47 06.01.2022
5995 Clear 29 1008 55 10000 7.2 220 12:43 06.01.2022
5996 Clear 31 1007 47 10000 6.17 230 11:41 06.01.2022
5997 Clear 32 1007 46 10000 6.17 230 11:21 06.01.2022
5998 Clear 33 1009 41 10000 7.72 230 08:50 06.01.2022
5999 Clear 25 1010 51 10000 2.06 70 00:42 06.01.2022
6000 Clear 23 1010 54 10000 2.06 70 23:36 05.01.2022
6001 Clear 21 1010 65 10000 1.03 140 22:54 05.01.2022
6002 Clear 21 1010 67 10000 2.06 60 22:30 05.01.2022
6003 Clear 20 1009 72 10000 2.57 310 21:46 05.01.2022
6004 Clear 20 1009 83 10000 2.06 350 20:49 05.01.2022
6005 Rain 21 1008 84 10000 0.51 190 19:59 05.01.2022
6006 Clear 22 1009 82 10000 3.09 220 18:38 05.01.2022
6007 Clear 22 1010 78 10000 3.09 210 17:23 05.01.2022
6008 Clear 23 1010 74 10000 4.12 210 16:38 05.01.2022
6009 Clear 24 1010 68 10000 4.63 210 15:20 05.01.2022
6010 Clear 25 1010 66 10000 5.14 230 13:39 05.01.2022
6011 Clear 26 1009 63 10000 6.17 230 12:51 05.01.2022
6012 Clear 33 1010 39 10000 6.69 270 08:58 05.01.2022
6013 Clear 35 1011 28 10000 3.6 130 07:34 05.01.2022
6014 Clear 28 1012 43 10000 8.23 110 03:33 05.01.2022
6015 Clear 22 1013 61 10000 8.23 110 00:33 05.01.2022
6016 Clear 20 1013 67 10000 4.63 110 23:26 04.01.2022
6017 Clear 19 1013 69 10000 5.66 100 22:40 04.01.2022
6018 Clear 19 1013 69 10000 7.2 90 20:50 04.01.2022
6019 Clear 20 1013 66 10000 6.69 110 19:19 04.01.2022
6020 Clear 22 1013 59 10000 2.57 140 17:39 04.01.2022
6021 Clear 24 1012 53 10000 10.29 110 16:41 04.01.2022
6022 Clear 25 1012 51 10000 10.29 110 16:22 04.01.2022
6023 Clear 28 1012 40 10000 7.2 120 14:52 04.01.2022
6024 Clear 29 1012 37 10000 6.17 130 14:34 04.01.2022
6025 Clear 30 1011 34 10000 5.66 140 13:26 04.01.2022
6026 Clear 35 1011 23 10000 6.17 130 10:40 04.01.2022
6027 Clear 36 1012 25 10000 5.66 120 08:59 04.01.2022
6028 Clear 35 1012 27 10000 4.63 180 08:23 04.01.2022
6029 Clear 24 1014 54 10000 4.63 120 01:51 04.01.2022
6030 Clear 22 1014 62 10000 4.63 120 00:40 04.01.2022
6031 Clear 19 1014 71 10000 6.17 130 22:51 03.01.2022
6032 Clear 19 1013 69 10000 3.6 130 21:42 03.01.2022
6033 Clear 19 1013 69 10000 3.6 130 21:23 03.01.2022
6034 Clear 20 1012 68 10000 3.09 130 19:46 03.01.2022
6035 Clear 21 1012 63 10000 4.12 110 18:33 03.01.2022
6036 Clear 23 1012 59 10000 5.66 130 17:40 03.01.2022
6037 Clear 24 1011 55 10000 7.2 110 16:57 03.01.2022
6038 Rain 24 1010 72 10000 3.09 230 14:54 03.01.2022
6039 Clear 25 1009 67 10000 4.12 240 13:53 03.01.2022
6040 Clear 27 1009 54 10000 5.66 230 12:33 03.01.2022
6041 Clear 28 1008 50 10000 6.69 230 11:31 03.01.2022
6042 Clear 30 1007 42 10000 8.23 230 09:49 03.01.2022
6043 Clear 31 1009 42 10000 7.72 240 08:28 03.01.2022
6044 Clear 31 1008 44 10000 7.2 250 06:31 03.01.2022
6045 Clear 21 1010 61 10000 3.6 190 23:47 02.01.2022
6046 Clear 20 1010 65 10000 5.14 170 23:18 02.01.2022
6047 Clear 19 1010 67 10000 3.09 120 22:42 02.01.2022
6048 Clear 20 1009 64 10000 0 0 21:32 02.01.2022
6049 Clear 21 1008 60 10000 3.09 80 20:31 02.01.2022
6050 Clear 21 1008 60 10000 3.09 80 20:30 02.01.2022
6051 Clear 21 1008 60 10000 3.09 80 20:30 02.01.2022
6052 Clear 21 1008 60 10000 3.09 80 20:30 02.01.2022
6053 Clear 20 1009 67 10000 2.06 340 19:31 02.01.2022
6054 Clear 20 1009 69 10000 2.57 230 18:56 02.01.2022
6055 Clear 21 1009 68 10000 4.63 190 17:57 02.01.2022
6056 Clear 21 1009 68 10000 5.66 190 17:39 02.01.2022
6057 Clear 21 1009 67 10000 5.66 190 17:20 02.01.2022
6058 Clear 22 1009 64 10000 7.2 200 16:28 02.01.2022
6059 Clear 23 1009 57 10000 7.72 200 14:41 02.01.2022
6060 Clear 24 1008 62 10000 5.66 210 13:37 02.01.2022
6061 Clear 26 1008 54 10000 6.17 210 12:32 02.01.2022
6062 Clear 28 1008 47 10000 6.69 210 11:49 02.01.2022
6063 Clear 29 1007 42 10000 7.2 210 10:53 02.01.2022
6064 Clear 30 1007 36 10000 8.23 230 09:56 02.01.2022
6065 Clear 32 1010 33 10000 6.69 260 07:34 02.01.2022
6066 Clear 26 1011 41 10000 7.2 110 02:51 02.01.2022
6067 Clear 18 1011 58 10000 10.29 90 23:42 01.01.2022
6068 Clear 18 1011 59 10000 9.77 90 23:23 01.01.2022
6069 Clear 17 1011 60 10000 9.26 90 22:25 01.01.2022
6070 Clear 17 1010 59 10000 10.29 100 21:44 01.01.2022
6071 Clear 18 1010 58 10000 10.8 90 20:56 01.01.2022
6072 Clear 19 1009 57 10000 11.83 100 20:19 01.01.2022
6073 Clear 20 1009 55 10000 10.8 110 19:33 01.01.2022
6074 Clear 21 1009 50 10000 2.57 130 18:29 01.01.2022
6075 Clear 20 1010 68 10000 4.12 190 16:55 01.01.2022
6076 Rain 19 1010 70 10000 3.6 190 16:34 01.01.2022
6077 Clear 20 1010 68 10000 5.14 190 15:33 01.01.2022
6078 Clear 21 1010 68 10000 4.12 210 14:22 01.01.2022
6079 Clear 22 1008 67 10000 6.69 210 12:50 01.01.2022
6080 Clear 23 1008 60 10000 7.72 230 11:59 01.01.2022
6081 Clear 24 1008 56 10000 7.2 240 11:24 01.01.2022
6082 Clear 25 1008 52 10000 7.72 230 10:43 01.01.2022
6083 Clear 26 1007 48 10000 7.72 250 09:47 01.01.2022
6084 Clear 27 1008 46 10000 8.75 260 08:27 01.01.2022
6085 Clear 27 1009 46 10000 7.72 260 07:56 01.01.2022
6086 Clear 27 1009 46 10000 7.72 270 07:37 01.01.2022
6087 Clear 27 1010 38 10000 3.09 280 06:42 01.01.2022
6088 Clear 26 1009 40 10000 5.14 190 04:38 01.01.2022
6089 Clear 25 1009 44 10000 4.12 170 03:38 01.01.2022
6090 Clear 18 1010 61 10000 6.17 140 23:52 31.12.2021
6091 Clouds 19 1009 66 10000 6.17 130 21:55 31.12.2021
6092 Clouds 20 1007 66 10000 5.14 130 20:48 31.12.2021
6093 Clear 21 1007 65 10000 4.63 120 19:31 31.12.2021
6094 Clear 22 1008 59 10000 5.14 130 18:46 31.12.2021
6095 Clear 23 1007 62 10000 4.63 120 17:45 31.12.2021
6096 Clear 23 1007 61 10000 4.63 130 17:19 31.12.2021
6097 Clear 24 1007 61 10000 6.17 120 16:44 31.12.2021
6098 Clear 24 1007 60 10000 4.63 130 15:58 31.12.2021
6099 Clear 25 1007 58 10000 5.14 140 15:31 31.12.2021
6100 Clear 25 1006 58 10000 5.66 150 14:57 31.12.2021
6101 Clear 25 1006 58 10000 5.66 150 14:57 31.12.2021
6102 Clear 25 1006 61 10000 6.69 150 14:31 31.12.2021
6103 Clear 25 1005 62 10000 7.2 170 13:42 31.12.2021
6104 Clear 26 1004 63 10000 8.23 180 12:49 31.12.2021
6105 Clear 27 1004 61 10000 7.2 230 11:52 31.12.2021
6106 Clear 27 1003 61 10000 6.69 220 11:33 31.12.2021
6107 Clouds 27 1003 60 10000 9.26 210 10:38 31.12.2021
6108 Clear 28 1003 57 10000 7.2 240 10:20 31.12.2021
6109 Clear 28 1005 56 10000 7.2 250 09:33 31.12.2021
6110 Clear 30 1003 51 10000 8.75 240 08:47 31.12.2021
6111 Clear 32 1005 41 10000 7.2 270 07:32 31.12.2021
6112 Clear 22 1006 60 10000 5.66 150 23:35 30.12.2021
6113 Clear 21 1005 64 10000 5.14 200 22:38 30.12.2021
6114 Clear 21 1005 64 10000 5.14 200 22:20 30.12.2021
6115 Clear 21 1005 65 10000 3.6 220 21:37 30.12.2021
6116 Clear 21 1005 65 10000 3.6 220 21:37 30.12.2021
6117 Clear 22 1004 66 10000 3.09 120 20:47 30.12.2021
6118 Clear 22 1004 64 10000 3.09 120 20:28 30.12.2021
6119 Clear 22 1004 67 10000 2.57 170 19:48 30.12.2021
6120 Clear 22 1005 81 10000 2.57 200 18:51 30.12.2021
6121 Clear 22 1005 81 10000 2.57 200 18:51 30.12.2021
6122 Clear 22 1005 86 10000 1.54 210 18:20 30.12.2021
6123 Rain 22 1005 83 10000 3.09 210 16:27 30.12.2021
6124 Rain 23 1005 82 10000 3.09 220 15:52 30.12.2021
6125 Rain 23 1005 82 10000 3.09 220 15:52 30.12.2021
6126 Clear 23 1005 79 10000 4.63 250 14:41 30.12.2021
6127 Clear 24 1005 75 10000 4.12 240 13:57 30.12.2021
6128 Clear 25 1005 67 10000 4.12 240 12:52 30.12.2021
6129 Clear 28 1004 58 10000 5.66 270 11:22 30.12.2021
6130 Clear 32 1005 38 10000 5.14 270 09:59 30.12.2021
6131 Clear 32 1006 40 10000 7.2 260 09:23 30.12.2021
6132 Clear 31 1007 47 10000 6.17 270 06:54 30.12.2021
6133 Clear 31 1009 44 10000 3.09 290 04:20 30.12.2021
6134 Clear 31 1009 44 10000 3.09 290 04:20 30.12.2021
6135 Clear 29 1008 51 10000 3.09 300 03:38 30.12.2021
6136 Rain 21 1010 81 10000 2.06 190 23:57 29.12.2021
6137 Clouds 19 1008 89 10000 2.57 210 23:23 29.12.2021
6138 Clouds 19 1008 90 10000 4.12 180 22:24 29.12.2021
6139 Clouds 20 1008 88 10000 4.12 210 21:45 29.12.2021
6140 Clear 20 1007 91 10000 0 0 20:39 29.12.2021
6141 Clear 20 1007 91 10000 2.06 210 19:50 29.12.2021
6142 Rain 21 1008 91 10000 2.57 200 18:57 29.12.2021
6143 Clear 21 1008 88 10000 3.09 220 17:57 29.12.2021
6144 Clear 22 1008 87 10000 3.6 220 17:28 29.12.2021
6145 Clear 22 1009 85 10000 4.63 210 16:44 29.12.2021
6146 Clear 22 1009 84 10000 4.63 210 16:19 29.12.2021
6147 Clear 24 1009 76 10000 4.63 210 14:24 29.12.2021
6148 Clear 27 1008 54 10000 6.69 210 12:48 29.12.2021
6149 Clear 28 1008 43 10000 8.23 210 12:20 29.12.2021
6150 Clear 32 1007 32 10000 8.75 230 10:31 29.12.2021
6151 Clear 37 1008 18 10000 6.69 260 07:52 29.12.2021
6152 Clear 38 1009 14 10000 6.69 260 06:43 29.12.2021
6153 Clear 38 1009 16 10000 6.69 260 06:23 29.12.2021
6154 Clear 38 1010 16 10000 2.06 180 05:40 29.12.2021
6155 Clear 36 1011 18 10000 4.12 10 03:18 29.12.2021
6156 Clear 28 1010 28 10000 4.63 60 00:24 29.12.2021
6157 Clear 27 1010 32 10000 5.14 60 23:45 28.12.2021
6158 Clear 23 1010 41 10000 4.12 50 22:42 28.12.2021
6159 Clear 23 1010 40 10000 4.12 50 22:24 28.12.2021
6160 Clear 23 1011 42 10000 3.6 50 21:52 28.12.2021
6161 Clear 23 1009 49 10000 2.06 30 20:40 28.12.2021
6162 Clear 23 1009 48 10000 0 0 19:31 28.12.2021
6163 Clear 24 1009 45 10000 2.06 70 18:41 28.12.2021
6164 Clear 24 1009 44 10000 2.06 70 18:19 28.12.2021
6165 Clear 26 1010 40 10000 2.57 170 16:35 28.12.2021
6166 Clear 27 1010 37 10000 3.6 210 15:50 28.12.2021
6167 Clear 27 1010 34 10000 3.6 210 15:23 28.12.2021
6168 Clear 28 1010 31 10000 3.6 210 14:50 28.12.2021
6169 Clear 29 1010 29 10000 4.63 200 14:21 28.12.2021
6170 Clear 30 1009 28 10000 6.69 210 13:42 28.12.2021
6171 Clear 30 1009 27 10000 6.69 210 13:24 28.12.2021
6172 Clear 31 1009 27 10000 7.2 210 12:49 28.12.2021
6173 Clear 33 1008 26 10000 7.2 220 11:46 28.12.2021
6174 Clear 38 1009 20 10000 7.72 260 08:53 28.12.2021
6175 Clear 40 1010 18 10000 4.12 190 06:58 28.12.2021
6176 Clouds 29 1011 35 10000 4.63 50 00:34 28.12.2021
6177 Clear 26 1011 40 10000 7.2 70 23:26 27.12.2021
6178 Clear 25 1011 40 10000 5.66 60 21:46 27.12.2021
6179 Clear 26 1011 38 10000 7.72 80 21:24 27.12.2021
6180 Clear 27 1010 35 10000 9.77 90 20:24 27.12.2021
6181 Clear 28 1010 32 10000 9.26 90 19:42 27.12.2021
6182 Clouds 29 1010 27 10000 7.72 90 18:52 27.12.2021
6183 Clear 30 1010 25 10000 6.17 90 17:49 27.12.2021
6184 Clear 29 1010 30 10000 6.69 100 16:55 27.12.2021
6185 Clear 28 1010 38 10000 0 0 15:52 27.12.2021
6186 Clear 30 1010 35 10000 2.06 110 14:33 27.12.2021
6187 Clear 32 1010 30 10000 4.12 160 13:40 27.12.2021
6188 Clear 35 1011 23 10000 4.63 140 12:40 27.12.2021
6189 Clear 39 1011 14 10000 4.63 110 10:32 27.12.2021
6190 Clear 39 1011 13 10000 3.6 110 09:47 27.12.2021
6191 Clear 40 1012 13 10000 7.2 100 08:39 27.12.2021
6192 Clear 39 1010 16 10000 7.2 110 07:32 27.12.2021
6193 Clear 32 1013 28 10000 7.72 60 02:21 27.12.2021
6194 Clear 28 1013 36 10000 8.23 100 23:58 26.12.2021
6195 Clear 27 1013 35 10000 6.69 90 23:39 26.12.2021
6196 Clear 28 1012 34 10000 3.09 70 22:36 26.12.2021
6197 Clear 29 1011 33 10000 7.72 80 20:59 26.12.2021
6198 Clear 29 1010 34 10000 8.75 70 19:49 26.12.2021
6199 Clear 31 1010 30 10000 8.75 80 18:24 26.12.2021
6200 Clear 32 1009 27 10000 9.26 80 17:24 26.12.2021
6201 Clear 34 1010 23 10000 3.6 120 14:29 26.12.2021
6202 Clear 35 1009 23 10000 3.6 100 13:40 26.12.2021
6203 Clouds 36 1008 22 10000 4.12 100 13:20 26.12.2021
6204 Clear 37 1009 19 10000 4.63 110 12:33 26.12.2021
6205 Clear 41 1008 11 10000 6.69 100 10:42 26.12.2021
6206 Clear 42 1008 11 10000 5.14 80 09:26 26.12.2021
6207 Clear 43 1008 11 10000 4.12 110 08:44 26.12.2021
6208 Clear 42 1010 11 10000 4.12 50 07:58 26.12.2021
6209 Clear 31 1012 29 10000 5.66 60 01:29 26.12.2021
6210 Clear 28 1011 36 10000 9.26 70 23:56 25.12.2021
6211 Clouds 27 1010 37 10000 4.63 70 23:27 25.12.2021
6212 Clear 26 1010 39 10000 11.83 80 22:28 25.12.2021
6213 Clear 27 1009 37 10000 9.26 60 21:00 25.12.2021
6214 Clear 28 1009 35 10000 12.35 90 19:28 25.12.2021
6215 Clear 29 1008 34 10000 13.38 100 18:56 25.12.2021
6216 Clear 31 1009 30 10000 11.83 100 17:38 25.12.2021
6217 Clear 33 1010 22 10000 11.83 100 16:41 25.12.2021
6218 Clear 34 1009 21 10000 10.8 110 15:24 25.12.2021
6219 Clear 35 1008 25 10000 4.63 140 13:31 25.12.2021
6220 Clear 40 1008 14 10000 6.17 140 11:53 25.12.2021
6221 Clear 42 1008 12 10000 2.06 180 09:57 25.12.2021
6222 Clear 42 1008 13 10000 5.66 140 09:37 25.12.2021
6223 Clear 37 1010 25 10000 8.23 60 04:34 25.12.2021
6224 Clear 27 1011 44 10000 8.75 60 01:25 25.12.2021
6225 Clear 24 1011 54 10000 5.66 90 23:42 24.12.2021
6226 Clear 23 1010 50 10000 12.35 90 19:46 24.12.2021
6227 Clear 24 1010 50 10000 11.32 100 19:23 24.12.2021
6228 Clear 28 1010 40 10000 12.35 100 16:57 24.12.2021
6229 Clear 29 1010 39 10000 11.83 100 16:22 24.12.2021
6230 Clear 30 1010 36 10000 10.8 110 15:48 24.12.2021
6231 Clear 32 1010 32 10000 8.75 110 14:47 24.12.2021
6232 Clear 32 1009 30 10000 8.23 120 14:26 24.12.2021
6233 Clear 32 1009 30 10000 6.17 170 13:41 24.12.2021
6234 Clear 33 1009 33 10000 5.66 190 12:49 24.12.2021
6235 Clear 34 1010 27 10000 5.14 210 12:20 24.12.2021
6236 Clear 36 1009 24 10000 7.2 230 11:29 24.12.2021
6237 Clear 37 1009 22 10000 7.2 240 10:59 24.12.2021
6238 Clear 38 1009 20 10000 6.69 240 10:31 24.12.2021
6239 Clear 39 1009 20 10000 5.66 250 08:28 24.12.2021
6240 Clear 38 1009 18 10000 3.09 210 07:57 24.12.2021
6241 Clear 38 1010 23 10000 3.09 10 06:18 24.12.2021
6242 Clear 24 1012 46 10000 5.14 100 00:19 24.12.2021
6243 Clear 22 1011 52 10000 5.14 100 23:23 23.12.2021
6244 Clear 22 1011 52 10000 5.14 100 23:23 23.12.2021
6245 Clear 21 1011 53 10000 3.6 90 22:40 23.12.2021
6246 Clear 21 1011 53 10000 3.6 90 22:20 23.12.2021
6247 Clear 22 1011 56 10000 3.6 120 21:34 23.12.2021
6248 Clear 23 1010 57 10000 3.6 110 20:21 23.12.2021
6249 Clear 24 1010 55 10000 4.63 110 19:27 23.12.2021
6250 Clear 25 1010 54 10000 6.69 150 17:57 23.12.2021
6251 Clear 25 1010 53 10000 4.63 210 16:58 23.12.2021
6252 Clear 25 1010 52 10000 4.63 200 16:26 23.12.2021
6253 Clear 25 1010 50 10000 8.75 200 15:32 23.12.2021
6254 Clear 26 1010 48 10000 8.23 200 14:55 23.12.2021
6255 Clear 26 1010 48 10000 8.75 190 14:37 23.12.2021
6256 Clear 27 1009 47 10000 7.2 210 13:22 23.12.2021
6257 Clear 32 1009 33 10000 7.72 230 10:54 23.12.2021
6258 Clear 32 1009 35 10000 6.69 230 09:49 23.12.2021
6259 Clear 33 1009 34 10000 7.72 230 09:26 23.12.2021
6260 Clear 34 1010 38 10000 4.63 250 06:59 23.12.2021
6261 Clear 33 1010 35 10000 3.6 90 04:36 23.12.2021
6262 Clear 21 1011 61 10000 4.12 70 23:33 22.12.2021
6263 Clear 20 1011 61 10000 2.06 100 22:48 22.12.2021
6264 Clear 20 1011 59 10000 5.66 80 21:57 22.12.2021
6265 Clear 21 1010 55 10000 5.14 60 21:29 22.12.2021
6266 Clear 21 1010 53 10000 3.09 70 20:50 22.12.2021
6267 Clear 22 1010 53 10000 3.09 70 20:30 22.12.2021
6268 Clear 22 1010 55 10000 4.63 100 19:32 22.12.2021
6269 Clear 21 1011 68 10000 2.06 190 17:55 22.12.2021
6270 Clear 21 1011 72 10000 3.6 200 17:34 22.12.2021
6271 Clear 23 1010 71 10000 4.63 210 15:42 22.12.2021
6272 Clear 24 1010 65 10000 5.14 220 13:37 22.12.2021
6273 Clear 25 1010 63 10000 7.2 220 12:41 22.12.2021
6274 Clear 28 1009 49 10000 7.2 230 10:36 22.12.2021
6275 Clear 28 1009 49 10000 7.72 230 09:39 22.12.2021
6276 Clear 30 1011 47 10000 6.17 270 07:30 22.12.2021
6277 Clear 31 1010 40 10000 3.6 240 05:50 22.12.2021
6278 Clear 31 1012 42 10000 3.09 210 05:26 22.12.2021
6279 Clear 30 1011 41 10000 3.09 190 04:50 22.12.2021
6280 Clear 29 1012 44 10000 3.09 190 04:26 22.12.2021
6281 Clear 27 1012 48 10000 1.54 80 03:32 22.12.2021
6282 Clear 21 1015 65 10000 3.09 110 00:47 22.12.2021
6283 Clear 18 1013 77 10000 3.09 110 22:52 21.12.2021
6284 Clear 17 1013 81 10000 2.57 140 22:28 21.12.2021
6285 Clear 17 1013 81 10000 1.03 110 21:44 21.12.2021
6286 Clear 18 1012 77 10000 1.54 180 21:22 21.12.2021
6287 Clear 18 1012 82 10000 3.6 180 20:21 21.12.2021
6288 Clear 18 1012 87 10000 3.6 200 19:42 21.12.2021
6289 Clear 18 1011 89 10000 2.57 230 18:46 21.12.2021
6290 Clear 18 1011 88 10000 2.57 230 18:21 21.12.2021
6291 Clear 19 1011 87 10000 3.6 230 17:41 21.12.2021
6292 Clear 20 1012 83 10000 3.6 210 15:59 21.12.2021
6293 Clear 20 1012 82 10000 3.09 200 15:20 21.12.2021
6294 Clear 21 1012 82 10000 5.14 220 13:50 21.12.2021
6295 Clear 21 1011 79 10000 4.63 240 13:30 21.12.2021
6296 Clear 23 1011 67 10000 7.2 240 11:49 21.12.2021
6297 Clear 26 1010 60 10000 8.75 220 10:24 21.12.2021
6298 Clear 27 1009 56 10000 8.75 260 09:23 21.12.2021
6299 Clear 28 1011 51 10000 7.72 270 07:58 21.12.2021
6300 Clear 29 1011 48 10000 5.14 220 07:27 21.12.2021
6301 Clear 28 1011 52 10000 5.14 240 05:31 21.12.2021
6302 Clear 26 1012 48 10000 3.09 130 02:40 21.12.2021
6303 Clear 19 1013 75 10000 5.14 190 23:58 20.12.2021
6304 Clear 18 1013 79 10000 4.63 190 23:27 20.12.2021
6305 Clear 18 1013 82 10000 2.57 140 22:28 20.12.2021
6306 Clear 18 1012 84 10000 3.09 190 21:47 20.12.2021
6307 Rain 18 1012 86 10000 2.57 160 21:23 20.12.2021
6308 Clear 18 1012 85 10000 1.54 170 20:44 20.12.2021
6309 Clear 18 1013 85 10000 3.09 210 19:50 20.12.2021
6310 Clear 18 1013 86 10000 4.12 190 19:30 20.12.2021
6311 Clear 18 1013 85 10000 3.6 200 18:53 20.12.2021
6312 Clear 18 1013 85 10000 3.09 210 17:52 20.12.2021
6313 Clear 18 1013 85 10000 3.09 210 17:52 20.12.2021
6314 Rain 19 1013 83 10000 3.09 180 17:23 20.12.2021
6315 Clear 19 1014 80 10000 4.12 210 16:38 20.12.2021
6316 Clear 20 1014 78 10000 5.14 200 15:48 20.12.2021
6317 Rain 20 1014 73 10000 6.17 210 14:42 20.12.2021
6318 Clear 22 1014 63 10000 6.17 240 12:51 20.12.2021
6319 Clear 26 1013 45 10000 6.17 240 11:18 20.12.2021
6320 Clear 29 1014 36 10000 7.2 240 09:47 20.12.2021
6321 Clear 30 1014 31 10000 7.72 210 08:57 20.12.2021
6322 Clear 29 1014 35 10000 7.72 250 08:38 20.12.2021
6323 Clear 30 1014 37 10000 7.2 270 07:49 20.12.2021
6324 Clear 31 1015 35 10000 6.69 270 06:47 20.12.2021
6325 Clear 29 1017 38 10000 3.09 210 03:41 20.12.2021
6326 Rain 18 1017 76 10000 2.57 260 23:50 19.12.2021
6327 Clear 13 1017 88 10000 0.51 330 22:44 19.12.2021
6328 Clear 13 1017 89 10000 2.57 200 21:49 19.12.2021
6329 Clear 13 1016 88 10000 2.06 270 21:25 19.12.2021
6330 Clear 13 1016 90 10000 2.06 100 20:29 19.12.2021
6331 Clear 14 1016 90 10000 2.57 190 19:45 19.12.2021
6332 Clear 15 1016 87 10000 3.09 190 18:54 19.12.2021
6333 Clear 15 1016 86 10000 3.09 180 18:24 19.12.2021
6334 Clear 16 1017 84 10000 4.12 210 17:46 19.12.2021
6335 Clear 16 1017 82 10000 4.12 190 16:55 19.12.2021
6336 Clear 17 1017 78 10000 4.63 190 15:58 19.12.2021
6337 Clear 18 1017 77 10000 6.69 200 15:25 19.12.2021
6338 Clear 18 1017 74 10000 5.66 190 14:49 19.12.2021
6339 Clear 19 1016 69 10000 4.63 210 13:41 19.12.2021
6340 Clear 19 1016 67 10000 4.63 210 13:20 19.12.2021
6341 Clear 21 1016 55 10000 6.17 220 12:33 19.12.2021
6342 Clear 22 1016 46 10000 6.69 230 11:39 19.12.2021
6343 Clear 23 1016 43 10000 6.69 230 10:51 19.12.2021
6344 Clear 24 1016 43 10000 8.23 240 10:23 19.12.2021
6345 Clear 25 1017 47 10000 6.69 250 09:20 19.12.2021
6346 Clear 25 1017 45 10000 7.72 250 07:35 19.12.2021
6347 Clear 21 1018 52 10000 1.03 300 02:30 19.12.2021
6348 Clear 18 1019 65 10000 3.09 70 00:55 19.12.2021
6349 Clear 13 1019 89 10000 0 0 23:21 18.12.2021
6350 Clear 12 1018 90 10000 0 0 22:29 18.12.2021
6351 Clear 12 1018 89 10000 1.54 50 21:44 18.12.2021
6352 Clear 13 1018 87 10000 0 0 21:26 18.12.2021
6353 Clear 13 1017 85 10000 2.06 150 20:43 18.12.2021
6354 Clear 13 1017 85 10000 2.06 150 20:43 18.12.2021
6355 Clouds 15 1017 80 10000 4.63 190 19:40 18.12.2021
6356 Clouds 16 1017 78 10000 4.12 190 18:26 18.12.2021
6357 Clouds 17 1018 78 10000 6.17 180 17:49 18.12.2021
6358 Clouds 17 1017 80 10000 4.63 190 16:55 18.12.2021
6359 Clouds 18 1017 83 10000 3.09 180 16:21 18.12.2021
6360 Clouds 18 1017 87 10000 2.57 180 15:25 18.12.2021
6361 Clouds 18 1016 87 10000 4.63 210 14:19 18.12.2021
6362 Clouds 20 1014 73 10000 6.69 230 11:59 18.12.2021
6363 Clouds 22 1014 65 10000 7.72 260 09:59 18.12.2021
6364 Clouds 22 1014 64 10000 7.2 280 09:32 18.12.2021
6365 Clouds 23 1014 60 10000 9.77 250 08:36 18.12.2021
6366 Clouds 23 1013 63 10000 8.75 270 07:41 18.12.2021
6367 Clouds 21 1013 62 10000 7.2 280 01:46 18.12.2021
6368 Clouds 19 1011 68 10000 4.12 280 23:51 17.12.2021
6369 Clouds 18 1011 68 10000 4.12 290 22:40 17.12.2021
6370 Clear 18 1011 67 10000 3.6 300 21:49 17.12.2021
6371 Clear 18 1010 66 10000 3.09 300 20:44 17.12.2021
6372 Clouds 17 1011 65 10000 3.6 280 19:57 17.12.2021
6373 Clouds 17 1011 67 10000 3.6 280 18:40 17.12.2021
6374 Drizzle 18 1011 68 10000 3.09 300 17:59 17.12.2021
6375 Clouds 18 1011 70 10000 2.57 330 16:53 17.12.2021
6376 Clear 17 1011 71 10000 2.57 310 16:27 17.12.2021
6377 Clear 17 1011 71 10000 3.09 300 15:38 17.12.2021
6378 Clouds 17 1011 68 10000 2.57 280 14:42 17.12.2021
6379 Clouds 18 1011 66 10000 2.57 270 13:51 17.12.2021
6380 Clouds 19 1011 61 10000 5.14 250 12:36 17.12.2021
6381 Clouds 20 1010 56 10000 7.2 260 10:42 17.12.2021
6382 Clouds 21 1011 52 10000 7.72 250 09:47 17.12.2021
6383 Clouds 22 1011 49 10000 8.23 250 08:32 17.12.2021
6384 Clouds 22 1011 49 10000 8.23 250 07:30 17.12.2021
6385 Clouds 22 1011 53 10000 8.75 250 04:40 17.12.2021
6386 Rain 18 1008 84 10000 5.14 260 00:28 17.12.2021
6387 Rain 17 1007 90 10000 4.63 300 22:25 16.12.2021
6388 Rain 17 1007 86 10000 3.6 320 21:54 16.12.2021
6389 Clouds 17 1006 80 10000 3.09 30 21:36 16.12.2021
6390 Clouds 17 1006 81 10000 3.09 60 20:40 16.12.2021
6391 Clouds 17 1006 80 10000 4.63 290 19:51 16.12.2021
6392 Clouds 18 1007 79 10000 3.6 320 18:42 16.12.2021
6393 Clouds 18 1007 80 10000 3.6 320 18:22 16.12.2021
6394 Clouds 18 1007 77 10000 3.09 310 17:32 16.12.2021
6395 Clouds 18 1008 77 10000 3.09 300 16:23 16.12.2021
6396 Clouds 18 1008 75 10000 3.6 290 15:20 16.12.2021
6397 Clouds 19 1008 71 10000 5.14 260 13:43 16.12.2021
6398 Clouds 20 1008 67 10000 7.2 260 11:46 16.12.2021
6399 Rain 20 1007 65 10000 8.23 250 11:18 16.12.2021
6400 Clouds 21 1006 64 10000 6.69 260 10:27 16.12.2021
6401 Clouds 19 1006 82 10000 8.23 250 08:37 16.12.2021
6402 Clouds 23 1006 59 10000 8.23 250 06:22 16.12.2021
6403 Clear 23 1006 47 10000 4.12 300 02:54 16.12.2021
6404 Clear 16 1006 77 10000 0.51 80 23:35 15.12.2021
6405 Clear 14 1006 87 10000 3.09 120 22:48 15.12.2021
6406 Clouds 14 1006 87 10000 2.57 120 21:57 15.12.2021
6407 Clear 14 1006 87 10000 2.57 170 21:27 15.12.2021
6408 Rain 15 1006 83 10000 2.57 180 20:19 15.12.2021
6409 Clear 15 1007 82 10000 0.51 100 19:51 15.12.2021
6410 Clear 16 1007 79 10000 3.09 200 18:38 15.12.2021
6411 Clear 17 1007 79 10000 3.09 220 17:55 15.12.2021
6412 Clear 17 1007 78 10000 3.09 180 17:36 15.12.2021
6413 Clear 18 1008 75 10000 4.12 200 16:28 15.12.2021
6414 Clear 19 1008 72 10000 4.63 210 15:47 15.12.2021
6415 Clear 19 1008 70 10000 6.69 210 15:27 15.12.2021
6416 Clear 20 1008 67 10000 6.17 210 14:29 15.12.2021
6417 Clouds 21 1008 63 10000 5.14 200 12:46 15.12.2021
6418 Clear 25 1008 47 10000 9.26 210 10:42 15.12.2021
6419 Clear 26 1008 47 10000 8.75 220 08:55 15.12.2021
6420 Clear 27 1009 44 10000 8.23 230 07:25 15.12.2021
6421 Clear 21 1014 54 10000 6.17 110 01:20 15.12.2021
6422 Clear 17 1014 67 10000 5.66 110 23:42 14.12.2021
6423 Clear 15 1015 73 10000 1.03 60 22:49 14.12.2021
6424 Clear 14 1014 73 10000 3.09 100 22:24 14.12.2021
6425 Clear 14 1014 66 10000 4.63 200 20:29 14.12.2021
6426 Clear 14 1014 67 10000 5.14 200 19:43 14.12.2021
6427 Clear 14 1014 66 10000 4.63 200 19:19 14.12.2021
6428 Clear 15 1014 67 10000 4.63 200 18:25 14.12.2021
6429 Clear 15 1014 69 10000 4.63 210 17:30 14.12.2021
6430 Clear 16 1014 69 10000 4.12 210 16:39 14.12.2021
6431 Clear 17 1014 66 10000 5.66 200 15:36 14.12.2021
6432 Clear 18 1013 64 10000 8.23 210 13:31 14.12.2021
6433 Clear 20 1012 61 10000 8.75 220 11:59 14.12.2021
6434 Clear 20 1012 57 10000 9.26 220 11:24 14.12.2021
6435 Clear 22 1011 51 10000 9.26 230 09:57 14.12.2021
6436 Clear 23 1011 50 10000 10.29 230 09:35 14.12.2021
6437 Clear 24 1011 46 10000 8.75 230 08:25 14.12.2021
6438 Clear 24 1012 46 10000 8.23 230 07:43 14.12.2021
6439 Clouds 21 1014 50 10000 6.17 170 02:27 14.12.2021
6440 Clear 12 1014 78 10000 3.6 190 22:55 13.12.2021
6441 Clear 13 1013 75 10000 4.12 210 21:52 13.12.2021
6442 Clear 13 1013 75 10000 4.12 210 21:18 13.12.2021
6443 Clear 13 1012 75 10000 4.63 190 20:38 13.12.2021
6444 Clear 14 1012 72 10000 7.72 190 19:52 13.12.2021
6445 Clear 16 1012 67 10000 9.26 200 17:56 13.12.2021
6446 Clear 16 1012 69 10000 7.72 210 17:26 13.12.2021
6447 Clear 17 1011 71 10000 6.17 210 15:51 13.12.2021
6448 Clear 17 1011 71 10000 7.2 210 15:19 13.12.2021
6449 Clear 18 1011 66 10000 6.69 210 13:39 13.12.2021
6450 Clear 19 1011 65 10000 7.2 220 12:46 13.12.2021
6451 Clear 20 1010 57 10000 8.75 230 11:54 13.12.2021
6452 Clear 21 1010 54 10000 8.75 210 11:35 13.12.2021
6453 Clear 21 1010 50 10000 9.26 220 10:43 13.12.2021
6454 Clear 24 1009 47 10000 8.75 230 08:57 13.12.2021
6455 Clear 25 1010 47 10000 8.23 240 07:46 13.12.2021
6456 Clear 26 1011 41 10000 3.09 290 05:35 13.12.2021
6457 Clear 17 1015 55 10000 9.26 70 00:43 13.12.2021
6458 Clear 14 1014 63 10000 8.75 90 22:22 12.12.2021
6459 Clear 14 1014 63 10000 4.12 110 21:35 12.12.2021
6460 Clear 16 1014 57 10000 5.14 100 19:40 12.12.2021
6461 Clear 16 1014 55 10000 0.51 120 18:35 12.12.2021
6462 Clear 16 1014 64 10000 4.12 200 17:25 12.12.2021
6463 Clear 17 1015 63 10000 3.6 200 16:27 12.12.2021
6464 Clear 18 1015 62 10000 4.12 210 15:41 12.12.2021
6465 Clear 18 1015 61 10000 4.12 210 15:22 12.12.2021
6466 Clear 19 1015 59 10000 6.17 210 14:30 12.12.2021
6467 Clear 19 1015 59 10000 6.17 210 14:30 12.12.2021
6468 Clear 20 1015 62 10000 8.75 210 12:56 12.12.2021
6469 Clear 20 1015 60 10000 7.72 220 12:26 12.12.2021
6470 Clear 21 1014 57 10000 8.23 220 11:43 12.12.2021
6471 Clear 22 1014 52 10000 9.77 230 10:56 12.12.2021
6472 Clear 22 1013 52 10000 8.75 230 10:22 12.12.2021
6473 Clear 23 1015 48 10000 7.2 250 08:53 12.12.2021
6474 Clear 24 1015 49 10000 6.69 280 07:31 12.12.2021
6475 Clear 24 1016 45 10000 3.6 170 05:56 12.12.2021
6476 Clear 23 1016 47 10000 2.06 130 04:55 12.12.2021
6477 Clouds 22 1017 52 10000 3.09 130 02:56 12.12.2021
6478 Clear 16 1017 79 10000 6.69 190 23:30 11.12.2021
6479 Clear 15 1016 82 10000 5.66 210 22:21 11.12.2021
6480 Clear 15 1016 80 10000 7.2 190 21:50 11.12.2021
6481 Clear 16 1014 77 10000 8.23 200 20:21 11.12.2021
6482 Clear 17 1014 74 10000 7.2 200 19:21 11.12.2021
6483 Clear 17 1014 74 10000 6.17 190 18:50 11.12.2021
6484 Clear 18 1014 75 10000 6.17 200 17:56 11.12.2021
6485 Clear 18 1014 73 10000 3.6 210 16:40 11.12.2021
6486 Clouds 18 1014 78 10000 3.6 190 15:46 11.12.2021
6487 Clouds 18 1014 77 10000 4.12 210 14:54 11.12.2021
6488 Clouds 19 1013 67 10000 6.69 210 12:41 11.12.2021
6489 Clouds 21 1012 63 10000 7.72 210 11:18 11.12.2021
6490 Clouds 23 1011 55 10000 7.72 240 09:45 11.12.2021
6491 Clouds 23 1013 58 10000 7.72 270 05:36 11.12.2021
6492 Clouds 20 1013 71 10000 2.57 190 00:50 11.12.2021
6493 Clouds 20 1012 72 10000 1.54 170 23:45 10.12.2021
6494 Clouds 19 1012 76 10000 2.57 180 23:18 10.12.2021
6495 Clouds 18 1011 77 10000 3.6 220 21:51 10.12.2021
6496 Clouds 18 1011 79 10000 4.63 240 20:35 10.12.2021
6497 Clouds 18 1011 79 10000 3.6 270 19:19 10.12.2021
6498 Clouds 19 1011 78 10000 3.6 270 17:54 10.12.2021
6499 Clouds 19 1012 77 10000 3.6 290 16:41 10.12.2021
6500 Clouds 19 1012 78 10000 3.6 270 15:47 10.12.2021
6501 Clouds 19 1012 78 10000 3.6 270 15:28 10.12.2021
6502 Clouds 19 1012 78 10000 3.6 270 14:56 10.12.2021
6503 Clouds 19 1012 77 10000 4.12 270 13:50 10.12.2021
6504 Clouds 19 1012 76 10000 4.12 270 13:18 10.12.2021
6505 Clouds 21 1011 70 10000 5.66 250 11:43 10.12.2021
6506 Clouds 21 1012 67 10000 6.17 250 11:19 10.12.2021
6507 Clouds 23 1011 61 10000 6.17 240 09:53 10.12.2021
6508 Clouds 24 1011 58 10000 7.72 270 08:23 10.12.2021
6509 Clouds 24 1011 52 10000 5.14 220 04:58 10.12.2021
6510 Clouds 22 1011 59 10000 6.69 250 02:44 10.12.2021
6511 Clouds 20 1009 72 10000 4.63 270 23:43 09.12.2021
6512 Clouds 20 1009 72 10000 3.6 260 22:44 09.12.2021
6513 Clouds 20 1009 73 10000 5.14 280 22:23 09.12.2021
6514 Clouds 20 1008 75 10000 4.63 260 21:40 09.12.2021
6515 Clouds 20 1008 79 10000 4.12 270 20:38 09.12.2021
6516 Clouds 20 1008 80 10000 4.63 270 19:46 09.12.2021
6517 Clouds 20 1008 80 10000 4.63 270 19:46 09.12.2021
6518 Clouds 20 1008 80 10000 4.12 280 19:20 09.12.2021
6519 Clouds 21 1008 80 10000 5.66 260 18:22 09.12.2021
6520 Clouds 21 1008 80 10000 5.66 250 17:48 09.12.2021
6521 Clouds 21 1008 81 10000 4.12 250 17:24 09.12.2021
6522 Clouds 21 1008 82 10000 3.6 250 16:41 09.12.2021
6523 Clouds 21 1008 83 10000 5.66 230 15:19 09.12.2021
6524 Clouds 21 1008 85 10000 5.14 240 14:36 09.12.2021
6525 Clear 23 1007 80 10000 3.6 270 12:48 09.12.2021
6526 Clear 25 1006 74 10000 3.09 270 12:24 09.12.2021
6527 Clear 27 1006 64 10000 4.63 250 10:40 09.12.2021
6528 Clear 31 1006 48 10000 5.14 260 07:53 09.12.2021
6529 Clear 35 1007 25 10000 6.69 10 03:58 09.12.2021
6530 Clear 29 1008 29 10000 6.69 50 00:26 09.12.2021
6531 Clear 28 1008 31 10000 7.2 50 23:37 08.12.2021
6532 Clear 27 1008 32 10000 6.69 50 22:57 08.12.2021
6533 Clear 27 1008 32 10000 6.17 50 22:36 08.12.2021
6534 Clear 27 1007 33 10000 6.69 60 21:38 08.12.2021
6535 Clear 28 1007 33 10000 6.17 50 20:50 08.12.2021
6536 Clear 29 1006 31 10000 5.66 50 19:57 08.12.2021
6537 Clear 29 1007 31 10000 5.66 50 19:20 08.12.2021
6538 Clear 30 1006 29 10000 6.17 40 18:22 08.12.2021
6539 Clear 31 1006 29 10000 5.14 40 16:55 08.12.2021
6540 Clear 31 1006 31 10000 4.63 60 15:42 08.12.2021
6541 Clear 31 1006 31 10000 4.63 60 15:22 08.12.2021
6542 Clear 33 1005 30 10000 3.6 110 13:26 08.12.2021
6543 Clear 37 1005 25 10000 6.17 80 10:45 08.12.2021
6544 Clear 38 1004 22 10000 7.2 70 09:58 08.12.2021
6545 Clear 39 1005 19 10000 8.75 80 08:34 08.12.2021
6546 Clear 38 1006 22 10000 9.26 40 06:22 08.12.2021
6547 Clouds 26 1009 42 10000 4.12 90 00:41 08.12.2021
6548 Clear 24 1009 45 10000 7.72 70 23:22 07.12.2021
6549 Clear 23 1009 46 10000 8.23 90 21:25 07.12.2021
6550 Clear 23 1008 45 10000 10.29 80 20:25 07.12.2021
6551 Clear 25 1008 41 10000 8.75 80 18:59 07.12.2021
6552 Clear 25 1007 39 10000 9.77 90 18:21 07.12.2021
6553 Clear 27 1008 35 10000 8.75 90 17:24 07.12.2021
6554 Clear 29 1007 33 10000 11.32 100 16:42 07.12.2021
6555 Clear 29 1007 32 10000 10.29 100 15:59 07.12.2021
6556 Clear 30 1007 33 10000 9.77 100 14:37 07.12.2021
6557 Clear 31 1007 32 10000 4.63 120 13:40 07.12.2021
6558 Clear 32 1007 31 10000 4.63 120 12:22 07.12.2021
6559 Clear 35 1006 26 10000 7.72 110 10:56 07.12.2021
6560 Clear 35 1007 26 10000 8.23 110 09:20 07.12.2021
6561 Clear 33 1008 30 10000 9.77 100 06:50 07.12.2021
6562 Clear 31 1009 33 10000 9.77 90 05:50 07.12.2021
6563 Clear 26 1012 43 10000 10.29 100 03:25 07.12.2021
6564 Clear 17 1013 63 10000 6.17 100 23:21 06.12.2021
6565 Clear 16 1013 65 10000 7.72 110 22:40 06.12.2021
6566 Clear 16 1013 65 10000 8.23 110 21:59 06.12.2021
6567 Clear 16 1013 65 10000 7.72 110 21:27 06.12.2021
6568 Clear 16 1013 67 10000 6.69 110 20:32 06.12.2021
6569 Clear 16 1013 66 10000 4.12 90 19:24 06.12.2021
6570 Clear 16 1012 65 10000 7.72 90 18:34 06.12.2021
6571 Clear 17 1012 63 10000 9.26 100 17:53 06.12.2021
6572 Clear 17 1012 63 10000 7.72 110 17:30 06.12.2021
6573 Clear 20 1012 54 10000 5.66 120 15:51 06.12.2021
6574 Clear 23 1011 47 10000 8.75 120 14:35 06.12.2021
6575 Clear 28 1010 36 10000 8.23 140 12:40 06.12.2021
6576 Clear 30 1009 31 10000 8.23 130 11:55 06.12.2021
6577 Clear 33 1010 23 10000 8.23 110 09:44 06.12.2021
6578 Clear 32 1010 25 10000 7.2 150 07:18 06.12.2021
6579 Clear 20 1015 55 10000 6.69 120 00:38 06.12.2021
6580 Clear 17 1014 69 10000 3.6 160 21:54 05.12.2021
6581 Clear 17 1014 67 10000 3.6 170 21:25 05.12.2021
6582 Clear 18 1013 63 10000 4.12 120 20:20 05.12.2021
6583 Clear 19 1013 60 10000 5.14 120 19:57 05.12.2021
6584 Clear 20 1013 58 10000 6.17 130 19:22 05.12.2021
6585 Clear 21 1012 56 10000 4.63 150 18:25 05.12.2021
6586 Clear 22 1013 55 10000 4.12 170 17:49 05.12.2021
6587 Clear 23 1012 54 10000 4.12 170 16:57 05.12.2021
6588 Clear 23 1012 52 10000 9.77 140 16:28 05.12.2021
6589 Clear 23 1012 52 10000 6.69 170 15:58 05.12.2021
6590 Clear 23 1012 59 10000 7.2 190 14:45 05.12.2021
6591 Clear 23 1011 58 10000 8.23 190 14:27 05.12.2021
6592 Clear 24 1011 59 10000 7.72 200 13:28 05.12.2021
6593 Clear 24 1011 55 10000 7.2 210 12:40 05.12.2021
6594 Clear 24 1011 54 10000 7.2 210 12:21 05.12.2021
6595 Clear 26 1011 46 10000 8.75 230 11:35 05.12.2021
6596 Clear 28 1010 37 10000 9.77 220 10:19 05.12.2021
6597 Clear 31 1011 30 10000 9.77 220 08:45 05.12.2021
6598 Clear 32 1013 34 10000 4.12 200 04:56 05.12.2021
6599 Clear 25 1014 45 10000 4.63 70 01:22 05.12.2021
6600 Clear 19 1013 58 10000 2.57 60 22:24 04.12.2021
6601 Clear 20 1013 56 10000 4.12 120 21:20 04.12.2021
6602 Clear 21 1013 53 10000 9.26 100 20:27 04.12.2021
6603 Clear 22 1013 52 10000 9.26 110 19:32 04.12.2021
6604 Clear 22 1013 49 10000 10.29 100 18:22 04.12.2021
6605 Clear 23 1014 44 10000 3.09 150 17:42 04.12.2021
6606 Clear 23 1014 44 10000 3.09 150 17:19 04.12.2021
6607 Clear 21 1014 57 10000 3.09 210 16:42 04.12.2021
6608 Clear 21 1014 61 10000 3.09 210 16:23 04.12.2021
6609 Clear 26 1013 50 10000 7.2 220 11:55 04.12.2021
6610 Clear 27 1012 46 10000 6.69 230 11:33 04.12.2021
6611 Clear 28 1012 44 10000 6.69 220 10:56 04.12.2021
6612 Clear 31 1012 37 10000 6.17 280 08:52 04.12.2021
6613 Clear 32 1015 31 10000 4.63 160 07:22 04.12.2021
6614 Clear 30 1016 35 10000 4.63 110 04:42 04.12.2021
6615 Clear 21 1018 57 10000 6.69 100 00:47 04.12.2021
6616 Clear 18 1019 65 10000 4.63 100 23:27 03.12.2021
6617 Clear 17 1019 67 10000 5.14 90 22:48 03.12.2021
6618 Clear 17 1019 66 10000 5.14 100 21:42 03.12.2021
6619 Clear 17 1018 65 10000 5.66 120 20:55 03.12.2021
6620 Clear 17 1018 63 10000 6.17 120 20:26 03.12.2021
6621 Clear 19 1018 57 10000 5.66 110 18:49 03.12.2021
6622 Clear 20 1017 55 10000 8.75 110 18:20 03.12.2021
6623 Clear 23 1018 49 10000 7.72 130 16:43 03.12.2021
6624 Clear 26 1016 39 10000 5.66 150 13:27 03.12.2021
6625 Clear 28 1015 35 10000 6.69 140 12:20 03.12.2021
6626 Clear 30 1014 31 10000 5.66 150 10:58 03.12.2021
6627 Clear 31 1014 29 10000 7.72 130 08:31 03.12.2021
6628 Clear 30 1014 30 10000 6.17 100 07:43 03.12.2021
6629 Clear 30 1014 30 10000 6.17 100 07:43 03.12.2021
6630 Clear 28 1016 35 10000 7.2 130 05:42 03.12.2021
6631 Clear 19 1019 52 10000 4.63 100 00:48 03.12.2021
6632 Clear 17 1019 58 10000 8.75 110 23:47 02.12.2021
6633 Clear 15 1018 63 10000 8.75 110 22:38 02.12.2021
6634 Clear 15 1019 64 10000 3.09 140 21:41 02.12.2021
6635 Clear 16 1019 63 10000 6.69 160 20:44 02.12.2021
6636 Clear 16 1019 63 10000 7.72 120 20:22 02.12.2021
6637 Clear 18 1018 60 10000 8.23 130 18:36 02.12.2021
6638 Clouds 19 1016 57 10000 7.72 130 16:35 02.12.2021
6639 Clear 19 1016 68 10000 6.69 190 15:41 02.12.2021
6640 Clear 19 1016 68 10000 6.69 190 15:41 02.12.2021
6641 Clear 19 1016 64 10000 7.72 190 14:52 02.12.2021
6642 Clear 20 1015 61 10000 8.75 190 13:36 02.12.2021
6643 Clear 21 1015 64 10000 6.69 200 12:23 02.12.2021
6644 Clear 23 1013 55 10000 8.23 250 10:42 02.12.2021
6645 Clear 25 1013 50 10000 8.75 250 09:26 02.12.2021
6646 Clear 27 1016 37 10000 3.6 160 06:59 02.12.2021
6647 Clouds 18 1019 60 10000 6.17 130 00:59 02.12.2021
6648 Clear 16 1019 68 10000 4.63 190 23:34 01.12.2021
6649 Clear 14 1018 73 10000 5.66 160 22:25 01.12.2021
6650 Clear 14 1018 72 10000 3.09 180 21:43 01.12